<?xml version='1.0' encoding='UTF-8'?><gpx version="1.1" creator="JPX - https://github.com/jenetics/jpx" xmlns="http://www.topografix.com/GPX/1/1"><trk><trkseg><trkpt lat="41.8511188" lon="12.5950177"><ele>67.0</ele><time>2026-05-03T05:59:55.748Z</time></trkpt><trkpt lat="41.8511869" lon="12.5950517"><ele>67.0</ele><time>2026-05-03T06:00:23.747Z</time></trkpt><trkpt lat="41.8512583" lon="12.595065"><ele>67.0</ele><time>2026-05-03T06:00:34.746Z</time></trkpt><trkpt lat="41.851355" lon="12.5950417"><ele>67.0</ele><time>2026-05-03T06:00:37.747Z</time></trkpt><trkpt lat="41.8514383" lon="12.5950017"><ele>67.0</ele><time>2026-05-03T06:00:40.746Z</time></trkpt><trkpt lat="41.8514983" lon="12.5949583"><ele>67.0</ele><time>2026-05-03T06:00:43.747Z</time></trkpt><trkpt lat="41.851565" lon="12.59489"><ele>67.0</ele><time>2026-05-03T06:00:46.747Z</time></trkpt><trkpt lat="41.85159" lon="12.594785"><ele>67.0</ele><time>2026-05-03T06:00:49.749Z</time></trkpt><trkpt lat="41.8515983" lon="12.59467"><ele>67.0</ele><time>2026-05-03T06:00:52.75Z</time></trkpt><trkpt lat="41.851595" lon="12.594585"><ele>67.0</ele><time>2026-05-03T06:00:55.746Z</time></trkpt><trkpt lat="41.8515783" lon="12.59448"><ele>67.0</ele><time>2026-05-03T06:00:58.748Z</time></trkpt><trkpt lat="41.8515833" lon="12.5943517"><ele>67.0</ele><time>2026-05-03T06:01:01.75Z</time></trkpt><trkpt lat="41.8516" lon="12.5942667"><ele>67.14285714285714</ele><time>2026-05-03T06:01:03.747Z</time></trkpt><trkpt lat="41.8516133" lon="12.59415"><ele>67.28571428571428</ele><time>2026-05-03T06:01:06.748Z</time></trkpt><trkpt lat="41.8516033" lon="12.594065"><ele>67.42857142857142</ele><time>2026-05-03T06:01:08.747Z</time></trkpt><trkpt lat="41.8515867" lon="12.5939767"><ele>67.57142857142857</ele><time>2026-05-03T06:01:10.747Z</time></trkpt><trkpt lat="41.851575" lon="12.593885"><ele>67.71428571428571</ele><time>2026-05-03T06:01:12.747Z</time></trkpt><trkpt lat="41.8515683" lon="12.593795"><ele>67.85714285714285</ele><time>2026-05-03T06:01:14.747Z</time></trkpt><trkpt lat="41.8515633" lon="12.593705"><ele>68.0</ele><time>2026-05-03T06:01:16.746Z</time></trkpt><trkpt lat="41.8515633" lon="12.5936133"><ele>68.71428571428571</ele><time>2026-05-03T06:01:18.747Z</time></trkpt><trkpt lat="41.8515567" lon="12.5935067"><ele>69.42857142857143</ele><time>2026-05-03T06:01:20.747Z</time></trkpt><trkpt lat="41.8515733" lon="12.59342"><ele>70.14285714285714</ele><time>2026-05-03T06:01:22.747Z</time></trkpt><trkpt lat="41.8516217" lon="12.5933517"><ele>70.85714285714286</ele><time>2026-05-03T06:01:24.748Z</time></trkpt><trkpt lat="41.8516867" lon="12.5933283"><ele>71.57142857142857</ele><time>2026-05-03T06:01:26.752Z</time></trkpt><trkpt lat="41.85176" lon="12.5933117"><ele>72.28571428571428</ele><time>2026-05-03T06:01:28.747Z</time></trkpt><trkpt lat="41.8518383" lon="12.593295"><ele>73.0</ele><time>2026-05-03T06:01:30.751Z</time></trkpt><trkpt lat="41.8519183" lon="12.5932767"><ele>73.16666666666666</ele><time>2026-05-03T06:01:32.75Z</time></trkpt><trkpt lat="41.8520033" lon="12.593265"><ele>73.33333333333333</ele><time>2026-05-03T06:01:34.749Z</time></trkpt><trkpt lat="41.8520933" lon="12.593255"><ele>73.5</ele><time>2026-05-03T06:01:36.748Z</time></trkpt><trkpt lat="41.8521833" lon="12.5932467"><ele>73.66666666666667</ele><time>2026-05-03T06:01:38.749Z</time></trkpt><trkpt lat="41.8522683" lon="12.593235"><ele>73.83333333333334</ele><time>2026-05-03T06:01:40.749Z</time></trkpt><trkpt lat="41.8523467" lon="12.5932133"><ele>74.0</ele><time>2026-05-03T06:01:42.749Z</time></trkpt><trkpt lat="41.8524283" lon="12.5931983"><ele>74.0</ele><time>2026-05-03T06:01:44.749Z</time></trkpt><trkpt lat="41.852515" lon="12.5931833"><ele>74.0</ele><time>2026-05-03T06:01:46.747Z</time></trkpt><trkpt lat="41.8525917" lon="12.5931533"><ele>74.0</ele><time>2026-05-03T06:01:48.748Z</time></trkpt><trkpt lat="41.8526733" lon="12.5931317"><ele>74.0</ele><time>2026-05-03T06:01:50.747Z</time></trkpt><trkpt lat="41.8527483" lon="12.5931117"><ele>74.0</ele><time>2026-05-03T06:01:52.746Z</time></trkpt><trkpt lat="41.852835" lon="12.5930783"><ele>74.0</ele><time>2026-05-03T06:01:54.75Z</time></trkpt><trkpt lat="41.852925" lon="12.5930667"><ele>73.5</ele><time>2026-05-03T06:01:56.75Z</time></trkpt><trkpt lat="41.8530117" lon="12.5930533"><ele>73.0</ele><time>2026-05-03T06:01:58.752Z</time></trkpt><trkpt lat="41.853095" lon="12.5930233"><ele>72.5</ele><time>2026-05-03T06:02:00.748Z</time></trkpt><trkpt lat="41.8531733" lon="12.5929717"><ele>72.0</ele><time>2026-05-03T06:02:02.747Z</time></trkpt><trkpt lat="41.853225" lon="12.5928833"><ele>71.5</ele><time>2026-05-03T06:02:04.748Z</time></trkpt><trkpt lat="41.8532367" lon="12.5927767"><ele>71.0</ele><time>2026-05-03T06:02:06.747Z</time></trkpt><trkpt lat="41.8532317" lon="12.5926683"><ele>71.0</ele><time>2026-05-03T06:02:08.747Z</time></trkpt><trkpt lat="41.8532333" lon="12.5925467"><ele>71.0</ele><time>2026-05-03T06:02:10.747Z</time></trkpt><trkpt lat="41.85325" lon="12.5924317"><ele>71.0</ele><time>2026-05-03T06:02:12.748Z</time></trkpt><trkpt lat="41.8532483" lon="12.5923017"><ele>71.0</ele><time>2026-05-03T06:02:14.747Z</time></trkpt><trkpt lat="41.85323" lon="12.5921717"><ele>71.0</ele><time>2026-05-03T06:02:16.748Z</time></trkpt><trkpt lat="41.8532083" lon="12.592035"><ele>70.6</ele><time>2026-05-03T06:02:18.75Z</time></trkpt><trkpt lat="41.853185" lon="12.591905"><ele>70.19999999999999</ele><time>2026-05-03T06:02:20.749Z</time></trkpt><trkpt lat="41.8531483" lon="12.59177"><ele>69.80000000000001</ele><time>2026-05-03T06:02:22.75Z</time></trkpt><trkpt lat="41.8531133" lon="12.5916367"><ele>69.4</ele><time>2026-05-03T06:02:24.749Z</time></trkpt><trkpt lat="41.8530917" lon="12.5915033"><ele>69.0</ele><time>2026-05-03T06:02:26.748Z</time></trkpt><trkpt lat="41.8530683" lon="12.5913733"><ele>69.0</ele><time>2026-05-03T06:02:28.75Z</time></trkpt><trkpt lat="41.853055" lon="12.591275"><ele>69.0</ele><time>2026-05-03T06:02:30.747Z</time></trkpt><trkpt lat="41.85304" lon="12.59117"><ele>69.0</ele><time>2026-05-03T06:02:32.748Z</time></trkpt><trkpt lat="41.8530417" lon="12.5910783"><ele>69.0</ele><time>2026-05-03T06:02:33.748Z</time></trkpt><trkpt lat="41.853015" lon="12.5909617"><ele>69.0</ele><time>2026-05-03T06:02:35.747Z</time></trkpt><trkpt lat="41.85299" lon="12.590855"><ele>69.0</ele><time>2026-05-03T06:02:37.75Z</time></trkpt><trkpt lat="41.853" lon="12.5907567"><ele>68.66666666666667</ele><time>2026-05-03T06:02:39.749Z</time></trkpt><trkpt lat="41.8530233" lon="12.59066"><ele>68.33333333333333</ele><time>2026-05-03T06:02:41.749Z</time></trkpt><trkpt lat="41.8530767" lon="12.5905883"><ele>68.0</ele><time>2026-05-03T06:02:43.75Z</time></trkpt><trkpt lat="41.8531583" lon="12.5905667"><ele>67.66666666666666</ele><time>2026-05-03T06:02:45.748Z</time></trkpt><trkpt lat="41.8532433" lon="12.59056"><ele>67.33333333333333</ele><time>2026-05-03T06:02:47.748Z</time></trkpt><trkpt lat="41.8533283" lon="12.5905417"><ele>67.0</ele><time>2026-05-03T06:02:49.75Z</time></trkpt><trkpt lat="41.8534067" lon="12.5905233"><ele>67.66666666666666</ele><time>2026-05-03T06:02:51.746Z</time></trkpt><trkpt lat="41.8534833" lon="12.590495"><ele>68.33333333333333</ele><time>2026-05-03T06:02:53.748Z</time></trkpt><trkpt lat="41.8535583" lon="12.5904783"><ele>69.0</ele><time>2026-05-03T06:02:55.746Z</time></trkpt><trkpt lat="41.8536283" lon="12.5904467"><ele>69.66666666666667</ele><time>2026-05-03T06:02:57.749Z</time></trkpt><trkpt lat="41.853705" lon="12.59041"><ele>70.33333333333334</ele><time>2026-05-03T06:02:59.749Z</time></trkpt><trkpt lat="41.853785" lon="12.5903817"><ele>71.0</ele><time>2026-05-03T06:03:01.75Z</time></trkpt><trkpt lat="41.8538667" lon="12.5903767"><ele>71.0</ele><time>2026-05-03T06:03:03.747Z</time></trkpt><trkpt lat="41.8539417" lon="12.5903617"><ele>71.0</ele><time>2026-05-03T06:03:05.747Z</time></trkpt><trkpt lat="41.8540217" lon="12.590345"><ele>71.0</ele><time>2026-05-03T06:03:07.75Z</time></trkpt><trkpt lat="41.8541033" lon="12.5903383"><ele>71.0</ele><time>2026-05-03T06:03:09.748Z</time></trkpt><trkpt lat="41.8541883" lon="12.5903467"><ele>71.0</ele><time>2026-05-03T06:03:11.749Z</time></trkpt><trkpt lat="41.8542667" lon="12.59034"><ele>71.0</ele><time>2026-05-03T06:03:13.748Z</time></trkpt><trkpt lat="41.8543433" lon="12.5903383"><ele>70.16666666666667</ele><time>2026-05-03T06:03:15.75Z</time></trkpt><trkpt lat="41.8544183" lon="12.59034"><ele>69.33333333333334</ele><time>2026-05-03T06:03:17.75Z</time></trkpt><trkpt lat="41.8544917" lon="12.59035"><ele>68.5</ele><time>2026-05-03T06:03:19.749Z</time></trkpt><trkpt lat="41.8545617" lon="12.590355"><ele>67.66666666666667</ele><time>2026-05-03T06:03:21.749Z</time></trkpt><trkpt lat="41.8546417" lon="12.5903617"><ele>66.83333333333333</ele><time>2026-05-03T06:03:23.749Z</time></trkpt><trkpt lat="41.8547183" lon="12.5903817"><ele>66.0</ele><time>2026-05-03T06:03:25.749Z</time></trkpt><trkpt lat="41.8547933" lon="12.5904167"><ele>66.0</ele><time>2026-05-03T06:03:27.748Z</time></trkpt><trkpt lat="41.854865" lon="12.59044"><ele>66.0</ele><time>2026-05-03T06:03:29.75Z</time></trkpt><trkpt lat="41.85494" lon="12.5904567"><ele>66.0</ele><time>2026-05-03T06:03:31.751Z</time></trkpt><trkpt lat="41.855015" lon="12.5904783"><ele>66.0</ele><time>2026-05-03T06:03:33.749Z</time></trkpt><trkpt lat="41.8550933" lon="12.5904933"><ele>66.0</ele><time>2026-05-03T06:03:35.748Z</time></trkpt><trkpt lat="41.85518" lon="12.590505"><ele>66.0</ele><time>2026-05-03T06:03:37.748Z</time></trkpt><trkpt lat="41.8552617" lon="12.59051"><ele>65.33333333333333</ele><time>2026-05-03T06:03:39.75Z</time></trkpt><trkpt lat="41.8553333" lon="12.590495"><ele>64.66666666666667</ele><time>2026-05-03T06:03:41.751Z</time></trkpt><trkpt lat="41.85541" lon="12.59048"><ele>64.0</ele><time>2026-05-03T06:03:43.751Z</time></trkpt><trkpt lat="41.8554833" lon="12.5904633"><ele>63.333333333333336</ele><time>2026-05-03T06:03:45.751Z</time></trkpt><trkpt lat="41.85556" lon="12.5904517"><ele>62.66666666666667</ele><time>2026-05-03T06:03:47.749Z</time></trkpt><trkpt lat="41.8556367" lon="12.590455"><ele>62.0</ele><time>2026-05-03T06:03:49.75Z</time></trkpt><trkpt lat="41.85571" lon="12.5904633"><ele>62.00000000000001</ele><time>2026-05-03T06:03:51.751Z</time></trkpt><trkpt lat="41.8557833" lon="12.5904683"><ele>62.0</ele><time>2026-05-03T06:03:53.751Z</time></trkpt><trkpt lat="41.8558633" lon="12.5904733"><ele>62.0</ele><time>2026-05-03T06:03:55.748Z</time></trkpt><trkpt lat="41.8559433" lon="12.59048"><ele>62.0</ele><time>2026-05-03T06:03:57.75Z</time></trkpt><trkpt lat="41.8560233" lon="12.5904933"><ele>62.00000000000001</ele><time>2026-05-03T06:03:59.748Z</time></trkpt><trkpt lat="41.8561033" lon="12.5905117"><ele>62.0</ele><time>2026-05-03T06:04:01.75Z</time></trkpt><trkpt lat="41.856185" lon="12.590525"><ele>61.400000000000006</ele><time>2026-05-03T06:04:03.751Z</time></trkpt><trkpt lat="41.856275" lon="12.590545"><ele>60.800000000000004</ele><time>2026-05-03T06:04:05.75Z</time></trkpt><trkpt lat="41.8563667" lon="12.5905733"><ele>60.2</ele><time>2026-05-03T06:04:07.75Z</time></trkpt><trkpt lat="41.856455" lon="12.5906067"><ele>59.6</ele><time>2026-05-03T06:04:09.75Z</time></trkpt><trkpt lat="41.8565417" lon="12.5906367"><ele>59.0</ele><time>2026-05-03T06:04:11.751Z</time></trkpt><trkpt lat="41.8566283" lon="12.59067"><ele>59.0</ele><time>2026-05-03T06:04:13.748Z</time></trkpt><trkpt lat="41.8567167" lon="12.5907017"><ele>59.0</ele><time>2026-05-03T06:04:15.748Z</time></trkpt><trkpt lat="41.8568033" lon="12.59073"><ele>59.0</ele><time>2026-05-03T06:04:17.751Z</time></trkpt><trkpt lat="41.85689" lon="12.5907683"><ele>59.0</ele><time>2026-05-03T06:04:19.751Z</time></trkpt><trkpt lat="41.8570833" lon="12.5908333"><ele>59.50000000000001</ele><time>2026-05-03T06:04:23.636Z</time></trkpt><trkpt lat="41.8571667" lon="12.5908833"><ele>60.0</ele><time>2026-05-03T06:04:25.748Z</time></trkpt><trkpt lat="41.85724" lon="12.5909183"><ele>60.5</ele><time>2026-05-03T06:04:27.748Z</time></trkpt><trkpt lat="41.8573133" lon="12.5909583"><ele>61.0</ele><time>2026-05-03T06:04:29.747Z</time></trkpt><trkpt lat="41.8573933" lon="12.5910017"><ele>61.50000000000001</ele><time>2026-05-03T06:04:31.747Z</time></trkpt><trkpt lat="41.8574783" lon="12.5910383"><ele>62.0</ele><time>2026-05-03T06:04:33.747Z</time></trkpt><trkpt lat="41.8575633" lon="12.59107"><ele>62.400000000000006</ele><time>2026-05-03T06:04:35.748Z</time></trkpt><trkpt lat="41.85765" lon="12.59111"><ele>62.800000000000004</ele><time>2026-05-03T06:04:37.748Z</time></trkpt><trkpt lat="41.857785" lon="12.5911583"><ele>63.2</ele><time>2026-05-03T06:04:40.748Z</time></trkpt><trkpt lat="41.8578767" lon="12.5912"><ele>63.6</ele><time>2026-05-03T06:04:42.748Z</time></trkpt><trkpt lat="41.8579667" lon="12.5912533"><ele>64.0</ele><time>2026-05-03T06:04:44.748Z</time></trkpt><trkpt lat="41.8580567" lon="12.5913067"><ele>64.0</ele><time>2026-05-03T06:04:46.748Z</time></trkpt><trkpt lat="41.858145" lon="12.5913567"><ele>64.0</ele><time>2026-05-03T06:04:48.748Z</time></trkpt><trkpt lat="41.8582333" lon="12.5914"><ele>64.0</ele><time>2026-05-03T06:04:50.748Z</time></trkpt><trkpt lat="41.858325" lon="12.5914333"><ele>64.0</ele><time>2026-05-03T06:04:52.747Z</time></trkpt><trkpt lat="41.8584133" lon="12.5914717"><ele>64.0</ele><time>2026-05-03T06:04:54.748Z</time></trkpt><trkpt lat="41.8584933" lon="12.5915233"><ele>63.49999999999999</ele><time>2026-05-03T06:04:56.747Z</time></trkpt><trkpt lat="41.8585633" lon="12.5915967"><ele>63.0</ele><time>2026-05-03T06:04:58.748Z</time></trkpt><trkpt lat="41.8586017" lon="12.5917017"><ele>62.5</ele><time>2026-05-03T06:05:00.755Z</time></trkpt><trkpt lat="41.8586" lon="12.59182"><ele>62.0</ele><time>2026-05-03T06:05:02.747Z</time></trkpt><trkpt lat="41.8585767" lon="12.5919317"><ele>61.49999999999999</ele><time>2026-05-03T06:05:04.748Z</time></trkpt><trkpt lat="41.8585433" lon="12.5920433"><ele>61.0</ele><time>2026-05-03T06:05:06.748Z</time></trkpt><trkpt lat="41.8585117" lon="12.59216"><ele>60.99999999999999</ele><time>2026-05-03T06:05:08.748Z</time></trkpt><trkpt lat="41.858485" lon="12.5922783"><ele>61.0</ele><time>2026-05-03T06:05:10.748Z</time></trkpt><trkpt lat="41.8584617" lon="12.592395"><ele>61.0</ele><time>2026-05-03T06:05:12.748Z</time></trkpt><trkpt lat="41.8584383" lon="12.5925083"><ele>61.0</ele><time>2026-05-03T06:05:14.748Z</time></trkpt><trkpt lat="41.8584133" lon="12.5926183"><ele>60.99999999999999</ele><time>2026-05-03T06:05:16.748Z</time></trkpt><trkpt lat="41.8583817" lon="12.5927317"><ele>61.0</ele><time>2026-05-03T06:05:18.748Z</time></trkpt><trkpt lat="41.8583533" lon="12.592845"><ele>61.166666666666664</ele><time>2026-05-03T06:05:20.748Z</time></trkpt><trkpt lat="41.8583267" lon="12.59296"><ele>61.33333333333333</ele><time>2026-05-03T06:05:22.749Z</time></trkpt><trkpt lat="41.8583033" lon="12.59307"><ele>61.5</ele><time>2026-05-03T06:05:24.75Z</time></trkpt><trkpt lat="41.8582833" lon="12.5931783"><ele>61.66666666666667</ele><time>2026-05-03T06:05:26.75Z</time></trkpt><trkpt lat="41.8582583" lon="12.5932817"><ele>61.833333333333336</ele><time>2026-05-03T06:05:28.75Z</time></trkpt><trkpt lat="41.8582383" lon="12.5933883"><ele>62.0</ele><time>2026-05-03T06:05:30.75Z</time></trkpt><trkpt lat="41.8582183" lon="12.5934917"><ele>62.00000000000001</ele><time>2026-05-03T06:05:32.748Z</time></trkpt><trkpt lat="41.8581967" lon="12.5935983"><ele>62.0</ele><time>2026-05-03T06:05:34.748Z</time></trkpt><trkpt lat="41.858175" lon="12.593705"><ele>62.0</ele><time>2026-05-03T06:05:36.749Z</time></trkpt><trkpt lat="41.8581467" lon="12.5938133"><ele>62.0</ele><time>2026-05-03T06:05:38.747Z</time></trkpt><trkpt lat="41.858115" lon="12.5939183"><ele>62.00000000000001</ele><time>2026-05-03T06:05:40.746Z</time></trkpt><trkpt lat="41.8580817" lon="12.5940183"><ele>62.0</ele><time>2026-05-03T06:05:42.748Z</time></trkpt><trkpt lat="41.858045" lon="12.5941217"><ele>62.400000000000006</ele><time>2026-05-03T06:05:44.751Z</time></trkpt><trkpt lat="41.8580067" lon="12.5942233"><ele>62.800000000000004</ele><time>2026-05-03T06:05:46.751Z</time></trkpt><trkpt lat="41.8579633" lon="12.5943317"><ele>63.2</ele><time>2026-05-03T06:05:48.747Z</time></trkpt><trkpt lat="41.85792" lon="12.5944483"><ele>63.6</ele><time>2026-05-03T06:05:50.748Z</time></trkpt><trkpt lat="41.8578767" lon="12.5945717"><ele>64.0</ele><time>2026-05-03T06:05:52.75Z</time></trkpt><trkpt lat="41.857835" lon="12.5946933"><ele>63.2</ele><time>2026-05-03T06:05:54.75Z</time></trkpt><trkpt lat="41.8577933" lon="12.5948167"><ele>62.400000000000006</ele><time>2026-05-03T06:05:56.751Z</time></trkpt><trkpt lat="41.8577433" lon="12.594945"><ele>61.6</ele><time>2026-05-03T06:05:58.75Z</time></trkpt><trkpt lat="41.8576917" lon="12.5950733"><ele>60.8</ele><time>2026-05-03T06:06:00.75Z</time></trkpt><trkpt lat="41.85764" lon="12.5952033"><ele>60.0</ele><time>2026-05-03T06:06:02.752Z</time></trkpt><trkpt lat="41.857585" lon="12.5953467"><ele>60.0</ele><time>2026-05-03T06:06:04.747Z</time></trkpt><trkpt lat="41.85753" lon="12.5955"><ele>60.0</ele><time>2026-05-03T06:06:06.751Z</time></trkpt><trkpt lat="41.8575" lon="12.5955817"><ele>60.0</ele><time>2026-05-03T06:06:07.75Z</time></trkpt><trkpt lat="41.8574717" lon="12.595665"><ele>60.0</ele><time>2026-05-03T06:06:08.75Z</time></trkpt><trkpt lat="41.8574433" lon="12.5957517"><ele>60.0</ele><time>2026-05-03T06:06:09.749Z</time></trkpt><trkpt lat="41.8574133" lon="12.5958383"><ele>60.0</ele><time>2026-05-03T06:06:10.753Z</time></trkpt><trkpt lat="41.8573817" lon="12.595925"><ele>60.0</ele><time>2026-05-03T06:06:11.749Z</time></trkpt><trkpt lat="41.8573483" lon="12.5960167"><ele>60.0</ele><time>2026-05-03T06:06:12.75Z</time></trkpt><trkpt lat="41.8573183" lon="12.5961117"><ele>60.0</ele><time>2026-05-03T06:06:13.75Z</time></trkpt><trkpt lat="41.8572917" lon="12.5962117"><ele>60.0</ele><time>2026-05-03T06:06:14.75Z</time></trkpt><trkpt lat="41.8572617" lon="12.5963133"><ele>60.0</ele><time>2026-05-03T06:06:15.751Z</time></trkpt><trkpt lat="41.8572267" lon="12.5964117"><ele>60.0</ele><time>2026-05-03T06:06:16.75Z</time></trkpt><trkpt lat="41.8571967" lon="12.5965133"><ele>59.833333333333336</ele><time>2026-05-03T06:06:17.752Z</time></trkpt><trkpt lat="41.8571683" lon="12.5966167"><ele>59.66666666666667</ele><time>2026-05-03T06:06:18.75Z</time></trkpt><trkpt lat="41.8571417" lon="12.596715"><ele>59.5</ele><time>2026-05-03T06:06:19.75Z</time></trkpt><trkpt lat="41.8571183" lon="12.596805"><ele>59.333333333333336</ele><time>2026-05-03T06:06:20.751Z</time></trkpt><trkpt lat="41.8570967" lon="12.5968883"><ele>59.16666666666667</ele><time>2026-05-03T06:06:21.748Z</time></trkpt><trkpt lat="41.8570733" lon="12.5969683"><ele>59.0</ele><time>2026-05-03T06:06:22.749Z</time></trkpt><trkpt lat="41.8570033" lon="12.5970867"><ele>59.0</ele><time>2026-05-03T06:06:24.747Z</time></trkpt><trkpt lat="41.856915" lon="12.5971617"><ele>59.00000000000001</ele><time>2026-05-03T06:06:26.747Z</time></trkpt><trkpt lat="41.8568283" lon="12.5972467"><ele>59.00000000000001</ele><time>2026-05-03T06:06:28.747Z</time></trkpt><trkpt lat="41.8567617" lon="12.5973617"><ele>59.0</ele><time>2026-05-03T06:06:30.747Z</time></trkpt><trkpt lat="41.8567217" lon="12.5975"><ele>59.0</ele><time>2026-05-03T06:06:32.751Z</time></trkpt><trkpt lat="41.8566833" lon="12.5976483"><ele>59.0</ele><time>2026-05-03T06:06:34.75Z</time></trkpt><trkpt lat="41.8566217" lon="12.5977817"><ele>59.0</ele><time>2026-05-03T06:06:36.749Z</time></trkpt><trkpt lat="41.8565433" lon="12.5979067"><ele>59.0</ele><time>2026-05-03T06:06:38.748Z</time></trkpt><trkpt lat="41.856475" lon="12.598035"><ele>59.0</ele><time>2026-05-03T06:06:40.748Z</time></trkpt><trkpt lat="41.85641" lon="12.5981683"><ele>59.0</ele><time>2026-05-03T06:06:42.749Z</time></trkpt><trkpt lat="41.85633" lon="12.598275"><ele>59.00000000000001</ele><time>2026-05-03T06:06:44.748Z</time></trkpt><trkpt lat="41.8562467" lon="12.5983917"><ele>59.00000000000001</ele><time>2026-05-03T06:06:46.748Z</time></trkpt><trkpt lat="41.85618" lon="12.5985167"><ele>59.0</ele><time>2026-05-03T06:06:48.748Z</time></trkpt><trkpt lat="41.856165" lon="12.5986517"><ele>59.0</ele><time>2026-05-03T06:06:50.747Z</time></trkpt><trkpt lat="41.8561483" lon="12.5988133"><ele>59.0</ele><time>2026-05-03T06:06:52.747Z</time></trkpt><trkpt lat="41.8561167" lon="12.598895"><ele>59.00000000000001</ele><time>2026-05-03T06:06:53.748Z</time></trkpt><trkpt lat="41.8560517" lon="12.5990433"><ele>59.00000000000001</ele><time>2026-05-03T06:06:55.748Z</time></trkpt><trkpt lat="41.855985" lon="12.599175"><ele>59.0</ele><time>2026-05-03T06:06:57.748Z</time></trkpt><trkpt lat="41.8559217" lon="12.5992967"><ele>59.0</ele><time>2026-05-03T06:06:59.748Z</time></trkpt><trkpt lat="41.855855" lon="12.5994067"><ele>59.2</ele><time>2026-05-03T06:07:01.747Z</time></trkpt><trkpt lat="41.8557833" lon="12.5995117"><ele>59.400000000000006</ele><time>2026-05-03T06:07:03.748Z</time></trkpt><trkpt lat="41.8557" lon="12.5996033"><ele>59.6</ele><time>2026-05-03T06:07:05.748Z</time></trkpt><trkpt lat="41.8556133" lon="12.5996883"><ele>59.8</ele><time>2026-05-03T06:07:07.747Z</time></trkpt><trkpt lat="41.855525" lon="12.59976"><ele>60.0</ele><time>2026-05-03T06:07:09.747Z</time></trkpt><trkpt lat="41.8554367" lon="12.5998283"><ele>60.0</ele><time>2026-05-03T06:07:11.748Z</time></trkpt><trkpt lat="41.8553433" lon="12.5998883"><ele>60.0</ele><time>2026-05-03T06:07:13.748Z</time></trkpt><trkpt lat="41.85525" lon="12.5999417"><ele>60.0</ele><time>2026-05-03T06:07:15.748Z</time></trkpt><trkpt lat="41.85516" lon="12.6000017"><ele>60.0</ele><time>2026-05-03T06:07:17.748Z</time></trkpt><trkpt lat="41.855065" lon="12.6000683"><ele>60.0</ele><time>2026-05-03T06:07:19.751Z</time></trkpt><trkpt lat="41.8549733" lon="12.6001483"><ele>59.4</ele><time>2026-05-03T06:07:21.748Z</time></trkpt><trkpt lat="41.8548967" lon="12.6002517"><ele>58.8</ele><time>2026-05-03T06:07:23.75Z</time></trkpt><trkpt lat="41.8548333" lon="12.60036"><ele>58.2</ele><time>2026-05-03T06:07:25.747Z</time></trkpt><trkpt lat="41.85479" lon="12.6004933"><ele>57.6</ele><time>2026-05-03T06:07:27.751Z</time></trkpt><trkpt lat="41.854765" lon="12.6006383"><ele>57.0</ele><time>2026-05-03T06:07:29.75Z</time></trkpt><trkpt lat="41.8547617" lon="12.600795"><ele>57.0</ele><time>2026-05-03T06:07:31.751Z</time></trkpt><trkpt lat="41.854765" lon="12.6009533"><ele>57.0</ele><time>2026-05-03T06:07:33.749Z</time></trkpt><trkpt lat="41.854765" lon="12.60111"><ele>57.0</ele><time>2026-05-03T06:07:35.75Z</time></trkpt><trkpt lat="41.8547717" lon="12.6012667"><ele>57.0</ele><time>2026-05-03T06:07:37.749Z</time></trkpt><trkpt lat="41.85477" lon="12.60142"><ele>57.400000000000006</ele><time>2026-05-03T06:07:39.751Z</time></trkpt><trkpt lat="41.8547667" lon="12.6015683"><ele>57.800000000000004</ele><time>2026-05-03T06:07:41.75Z</time></trkpt><trkpt lat="41.85477" lon="12.6017117"><ele>58.2</ele><time>2026-05-03T06:07:43.75Z</time></trkpt><trkpt lat="41.8547683" lon="12.6018617"><ele>58.6</ele><time>2026-05-03T06:07:45.75Z</time></trkpt><trkpt lat="41.854765" lon="12.60201"><ele>59.0</ele><time>2026-05-03T06:07:47.751Z</time></trkpt><trkpt lat="41.85476" lon="12.6021567"><ele>60.0</ele><time>2026-05-03T06:07:49.749Z</time></trkpt><trkpt lat="41.8547583" lon="12.6023033"><ele>61.00000000000001</ele><time>2026-05-03T06:07:51.75Z</time></trkpt><trkpt lat="41.8547633" lon="12.6024483"><ele>62.00000000000001</ele><time>2026-05-03T06:07:53.75Z</time></trkpt><trkpt lat="41.8547633" lon="12.6025917"><ele>63.0</ele><time>2026-05-03T06:07:55.749Z</time></trkpt><trkpt lat="41.8547583" lon="12.602735"><ele>64.0</ele><time>2026-05-03T06:07:57.75Z</time></trkpt><trkpt lat="41.8547567" lon="12.602875"><ele>64.25</ele><time>2026-05-03T06:07:59.75Z</time></trkpt><trkpt lat="41.8547567" lon="12.6030233"><ele>64.5</ele><time>2026-05-03T06:08:01.751Z</time></trkpt><trkpt lat="41.8547567" lon="12.603175"><ele>64.75</ele><time>2026-05-03T06:08:03.747Z</time></trkpt><trkpt lat="41.8547617" lon="12.60333"><ele>65.0</ele><time>2026-05-03T06:08:05.748Z</time></trkpt><trkpt lat="41.854765" lon="12.603485"><ele>65.0</ele><time>2026-05-03T06:08:07.747Z</time></trkpt><trkpt lat="41.8547633" lon="12.6036383"><ele>65.0</ele><time>2026-05-03T06:08:09.75Z</time></trkpt><trkpt lat="41.854765" lon="12.60379"><ele>65.0</ele><time>2026-05-03T06:08:11.748Z</time></trkpt><trkpt lat="41.854765" lon="12.6039417"><ele>65.0</ele><time>2026-05-03T06:08:13.747Z</time></trkpt><trkpt lat="41.8547667" lon="12.604095"><ele>65.0</ele><time>2026-05-03T06:08:15.747Z</time></trkpt><trkpt lat="41.854765" lon="12.6042433"><ele>65.0</ele><time>2026-05-03T06:08:17.75Z</time></trkpt><trkpt lat="41.8547633" lon="12.6043933"><ele>65.0</ele><time>2026-05-03T06:08:19.748Z</time></trkpt><trkpt lat="41.8547683" lon="12.6045367"><ele>65.0</ele><time>2026-05-03T06:08:21.747Z</time></trkpt><trkpt lat="41.8547617" lon="12.6046617"><ele>65.0</ele><time>2026-05-03T06:08:23.747Z</time></trkpt><trkpt lat="41.854755" lon="12.6047867"><ele>65.0</ele><time>2026-05-03T06:08:25.75Z</time></trkpt><trkpt lat="41.8547567" lon="12.6049033"><ele>65.0</ele><time>2026-05-03T06:08:27.749Z</time></trkpt><trkpt lat="41.85476" lon="12.605015"><ele>65.0</ele><time>2026-05-03T06:08:29.749Z</time></trkpt><trkpt lat="41.8547567" lon="12.6051183"><ele>65.0</ele><time>2026-05-03T06:08:31.75Z</time></trkpt><trkpt lat="41.854775" lon="12.60523"><ele>65.0</ele><time>2026-05-03T06:08:33.747Z</time></trkpt><trkpt lat="41.8547667" lon="12.6053383"><ele>65.0</ele><time>2026-05-03T06:08:35.748Z</time></trkpt><trkpt lat="41.8547533" lon="12.6054267"><ele>65.66666666666667</ele><time>2026-05-03T06:08:37.747Z</time></trkpt><trkpt lat="41.8547467" lon="12.6055283"><ele>66.33333333333334</ele><time>2026-05-03T06:08:39.749Z</time></trkpt><trkpt lat="41.8547483" lon="12.6056383"><ele>67.0</ele><time>2026-05-03T06:08:41.749Z</time></trkpt><trkpt lat="41.854745" lon="12.6057433"><ele>67.66666666666667</ele><time>2026-05-03T06:08:43.749Z</time></trkpt><trkpt lat="41.8547383" lon="12.60586"><ele>68.33333333333333</ele><time>2026-05-03T06:08:45.748Z</time></trkpt><trkpt lat="41.8547333" lon="12.6059683"><ele>69.0</ele><time>2026-05-03T06:08:47.747Z</time></trkpt><trkpt lat="41.85473" lon="12.6060883"><ele>69.42857142857143</ele><time>2026-05-03T06:08:49.75Z</time></trkpt><trkpt lat="41.8547233" lon="12.60619"><ele>69.85714285714286</ele><time>2026-05-03T06:08:51.748Z</time></trkpt><trkpt lat="41.85472" lon="12.6062867"><ele>70.28571428571429</ele><time>2026-05-03T06:08:53.751Z</time></trkpt><trkpt lat="41.854725" lon="12.60638"><ele>70.71428571428572</ele><time>2026-05-03T06:08:55.747Z</time></trkpt><trkpt lat="41.8547283" lon="12.6064717"><ele>71.14285714285714</ele><time>2026-05-03T06:08:57.747Z</time></trkpt><trkpt lat="41.854735" lon="12.606575"><ele>71.57142857142858</ele><time>2026-05-03T06:08:59.748Z</time></trkpt><trkpt lat="41.8547417" lon="12.6066833"><ele>72.0</ele><time>2026-05-03T06:09:01.749Z</time></trkpt><trkpt lat="41.8547517" lon="12.60678"><ele>72.00000000000001</ele><time>2026-05-03T06:09:03.75Z</time></trkpt><trkpt lat="41.85475" lon="12.6068717"><ele>72.0</ele><time>2026-05-03T06:09:05.751Z</time></trkpt><trkpt lat="41.854735" lon="12.6069667"><ele>72.0</ele><time>2026-05-03T06:09:07.75Z</time></trkpt><trkpt lat="41.8547217" lon="12.607065"><ele>72.0</ele><time>2026-05-03T06:09:09.749Z</time></trkpt><trkpt lat="41.8547" lon="12.6071617"><ele>72.0</ele><time>2026-05-03T06:09:11.75Z</time></trkpt><trkpt lat="41.8546883" lon="12.6072567"><ele>72.00000000000001</ele><time>2026-05-03T06:09:13.75Z</time></trkpt><trkpt lat="41.8546733" lon="12.6073533"><ele>72.0</ele><time>2026-05-03T06:09:15.75Z</time></trkpt><trkpt lat="41.85465" lon="12.607445"><ele>72.0</ele><time>2026-05-03T06:09:17.749Z</time></trkpt><trkpt lat="41.85462" lon="12.6075383"><ele>72.0</ele><time>2026-05-03T06:09:19.75Z</time></trkpt><trkpt lat="41.8545967" lon="12.607635"><ele>72.0</ele><time>2026-05-03T06:09:21.749Z</time></trkpt><trkpt lat="41.8545767" lon="12.607735"><ele>72.0</ele><time>2026-05-03T06:09:23.749Z</time></trkpt><trkpt lat="41.8545517" lon="12.607835"><ele>72.0</ele><time>2026-05-03T06:09:25.752Z</time></trkpt><trkpt lat="41.854525" lon="12.6079367"><ele>72.0</ele><time>2026-05-03T06:09:27.747Z</time></trkpt><trkpt lat="41.8545" lon="12.6080333"><ele>72.0</ele><time>2026-05-03T06:09:29.749Z</time></trkpt><trkpt lat="41.85447" lon="12.6081317"><ele>72.0</ele><time>2026-05-03T06:09:31.749Z</time></trkpt><trkpt lat="41.85444" lon="12.6082367"><ele>72.0</ele><time>2026-05-03T06:09:33.75Z</time></trkpt><trkpt lat="41.8544083" lon="12.6083383"><ele>72.0</ele><time>2026-05-03T06:09:35.751Z</time></trkpt><trkpt lat="41.8543733" lon="12.6084467"><ele>72.0</ele><time>2026-05-03T06:09:37.75Z</time></trkpt><trkpt lat="41.8543433" lon="12.6085517"><ele>72.0</ele><time>2026-05-03T06:09:39.749Z</time></trkpt><trkpt lat="41.854315" lon="12.6086667"><ele>72.8</ele><time>2026-05-03T06:09:41.749Z</time></trkpt><trkpt lat="41.8542833" lon="12.6087833"><ele>73.6</ele><time>2026-05-03T06:09:43.75Z</time></trkpt><trkpt lat="41.8542533" lon="12.6088983"><ele>74.39999999999999</ele><time>2026-05-03T06:09:45.75Z</time></trkpt><trkpt lat="41.85422" lon="12.6090183"><ele>75.2</ele><time>2026-05-03T06:09:47.75Z</time></trkpt><trkpt lat="41.8541967" lon="12.60914"><ele>76.0</ele><time>2026-05-03T06:09:49.75Z</time></trkpt><trkpt lat="41.854175" lon="12.6092533"><ele>76.0</ele><time>2026-05-03T06:09:51.75Z</time></trkpt><trkpt lat="41.8541483" lon="12.6093633"><ele>76.0</ele><time>2026-05-03T06:09:53.75Z</time></trkpt><trkpt lat="41.8541217" lon="12.609475"><ele>76.0</ele><time>2026-05-03T06:09:55.749Z</time></trkpt><trkpt lat="41.8540967" lon="12.6095917"><ele>76.0</ele><time>2026-05-03T06:09:57.751Z</time></trkpt><trkpt lat="41.85408" lon="12.60972"><ele>76.0</ele><time>2026-05-03T06:09:59.749Z</time></trkpt><trkpt lat="41.8540667" lon="12.6098483"><ele>75.0</ele><time>2026-05-03T06:10:01.749Z</time></trkpt><trkpt lat="41.854055" lon="12.6099767"><ele>74.0</ele><time>2026-05-03T06:10:03.749Z</time></trkpt><trkpt lat="41.854045" lon="12.61011"><ele>73.0</ele><time>2026-05-03T06:10:05.75Z</time></trkpt><trkpt lat="41.85404" lon="12.610245"><ele>72.0</ele><time>2026-05-03T06:10:07.75Z</time></trkpt><trkpt lat="41.8540417" lon="12.61038"><ele>71.0</ele><time>2026-05-03T06:10:09.75Z</time></trkpt><trkpt lat="41.8540467" lon="12.61052"><ele>70.39999999999999</ele><time>2026-05-03T06:10:11.75Z</time></trkpt><trkpt lat="41.8540633" lon="12.6106583"><ele>69.8</ele><time>2026-05-03T06:10:13.75Z</time></trkpt><trkpt lat="41.8540833" lon="12.6108017"><ele>69.19999999999999</ele><time>2026-05-03T06:10:15.749Z</time></trkpt><trkpt lat="41.854105" lon="12.6109417"><ele>68.6</ele><time>2026-05-03T06:10:17.749Z</time></trkpt><trkpt lat="41.8541367" lon="12.6110817"><ele>68.0</ele><time>2026-05-03T06:10:19.749Z</time></trkpt><trkpt lat="41.8541733" lon="12.6112233"><ele>67.5</ele><time>2026-05-03T06:10:21.75Z</time></trkpt><trkpt lat="41.85422" lon="12.6113683"><ele>67.0</ele><time>2026-05-03T06:10:23.75Z</time></trkpt><trkpt lat="41.854265" lon="12.61152"><ele>66.5</ele><time>2026-05-03T06:10:25.751Z</time></trkpt><trkpt lat="41.8543233" lon="12.6116667"><ele>66.0</ele><time>2026-05-03T06:10:27.751Z</time></trkpt><trkpt lat="41.8543833" lon="12.611815"><ele>65.25</ele><time>2026-05-03T06:10:29.75Z</time></trkpt><trkpt lat="41.8544383" lon="12.6119633"><ele>64.5</ele><time>2026-05-03T06:10:31.75Z</time></trkpt><trkpt lat="41.8545" lon="12.612095"><ele>63.75</ele><time>2026-05-03T06:10:33.749Z</time></trkpt><trkpt lat="41.854575" lon="12.6122083"><ele>63.0</ele><time>2026-05-03T06:10:35.749Z</time></trkpt><trkpt lat="41.854655" lon="12.6123283"><ele>63.0</ele><time>2026-05-03T06:10:37.747Z</time></trkpt><trkpt lat="41.8547383" lon="12.6124533"><ele>63.0</ele><time>2026-05-03T06:10:39.749Z</time></trkpt><trkpt lat="41.8548117" lon="12.6125867"><ele>63.0</ele><time>2026-05-03T06:10:41.748Z</time></trkpt><trkpt lat="41.8548883" lon="12.612715"><ele>63.0</ele><time>2026-05-03T06:10:43.748Z</time></trkpt><trkpt lat="41.85493" lon="12.61278"><ele>63.0</ele><time>2026-05-03T06:10:44.747Z</time></trkpt><trkpt lat="41.8549733" lon="12.61285"><ele>62.5</ele><time>2026-05-03T06:10:45.749Z</time></trkpt><trkpt lat="41.8550133" lon="12.6129217"><ele>62.0</ele><time>2026-05-03T06:10:46.749Z</time></trkpt><trkpt lat="41.8550567" lon="12.6129883"><ele>61.5</ele><time>2026-05-03T06:10:47.747Z</time></trkpt><trkpt lat="41.8550983" lon="12.6130567"><ele>61.0</ele><time>2026-05-03T06:10:48.747Z</time></trkpt><trkpt lat="41.8551683" lon="12.613195"><ele>60.5</ele><time>2026-05-03T06:10:50.747Z</time></trkpt><trkpt lat="41.85524" lon="12.6133333"><ele>60.0</ele><time>2026-05-03T06:10:52.747Z</time></trkpt><trkpt lat="41.8552783" lon="12.6134033"><ele>60.0</ele><time>2026-05-03T06:10:53.748Z</time></trkpt><trkpt lat="41.855345" lon="12.613545"><ele>60.0</ele><time>2026-05-03T06:10:55.75Z</time></trkpt><trkpt lat="41.8553783" lon="12.6136183"><ele>60.0</ele><time>2026-05-03T06:10:56.749Z</time></trkpt><trkpt lat="41.8554117" lon="12.61369"><ele>60.0</ele><time>2026-05-03T06:10:57.75Z</time></trkpt><trkpt lat="41.85547" lon="12.6138367"><ele>60.0</ele><time>2026-05-03T06:10:59.75Z</time></trkpt><trkpt lat="41.8555283" lon="12.613985"><ele>60.0</ele><time>2026-05-03T06:11:01.749Z</time></trkpt><trkpt lat="41.8555717" lon="12.6141333"><ele>60.0</ele><time>2026-05-03T06:11:03.748Z</time></trkpt><trkpt lat="41.8556067" lon="12.614275"><ele>60.0</ele><time>2026-05-03T06:11:05.749Z</time></trkpt><trkpt lat="41.8556367" lon="12.61442"><ele>60.0</ele><time>2026-05-03T06:11:07.749Z</time></trkpt><trkpt lat="41.8556667" lon="12.614565"><ele>60.0</ele><time>2026-05-03T06:11:09.747Z</time></trkpt><trkpt lat="41.855695" lon="12.6147067"><ele>60.0</ele><time>2026-05-03T06:11:11.749Z</time></trkpt><trkpt lat="41.855715" lon="12.6148433"><ele>60.0</ele><time>2026-05-03T06:11:13.749Z</time></trkpt><trkpt lat="41.8557367" lon="12.6149817"><ele>60.0</ele><time>2026-05-03T06:11:15.75Z</time></trkpt><trkpt lat="41.8557567" lon="12.6151233"><ele>60.0</ele><time>2026-05-03T06:11:17.748Z</time></trkpt><trkpt lat="41.8557717" lon="12.615265"><ele>60.6</ele><time>2026-05-03T06:11:19.748Z</time></trkpt><trkpt lat="41.855775" lon="12.6153983"><ele>61.2</ele><time>2026-05-03T06:11:21.75Z</time></trkpt><trkpt lat="41.85578" lon="12.61553"><ele>61.8</ele><time>2026-05-03T06:11:23.747Z</time></trkpt><trkpt lat="41.85579" lon="12.6156583"><ele>62.4</ele><time>2026-05-03T06:11:25.748Z</time></trkpt><trkpt lat="41.8557917" lon="12.61579"><ele>63.0</ele><time>2026-05-03T06:11:27.747Z</time></trkpt><trkpt lat="41.855785" lon="12.61592"><ele>63.0</ele><time>2026-05-03T06:11:29.748Z</time></trkpt><trkpt lat="41.8557833" lon="12.6160433"><ele>63.0</ele><time>2026-05-03T06:11:31.749Z</time></trkpt><trkpt lat="41.855785" lon="12.6161583"><ele>63.0</ele><time>2026-05-03T06:11:33.75Z</time></trkpt><trkpt lat="41.855785" lon="12.6162633"><ele>63.0</ele><time>2026-05-03T06:11:35.751Z</time></trkpt><trkpt lat="41.8557667" lon="12.61636"><ele>63.0</ele><time>2026-05-03T06:11:37.75Z</time></trkpt><trkpt lat="41.8557417" lon="12.6164483"><ele>63.0</ele><time>2026-05-03T06:11:39.75Z</time></trkpt><trkpt lat="41.855715" lon="12.61653"><ele>63.0</ele><time>2026-05-03T06:11:41.75Z</time></trkpt><trkpt lat="41.8556683" lon="12.6166333"><ele>63.0</ele><time>2026-05-03T06:11:44.75Z</time></trkpt><trkpt lat="41.8556383" lon="12.6167183"><ele>63.0</ele><time>2026-05-03T06:11:47.749Z</time></trkpt><trkpt lat="41.8556083" lon="12.6168217"><ele>63.0</ele><time>2026-05-03T06:11:51.75Z</time></trkpt><trkpt lat="41.8555717" lon="12.616905"><ele>63.0</ele><time>2026-05-03T06:11:54.75Z</time></trkpt><trkpt lat="41.8555167" lon="12.6169833"><ele>63.0</ele><time>2026-05-03T06:11:58.746Z</time></trkpt><trkpt lat="41.8554617" lon="12.6170333"><ele>63.0</ele><time>2026-05-03T06:12:03.75Z</time></trkpt><trkpt lat="41.8555" lon="12.6171133"><ele>63.0</ele><time>2026-05-03T06:12:14.747Z</time></trkpt><trkpt lat="41.8555667" lon="12.6171"><ele>63.0</ele><time>2026-05-03T06:12:16.749Z</time></trkpt><trkpt lat="41.8556283" lon="12.6171317"><ele>63.0</ele><time>2026-05-03T06:12:18.75Z</time></trkpt><trkpt lat="41.85569" lon="12.6172"><ele>63.0</ele><time>2026-05-03T06:12:20.749Z</time></trkpt><trkpt lat="41.85574" lon="12.6172867"><ele>63.0</ele><time>2026-05-03T06:12:22.75Z</time></trkpt><trkpt lat="41.85577" lon="12.6173833"><ele>63.0</ele><time>2026-05-03T06:12:24.75Z</time></trkpt><trkpt lat="41.8558033" lon="12.6174917"><ele>63.0</ele><time>2026-05-03T06:12:26.75Z</time></trkpt><trkpt lat="41.8558333" lon="12.6176"><ele>63.0</ele><time>2026-05-03T06:12:28.75Z</time></trkpt><trkpt lat="41.8558533" lon="12.6177117"><ele>63.0</ele><time>2026-05-03T06:12:30.751Z</time></trkpt><trkpt lat="41.8558733" lon="12.6178267"><ele>63.0</ele><time>2026-05-03T06:12:32.75Z</time></trkpt><trkpt lat="41.8558783" lon="12.61792"><ele>63.0</ele><time>2026-05-03T06:12:34.749Z</time></trkpt><trkpt lat="41.8558867" lon="12.6180117"><ele>63.0</ele><time>2026-05-03T06:12:36.749Z</time></trkpt><trkpt lat="41.85589" lon="12.6181033"><ele>63.57142857142857</ele><time>2026-05-03T06:12:38.746Z</time></trkpt><trkpt lat="41.855895" lon="12.6181983"><ele>64.14285714285714</ele><time>2026-05-03T06:12:40.746Z</time></trkpt><trkpt lat="41.8559" lon="12.61829"><ele>64.71428571428572</ele><time>2026-05-03T06:12:42.751Z</time></trkpt><trkpt lat="41.8559067" lon="12.618385"><ele>65.28571428571428</ele><time>2026-05-03T06:12:44.749Z</time></trkpt><trkpt lat="41.8559117" lon="12.618475"><ele>65.85714285714286</ele><time>2026-05-03T06:12:46.747Z</time></trkpt><trkpt lat="41.8559217" lon="12.6185683"><ele>66.42857142857143</ele><time>2026-05-03T06:12:48.749Z</time></trkpt><trkpt lat="41.855935" lon="12.6186533"><ele>67.0</ele><time>2026-05-03T06:12:50.75Z</time></trkpt><trkpt lat="41.8559517" lon="12.618735"><ele>66.85714285714286</ele><time>2026-05-03T06:12:52.75Z</time></trkpt><trkpt lat="41.855965" lon="12.6188533"><ele>66.71428571428571</ele><time>2026-05-03T06:12:55.746Z</time></trkpt><trkpt lat="41.8559783" lon="12.6189367"><ele>66.57142857142857</ele><time>2026-05-03T06:12:57.75Z</time></trkpt><trkpt lat="41.8559767" lon="12.6190233"><ele>66.42857142857143</ele><time>2026-05-03T06:12:59.75Z</time></trkpt><trkpt lat="41.8559933" lon="12.619105"><ele>66.28571428571429</ele><time>2026-05-03T06:13:01.749Z</time></trkpt><trkpt lat="41.8560167" lon="12.6192283"><ele>66.14285714285714</ele><time>2026-05-03T06:13:04.746Z</time></trkpt><trkpt lat="41.8560367" lon="12.6193133"><ele>66.0</ele><time>2026-05-03T06:13:06.746Z</time></trkpt><trkpt lat="41.856055" lon="12.6194017"><ele>66.28571428571428</ele><time>2026-05-03T06:13:08.747Z</time></trkpt><trkpt lat="41.85607" lon="12.6194917"><ele>66.57142857142857</ele><time>2026-05-03T06:13:10.747Z</time></trkpt><trkpt lat="41.856085" lon="12.6195867"><ele>66.85714285714286</ele><time>2026-05-03T06:13:12.746Z</time></trkpt><trkpt lat="41.856105" lon="12.6196767"><ele>67.14285714285714</ele><time>2026-05-03T06:13:14.747Z</time></trkpt><trkpt lat="41.8561217" lon="12.6197683"><ele>67.42857142857143</ele><time>2026-05-03T06:13:16.75Z</time></trkpt><trkpt lat="41.8561383" lon="12.6198583"><ele>67.71428571428571</ele><time>2026-05-03T06:13:18.748Z</time></trkpt><trkpt lat="41.85616" lon="12.6199517"><ele>68.0</ele><time>2026-05-03T06:13:20.747Z</time></trkpt><trkpt lat="41.8561767" lon="12.6200417"><ele>68.0</ele><time>2026-05-03T06:13:22.747Z</time></trkpt><trkpt lat="41.8561883" lon="12.6201333"><ele>68.0</ele><time>2026-05-03T06:13:24.75Z</time></trkpt><trkpt lat="41.8561933" lon="12.6202317"><ele>68.0</ele><time>2026-05-03T06:13:26.75Z</time></trkpt><trkpt lat="41.8561933" lon="12.6203333"><ele>68.0</ele><time>2026-05-03T06:13:28.749Z</time></trkpt><trkpt lat="41.85619" lon="12.6204333"><ele>68.0</ele><time>2026-05-03T06:13:30.749Z</time></trkpt><trkpt lat="41.85618" lon="12.620535"><ele>68.0</ele><time>2026-05-03T06:13:32.746Z</time></trkpt><trkpt lat="41.8561533" lon="12.62064"><ele>68.0</ele><time>2026-05-03T06:13:34.747Z</time></trkpt><trkpt lat="41.8561317" lon="12.6207467"><ele>68.0</ele><time>2026-05-03T06:13:36.751Z</time></trkpt><trkpt lat="41.8561183" lon="12.620855"><ele>68.0</ele><time>2026-05-03T06:13:38.747Z</time></trkpt><trkpt lat="41.8561283" lon="12.6209733"><ele>68.0</ele><time>2026-05-03T06:13:40.746Z</time></trkpt><trkpt lat="41.8561533" lon="12.6210833"><ele>68.0</ele><time>2026-05-03T06:13:42.747Z</time></trkpt><trkpt lat="41.8562" lon="12.6211867"><ele>68.0</ele><time>2026-05-03T06:13:44.749Z</time></trkpt><trkpt lat="41.8562533" lon="12.62128"><ele>68.0</ele><time>2026-05-03T06:13:46.752Z</time></trkpt><trkpt lat="41.8563133" lon="12.6213567"><ele>68.0</ele><time>2026-05-03T06:13:48.75Z</time></trkpt><trkpt lat="41.856365" lon="12.6214467"><ele>68.0</ele><time>2026-05-03T06:13:50.747Z</time></trkpt><trkpt lat="41.8564217" lon="12.6215383"><ele>68.0</ele><time>2026-05-03T06:13:52.75Z</time></trkpt><trkpt lat="41.85647" lon="12.621645"><ele>68.0</ele><time>2026-05-03T06:13:54.746Z</time></trkpt><trkpt lat="41.8564983" lon="12.62176"><ele>68.0</ele><time>2026-05-03T06:13:56.746Z</time></trkpt><trkpt lat="41.8565217" lon="12.6218783"><ele>67.6</ele><time>2026-05-03T06:13:58.746Z</time></trkpt><trkpt lat="41.8565433" lon="12.6220017"><ele>67.19999999999999</ele><time>2026-05-03T06:14:00.748Z</time></trkpt><trkpt lat="41.856565" lon="12.62212"><ele>66.8</ele><time>2026-05-03T06:14:02.75Z</time></trkpt><trkpt lat="41.8565867" lon="12.6222367"><ele>66.39999999999999</ele><time>2026-05-03T06:14:04.749Z</time></trkpt><trkpt lat="41.8566067" lon="12.6223533"><ele>66.0</ele><time>2026-05-03T06:14:06.75Z</time></trkpt><trkpt lat="41.8566283" lon="12.6224767"><ele>66.0</ele><time>2026-05-03T06:14:08.75Z</time></trkpt><trkpt lat="41.856655" lon="12.622595"><ele>66.0</ele><time>2026-05-03T06:14:10.749Z</time></trkpt><trkpt lat="41.8566817" lon="12.622715"><ele>66.0</ele><time>2026-05-03T06:14:12.75Z</time></trkpt><trkpt lat="41.856705" lon="12.6228367"><ele>66.0</ele><time>2026-05-03T06:14:14.752Z</time></trkpt><trkpt lat="41.8567267" lon="12.6229583"><ele>66.0</ele><time>2026-05-03T06:14:16.749Z</time></trkpt><trkpt lat="41.85675" lon="12.6230817"><ele>66.2</ele><time>2026-05-03T06:14:18.75Z</time></trkpt><trkpt lat="41.856765" lon="12.6232067"><ele>66.39999999999999</ele><time>2026-05-03T06:14:20.75Z</time></trkpt><trkpt lat="41.8567783" lon="12.6233333"><ele>66.6</ele><time>2026-05-03T06:14:22.749Z</time></trkpt><trkpt lat="41.8567883" lon="12.623455"><ele>66.8</ele><time>2026-05-03T06:14:24.75Z</time></trkpt><trkpt lat="41.8568017" lon="12.62358"><ele>67.0</ele><time>2026-05-03T06:14:26.749Z</time></trkpt><trkpt lat="41.856805" lon="12.6237117"><ele>67.4</ele><time>2026-05-03T06:14:28.747Z</time></trkpt><trkpt lat="41.856805" lon="12.6238417"><ele>67.80000000000001</ele><time>2026-05-03T06:14:30.747Z</time></trkpt><trkpt lat="41.8568017" lon="12.62397"><ele>68.2</ele><time>2026-05-03T06:14:32.747Z</time></trkpt><trkpt lat="41.8567933" lon="12.624095"><ele>68.60000000000001</ele><time>2026-05-03T06:14:34.746Z</time></trkpt><trkpt lat="41.8567833" lon="12.6242133"><ele>69.0</ele><time>2026-05-03T06:14:36.747Z</time></trkpt><trkpt lat="41.856765" lon="12.6243233"><ele>69.0</ele><time>2026-05-03T06:14:38.746Z</time></trkpt><trkpt lat="41.8567417" lon="12.624435"><ele>69.0</ele><time>2026-05-03T06:14:40.746Z</time></trkpt><trkpt lat="41.8566933" lon="12.6245267"><ele>69.0</ele><time>2026-05-03T06:14:42.747Z</time></trkpt><trkpt lat="41.8566267" lon="12.624595"><ele>69.0</ele><time>2026-05-03T06:14:44.746Z</time></trkpt><trkpt lat="41.856555" lon="12.62463"><ele>69.0</ele><time>2026-05-03T06:14:46.749Z</time></trkpt><trkpt lat="41.8564733" lon="12.6246733"><ele>69.0</ele><time>2026-05-03T06:14:48.747Z</time></trkpt><trkpt lat="41.8563933" lon="12.6247333"><ele>68.60000000000001</ele><time>2026-05-03T06:14:50.75Z</time></trkpt><trkpt lat="41.8563233" lon="12.6248167"><ele>68.2</ele><time>2026-05-03T06:14:52.75Z</time></trkpt><trkpt lat="41.856275" lon="12.6249167"><ele>67.80000000000001</ele><time>2026-05-03T06:14:54.747Z</time></trkpt><trkpt lat="41.8562317" lon="12.62503"><ele>67.4</ele><time>2026-05-03T06:14:56.75Z</time></trkpt><trkpt lat="41.856205" lon="12.6251517"><ele>67.0</ele><time>2026-05-03T06:14:58.75Z</time></trkpt><trkpt lat="41.8561783" lon="12.62527"><ele>67.6</ele><time>2026-05-03T06:15:00.749Z</time></trkpt><trkpt lat="41.8561633" lon="12.6253933"><ele>68.2</ele><time>2026-05-03T06:15:02.749Z</time></trkpt><trkpt lat="41.8561533" lon="12.6255217"><ele>68.8</ele><time>2026-05-03T06:15:04.75Z</time></trkpt><trkpt lat="41.8561683" lon="12.625645"><ele>69.4</ele><time>2026-05-03T06:15:06.748Z</time></trkpt><trkpt lat="41.8561933" lon="12.6257617"><ele>70.0</ele><time>2026-05-03T06:15:08.748Z</time></trkpt><trkpt lat="41.856225" lon="12.6258733"><ele>70.0</ele><time>2026-05-03T06:15:10.747Z</time></trkpt><trkpt lat="41.85626" lon="12.6259767"><ele>70.0</ele><time>2026-05-03T06:15:12.75Z</time></trkpt><trkpt lat="41.8562983" lon="12.6260683"><ele>70.0</ele><time>2026-05-03T06:15:14.749Z</time></trkpt><trkpt lat="41.8563417" lon="12.6261517"><ele>70.0</ele><time>2026-05-03T06:15:16.75Z</time></trkpt><trkpt lat="41.85639" lon="12.6262233"><ele>70.0</ele><time>2026-05-03T06:15:18.749Z</time></trkpt><trkpt lat="41.85644" lon="12.626285"><ele>70.0</ele><time>2026-05-03T06:15:20.75Z</time></trkpt><trkpt lat="41.8565017" lon="12.626335"><ele>70.16666666666666</ele><time>2026-05-03T06:15:22.75Z</time></trkpt><trkpt lat="41.8565733" lon="12.6263717"><ele>70.33333333333333</ele><time>2026-05-03T06:15:24.75Z</time></trkpt><trkpt lat="41.85665" lon="12.6264"><ele>70.5</ele><time>2026-05-03T06:15:26.749Z</time></trkpt><trkpt lat="41.8567183" lon="12.6264317"><ele>70.66666666666667</ele><time>2026-05-03T06:15:28.75Z</time></trkpt><trkpt lat="41.8567683" lon="12.626515"><ele>70.83333333333334</ele><time>2026-05-03T06:15:31.749Z</time></trkpt><trkpt lat="41.856735" lon="12.62662"><ele>71.0</ele><time>2026-05-03T06:15:34.747Z</time></trkpt><trkpt lat="41.8567067" lon="12.6267"><ele>71.0</ele><time>2026-05-03T06:15:36.749Z</time></trkpt><trkpt lat="41.8566967" lon="12.6267983"><ele>71.0</ele><time>2026-05-03T06:15:38.747Z</time></trkpt><trkpt lat="41.8566983" lon="12.6269117"><ele>71.0</ele><time>2026-05-03T06:15:40.746Z</time></trkpt><trkpt lat="41.8567067" lon="12.6270217"><ele>71.0</ele><time>2026-05-03T06:15:42.747Z</time></trkpt><trkpt lat="41.856705" lon="12.6271317"><ele>71.0</ele><time>2026-05-03T06:15:44.749Z</time></trkpt><trkpt lat="41.8567033" lon="12.627245"><ele>71.0</ele><time>2026-05-03T06:15:46.75Z</time></trkpt><trkpt lat="41.8567033" lon="12.6273533"><ele>71.0</ele><time>2026-05-03T06:15:48.749Z</time></trkpt><trkpt lat="41.8567017" lon="12.6274633"><ele>71.0</ele><time>2026-05-03T06:15:50.749Z</time></trkpt><trkpt lat="41.8567067" lon="12.6275767"><ele>71.0</ele><time>2026-05-03T06:15:52.75Z</time></trkpt><trkpt lat="41.856705" lon="12.6276967"><ele>71.0</ele><time>2026-05-03T06:15:54.746Z</time></trkpt><trkpt lat="41.8567067" lon="12.6278167"><ele>71.0</ele><time>2026-05-03T06:15:56.749Z</time></trkpt><trkpt lat="41.85671" lon="12.6279267"><ele>71.0</ele><time>2026-05-03T06:15:58.749Z</time></trkpt><trkpt lat="41.856715" lon="12.6280333"><ele>71.33333333333334</ele><time>2026-05-03T06:16:00.746Z</time></trkpt><trkpt lat="41.856715" lon="12.6281433"><ele>71.66666666666667</ele><time>2026-05-03T06:16:02.748Z</time></trkpt><trkpt lat="41.8567" lon="12.6282483"><ele>72.0</ele><time>2026-05-03T06:16:04.747Z</time></trkpt><trkpt lat="41.8566783" lon="12.628345"><ele>72.33333333333333</ele><time>2026-05-03T06:16:06.747Z</time></trkpt><trkpt lat="41.8566617" lon="12.6284367"><ele>72.66666666666666</ele><time>2026-05-03T06:16:08.749Z</time></trkpt><trkpt lat="41.8566483" lon="12.62853"><ele>73.0</ele><time>2026-05-03T06:16:10.746Z</time></trkpt><trkpt lat="41.8566317" lon="12.6286267"><ele>72.14285714285714</ele><time>2026-05-03T06:16:12.75Z</time></trkpt><trkpt lat="41.856615" lon="12.6287317"><ele>71.28571428571429</ele><time>2026-05-03T06:16:14.752Z</time></trkpt><trkpt lat="41.8565933" lon="12.6288233"><ele>70.42857142857143</ele><time>2026-05-03T06:16:16.75Z</time></trkpt><trkpt lat="41.8565633" lon="12.6289067"><ele>69.57142857142857</ele><time>2026-05-03T06:16:18.75Z</time></trkpt><trkpt lat="41.8565267" lon="12.6289883"><ele>68.71428571428571</ele><time>2026-05-03T06:16:20.75Z</time></trkpt><trkpt lat="41.8564917" lon="12.6290767"><ele>67.85714285714286</ele><time>2026-05-03T06:16:22.747Z</time></trkpt><trkpt lat="41.8564767" lon="12.62917"><ele>67.0</ele><time>2026-05-03T06:16:24.746Z</time></trkpt><trkpt lat="41.8564933" lon="12.629295"><ele>67.0</ele><time>2026-05-03T06:16:27.747Z</time></trkpt><trkpt lat="41.8564917" lon="12.6293817"><ele>67.0</ele><time>2026-05-03T06:16:29.747Z</time></trkpt><trkpt lat="41.85647" lon="12.629465"><ele>67.0</ele><time>2026-05-03T06:16:31.746Z</time></trkpt><trkpt lat="41.8563983" lon="12.6294817"><ele>67.0</ele><time>2026-05-03T06:16:33.748Z</time></trkpt><trkpt lat="41.85631" lon="12.6294667"><ele>67.0</ele><time>2026-05-03T06:16:36.747Z</time></trkpt><trkpt lat="41.85626" lon="12.629525"><ele>67.0</ele><time>2026-05-03T06:16:38.747Z</time></trkpt><trkpt lat="41.85621" lon="12.62959"><ele>67.0</ele><time>2026-05-03T06:16:40.75Z</time></trkpt><trkpt lat="41.85615" lon="12.6296783"><ele>67.16666666666666</ele><time>2026-05-03T06:16:43.749Z</time></trkpt><trkpt lat="41.8560867" lon="12.6297667"><ele>67.33333333333333</ele><time>2026-05-03T06:16:46.747Z</time></trkpt><trkpt lat="41.8560283" lon="12.629825"><ele>67.5</ele><time>2026-05-03T06:16:48.748Z</time></trkpt><trkpt lat="41.8559767" lon="12.6298833"><ele>67.66666666666667</ele><time>2026-05-03T06:16:50.748Z</time></trkpt><trkpt lat="41.8559233" lon="12.62998"><ele>67.83333333333334</ele><time>2026-05-03T06:16:53.748Z</time></trkpt><trkpt lat="41.8559033" lon="12.6300833"><ele>68.0</ele><time>2026-05-03T06:16:56.749Z</time></trkpt><trkpt lat="41.8558867" lon="12.6301683"><ele>67.99999999999999</ele><time>2026-05-03T06:16:58.749Z</time></trkpt><trkpt lat="41.85586" lon="12.6302467"><ele>68.0</ele><time>2026-05-03T06:17:00.75Z</time></trkpt><trkpt lat="41.855825" lon="12.6303267"><ele>68.0</ele><time>2026-05-03T06:17:02.746Z</time></trkpt><trkpt lat="41.8557917" lon="12.6304033"><ele>68.0</ele><time>2026-05-03T06:17:04.747Z</time></trkpt><trkpt lat="41.8557483" lon="12.6305033"><ele>68.0</ele><time>2026-05-03T06:17:07.75Z</time></trkpt><trkpt lat="41.8556733" lon="12.6305333"><ele>67.99999999999999</ele><time>2026-05-03T06:17:11.75Z</time></trkpt><trkpt lat="41.8556083" lon="12.6305583"><ele>68.0</ele><time>2026-05-03T06:17:14.749Z</time></trkpt><trkpt lat="41.855575" lon="12.6306433"><ele>68.14285714285714</ele><time>2026-05-03T06:17:17.746Z</time></trkpt><trkpt lat="41.8556033" lon="12.6307233"><ele>68.28571428571428</ele><time>2026-05-03T06:17:19.747Z</time></trkpt><trkpt lat="41.8556317" lon="12.6308133"><ele>68.42857142857143</ele><time>2026-05-03T06:17:21.748Z</time></trkpt><trkpt lat="41.855655" lon="12.6309033"><ele>68.57142857142857</ele><time>2026-05-03T06:17:23.747Z</time></trkpt><trkpt lat="41.8556767" lon="12.6309967"><ele>68.71428571428572</ele><time>2026-05-03T06:17:25.749Z</time></trkpt><trkpt lat="41.8556917" lon="12.6311"><ele>68.85714285714286</ele><time>2026-05-03T06:17:27.75Z</time></trkpt><trkpt lat="41.8557117" lon="12.6312017"><ele>69.0</ele><time>2026-05-03T06:17:29.75Z</time></trkpt><trkpt lat="41.855745" lon="12.6313017"><ele>69.28571428571429</ele><time>2026-05-03T06:17:31.75Z</time></trkpt><trkpt lat="41.85577" lon="12.6313917"><ele>69.57142857142858</ele><time>2026-05-03T06:17:33.75Z</time></trkpt><trkpt lat="41.8557867" lon="12.631485"><ele>69.85714285714286</ele><time>2026-05-03T06:17:35.751Z</time></trkpt><trkpt lat="41.8558183" lon="12.6315767"><ele>70.14285714285714</ele><time>2026-05-03T06:17:37.749Z</time></trkpt><trkpt lat="41.85585" lon="12.63167"><ele>70.42857142857142</ele><time>2026-05-03T06:17:39.75Z</time></trkpt><trkpt lat="41.8558683" lon="12.63177"><ele>70.71428571428571</ele><time>2026-05-03T06:17:41.749Z</time></trkpt><trkpt lat="41.8558967" lon="12.6318633"><ele>71.0</ele><time>2026-05-03T06:17:43.75Z</time></trkpt><trkpt lat="41.8559117" lon="12.631955"><ele>71.33333333333334</ele><time>2026-05-03T06:17:45.749Z</time></trkpt><trkpt lat="41.85592" lon="12.632045"><ele>71.66666666666667</ele><time>2026-05-03T06:17:47.746Z</time></trkpt><trkpt lat="41.8559167" lon="12.632135"><ele>72.0</ele><time>2026-05-03T06:17:49.746Z</time></trkpt><trkpt lat="41.8559" lon="12.6322533"><ele>72.33333333333333</ele><time>2026-05-03T06:17:52.747Z</time></trkpt><trkpt lat="41.8558567" lon="12.632355"><ele>72.66666666666666</ele><time>2026-05-03T06:17:55.75Z</time></trkpt><trkpt lat="41.85579" lon="12.6324267"><ele>73.0</ele><time>2026-05-03T06:17:58.749Z</time></trkpt><trkpt lat="41.85571" lon="12.6324817"><ele>73.0</ele><time>2026-05-03T06:18:01.748Z</time></trkpt><trkpt lat="41.85562" lon="12.6325033"><ele>73.0</ele><time>2026-05-03T06:18:04.747Z</time></trkpt><trkpt lat="41.8555533" lon="12.6325017"><ele>73.0</ele><time>2026-05-03T06:18:06.749Z</time></trkpt><trkpt lat="41.85549" lon="12.632505"><ele>73.0</ele><time>2026-05-03T06:18:08.75Z</time></trkpt><trkpt lat="41.8554267" lon="12.6325433"><ele>73.0</ele><time>2026-05-03T06:18:10.747Z</time></trkpt><trkpt lat="41.8553617" lon="12.632585"><ele>73.0</ele><time>2026-05-03T06:18:12.751Z</time></trkpt><trkpt lat="41.855305" lon="12.63265"><ele>73.0</ele><time>2026-05-03T06:18:14.75Z</time></trkpt><trkpt lat="41.85527" lon="12.6327217"><ele>73.66666666666666</ele><time>2026-05-03T06:18:16.749Z</time></trkpt><trkpt lat="41.8552617" lon="12.632835"><ele>74.33333333333333</ele><time>2026-05-03T06:18:19.749Z</time></trkpt><trkpt lat="41.8553033" lon="12.632945"><ele>75.0</ele><time>2026-05-03T06:18:22.749Z</time></trkpt><trkpt lat="41.8553283" lon="12.633035"><ele>75.66666666666667</ele><time>2026-05-03T06:18:25.75Z</time></trkpt><trkpt lat="41.8553633" lon="12.633115"><ele>76.33333333333334</ele><time>2026-05-03T06:18:28.749Z</time></trkpt><trkpt lat="41.855425" lon="12.6331617"><ele>77.0</ele><time>2026-05-03T06:18:31.75Z</time></trkpt><trkpt lat="41.85544" lon="12.6332683"><ele>77.0</ele><time>2026-05-03T06:18:34.747Z</time></trkpt><trkpt lat="41.85546" lon="12.6333833"><ele>77.0</ele><time>2026-05-03T06:18:37.749Z</time></trkpt><trkpt lat="41.8554717" lon="12.6334717"><ele>77.0</ele><time>2026-05-03T06:18:39.748Z</time></trkpt><trkpt lat="41.85549" lon="12.6335833"><ele>77.0</ele><time>2026-05-03T06:18:41.749Z</time></trkpt><trkpt lat="41.855505" lon="12.6336833"><ele>77.0</ele><time>2026-05-03T06:18:43.75Z</time></trkpt><trkpt lat="41.8555183" lon="12.6337733"><ele>77.0</ele><time>2026-05-03T06:18:45.747Z</time></trkpt><trkpt lat="41.8555367" lon="12.6338633"><ele>77.16666666666667</ele><time>2026-05-03T06:18:48.749Z</time></trkpt><trkpt lat="41.8555967" lon="12.6339317"><ele>77.33333333333334</ele><time>2026-05-03T06:18:51.749Z</time></trkpt><trkpt lat="41.855555" lon="12.6339967"><ele>77.5</ele><time>2026-05-03T06:18:55.747Z</time></trkpt><trkpt lat="41.85548" lon="12.634005"><ele>77.66666666666667</ele><time>2026-05-03T06:18:58.747Z</time></trkpt><trkpt lat="41.8553933" lon="12.634015"><ele>77.83333333333333</ele><time>2026-05-03T06:19:01.747Z</time></trkpt><trkpt lat="41.855305" lon="12.6339967"><ele>78.0</ele><time>2026-05-03T06:19:04.749Z</time></trkpt><trkpt lat="41.8552267" lon="12.6340283"><ele>78.0</ele><time>2026-05-03T06:19:07.75Z</time></trkpt><trkpt lat="41.8551767" lon="12.6339617"><ele>78.0</ele><time>2026-05-03T06:19:12.749Z</time></trkpt><trkpt lat="41.8551667" lon="12.6338517"><ele>78.0</ele><time>2026-05-03T06:19:16.748Z</time></trkpt><trkpt lat="41.8551233" lon="12.6337617"><ele>78.0</ele><time>2026-05-03T06:19:19.75Z</time></trkpt><trkpt lat="41.85508" lon="12.6336667"><ele>78.0</ele><time>2026-05-03T06:19:22.75Z</time></trkpt><trkpt lat="41.8550467" lon="12.6335917"><ele>78.0</ele><time>2026-05-03T06:19:24.75Z</time></trkpt><trkpt lat="41.85499" lon="12.6335233"><ele>77.16666666666667</ele><time>2026-05-03T06:19:26.75Z</time></trkpt><trkpt lat="41.8549333" lon="12.6334817"><ele>76.33333333333333</ele><time>2026-05-03T06:19:28.747Z</time></trkpt><trkpt lat="41.8548433" lon="12.633535"><ele>75.5</ele><time>2026-05-03T06:19:31.749Z</time></trkpt><trkpt lat="41.8547883" lon="12.6336167"><ele>74.66666666666666</ele><time>2026-05-03T06:19:33.75Z</time></trkpt><trkpt lat="41.854745" lon="12.6337083"><ele>73.83333333333333</ele><time>2026-05-03T06:19:35.749Z</time></trkpt><trkpt lat="41.8547083" lon="12.633795"><ele>73.0</ele><time>2026-05-03T06:19:37.75Z</time></trkpt><trkpt lat="41.854685" lon="12.6338867"><ele>73.0</ele><time>2026-05-03T06:19:39.749Z</time></trkpt><trkpt lat="41.85466" lon="12.6339817"><ele>73.0</ele><time>2026-05-03T06:19:41.75Z</time></trkpt><trkpt lat="41.8546267" lon="12.6340767"><ele>73.0</ele><time>2026-05-03T06:19:43.749Z</time></trkpt><trkpt lat="41.8545967" lon="12.6341733"><ele>73.0</ele><time>2026-05-03T06:19:45.749Z</time></trkpt><trkpt lat="41.8545717" lon="12.6342667"><ele>73.0</ele><time>2026-05-03T06:19:47.75Z</time></trkpt><trkpt lat="41.8545383" lon="12.6343567"><ele>73.0</ele><time>2026-05-03T06:19:49.75Z</time></trkpt><trkpt lat="41.8545067" lon="12.6344433"><ele>72.66666666666666</ele><time>2026-05-03T06:19:51.751Z</time></trkpt><trkpt lat="41.8544767" lon="12.6345333"><ele>72.33333333333333</ele><time>2026-05-03T06:19:53.75Z</time></trkpt><trkpt lat="41.8544467" lon="12.634625"><ele>72.0</ele><time>2026-05-03T06:19:55.75Z</time></trkpt><trkpt lat="41.8544217" lon="12.6347233"><ele>71.66666666666667</ele><time>2026-05-03T06:19:57.75Z</time></trkpt><trkpt lat="41.8543983" lon="12.6348233"><ele>71.33333333333334</ele><time>2026-05-03T06:19:59.749Z</time></trkpt><trkpt lat="41.8543733" lon="12.6349183"><ele>71.0</ele><time>2026-05-03T06:20:01.749Z</time></trkpt><trkpt lat="41.8543433" lon="12.6350083"><ele>71.0</ele><time>2026-05-03T06:20:03.75Z</time></trkpt><trkpt lat="41.854315" lon="12.6351033"><ele>71.0</ele><time>2026-05-03T06:20:05.749Z</time></trkpt><trkpt lat="41.8542883" lon="12.6352"><ele>71.0</ele><time>2026-05-03T06:20:07.749Z</time></trkpt><trkpt lat="41.85426" lon="12.6352917"><ele>71.0</ele><time>2026-05-03T06:20:09.75Z</time></trkpt><trkpt lat="41.8542333" lon="12.635385"><ele>71.0</ele><time>2026-05-03T06:20:11.75Z</time></trkpt><trkpt lat="41.8542017" lon="12.6354767"><ele>71.0</ele><time>2026-05-03T06:20:13.749Z</time></trkpt><trkpt lat="41.8541617" lon="12.6355667"><ele>71.66666666666667</ele><time>2026-05-03T06:20:15.746Z</time></trkpt><trkpt lat="41.85412" lon="12.6356583"><ele>72.33333333333334</ele><time>2026-05-03T06:20:17.75Z</time></trkpt><trkpt lat="41.8540867" lon="12.6357533"><ele>73.0</ele><time>2026-05-03T06:20:19.75Z</time></trkpt><trkpt lat="41.8540567" lon="12.635845"><ele>73.66666666666667</ele><time>2026-05-03T06:20:21.749Z</time></trkpt><trkpt lat="41.8540267" lon="12.6359317"><ele>74.33333333333333</ele><time>2026-05-03T06:20:23.75Z</time></trkpt><trkpt lat="41.8540033" lon="12.6360283"><ele>75.0</ele><time>2026-05-03T06:20:25.75Z</time></trkpt><trkpt lat="41.8540117" lon="12.6361233"><ele>74.83333333333333</ele><time>2026-05-03T06:20:27.75Z</time></trkpt><trkpt lat="41.8540383" lon="12.6362233"><ele>74.66666666666667</ele><time>2026-05-03T06:20:29.75Z</time></trkpt><trkpt lat="41.85408" lon="12.636315"><ele>74.5</ele><time>2026-05-03T06:20:31.749Z</time></trkpt><trkpt lat="41.8541433" lon="12.6363933"><ele>74.33333333333334</ele><time>2026-05-03T06:20:33.75Z</time></trkpt><trkpt lat="41.8542067" lon="12.6364633"><ele>74.16666666666667</ele><time>2026-05-03T06:20:35.749Z</time></trkpt><trkpt lat="41.85426" lon="12.6365467"><ele>74.0</ele><time>2026-05-03T06:20:37.753Z</time></trkpt><trkpt lat="41.8542967" lon="12.6366433"><ele>74.0</ele><time>2026-05-03T06:20:39.748Z</time></trkpt><trkpt lat="41.8543317" lon="12.636735"><ele>74.0</ele><time>2026-05-03T06:20:41.749Z</time></trkpt><trkpt lat="41.85437" lon="12.6368267"><ele>74.0</ele><time>2026-05-03T06:20:43.749Z</time></trkpt><trkpt lat="41.8544117" lon="12.6369217"><ele>74.0</ele><time>2026-05-03T06:20:45.748Z</time></trkpt><trkpt lat="41.854435" lon="12.6370233"><ele>74.0</ele><time>2026-05-03T06:20:47.749Z</time></trkpt><trkpt lat="41.854445" lon="12.637125"><ele>74.0</ele><time>2026-05-03T06:20:49.75Z</time></trkpt><trkpt lat="41.854445" lon="12.63723"><ele>74.16666666666667</ele><time>2026-05-03T06:20:51.747Z</time></trkpt><trkpt lat="41.8544217" lon="12.6373267"><ele>74.33333333333334</ele><time>2026-05-03T06:20:53.75Z</time></trkpt><trkpt lat="41.854385" lon="12.6374217"><ele>74.5</ele><time>2026-05-03T06:20:55.752Z</time></trkpt><trkpt lat="41.85434" lon="12.6375067"><ele>74.66666666666667</ele><time>2026-05-03T06:20:57.75Z</time></trkpt><trkpt lat="41.8543033" lon="12.63759"><ele>74.83333333333333</ele><time>2026-05-03T06:20:59.748Z</time></trkpt><trkpt lat="41.8542667" lon="12.6376817"><ele>75.0</ele><time>2026-05-03T06:21:01.748Z</time></trkpt><trkpt lat="41.85423" lon="12.637765"><ele>74.99999999999999</ele><time>2026-05-03T06:21:03.748Z</time></trkpt><trkpt lat="41.8541933" lon="12.6378483"><ele>75.0</ele><time>2026-05-03T06:21:05.751Z</time></trkpt><trkpt lat="41.8541467" lon="12.6379233"><ele>75.0</ele><time>2026-05-03T06:21:07.75Z</time></trkpt><trkpt lat="41.8541033" lon="12.6380033"><ele>75.0</ele><time>2026-05-03T06:21:09.749Z</time></trkpt><trkpt lat="41.854085" lon="12.638095"><ele>75.0</ele><time>2026-05-03T06:21:11.748Z</time></trkpt><trkpt lat="41.85408" lon="12.6381967"><ele>74.99999999999999</ele><time>2026-05-03T06:21:13.749Z</time></trkpt><trkpt lat="41.8540917" lon="12.6382917"><ele>75.0</ele><time>2026-05-03T06:21:15.749Z</time></trkpt><trkpt lat="41.8541233" lon="12.6383767"><ele>74.99999999999999</ele><time>2026-05-03T06:21:17.75Z</time></trkpt><trkpt lat="41.8541583" lon="12.6384617"><ele>75.0</ele><time>2026-05-03T06:21:19.75Z</time></trkpt><trkpt lat="41.8541833" lon="12.6385583"><ele>75.0</ele><time>2026-05-03T06:21:21.751Z</time></trkpt><trkpt lat="41.8541783" lon="12.638655"><ele>75.0</ele><time>2026-05-03T06:21:23.749Z</time></trkpt><trkpt lat="41.854165" lon="12.6387533"><ele>75.0</ele><time>2026-05-03T06:21:25.751Z</time></trkpt><trkpt lat="41.8541467" lon="12.6388483"><ele>74.99999999999999</ele><time>2026-05-03T06:21:27.749Z</time></trkpt><trkpt lat="41.8541217" lon="12.6389433"><ele>75.0</ele><time>2026-05-03T06:21:29.749Z</time></trkpt><trkpt lat="41.85409" lon="12.63904"><ele>75.5</ele><time>2026-05-03T06:21:31.749Z</time></trkpt><trkpt lat="41.8540467" lon="12.6391233"><ele>76.0</ele><time>2026-05-03T06:21:33.75Z</time></trkpt><trkpt lat="41.8539983" lon="12.6392"><ele>76.5</ele><time>2026-05-03T06:21:35.749Z</time></trkpt><trkpt lat="41.8539433" lon="12.6392783"><ele>77.0</ele><time>2026-05-03T06:21:37.749Z</time></trkpt><trkpt lat="41.8538967" lon="12.63936"><ele>77.5</ele><time>2026-05-03T06:21:39.75Z</time></trkpt><trkpt lat="41.853845" lon="12.639435"><ele>78.0</ele><time>2026-05-03T06:21:41.749Z</time></trkpt><trkpt lat="41.8537867" lon="12.6395067"><ele>78.0</ele><time>2026-05-03T06:21:43.75Z</time></trkpt><trkpt lat="41.8537283" lon="12.63957"><ele>78.0</ele><time>2026-05-03T06:21:45.749Z</time></trkpt><trkpt lat="41.853665" lon="12.63963"><ele>78.0</ele><time>2026-05-03T06:21:47.75Z</time></trkpt><trkpt lat="41.8536033" lon="12.63969"><ele>78.0</ele><time>2026-05-03T06:21:49.75Z</time></trkpt><trkpt lat="41.8535417" lon="12.6397483"><ele>78.0</ele><time>2026-05-03T06:21:51.75Z</time></trkpt><trkpt lat="41.8534783" lon="12.6398017"><ele>78.0</ele><time>2026-05-03T06:21:53.748Z</time></trkpt><trkpt lat="41.8534183" lon="12.6398533"><ele>78.0</ele><time>2026-05-03T06:21:55.749Z</time></trkpt><trkpt lat="41.85336" lon="12.6399033"><ele>78.0</ele><time>2026-05-03T06:21:57.753Z</time></trkpt><trkpt lat="41.8533067" lon="12.63997"><ele>78.0</ele><time>2026-05-03T06:21:59.749Z</time></trkpt><trkpt lat="41.8532667" lon="12.6400817"><ele>78.0</ele><time>2026-05-03T06:22:02.749Z</time></trkpt><trkpt lat="41.8532533" lon="12.6402083"><ele>78.0</ele><time>2026-05-03T06:22:05.749Z</time></trkpt><trkpt lat="41.853215" lon="12.6403183"><ele>78.0</ele><time>2026-05-03T06:22:08.747Z</time></trkpt><trkpt lat="41.8531883" lon="12.640395"><ele>78.14285714285715</ele><time>2026-05-03T06:22:10.75Z</time></trkpt><trkpt lat="41.8531567" lon="12.6404733"><ele>78.28571428571428</ele><time>2026-05-03T06:22:12.749Z</time></trkpt><trkpt lat="41.8531217" lon="12.640555"><ele>78.42857142857143</ele><time>2026-05-03T06:22:14.75Z</time></trkpt><trkpt lat="41.8530833" lon="12.640645"><ele>78.57142857142858</ele><time>2026-05-03T06:22:16.749Z</time></trkpt><trkpt lat="41.853045" lon="12.640735"><ele>78.71428571428572</ele><time>2026-05-03T06:22:18.75Z</time></trkpt><trkpt lat="41.8530083" lon="12.640825"><ele>78.85714285714286</ele><time>2026-05-03T06:22:20.749Z</time></trkpt><trkpt lat="41.85297" lon="12.64091"><ele>79.0</ele><time>2026-05-03T06:22:22.75Z</time></trkpt><trkpt lat="41.852925" lon="12.6409933"><ele>79.00000000000001</ele><time>2026-05-03T06:22:24.747Z</time></trkpt><trkpt lat="41.8528833" lon="12.641085"><ele>79.0</ele><time>2026-05-03T06:22:26.746Z</time></trkpt><trkpt lat="41.8528317" lon="12.6411567"><ele>79.0</ele><time>2026-05-03T06:22:28.75Z</time></trkpt><trkpt lat="41.8527817" lon="12.641215"><ele>79.0</ele><time>2026-05-03T06:22:30.749Z</time></trkpt><trkpt lat="41.8527267" lon="12.6412733"><ele>79.0</ele><time>2026-05-03T06:22:32.748Z</time></trkpt><trkpt lat="41.85267" lon="12.6413283"><ele>79.00000000000001</ele><time>2026-05-03T06:22:34.749Z</time></trkpt><trkpt lat="41.852605" lon="12.6413717"><ele>79.0</ele><time>2026-05-03T06:22:36.751Z</time></trkpt><trkpt lat="41.852535" lon="12.6414033"><ele>79.14285714285715</ele><time>2026-05-03T06:22:38.749Z</time></trkpt><trkpt lat="41.85246" lon="12.6414083"><ele>79.28571428571429</ele><time>2026-05-03T06:22:40.75Z</time></trkpt><trkpt lat="41.85239" lon="12.6414133"><ele>79.42857142857143</ele><time>2026-05-03T06:22:42.749Z</time></trkpt><trkpt lat="41.8523117" lon="12.6414017"><ele>79.57142857142858</ele><time>2026-05-03T06:22:44.75Z</time></trkpt><trkpt lat="41.8522333" lon="12.6414"><ele>79.71428571428572</ele><time>2026-05-03T06:22:46.75Z</time></trkpt><trkpt lat="41.8521617" lon="12.6414233"><ele>79.85714285714286</ele><time>2026-05-03T06:22:48.748Z</time></trkpt><trkpt lat="41.8520883" lon="12.6414267"><ele>80.0</ele><time>2026-05-03T06:22:50.746Z</time></trkpt><trkpt lat="41.852015" lon="12.641415"><ele>80.0</ele><time>2026-05-03T06:22:52.747Z</time></trkpt><trkpt lat="41.8519433" lon="12.641405"><ele>80.0</ele><time>2026-05-03T06:22:54.75Z</time></trkpt><trkpt lat="41.8518667" lon="12.641395"><ele>80.0</ele><time>2026-05-03T06:22:56.75Z</time></trkpt><trkpt lat="41.8517917" lon="12.641395"><ele>80.0</ele><time>2026-05-03T06:22:58.749Z</time></trkpt><trkpt lat="41.8517183" lon="12.6413833"><ele>80.0</ele><time>2026-05-03T06:23:00.75Z</time></trkpt><trkpt lat="41.8516517" lon="12.6413767"><ele>80.0</ele><time>2026-05-03T06:23:02.75Z</time></trkpt><trkpt lat="41.8515833" lon="12.6413817"><ele>80.0</ele><time>2026-05-03T06:23:04.749Z</time></trkpt><trkpt lat="41.85152" lon="12.6413983"><ele>79.71428571428571</ele><time>2026-05-03T06:23:06.75Z</time></trkpt><trkpt lat="41.8514517" lon="12.6414233"><ele>79.42857142857143</ele><time>2026-05-03T06:23:08.75Z</time></trkpt><trkpt lat="41.8513883" lon="12.6414683"><ele>79.14285714285714</ele><time>2026-05-03T06:23:10.75Z</time></trkpt><trkpt lat="41.8513317" lon="12.641525"><ele>78.85714285714286</ele><time>2026-05-03T06:23:12.749Z</time></trkpt><trkpt lat="41.85128" lon="12.6415967"><ele>78.57142857142857</ele><time>2026-05-03T06:23:14.747Z</time></trkpt><trkpt lat="41.8512283" lon="12.6416667"><ele>78.28571428571429</ele><time>2026-05-03T06:23:16.75Z</time></trkpt><trkpt lat="41.851175" lon="12.641735"><ele>78.0</ele><time>2026-05-03T06:23:18.748Z</time></trkpt><trkpt lat="41.851115" lon="12.641795"><ele>78.0</ele><time>2026-05-03T06:23:20.749Z</time></trkpt><trkpt lat="41.8510517" lon="12.6418383"><ele>78.0</ele><time>2026-05-03T06:23:22.747Z</time></trkpt><trkpt lat="41.850985" lon="12.64188"><ele>78.0</ele><time>2026-05-03T06:23:24.751Z</time></trkpt><trkpt lat="41.8509133" lon="12.6419183"><ele>78.0</ele><time>2026-05-03T06:23:26.75Z</time></trkpt><trkpt lat="41.8508483" lon="12.6419583"><ele>78.0</ele><time>2026-05-03T06:23:28.749Z</time></trkpt><trkpt lat="41.850785" lon="12.64201"><ele>78.0</ele><time>2026-05-03T06:23:30.75Z</time></trkpt><trkpt lat="41.85073" lon="12.642075"><ele>78.0</ele><time>2026-05-03T06:23:32.749Z</time></trkpt><trkpt lat="41.8506817" lon="12.6421333"><ele>78.5</ele><time>2026-05-03T06:23:34.75Z</time></trkpt><trkpt lat="41.8506133" lon="12.6422167"><ele>79.0</ele><time>2026-05-03T06:23:37.749Z</time></trkpt><trkpt lat="41.8505717" lon="12.6422883"><ele>79.5</ele><time>2026-05-03T06:23:39.75Z</time></trkpt><trkpt lat="41.850525" lon="12.6423717"><ele>80.0</ele><time>2026-05-03T06:23:41.749Z</time></trkpt><trkpt lat="41.850465" lon="12.642425"><ele>80.5</ele><time>2026-05-03T06:23:43.749Z</time></trkpt><trkpt lat="41.8503833" lon="12.642375"><ele>81.0</ele><time>2026-05-03T06:23:46.749Z</time></trkpt><trkpt lat="41.8503117" lon="12.6423183"><ele>81.0</ele><time>2026-05-03T06:23:49.749Z</time></trkpt><trkpt lat="41.8502533" lon="12.6422717"><ele>81.0</ele><time>2026-05-03T06:23:51.75Z</time></trkpt><trkpt lat="41.850185" lon="12.6422133"><ele>81.0</ele><time>2026-05-03T06:23:53.75Z</time></trkpt><trkpt lat="41.850125" lon="12.64215"><ele>81.0</ele><time>2026-05-03T06:23:55.749Z</time></trkpt><trkpt lat="41.8500633" lon="12.6420933"><ele>81.0</ele><time>2026-05-03T06:23:57.749Z</time></trkpt><trkpt lat="41.8499933" lon="12.6420467"><ele>81.0</ele><time>2026-05-03T06:23:59.747Z</time></trkpt><trkpt lat="41.84992" lon="12.6420117"><ele>81.16666666666667</ele><time>2026-05-03T06:24:01.749Z</time></trkpt><trkpt lat="41.8498467" lon="12.6419733"><ele>81.33333333333333</ele><time>2026-05-03T06:24:03.748Z</time></trkpt><trkpt lat="41.8497833" lon="12.641925"><ele>81.5</ele><time>2026-05-03T06:24:05.746Z</time></trkpt><trkpt lat="41.84972" lon="12.6418817"><ele>81.66666666666666</ele><time>2026-05-03T06:24:07.746Z</time></trkpt><trkpt lat="41.8496567" lon="12.64183"><ele>81.83333333333333</ele><time>2026-05-03T06:24:09.746Z</time></trkpt><trkpt lat="41.84959" lon="12.6417783"><ele>82.0</ele><time>2026-05-03T06:24:11.75Z</time></trkpt><trkpt lat="41.8495133" lon="12.6417167"><ele>82.0</ele><time>2026-05-03T06:24:14.749Z</time></trkpt><trkpt lat="41.8494383" lon="12.64168"><ele>82.0</ele><time>2026-05-03T06:24:17.75Z</time></trkpt><trkpt lat="41.8493583" lon="12.6416417"><ele>82.0</ele><time>2026-05-03T06:24:20.75Z</time></trkpt><trkpt lat="41.8492883" lon="12.6415917"><ele>82.0</ele><time>2026-05-03T06:24:23.75Z</time></trkpt><trkpt lat="41.8492317" lon="12.6415417"><ele>82.0</ele><time>2026-05-03T06:24:25.749Z</time></trkpt><trkpt lat="41.84916" lon="12.6414667"><ele>82.0</ele><time>2026-05-03T06:24:28.75Z</time></trkpt><trkpt lat="41.8491083" lon="12.641375"><ele>82.16666666666666</ele><time>2026-05-03T06:24:31.749Z</time></trkpt><trkpt lat="41.8490883" lon="12.6412933"><ele>82.33333333333333</ele><time>2026-05-03T06:24:33.75Z</time></trkpt><trkpt lat="41.8490833" lon="12.6412"><ele>82.5</ele><time>2026-05-03T06:24:35.75Z</time></trkpt><trkpt lat="41.8490533" lon="12.6411133"><ele>82.66666666666667</ele><time>2026-05-03T06:24:37.749Z</time></trkpt><trkpt lat="41.8490033" lon="12.6410283"><ele>82.83333333333334</ele><time>2026-05-03T06:24:39.748Z</time></trkpt><trkpt lat="41.84897" lon="12.6409183"><ele>83.0</ele><time>2026-05-03T06:24:41.751Z</time></trkpt><trkpt lat="41.8489433" lon="12.6408083"><ele>83.0</ele><time>2026-05-03T06:24:43.748Z</time></trkpt><trkpt lat="41.84891" lon="12.6406767"><ele>83.0</ele><time>2026-05-03T06:24:45.747Z</time></trkpt><trkpt lat="41.8488617" lon="12.6405283"><ele>83.0</ele><time>2026-05-03T06:24:47.749Z</time></trkpt><trkpt lat="41.8488217" lon="12.6403717"><ele>83.0</ele><time>2026-05-03T06:24:49.746Z</time></trkpt><trkpt lat="41.8487867" lon="12.640225"><ele>82.66666666666667</ele><time>2026-05-03T06:24:51.749Z</time></trkpt><trkpt lat="41.8487433" lon="12.6400933"><ele>82.33333333333334</ele><time>2026-05-03T06:24:53.747Z</time></trkpt><trkpt lat="41.848715" lon="12.6399617"><ele>82.0</ele><time>2026-05-03T06:24:55.749Z</time></trkpt><trkpt lat="41.8486967" lon="12.6398683"><ele>81.66666666666667</ele><time>2026-05-03T06:24:57.75Z</time></trkpt><trkpt lat="41.8486533" lon="12.6397983"><ele>81.33333333333333</ele><time>2026-05-03T06:25:00.747Z</time></trkpt><trkpt lat="41.848585" lon="12.63983"><ele>81.0</ele><time>2026-05-03T06:25:03.748Z</time></trkpt><trkpt lat="41.8485017" lon="12.6398717"><ele>81.14285714285714</ele><time>2026-05-03T06:25:06.75Z</time></trkpt><trkpt lat="41.8484383" lon="12.639895"><ele>81.28571428571428</ele><time>2026-05-03T06:25:08.749Z</time></trkpt><trkpt lat="41.8483733" lon="12.6399117"><ele>81.42857142857142</ele><time>2026-05-03T06:25:10.749Z</time></trkpt><trkpt lat="41.8483083" lon="12.6399317"><ele>81.57142857142857</ele><time>2026-05-03T06:25:12.749Z</time></trkpt><trkpt lat="41.848245" lon="12.6399583"><ele>81.71428571428571</ele><time>2026-05-03T06:25:14.748Z</time></trkpt><trkpt lat="41.8481767" lon="12.63999"><ele>81.85714285714285</ele><time>2026-05-03T06:25:16.75Z</time></trkpt><trkpt lat="41.8481083" lon="12.640015"><ele>82.0</ele><time>2026-05-03T06:25:18.746Z</time></trkpt><trkpt lat="41.8480417" lon="12.640045"><ele>82.0</ele><time>2026-05-03T06:25:20.746Z</time></trkpt><trkpt lat="41.847975" lon="12.6400683"><ele>82.0</ele><time>2026-05-03T06:25:22.748Z</time></trkpt><trkpt lat="41.84791" lon="12.64009"><ele>82.0</ele><time>2026-05-03T06:25:24.75Z</time></trkpt><trkpt lat="41.8478217" lon="12.6401183"><ele>82.0</ele><time>2026-05-03T06:25:27.75Z</time></trkpt><trkpt lat="41.84776" lon="12.6401433"><ele>82.0</ele><time>2026-05-03T06:25:29.75Z</time></trkpt><trkpt lat="41.847675" lon="12.6401733"><ele>82.0</ele><time>2026-05-03T06:25:32.749Z</time></trkpt><trkpt lat="41.847585" lon="12.6402117"><ele>82.33333333333333</ele><time>2026-05-03T06:25:35.75Z</time></trkpt><trkpt lat="41.8474917" lon="12.64025"><ele>82.66666666666666</ele><time>2026-05-03T06:25:38.746Z</time></trkpt><trkpt lat="41.8474267" lon="12.6402817"><ele>83.0</ele><time>2026-05-03T06:25:40.747Z</time></trkpt><trkpt lat="41.84736" lon="12.6403117"><ele>83.33333333333333</ele><time>2026-05-03T06:25:42.749Z</time></trkpt><trkpt lat="41.8472867" lon="12.6403417"><ele>83.66666666666667</ele><time>2026-05-03T06:25:44.749Z</time></trkpt><trkpt lat="41.84722" lon="12.64037"><ele>84.0</ele><time>2026-05-03T06:25:46.746Z</time></trkpt><trkpt lat="41.8471517" lon="12.640405"><ele>84.0</ele><time>2026-05-03T06:25:48.749Z</time></trkpt><trkpt lat="41.8470867" lon="12.6404333"><ele>84.0</ele><time>2026-05-03T06:25:50.75Z</time></trkpt><trkpt lat="41.847015" lon="12.6404617"><ele>84.0</ele><time>2026-05-03T06:25:52.75Z</time></trkpt><trkpt lat="41.8469433" lon="12.64049"><ele>84.0</ele><time>2026-05-03T06:25:54.747Z</time></trkpt><trkpt lat="41.846875" lon="12.6405183"><ele>84.0</ele><time>2026-05-03T06:25:56.746Z</time></trkpt><trkpt lat="41.8468017" lon="12.6405467"><ele>84.0</ele><time>2026-05-03T06:25:58.747Z</time></trkpt><trkpt lat="41.8467317" lon="12.6405683"><ele>84.0</ele><time>2026-05-03T06:26:00.749Z</time></trkpt><trkpt lat="41.8466633" lon="12.6405867"><ele>83.85714285714286</ele><time>2026-05-03T06:26:02.746Z</time></trkpt><trkpt lat="41.8465933" lon="12.64061"><ele>83.71428571428572</ele><time>2026-05-03T06:26:04.746Z</time></trkpt><trkpt lat="41.846525" lon="12.6406417"><ele>83.57142857142857</ele><time>2026-05-03T06:26:06.749Z</time></trkpt><trkpt lat="41.846455" lon="12.6406667"><ele>83.42857142857143</ele><time>2026-05-03T06:26:08.746Z</time></trkpt><trkpt lat="41.8463867" lon="12.640685"><ele>83.28571428571429</ele><time>2026-05-03T06:26:10.746Z</time></trkpt><trkpt lat="41.8463217" lon="12.6407083"><ele>83.14285714285714</ele><time>2026-05-03T06:26:12.747Z</time></trkpt><trkpt lat="41.8462533" lon="12.6407483"><ele>83.0</ele><time>2026-05-03T06:26:14.747Z</time></trkpt><trkpt lat="41.8461817" lon="12.640775"><ele>83.0</ele><time>2026-05-03T06:26:16.748Z</time></trkpt><trkpt lat="41.8461133" lon="12.6407983"><ele>83.0</ele><time>2026-05-03T06:26:18.747Z</time></trkpt><trkpt lat="41.8460467" lon="12.64082"><ele>83.0</ele><time>2026-05-03T06:26:20.749Z</time></trkpt><trkpt lat="41.8459817" lon="12.6408517"><ele>83.0</ele><time>2026-05-03T06:26:22.746Z</time></trkpt><trkpt lat="41.8459083" lon="12.6408783"><ele>83.0</ele><time>2026-05-03T06:26:24.747Z</time></trkpt><trkpt lat="41.8458333" lon="12.6409083"><ele>83.0</ele><time>2026-05-03T06:26:26.748Z</time></trkpt><trkpt lat="41.8457617" lon="12.6409433"><ele>83.0</ele><time>2026-05-03T06:26:28.747Z</time></trkpt><trkpt lat="41.8456883" lon="12.6409733"><ele>82.71428571428571</ele><time>2026-05-03T06:26:30.746Z</time></trkpt><trkpt lat="41.8456183" lon="12.6410017"><ele>82.42857142857143</ele><time>2026-05-03T06:26:32.746Z</time></trkpt><trkpt lat="41.8455467" lon="12.6410267"><ele>82.14285714285714</ele><time>2026-05-03T06:26:34.749Z</time></trkpt><trkpt lat="41.8454767" lon="12.6410533"><ele>81.85714285714286</ele><time>2026-05-03T06:26:36.746Z</time></trkpt><trkpt lat="41.8454067" lon="12.6410817"><ele>81.57142857142857</ele><time>2026-05-03T06:26:38.749Z</time></trkpt><trkpt lat="41.8453367" lon="12.6411033"><ele>81.28571428571429</ele><time>2026-05-03T06:26:40.75Z</time></trkpt><trkpt lat="41.8452633" lon="12.6411267"><ele>81.0</ele><time>2026-05-03T06:26:42.747Z</time></trkpt><trkpt lat="41.84519" lon="12.6411583"><ele>82.33333333333333</ele><time>2026-05-03T06:26:44.748Z</time></trkpt><trkpt lat="41.845115" lon="12.64119"><ele>83.66666666666667</ele><time>2026-05-03T06:26:46.75Z</time></trkpt><trkpt lat="41.84504" lon="12.6412217"><ele>85.0</ele><time>2026-05-03T06:26:48.749Z</time></trkpt><trkpt lat="41.844965" lon="12.64125"><ele>86.33333333333334</ele><time>2026-05-03T06:26:50.749Z</time></trkpt><trkpt lat="41.844895" lon="12.6412883"><ele>87.66666666666667</ele><time>2026-05-03T06:26:52.748Z</time></trkpt><trkpt lat="41.8448217" lon="12.6413217"><ele>89.0</ele><time>2026-05-03T06:26:54.751Z</time></trkpt><trkpt lat="41.8447533" lon="12.6413533"><ele>89.0</ele><time>2026-05-03T06:26:56.748Z</time></trkpt><trkpt lat="41.84468" lon="12.641385"><ele>89.0</ele><time>2026-05-03T06:26:58.746Z</time></trkpt><trkpt lat="41.844605" lon="12.64141"><ele>89.0</ele><time>2026-05-03T06:27:00.747Z</time></trkpt><trkpt lat="41.8445317" lon="12.6414367"><ele>89.0</ele><time>2026-05-03T06:27:02.747Z</time></trkpt><trkpt lat="41.84446" lon="12.6414717"><ele>89.0</ele><time>2026-05-03T06:27:04.746Z</time></trkpt><trkpt lat="41.84439" lon="12.6414967"><ele>89.0</ele><time>2026-05-03T06:27:06.75Z</time></trkpt><trkpt lat="41.8443167" lon="12.6415267"><ele>89.5</ele><time>2026-05-03T06:27:08.747Z</time></trkpt><trkpt lat="41.8442367" lon="12.6415567"><ele>90.0</ele><time>2026-05-03T06:27:10.747Z</time></trkpt><trkpt lat="41.84416" lon="12.6415867"><ele>90.5</ele><time>2026-05-03T06:27:12.748Z</time></trkpt><trkpt lat="41.844085" lon="12.6416167"><ele>91.0</ele><time>2026-05-03T06:27:14.747Z</time></trkpt><trkpt lat="41.84401" lon="12.64165"><ele>91.5</ele><time>2026-05-03T06:27:16.749Z</time></trkpt><trkpt lat="41.8439367" lon="12.64169"><ele>92.0</ele><time>2026-05-03T06:27:18.747Z</time></trkpt><trkpt lat="41.84386" lon="12.6417333"><ele>92.0</ele><time>2026-05-03T06:27:20.747Z</time></trkpt><trkpt lat="41.843785" lon="12.64177"><ele>92.0</ele><time>2026-05-03T06:27:22.747Z</time></trkpt><trkpt lat="41.8437117" lon="12.6417917"><ele>92.0</ele><time>2026-05-03T06:27:24.747Z</time></trkpt><trkpt lat="41.8436383" lon="12.641805"><ele>92.0</ele><time>2026-05-03T06:27:26.749Z</time></trkpt><trkpt lat="41.843565" lon="12.6418233"><ele>92.0</ele><time>2026-05-03T06:27:28.75Z</time></trkpt><trkpt lat="41.8434917" lon="12.6418467"><ele>92.0</ele><time>2026-05-03T06:27:30.747Z</time></trkpt><trkpt lat="41.843415" lon="12.6418783"><ele>92.0</ele><time>2026-05-03T06:27:32.75Z</time></trkpt><trkpt lat="41.843345" lon="12.6418983"><ele>92.0</ele><time>2026-05-03T06:27:34.749Z</time></trkpt><trkpt lat="41.8432767" lon="12.6419333"><ele>92.0</ele><time>2026-05-03T06:27:36.75Z</time></trkpt><trkpt lat="41.8432083" lon="12.641975"><ele>92.0</ele><time>2026-05-03T06:27:38.75Z</time></trkpt><trkpt lat="41.84314" lon="12.6420117"><ele>92.0</ele><time>2026-05-03T06:27:40.746Z</time></trkpt><trkpt lat="41.8430717" lon="12.6420383"><ele>92.0</ele><time>2026-05-03T06:27:42.75Z</time></trkpt><trkpt lat="41.843005" lon="12.642085"><ele>92.0</ele><time>2026-05-03T06:27:44.746Z</time></trkpt><trkpt lat="41.8429417" lon="12.6421367"><ele>92.0</ele><time>2026-05-03T06:27:46.747Z</time></trkpt><trkpt lat="41.84288" lon="12.6422017"><ele>92.0</ele><time>2026-05-03T06:27:48.749Z</time></trkpt><trkpt lat="41.8428267" lon="12.64227"><ele>92.0</ele><time>2026-05-03T06:27:50.749Z</time></trkpt><trkpt lat="41.8427667" lon="12.6423417"><ele>92.0</ele><time>2026-05-03T06:27:52.749Z</time></trkpt><trkpt lat="41.8427167" lon="12.6424183"><ele>92.0</ele><time>2026-05-03T06:27:54.749Z</time></trkpt><trkpt lat="41.84268" lon="12.6425083"><ele>92.0</ele><time>2026-05-03T06:27:56.75Z</time></trkpt><trkpt lat="41.8426483" lon="12.6425967"><ele>92.28571428571429</ele><time>2026-05-03T06:27:58.75Z</time></trkpt><trkpt lat="41.8426267" lon="12.6426883"><ele>92.57142857142857</ele><time>2026-05-03T06:28:00.75Z</time></trkpt><trkpt lat="41.8425983" lon="12.6427833"><ele>92.85714285714286</ele><time>2026-05-03T06:28:02.75Z</time></trkpt><trkpt lat="41.8425767" lon="12.6428767"><ele>93.14285714285714</ele><time>2026-05-03T06:28:04.749Z</time></trkpt><trkpt lat="41.8425517" lon="12.642965"><ele>93.42857142857142</ele><time>2026-05-03T06:28:06.746Z</time></trkpt><trkpt lat="41.8425317" lon="12.6430633"><ele>93.71428571428571</ele><time>2026-05-03T06:28:08.75Z</time></trkpt><trkpt lat="41.84253" lon="12.64317"><ele>94.0</ele><time>2026-05-03T06:28:10.75Z</time></trkpt><trkpt lat="41.842525" lon="12.6432717"><ele>94.0</ele><time>2026-05-03T06:28:12.748Z</time></trkpt><trkpt lat="41.8425283" lon="12.6433633"><ele>94.0</ele><time>2026-05-03T06:28:14.749Z</time></trkpt><trkpt lat="41.8425433" lon="12.643455"><ele>94.0</ele><time>2026-05-03T06:28:16.749Z</time></trkpt><trkpt lat="41.842555" lon="12.6435533"><ele>94.0</ele><time>2026-05-03T06:28:18.748Z</time></trkpt><trkpt lat="41.8425767" lon="12.643645"><ele>94.0</ele><time>2026-05-03T06:28:20.748Z</time></trkpt><trkpt lat="41.8426017" lon="12.643735"><ele>94.0</ele><time>2026-05-03T06:28:22.747Z</time></trkpt><trkpt lat="41.84262" lon="12.6438283"><ele>94.0</ele><time>2026-05-03T06:28:24.75Z</time></trkpt><trkpt lat="41.84264" lon="12.643925"><ele>94.33333333333333</ele><time>2026-05-03T06:28:26.749Z</time></trkpt><trkpt lat="41.8426617" lon="12.6440283"><ele>94.66666666666666</ele><time>2026-05-03T06:28:28.748Z</time></trkpt><trkpt lat="41.8426817" lon="12.64413"><ele>95.0</ele><time>2026-05-03T06:28:30.75Z</time></trkpt><trkpt lat="41.842705" lon="12.6442283"><ele>95.33333333333333</ele><time>2026-05-03T06:28:32.749Z</time></trkpt><trkpt lat="41.8427267" lon="12.6443217"><ele>95.66666666666667</ele><time>2026-05-03T06:28:34.749Z</time></trkpt><trkpt lat="41.842745" lon="12.6444167"><ele>96.0</ele><time>2026-05-03T06:28:36.748Z</time></trkpt><trkpt lat="41.8427683" lon="12.6445133"><ele>95.99999999999999</ele><time>2026-05-03T06:28:38.746Z</time></trkpt><trkpt lat="41.8427883" lon="12.64461"><ele>96.0</ele><time>2026-05-03T06:28:40.747Z</time></trkpt><trkpt lat="41.8428033" lon="12.6447067"><ele>96.0</ele><time>2026-05-03T06:28:42.751Z</time></trkpt><trkpt lat="41.8428267" lon="12.6448017"><ele>96.0</ele><time>2026-05-03T06:28:44.75Z</time></trkpt><trkpt lat="41.8428517" lon="12.6448983"><ele>96.0</ele><time>2026-05-03T06:28:46.747Z</time></trkpt><trkpt lat="41.842875" lon="12.6449933"><ele>95.99999999999999</ele><time>2026-05-03T06:28:48.748Z</time></trkpt><trkpt lat="41.8428967" lon="12.64509"><ele>96.0</ele><time>2026-05-03T06:28:50.746Z</time></trkpt><trkpt lat="41.8429217" lon="12.6451867"><ele>96.0</ele><time>2026-05-03T06:28:52.747Z</time></trkpt><trkpt lat="41.84294" lon="12.6452867"><ele>96.0</ele><time>2026-05-03T06:28:54.75Z</time></trkpt><trkpt lat="41.84296" lon="12.6453867"><ele>96.0</ele><time>2026-05-03T06:28:56.749Z</time></trkpt><trkpt lat="41.8429883" lon="12.6454833"><ele>96.0</ele><time>2026-05-03T06:28:58.749Z</time></trkpt><trkpt lat="41.84301" lon="12.64558"><ele>96.0</ele><time>2026-05-03T06:29:00.749Z</time></trkpt><trkpt lat="41.8430333" lon="12.6456817"><ele>96.0</ele><time>2026-05-03T06:29:02.748Z</time></trkpt><trkpt lat="41.8430583" lon="12.6457817"><ele>96.5</ele><time>2026-05-03T06:29:04.749Z</time></trkpt><trkpt lat="41.8430783" lon="12.6458917"><ele>97.0</ele><time>2026-05-03T06:29:06.749Z</time></trkpt><trkpt lat="41.8431" lon="12.6460033"><ele>97.5</ele><time>2026-05-03T06:29:08.748Z</time></trkpt><trkpt lat="41.8431267" lon="12.64611"><ele>98.0</ele><time>2026-05-03T06:29:10.749Z</time></trkpt><trkpt lat="41.8431483" lon="12.646215"><ele>98.5</ele><time>2026-05-03T06:29:12.749Z</time></trkpt><trkpt lat="41.8431667" lon="12.646325"><ele>99.0</ele><time>2026-05-03T06:29:14.748Z</time></trkpt><trkpt lat="41.84319" lon="12.6464267"><ele>99.5</ele><time>2026-05-03T06:29:16.748Z</time></trkpt><trkpt lat="41.843215" lon="12.6465267"><ele>100.0</ele><time>2026-05-03T06:29:18.747Z</time></trkpt><trkpt lat="41.8432383" lon="12.6466283"><ele>100.5</ele><time>2026-05-03T06:29:20.746Z</time></trkpt><trkpt lat="41.84327" lon="12.6467267"><ele>101.0</ele><time>2026-05-03T06:29:22.746Z</time></trkpt><trkpt lat="41.8433017" lon="12.6468283"><ele>101.5</ele><time>2026-05-03T06:29:24.75Z</time></trkpt><trkpt lat="41.84334" lon="12.64692"><ele>102.0</ele><time>2026-05-03T06:29:26.75Z</time></trkpt><trkpt lat="41.8433883" lon="12.6470083"><ele>102.66666666666667</ele><time>2026-05-03T06:29:28.749Z</time></trkpt><trkpt lat="41.84344" lon="12.647085"><ele>103.33333333333334</ele><time>2026-05-03T06:29:30.75Z</time></trkpt><trkpt lat="41.8435017" lon="12.6471517"><ele>104.0</ele><time>2026-05-03T06:29:32.75Z</time></trkpt><trkpt lat="41.8435633" lon="12.6472183"><ele>104.66666666666667</ele><time>2026-05-03T06:29:34.749Z</time></trkpt><trkpt lat="41.8436117" lon="12.6473"><ele>105.33333333333334</ele><time>2026-05-03T06:29:36.749Z</time></trkpt><trkpt lat="41.8436467" lon="12.6473933"><ele>106.0</ele><time>2026-05-03T06:29:38.749Z</time></trkpt><trkpt lat="41.8436667" lon="12.647495"><ele>104.50000000000001</ele><time>2026-05-03T06:29:40.754Z</time></trkpt><trkpt lat="41.843675" lon="12.6475983"><ele>103.0</ele><time>2026-05-03T06:29:42.75Z</time></trkpt><trkpt lat="41.8436617" lon="12.6477017"><ele>101.5</ele><time>2026-05-03T06:29:44.749Z</time></trkpt><trkpt lat="41.8436283" lon="12.64781"><ele>100.0</ele><time>2026-05-03T06:29:46.749Z</time></trkpt><trkpt lat="41.843605" lon="12.6479183"><ele>98.50000000000001</ele><time>2026-05-03T06:29:48.747Z</time></trkpt><trkpt lat="41.8436" lon="12.64803"><ele>97.0</ele><time>2026-05-03T06:29:50.746Z</time></trkpt><trkpt lat="41.8435983" lon="12.6481333"><ele>96.66666666666667</ele><time>2026-05-03T06:29:52.746Z</time></trkpt><trkpt lat="41.8435967" lon="12.64822"><ele>96.33333333333334</ele><time>2026-05-03T06:29:56.748Z</time></trkpt><trkpt lat="41.8436283" lon="12.64831"><ele>96.0</ele><time>2026-05-03T06:30:00.747Z</time></trkpt><trkpt lat="41.8436383" lon="12.6484117"><ele>95.66666666666667</ele><time>2026-05-03T06:30:03.746Z</time></trkpt><trkpt lat="41.843665" lon="12.648515"><ele>95.33333333333334</ele><time>2026-05-03T06:30:06.747Z</time></trkpt><trkpt lat="41.8436917" lon="12.648615"><ele>95.0</ele><time>2026-05-03T06:30:09.747Z</time></trkpt><trkpt lat="41.84372" lon="12.6487233"><ele>94.66666666666667</ele><time>2026-05-03T06:30:12.749Z</time></trkpt><trkpt lat="41.8437433" lon="12.6488367"><ele>94.33333333333334</ele><time>2026-05-03T06:30:15.749Z</time></trkpt><trkpt lat="41.8437667" lon="12.6489583"><ele>94.0</ele><time>2026-05-03T06:30:18.748Z</time></trkpt><trkpt lat="41.8437883" lon="12.649045"><ele>93.66666666666667</ele><time>2026-05-03T06:30:20.748Z</time></trkpt><trkpt lat="41.8438067" lon="12.6491333"><ele>93.33333333333333</ele><time>2026-05-03T06:30:22.749Z</time></trkpt><trkpt lat="41.843825" lon="12.64922"><ele>93.0</ele><time>2026-05-03T06:30:24.748Z</time></trkpt><trkpt lat="41.843845" lon="12.6493067"><ele>93.00000000000001</ele><time>2026-05-03T06:30:26.748Z</time></trkpt><trkpt lat="41.843865" lon="12.6493983"><ele>93.0</ele><time>2026-05-03T06:30:28.749Z</time></trkpt><trkpt lat="41.843885" lon="12.64949"><ele>93.0</ele><time>2026-05-03T06:30:30.746Z</time></trkpt><trkpt lat="41.843905" lon="12.6495733"><ele>93.0</ele><time>2026-05-03T06:30:32.747Z</time></trkpt><trkpt lat="41.8439233" lon="12.6496617"><ele>93.0</ele><time>2026-05-03T06:30:34.746Z</time></trkpt><trkpt lat="41.843945" lon="12.64975"><ele>93.00000000000001</ele><time>2026-05-03T06:30:36.747Z</time></trkpt><trkpt lat="41.8439683" lon="12.649845"><ele>93.0</ele><time>2026-05-03T06:30:38.747Z</time></trkpt><trkpt lat="41.8439833" lon="12.6499383"><ele>92.85714285714286</ele><time>2026-05-03T06:30:40.749Z</time></trkpt><trkpt lat="41.844" lon="12.65003"><ele>92.71428571428572</ele><time>2026-05-03T06:30:42.748Z</time></trkpt><trkpt lat="41.8440167" lon="12.6501233"><ele>92.57142857142858</ele><time>2026-05-03T06:30:44.749Z</time></trkpt><trkpt lat="41.8440433" lon="12.6502117"><ele>92.42857142857143</ele><time>2026-05-03T06:30:46.75Z</time></trkpt><trkpt lat="41.84406" lon="12.6503067"><ele>92.28571428571428</ele><time>2026-05-03T06:30:48.749Z</time></trkpt><trkpt lat="41.8440833" lon="12.6504067"><ele>92.14285714285715</ele><time>2026-05-03T06:30:50.748Z</time></trkpt><trkpt lat="41.8441033" lon="12.65051"><ele>92.0</ele><time>2026-05-03T06:30:52.748Z</time></trkpt><trkpt lat="41.8441183" lon="12.6506"><ele>92.0</ele><time>2026-05-03T06:30:54.748Z</time></trkpt><trkpt lat="41.8441433" lon="12.6506983"><ele>92.0</ele><time>2026-05-03T06:30:56.749Z</time></trkpt><trkpt lat="41.84417" lon="12.6507933"><ele>92.0</ele><time>2026-05-03T06:30:58.748Z</time></trkpt><trkpt lat="41.8441933" lon="12.6508867"><ele>92.0</ele><time>2026-05-03T06:31:00.747Z</time></trkpt><trkpt lat="41.844225" lon="12.650975"><ele>92.0</ele><time>2026-05-03T06:31:02.746Z</time></trkpt><trkpt lat="41.844275" lon="12.6510367"><ele>92.0</ele><time>2026-05-03T06:31:04.748Z</time></trkpt><trkpt lat="41.84432" lon="12.6511267"><ele>92.0</ele><time>2026-05-03T06:31:07.747Z</time></trkpt><trkpt lat="41.84434" lon="12.6512083"><ele>92.0</ele><time>2026-05-03T06:31:09.747Z</time></trkpt><trkpt lat="41.8443433" lon="12.6512967"><ele>92.0</ele><time>2026-05-03T06:31:11.75Z</time></trkpt><trkpt lat="41.8443217" lon="12.6513817"><ele>92.0</ele><time>2026-05-03T06:31:13.748Z</time></trkpt><trkpt lat="41.8442483" lon="12.6514567"><ele>92.0</ele><time>2026-05-03T06:31:16.748Z</time></trkpt><trkpt lat="41.8441733" lon="12.6514533"><ele>92.0</ele><time>2026-05-03T06:31:19.749Z</time></trkpt><trkpt lat="41.8441083" lon="12.6513383"><ele>92.0</ele><time>2026-05-03T06:31:28.749Z</time></trkpt><trkpt lat="41.844085" lon="12.6512317"><ele>92.0</ele><time>2026-05-03T06:31:31.747Z</time></trkpt><trkpt lat="41.84407" lon="12.6511467"><ele>92.0</ele><time>2026-05-03T06:31:33.748Z</time></trkpt><trkpt lat="41.8440517" lon="12.65106"><ele>92.0</ele><time>2026-05-03T06:31:35.748Z</time></trkpt><trkpt lat="41.8440333" lon="12.6509517"><ele>92.0</ele><time>2026-05-03T06:31:38.749Z</time></trkpt><trkpt lat="41.84401" lon="12.6508717"><ele>92.0</ele><time>2026-05-03T06:31:40.747Z</time></trkpt><trkpt lat="41.843985" lon="12.65075"><ele>92.0</ele><time>2026-05-03T06:31:43.748Z</time></trkpt><trkpt lat="41.8439717" lon="12.650665"><ele>92.0</ele><time>2026-05-03T06:31:45.748Z</time></trkpt><trkpt lat="41.8439483" lon="12.6505833"><ele>92.0</ele><time>2026-05-03T06:31:47.747Z</time></trkpt><trkpt lat="41.8439283" lon="12.6505"><ele>92.0</ele><time>2026-05-03T06:31:49.748Z</time></trkpt><trkpt lat="41.8439117" lon="12.65041"><ele>92.0</ele><time>2026-05-03T06:31:51.749Z</time></trkpt><trkpt lat="41.8438933" lon="12.6503183"><ele>92.0</ele><time>2026-05-03T06:31:53.748Z</time></trkpt><trkpt lat="41.84387" lon="12.6502267"><ele>92.0</ele><time>2026-05-03T06:31:55.749Z</time></trkpt><trkpt lat="41.8438533" lon="12.6501367"><ele>92.0</ele><time>2026-05-03T06:31:57.749Z</time></trkpt><trkpt lat="41.843835" lon="12.65005"><ele>92.0</ele><time>2026-05-03T06:31:59.747Z</time></trkpt><trkpt lat="41.8438167" lon="12.6499633"><ele>91.85714285714286</ele><time>2026-05-03T06:32:05.746Z</time></trkpt><trkpt lat="41.8437883" lon="12.64985"><ele>91.71428571428571</ele><time>2026-05-03T06:32:09.747Z</time></trkpt><trkpt lat="41.8437617" lon="12.64973"><ele>91.57142857142857</ele><time>2026-05-03T06:32:12.75Z</time></trkpt><trkpt lat="41.8437417" lon="12.649645"><ele>91.42857142857143</ele><time>2026-05-03T06:32:14.749Z</time></trkpt><trkpt lat="41.8437217" lon="12.6495583"><ele>91.28571428571428</ele><time>2026-05-03T06:32:16.748Z</time></trkpt><trkpt lat="41.843705" lon="12.649475"><ele>91.14285714285714</ele><time>2026-05-03T06:32:18.75Z</time></trkpt><trkpt lat="41.8436817" lon="12.6493917"><ele>91.0</ele><time>2026-05-03T06:32:20.749Z</time></trkpt><trkpt lat="41.8436583" lon="12.6493017"><ele>91.28571428571429</ele><time>2026-05-03T06:32:22.749Z</time></trkpt><trkpt lat="41.8436317" lon="12.6491833"><ele>91.57142857142857</ele><time>2026-05-03T06:32:25.749Z</time></trkpt><trkpt lat="41.843615" lon="12.6491"><ele>91.85714285714286</ele><time>2026-05-03T06:32:27.747Z</time></trkpt><trkpt lat="41.8435967" lon="12.6490167"><ele>92.14285714285714</ele><time>2026-05-03T06:32:29.747Z</time></trkpt><trkpt lat="41.8435783" lon="12.6489333"><ele>92.42857142857143</ele><time>2026-05-03T06:32:31.746Z</time></trkpt><trkpt lat="41.8435617" lon="12.6488467"><ele>92.71428571428572</ele><time>2026-05-03T06:32:33.749Z</time></trkpt><trkpt lat="41.8435433" lon="12.64876"><ele>93.0</ele><time>2026-05-03T06:32:35.746Z</time></trkpt><trkpt lat="41.8435217" lon="12.648675"><ele>93.28571428571429</ele><time>2026-05-03T06:32:37.746Z</time></trkpt><trkpt lat="41.8435033" lon="12.64859"><ele>93.57142857142857</ele><time>2026-05-03T06:32:39.746Z</time></trkpt><trkpt lat="41.843485" lon="12.6485017"><ele>93.85714285714286</ele><time>2026-05-03T06:32:41.75Z</time></trkpt><trkpt lat="41.8434683" lon="12.6484183"><ele>94.14285714285714</ele><time>2026-05-03T06:32:43.749Z</time></trkpt><trkpt lat="41.84344" lon="12.648315"><ele>94.42857142857143</ele><time>2026-05-03T06:32:46.748Z</time></trkpt><trkpt lat="41.8434117" lon="12.648215"><ele>94.71428571428572</ele><time>2026-05-03T06:32:49.75Z</time></trkpt><trkpt lat="41.8433733" lon="12.6481233"><ele>95.0</ele><time>2026-05-03T06:32:52.749Z</time></trkpt><trkpt lat="41.843325" lon="12.64805"><ele>95.83333333333334</ele><time>2026-05-03T06:32:55.75Z</time></trkpt><trkpt lat="41.8432717" lon="12.64797"><ele>96.66666666666667</ele><time>2026-05-03T06:32:58.746Z</time></trkpt><trkpt lat="41.8432" lon="12.6479083"><ele>97.5</ele><time>2026-05-03T06:33:01.747Z</time></trkpt><trkpt lat="41.8431183" lon="12.6478583"><ele>98.33333333333334</ele><time>2026-05-03T06:33:04.75Z</time></trkpt><trkpt lat="41.843055" lon="12.6478333"><ele>99.16666666666667</ele><time>2026-05-03T06:33:06.747Z</time></trkpt><trkpt lat="41.8429933" lon="12.6478117"><ele>100.0</ele><time>2026-05-03T06:33:08.748Z</time></trkpt><trkpt lat="41.8428983" lon="12.647805"><ele>100.00000000000001</ele><time>2026-05-03T06:33:11.75Z</time></trkpt><trkpt lat="41.8428333" lon="12.6478117"><ele>100.0</ele><time>2026-05-03T06:33:13.749Z</time></trkpt><trkpt lat="41.84277" lon="12.6478333"><ele>100.0</ele><time>2026-05-03T06:33:15.75Z</time></trkpt><trkpt lat="41.8427083" lon="12.64786"><ele>100.0</ele><time>2026-05-03T06:33:17.75Z</time></trkpt><trkpt lat="41.8426467" lon="12.6479033"><ele>100.0</ele><time>2026-05-03T06:33:19.749Z</time></trkpt><trkpt lat="41.84259" lon="12.6479583"><ele>100.00000000000001</ele><time>2026-05-03T06:33:21.75Z</time></trkpt><trkpt lat="41.8425367" lon="12.6480117"><ele>100.0</ele><time>2026-05-03T06:33:23.75Z</time></trkpt><trkpt lat="41.842485" lon="12.6480667"><ele>100.00000000000001</ele><time>2026-05-03T06:33:25.748Z</time></trkpt><trkpt lat="41.8424367" lon="12.64813"><ele>100.0</ele><time>2026-05-03T06:33:27.748Z</time></trkpt><trkpt lat="41.8423833" lon="12.6482317"><ele>100.0</ele><time>2026-05-03T06:33:30.748Z</time></trkpt><trkpt lat="41.8423517" lon="12.6483083"><ele>100.0</ele><time>2026-05-03T06:33:32.748Z</time></trkpt><trkpt lat="41.8423183" lon="12.6483817"><ele>100.0</ele><time>2026-05-03T06:33:34.748Z</time></trkpt><trkpt lat="41.8422883" lon="12.6484567"><ele>100.00000000000001</ele><time>2026-05-03T06:33:36.749Z</time></trkpt><trkpt lat="41.8422667" lon="12.6485717"><ele>100.0</ele><time>2026-05-03T06:33:39.749Z</time></trkpt><trkpt lat="41.8422583" lon="12.6486567"><ele>100.00000000000001</ele><time>2026-05-03T06:33:41.749Z</time></trkpt><trkpt lat="41.8422517" lon="12.6487733"><ele>100.0</ele><time>2026-05-03T06:33:44.749Z</time></trkpt><trkpt lat="41.8422433" lon="12.648885"><ele>100.0</ele><time>2026-05-03T06:33:47.749Z</time></trkpt><trkpt lat="41.8422217" lon="12.6489667"><ele>100.0</ele><time>2026-05-03T06:33:49.75Z</time></trkpt><trkpt lat="41.842195" lon="12.6490533"><ele>100.00000000000001</ele><time>2026-05-03T06:33:51.748Z</time></trkpt><trkpt lat="41.84217" lon="12.6491467"><ele>100.0</ele><time>2026-05-03T06:33:53.749Z</time></trkpt><trkpt lat="41.8421517" lon="12.64924"><ele>100.00000000000001</ele><time>2026-05-03T06:33:55.747Z</time></trkpt><trkpt lat="41.8421417" lon="12.6493333"><ele>100.0</ele><time>2026-05-03T06:33:57.749Z</time></trkpt><trkpt lat="41.8421383" lon="12.6494417"><ele>100.0</ele><time>2026-05-03T06:33:59.75Z</time></trkpt><trkpt lat="41.8421283" lon="12.649555"><ele>100.0</ele><time>2026-05-03T06:34:01.75Z</time></trkpt><trkpt lat="41.84212" lon="12.6496733"><ele>100.00000000000001</ele><time>2026-05-03T06:34:03.749Z</time></trkpt><trkpt lat="41.8421183" lon="12.6497883"><ele>100.0</ele><time>2026-05-03T06:34:05.749Z</time></trkpt><trkpt lat="41.8421117" lon="12.6499033"><ele>99.00000000000001</ele><time>2026-05-03T06:34:07.749Z</time></trkpt><trkpt lat="41.8421067" lon="12.650015"><ele>98.0</ele><time>2026-05-03T06:34:09.749Z</time></trkpt><trkpt lat="41.842105" lon="12.6501283"><ele>97.0</ele><time>2026-05-03T06:34:11.752Z</time></trkpt><trkpt lat="41.8421" lon="12.6502417"><ele>96.0</ele><time>2026-05-03T06:34:13.749Z</time></trkpt><trkpt lat="41.842095" lon="12.6503567"><ele>95.0</ele><time>2026-05-03T06:34:15.749Z</time></trkpt><trkpt lat="41.84209" lon="12.6504733"><ele>94.0</ele><time>2026-05-03T06:34:17.748Z</time></trkpt><trkpt lat="41.84209" lon="12.6505867"><ele>94.0</ele><time>2026-05-03T06:34:19.75Z</time></trkpt><trkpt lat="41.84209" lon="12.6507033"><ele>94.0</ele><time>2026-05-03T06:34:21.749Z</time></trkpt><trkpt lat="41.8420933" lon="12.6508217"><ele>94.0</ele><time>2026-05-03T06:34:23.749Z</time></trkpt><trkpt lat="41.8420933" lon="12.6509367"><ele>94.0</ele><time>2026-05-03T06:34:25.752Z</time></trkpt><trkpt lat="41.8420883" lon="12.6510567"><ele>94.0</ele><time>2026-05-03T06:34:27.748Z</time></trkpt><trkpt lat="41.8420767" lon="12.65117"><ele>94.0</ele><time>2026-05-03T06:34:29.749Z</time></trkpt><trkpt lat="41.8420683" lon="12.6512867"><ele>94.0</ele><time>2026-05-03T06:34:31.749Z</time></trkpt><trkpt lat="41.84206" lon="12.651405"><ele>94.0</ele><time>2026-05-03T06:34:33.749Z</time></trkpt><trkpt lat="41.84206" lon="12.6515217"><ele>94.0</ele><time>2026-05-03T06:34:35.75Z</time></trkpt><trkpt lat="41.842055" lon="12.6516367"><ele>94.0</ele><time>2026-05-03T06:34:37.752Z</time></trkpt><trkpt lat="41.8420483" lon="12.65175"><ele>94.0</ele><time>2026-05-03T06:34:39.75Z</time></trkpt><trkpt lat="41.84204" lon="12.651865"><ele>94.0</ele><time>2026-05-03T06:34:41.749Z</time></trkpt><trkpt lat="41.84203" lon="12.65198"><ele>94.2</ele><time>2026-05-03T06:34:43.749Z</time></trkpt><trkpt lat="41.8420217" lon="12.6520967"><ele>94.4</ele><time>2026-05-03T06:34:45.749Z</time></trkpt><trkpt lat="41.8420117" lon="12.6522183"><ele>94.6</ele><time>2026-05-03T06:34:47.746Z</time></trkpt><trkpt lat="41.8420133" lon="12.652345"><ele>94.8</ele><time>2026-05-03T06:34:49.746Z</time></trkpt><trkpt lat="41.8420167" lon="12.6524683"><ele>95.0</ele><time>2026-05-03T06:34:51.747Z</time></trkpt><trkpt lat="41.84202" lon="12.65259"><ele>95.0</ele><time>2026-05-03T06:34:53.748Z</time></trkpt><trkpt lat="41.8420117" lon="12.6527083"><ele>95.0</ele><time>2026-05-03T06:34:55.749Z</time></trkpt><trkpt lat="41.8420033" lon="12.6528283"><ele>95.0</ele><time>2026-05-03T06:34:57.749Z</time></trkpt><trkpt lat="41.841995" lon="12.6529467"><ele>95.0</ele><time>2026-05-03T06:34:59.75Z</time></trkpt><trkpt lat="41.8419833" lon="12.6530633"><ele>95.0</ele><time>2026-05-03T06:35:01.749Z</time></trkpt><trkpt lat="41.8419667" lon="12.6531817"><ele>95.0</ele><time>2026-05-03T06:35:03.75Z</time></trkpt><trkpt lat="41.84195" lon="12.6533033"><ele>95.33333333333334</ele><time>2026-05-03T06:35:05.749Z</time></trkpt><trkpt lat="41.8419233" lon="12.653415"><ele>95.66666666666667</ele><time>2026-05-03T06:35:07.749Z</time></trkpt><trkpt lat="41.8418833" lon="12.6535183"><ele>96.0</ele><time>2026-05-03T06:35:09.75Z</time></trkpt><trkpt lat="41.8418317" lon="12.6536167"><ele>96.33333333333334</ele><time>2026-05-03T06:35:11.748Z</time></trkpt><trkpt lat="41.8417783" lon="12.6537"><ele>96.66666666666667</ele><time>2026-05-03T06:35:13.749Z</time></trkpt><trkpt lat="41.841715" lon="12.653775"><ele>97.0</ele><time>2026-05-03T06:35:15.75Z</time></trkpt><trkpt lat="41.8416517" lon="12.6538417"><ele>97.42857142857143</ele><time>2026-05-03T06:35:17.748Z</time></trkpt><trkpt lat="41.8415933" lon="12.6539083"><ele>97.85714285714286</ele><time>2026-05-03T06:35:19.746Z</time></trkpt><trkpt lat="41.8415317" lon="12.653965"><ele>98.28571428571429</ele><time>2026-05-03T06:35:21.747Z</time></trkpt><trkpt lat="41.8414717" lon="12.6540217"><ele>98.71428571428572</ele><time>2026-05-03T06:35:23.747Z</time></trkpt><trkpt lat="41.8414133" lon="12.6540767"><ele>99.14285714285714</ele><time>2026-05-03T06:35:25.75Z</time></trkpt><trkpt lat="41.8413567" lon="12.6541283"><ele>99.57142857142858</ele><time>2026-05-03T06:35:27.749Z</time></trkpt><trkpt lat="41.8413033" lon="12.6541767"><ele>100.0</ele><time>2026-05-03T06:35:29.747Z</time></trkpt><trkpt lat="41.8412433" lon="12.6542217"><ele>100.00000000000001</ele><time>2026-05-03T06:35:31.749Z</time></trkpt><trkpt lat="41.8411833" lon="12.6542717"><ele>100.0</ele><time>2026-05-03T06:35:33.748Z</time></trkpt><trkpt lat="41.8411283" lon="12.6543317"><ele>100.0</ele><time>2026-05-03T06:35:35.75Z</time></trkpt><trkpt lat="41.84107" lon="12.65439"><ele>100.0</ele><time>2026-05-03T06:35:37.751Z</time></trkpt><trkpt lat="41.8410117" lon="12.6544417"><ele>100.0</ele><time>2026-05-03T06:35:39.746Z</time></trkpt><trkpt lat="41.8409533" lon="12.6544967"><ele>100.00000000000001</ele><time>2026-05-03T06:35:41.749Z</time></trkpt><trkpt lat="41.84089" lon="12.6545433"><ele>100.0</ele><time>2026-05-03T06:35:43.748Z</time></trkpt><trkpt lat="41.840825" lon="12.6545633"><ele>100.42857142857143</ele><time>2026-05-03T06:35:45.749Z</time></trkpt><trkpt lat="41.8407583" lon="12.6545417"><ele>100.85714285714286</ele><time>2026-05-03T06:35:47.749Z</time></trkpt><trkpt lat="41.840675" lon="12.6544883"><ele>101.28571428571428</ele><time>2026-05-03T06:35:50.748Z</time></trkpt><trkpt lat="41.8406083" lon="12.6544967"><ele>101.71428571428572</ele><time>2026-05-03T06:35:52.75Z</time></trkpt><trkpt lat="41.8405433" lon="12.6545317"><ele>102.14285714285714</ele><time>2026-05-03T06:35:54.748Z</time></trkpt><trkpt lat="41.8404883" lon="12.654585"><ele>102.57142857142857</ele><time>2026-05-03T06:35:56.749Z</time></trkpt><trkpt lat="41.8404367" lon="12.6546517"><ele>103.0</ele><time>2026-05-03T06:35:58.75Z</time></trkpt><trkpt lat="41.84041" lon="12.6547433"><ele>103.00000000000001</ele><time>2026-05-03T06:36:00.748Z</time></trkpt><trkpt lat="41.840405" lon="12.654855"><ele>103.0</ele><time>2026-05-03T06:36:02.75Z</time></trkpt><trkpt lat="41.840395" lon="12.65496"><ele>103.0</ele><time>2026-05-03T06:36:04.749Z</time></trkpt><trkpt lat="41.8403567" lon="12.655055"><ele>103.0</ele><time>2026-05-03T06:36:06.75Z</time></trkpt><trkpt lat="41.8403" lon="12.65512"><ele>103.00000000000001</ele><time>2026-05-03T06:36:08.748Z</time></trkpt><trkpt lat="41.8402333" lon="12.655165"><ele>103.0</ele><time>2026-05-03T06:36:10.748Z</time></trkpt><trkpt lat="41.84017" lon="12.6552167"><ele>103.42857142857142</ele><time>2026-05-03T06:36:12.749Z</time></trkpt><trkpt lat="41.84011" lon="12.6552717"><ele>103.85714285714286</ele><time>2026-05-03T06:36:14.75Z</time></trkpt><trkpt lat="41.8400533" lon="12.65533"><ele>104.28571428571428</ele><time>2026-05-03T06:36:16.749Z</time></trkpt><trkpt lat="41.8399917" lon="12.655385"><ele>104.71428571428571</ele><time>2026-05-03T06:36:18.748Z</time></trkpt><trkpt lat="41.8399267" lon="12.655435"><ele>105.14285714285714</ele><time>2026-05-03T06:36:20.75Z</time></trkpt><trkpt lat="41.8398633" lon="12.6554967"><ele>105.57142857142857</ele><time>2026-05-03T06:36:22.748Z</time></trkpt><trkpt lat="41.8398017" lon="12.6555517"><ele>106.0</ele><time>2026-05-03T06:36:24.75Z</time></trkpt><trkpt lat="41.83974" lon="12.6556"><ele>106.28571428571429</ele><time>2026-05-03T06:36:26.748Z</time></trkpt><trkpt lat="41.8396783" lon="12.6556533"><ele>106.57142857142857</ele><time>2026-05-03T06:36:28.746Z</time></trkpt><trkpt lat="41.8396183" lon="12.6557117"><ele>106.85714285714286</ele><time>2026-05-03T06:36:30.75Z</time></trkpt><trkpt lat="41.8395633" lon="12.6557667"><ele>107.14285714285714</ele><time>2026-05-03T06:36:32.746Z</time></trkpt><trkpt lat="41.83951" lon="12.6558217"><ele>107.42857142857142</ele><time>2026-05-03T06:36:34.748Z</time></trkpt><trkpt lat="41.839455" lon="12.6558767"><ele>107.71428571428571</ele><time>2026-05-03T06:36:36.748Z</time></trkpt><trkpt lat="41.8394033" lon="12.65593"><ele>108.0</ele><time>2026-05-03T06:36:38.749Z</time></trkpt><trkpt lat="41.8393483" lon="12.6559817"><ele>108.42857142857143</ele><time>2026-05-03T06:36:40.749Z</time></trkpt><trkpt lat="41.839295" lon="12.6560283"><ele>108.85714285714286</ele><time>2026-05-03T06:36:42.747Z</time></trkpt><trkpt lat="41.8392183" lon="12.6560967"><ele>109.28571428571428</ele><time>2026-05-03T06:36:45.749Z</time></trkpt><trkpt lat="41.839165" lon="12.6561433"><ele>109.71428571428572</ele><time>2026-05-03T06:36:47.746Z</time></trkpt><trkpt lat="41.8391133" lon="12.656195"><ele>110.14285714285715</ele><time>2026-05-03T06:36:49.747Z</time></trkpt><trkpt lat="41.839055" lon="12.656245"><ele>110.57142857142857</ele><time>2026-05-03T06:36:51.747Z</time></trkpt><trkpt lat="41.838985" lon="12.6563267"><ele>111.0</ele><time>2026-05-03T06:36:54.748Z</time></trkpt><trkpt lat="41.8389283" lon="12.656375"><ele>111.0</ele><time>2026-05-03T06:36:56.746Z</time></trkpt><trkpt lat="41.8388733" lon="12.6564233"><ele>111.0</ele><time>2026-05-03T06:36:58.749Z</time></trkpt><trkpt lat="41.8388183" lon="12.6564767"><ele>111.0</ele><time>2026-05-03T06:37:00.746Z</time></trkpt><trkpt lat="41.8387583" lon="12.656525"><ele>111.0</ele><time>2026-05-03T06:37:02.748Z</time></trkpt><trkpt lat="41.8387" lon="12.6565667"><ele>111.0</ele><time>2026-05-03T06:37:04.747Z</time></trkpt><trkpt lat="41.83864" lon="12.6566117"><ele>111.0</ele><time>2026-05-03T06:37:06.748Z</time></trkpt><trkpt lat="41.8385817" lon="12.6566567"><ele>111.0</ele><time>2026-05-03T06:37:08.747Z</time></trkpt><trkpt lat="41.8385017" lon="12.65672"><ele>111.16666666666667</ele><time>2026-05-03T06:37:11.749Z</time></trkpt><trkpt lat="41.838445" lon="12.6567717"><ele>111.33333333333334</ele><time>2026-05-03T06:37:13.75Z</time></trkpt><trkpt lat="41.8383783" lon="12.65683"><ele>111.5</ele><time>2026-05-03T06:37:15.749Z</time></trkpt><trkpt lat="41.838305" lon="12.656895"><ele>111.66666666666667</ele><time>2026-05-03T06:37:17.751Z</time></trkpt><trkpt lat="41.8382367" lon="12.65696"><ele>111.83333333333334</ele><time>2026-05-03T06:37:19.747Z</time></trkpt><trkpt lat="41.838165" lon="12.657025"><ele>112.0</ele><time>2026-05-03T06:37:21.746Z</time></trkpt><trkpt lat="41.8380917" lon="12.657095"><ele>111.50000000000001</ele><time>2026-05-03T06:37:23.746Z</time></trkpt><trkpt lat="41.83802" lon="12.6571583"><ele>111.0</ele><time>2026-05-03T06:37:25.749Z</time></trkpt><trkpt lat="41.8379517" lon="12.6572233"><ele>110.5</ele><time>2026-05-03T06:37:27.747Z</time></trkpt><trkpt lat="41.837885" lon="12.6572983"><ele>110.0</ele><time>2026-05-03T06:37:29.749Z</time></trkpt><trkpt lat="41.837815" lon="12.6573683"><ele>109.50000000000001</ele><time>2026-05-03T06:37:31.749Z</time></trkpt><trkpt lat="41.837745" lon="12.6574333"><ele>109.0</ele><time>2026-05-03T06:37:33.748Z</time></trkpt><trkpt lat="41.8376733" lon="12.6574983"><ele>109.00000000000001</ele><time>2026-05-03T06:37:35.75Z</time></trkpt><trkpt lat="41.8376017" lon="12.657565"><ele>109.0</ele><time>2026-05-03T06:37:37.749Z</time></trkpt><trkpt lat="41.8375333" lon="12.6576333"><ele>109.0</ele><time>2026-05-03T06:37:39.748Z</time></trkpt><trkpt lat="41.83747" lon="12.6576883"><ele>109.0</ele><time>2026-05-03T06:37:41.75Z</time></trkpt><trkpt lat="41.8374083" lon="12.6577483"><ele>109.00000000000001</ele><time>2026-05-03T06:37:43.747Z</time></trkpt><trkpt lat="41.8373483" lon="12.6578067"><ele>109.0</ele><time>2026-05-03T06:37:45.748Z</time></trkpt><trkpt lat="41.8372883" lon="12.6578683"><ele>109.0</ele><time>2026-05-03T06:37:47.75Z</time></trkpt><trkpt lat="41.8372367" lon="12.657925"><ele>109.0</ele><time>2026-05-03T06:37:49.749Z</time></trkpt><trkpt lat="41.83718" lon="12.6579817"><ele>109.0</ele><time>2026-05-03T06:37:51.751Z</time></trkpt><trkpt lat="41.837125" lon="12.65805"><ele>109.0</ele><time>2026-05-03T06:37:53.749Z</time></trkpt><trkpt lat="41.8370783" lon="12.658115"><ele>109.0</ele><time>2026-05-03T06:37:55.749Z</time></trkpt><trkpt lat="41.83703" lon="12.6581717"><ele>109.0</ele><time>2026-05-03T06:37:57.75Z</time></trkpt><trkpt lat="41.8369883" lon="12.6582367"><ele>109.0</ele><time>2026-05-03T06:37:59.749Z</time></trkpt><trkpt lat="41.8369483" lon="12.6583033"><ele>109.0</ele><time>2026-05-03T06:38:01.749Z</time></trkpt><trkpt lat="41.8368917" lon="12.6583433"><ele>109.0</ele><time>2026-05-03T06:38:03.747Z</time></trkpt><trkpt lat="41.836805" lon="12.65837"><ele>109.0</ele><time>2026-05-03T06:38:06.748Z</time></trkpt><trkpt lat="41.8367167" lon="12.65839"><ele>109.0</ele><time>2026-05-03T06:38:09.75Z</time></trkpt><trkpt lat="41.836655" lon="12.6584267"><ele>109.0</ele><time>2026-05-03T06:38:11.749Z</time></trkpt><trkpt lat="41.8366" lon="12.6584783"><ele>109.0</ele><time>2026-05-03T06:38:13.749Z</time></trkpt><trkpt lat="41.8365533" lon="12.6585517"><ele>109.0</ele><time>2026-05-03T06:38:15.749Z</time></trkpt><trkpt lat="41.8365267" lon="12.6586333"><ele>110.00000000000001</ele><time>2026-05-03T06:38:17.749Z</time></trkpt><trkpt lat="41.8365133" lon="12.658725"><ele>111.0</ele><time>2026-05-03T06:38:19.749Z</time></trkpt><trkpt lat="41.83652" lon="12.6588483"><ele>112.0</ele><time>2026-05-03T06:38:22.749Z</time></trkpt><trkpt lat="41.8365283" lon="12.6589583"><ele>113.0</ele><time>2026-05-03T06:38:25.749Z</time></trkpt><trkpt lat="41.836485" lon="12.6590533"><ele>114.00000000000001</ele><time>2026-05-03T06:38:28.749Z</time></trkpt><trkpt lat="41.8364167" lon="12.6591183"><ele>115.0</ele><time>2026-05-03T06:38:31.749Z</time></trkpt><trkpt lat="41.8363583" lon="12.6591583"><ele>115.00000000000001</ele><time>2026-05-03T06:38:33.749Z</time></trkpt><trkpt lat="41.836275" lon="12.6592117"><ele>115.0</ele><time>2026-05-03T06:38:36.749Z</time></trkpt><trkpt lat="41.8362" lon="12.65928"><ele>115.0</ele><time>2026-05-03T06:38:39.749Z</time></trkpt><trkpt lat="41.8361233" lon="12.6593383"><ele>115.0</ele><time>2026-05-03T06:38:42.75Z</time></trkpt><trkpt lat="41.8360483" lon="12.6594083"><ele>115.00000000000001</ele><time>2026-05-03T06:38:45.747Z</time></trkpt><trkpt lat="41.83598" lon="12.65946"><ele>115.0</ele><time>2026-05-03T06:38:48.751Z</time></trkpt><trkpt lat="41.8359083" lon="12.6595033"><ele>115.83333333333334</ele><time>2026-05-03T06:38:51.75Z</time></trkpt><trkpt lat="41.8358383" lon="12.65956"><ele>116.66666666666667</ele><time>2026-05-03T06:38:54.749Z</time></trkpt><trkpt lat="41.83576" lon="12.6596133"><ele>117.5</ele><time>2026-05-03T06:38:57.747Z</time></trkpt><trkpt lat="41.8356883" lon="12.6596817"><ele>118.33333333333334</ele><time>2026-05-03T06:39:00.747Z</time></trkpt><trkpt lat="41.8356083" lon="12.6597367"><ele>119.16666666666667</ele><time>2026-05-03T06:39:03.749Z</time></trkpt><trkpt lat="41.8355233" lon="12.65979"><ele>120.0</ele><time>2026-05-03T06:39:06.747Z</time></trkpt><trkpt lat="41.8354467" lon="12.65982"><ele>120.0</ele><time>2026-05-03T06:39:09.75Z</time></trkpt><trkpt lat="41.83536" lon="12.6598367"><ele>120.0</ele><time>2026-05-03T06:39:12.75Z</time></trkpt><trkpt lat="41.83527" lon="12.6598517"><ele>120.0</ele><time>2026-05-03T06:39:15.748Z</time></trkpt><trkpt lat="41.8351817" lon="12.65986"><ele>120.0</ele><time>2026-05-03T06:39:18.75Z</time></trkpt><trkpt lat="41.8350933" lon="12.6598633"><ele>120.0</ele><time>2026-05-03T06:39:21.747Z</time></trkpt><trkpt lat="41.8350017" lon="12.6598533"><ele>120.0</ele><time>2026-05-03T06:39:24.749Z</time></trkpt><trkpt lat="41.8349117" lon="12.659855"><ele>120.33333333333333</ele><time>2026-05-03T06:39:27.746Z</time></trkpt><trkpt lat="41.8348217" lon="12.6598733"><ele>120.66666666666666</ele><time>2026-05-03T06:39:30.747Z</time></trkpt><trkpt lat="41.83474" lon="12.6598833"><ele>121.0</ele><time>2026-05-03T06:39:33.747Z</time></trkpt><trkpt lat="41.83466" lon="12.6599067"><ele>121.33333333333333</ele><time>2026-05-03T06:39:36.748Z</time></trkpt><trkpt lat="41.8345817" lon="12.659945"><ele>121.66666666666666</ele><time>2026-05-03T06:39:39.747Z</time></trkpt><trkpt lat="41.83451" lon="12.6599867"><ele>122.0</ele><time>2026-05-03T06:39:42.749Z</time></trkpt><trkpt lat="41.834445" lon="12.66004"><ele>121.99999999999999</ele><time>2026-05-03T06:39:45.749Z</time></trkpt><trkpt lat="41.8343767" lon="12.66009"><ele>122.0</ele><time>2026-05-03T06:39:48.75Z</time></trkpt><trkpt lat="41.8343033" lon="12.66014"><ele>122.0</ele><time>2026-05-03T06:39:51.748Z</time></trkpt><trkpt lat="41.8342367" lon="12.660185"><ele>122.0</ele><time>2026-05-03T06:39:54.75Z</time></trkpt><trkpt lat="41.8341667" lon="12.6602583"><ele>121.99999999999999</ele><time>2026-05-03T06:39:57.75Z</time></trkpt><trkpt lat="41.8341017" lon="12.6603283"><ele>122.0</ele><time>2026-05-03T06:40:00.75Z</time></trkpt><trkpt lat="41.83404" lon="12.66038"><ele>123.66666666666666</ele><time>2026-05-03T06:40:03.75Z</time></trkpt><trkpt lat="41.8339733" lon="12.660415"><ele>125.33333333333333</ele><time>2026-05-03T06:40:06.75Z</time></trkpt><trkpt lat="41.83391" lon="12.6604733"><ele>127.0</ele><time>2026-05-03T06:40:09.749Z</time></trkpt><trkpt lat="41.8338417" lon="12.6605167"><ele>128.66666666666666</ele><time>2026-05-03T06:40:12.748Z</time></trkpt><trkpt lat="41.8337717" lon="12.6605633"><ele>130.33333333333334</ele><time>2026-05-03T06:40:15.749Z</time></trkpt><trkpt lat="41.833705" lon="12.66061"><ele>132.0</ele><time>2026-05-03T06:40:18.75Z</time></trkpt><trkpt lat="41.8336417" lon="12.6606767"><ele>132.0</ele><time>2026-05-03T06:40:21.749Z</time></trkpt><trkpt lat="41.83358" lon="12.6607333"><ele>132.0</ele><time>2026-05-03T06:40:24.746Z</time></trkpt><trkpt lat="41.8335183" lon="12.66078"><ele>132.0</ele><time>2026-05-03T06:40:27.747Z</time></trkpt><trkpt lat="41.8334567" lon="12.6608333"><ele>132.0</ele><time>2026-05-03T06:40:30.747Z</time></trkpt><trkpt lat="41.833395" lon="12.6608817"><ele>132.0</ele><time>2026-05-03T06:40:33.746Z</time></trkpt><trkpt lat="41.8333283" lon="12.6609383"><ele>132.0</ele><time>2026-05-03T06:40:36.75Z</time></trkpt><trkpt lat="41.8332683" lon="12.6609883"><ele>132.0</ele><time>2026-05-03T06:40:39.746Z</time></trkpt><trkpt lat="41.8331983" lon="12.66105"><ele>132.16666666666666</ele><time>2026-05-03T06:40:42.749Z</time></trkpt><trkpt lat="41.83313" lon="12.661115"><ele>132.33333333333334</ele><time>2026-05-03T06:40:45.752Z</time></trkpt><trkpt lat="41.8330733" lon="12.6611683"><ele>132.5</ele><time>2026-05-03T06:40:48.75Z</time></trkpt><trkpt lat="41.83301" lon="12.661215"><ele>132.66666666666669</ele><time>2026-05-03T06:40:51.746Z</time></trkpt><trkpt lat="41.832945" lon="12.661275"><ele>132.83333333333334</ele><time>2026-05-03T06:40:54.75Z</time></trkpt><trkpt lat="41.8328817" lon="12.6613217"><ele>133.0</ele><time>2026-05-03T06:40:57.748Z</time></trkpt><trkpt lat="41.8328133" lon="12.66137"><ele>133.0</ele><time>2026-05-03T06:41:00.75Z</time></trkpt><trkpt lat="41.8327533" lon="12.6614383"><ele>133.0</ele><time>2026-05-03T06:41:03.75Z</time></trkpt><trkpt lat="41.832675" lon="12.6614867"><ele>133.0</ele><time>2026-05-03T06:41:06.749Z</time></trkpt><trkpt lat="41.8326033" lon="12.661545"><ele>133.0</ele><time>2026-05-03T06:41:09.749Z</time></trkpt><trkpt lat="41.8325467" lon="12.6615933"><ele>133.0</ele><time>2026-05-03T06:41:12.75Z</time></trkpt><trkpt lat="41.8324783" lon="12.661655"><ele>133.0</ele><time>2026-05-03T06:41:16.747Z</time></trkpt><trkpt lat="41.8324217" lon="12.6616967"><ele>132.83333333333334</ele><time>2026-05-03T06:41:19.747Z</time></trkpt><trkpt lat="41.83235" lon="12.661755"><ele>132.66666666666669</ele><time>2026-05-03T06:41:22.747Z</time></trkpt><trkpt lat="41.832265" lon="12.66181"><ele>132.5</ele><time>2026-05-03T06:41:25.748Z</time></trkpt><trkpt lat="41.8321883" lon="12.6618767"><ele>132.33333333333334</ele><time>2026-05-03T06:41:28.751Z</time></trkpt><trkpt lat="41.8321367" lon="12.6619283"><ele>132.16666666666666</ele><time>2026-05-03T06:41:30.748Z</time></trkpt><trkpt lat="41.8320583" lon="12.662005"><ele>132.0</ele><time>2026-05-03T06:41:33.749Z</time></trkpt><trkpt lat="41.8319967" lon="12.662065"><ele>132.0</ele><time>2026-05-03T06:41:35.75Z</time></trkpt><trkpt lat="41.831935" lon="12.662125"><ele>132.0</ele><time>2026-05-03T06:41:37.749Z</time></trkpt><trkpt lat="41.8318583" lon="12.6621933"><ele>132.0</ele><time>2026-05-03T06:41:39.752Z</time></trkpt><trkpt lat="41.8317733" lon="12.6622633"><ele>132.0</ele><time>2026-05-03T06:41:41.75Z</time></trkpt><trkpt lat="41.8316883" lon="12.6623317"><ele>132.0</ele><time>2026-05-03T06:41:43.749Z</time></trkpt><trkpt lat="41.8315983" lon="12.662405"><ele>133.2</ele><time>2026-05-03T06:41:45.749Z</time></trkpt><trkpt lat="41.8315067" lon="12.6624733"><ele>134.39999999999998</ele><time>2026-05-03T06:41:47.747Z</time></trkpt><trkpt lat="41.831415" lon="12.66255"><ele>135.60000000000002</ele><time>2026-05-03T06:41:49.748Z</time></trkpt><trkpt lat="41.8313217" lon="12.6626183"><ele>136.8</ele><time>2026-05-03T06:41:51.747Z</time></trkpt><trkpt lat="41.83122" lon="12.662695"><ele>138.0</ele><time>2026-05-03T06:41:53.746Z</time></trkpt><trkpt lat="41.8311167" lon="12.6627567"><ele>138.0</ele><time>2026-05-03T06:41:55.749Z</time></trkpt><trkpt lat="41.8310067" lon="12.6628083"><ele>138.0</ele><time>2026-05-03T06:41:57.749Z</time></trkpt><trkpt lat="41.8308867" lon="12.662835"><ele>138.0</ele><time>2026-05-03T06:41:59.748Z</time></trkpt><trkpt lat="41.83082" lon="12.6628283"><ele>138.0</ele><time>2026-05-03T06:42:00.749Z</time></trkpt><trkpt lat="41.8307583" lon="12.6628067"><ele>138.0</ele><time>2026-05-03T06:42:01.749Z</time></trkpt><trkpt lat="41.830695" lon="12.6627733"><ele>138.0</ele><time>2026-05-03T06:42:02.749Z</time></trkpt><trkpt lat="41.8305917" lon="12.6626833"><ele>138.8</ele><time>2026-05-03T06:42:04.748Z</time></trkpt><trkpt lat="41.8305117" lon="12.66257"><ele>139.60000000000002</ele><time>2026-05-03T06:42:06.748Z</time></trkpt><trkpt lat="41.830445" lon="12.6624533"><ele>140.39999999999998</ele><time>2026-05-03T06:42:08.747Z</time></trkpt><trkpt lat="41.8303833" lon="12.6623417"><ele>141.2</ele><time>2026-05-03T06:42:10.747Z</time></trkpt><trkpt lat="41.830325" lon="12.662235"><ele>142.0</ele><time>2026-05-03T06:42:12.746Z</time></trkpt><trkpt lat="41.83026" lon="12.6621433"><ele>142.0</ele><time>2026-05-03T06:42:14.748Z</time></trkpt><trkpt lat="41.8301917" lon="12.6620583"><ele>142.0</ele><time>2026-05-03T06:42:16.749Z</time></trkpt><trkpt lat="41.83012" lon="12.6619833"><ele>142.0</ele><time>2026-05-03T06:42:18.746Z</time></trkpt><trkpt lat="41.8300517" lon="12.6619167"><ele>142.0</ele><time>2026-05-03T06:42:20.748Z</time></trkpt><trkpt lat="41.8299767" lon="12.661855"><ele>142.0</ele><time>2026-05-03T06:42:22.749Z</time></trkpt><trkpt lat="41.8298967" lon="12.661795"><ele>142.0</ele><time>2026-05-03T06:42:24.747Z</time></trkpt><trkpt lat="41.8297983" lon="12.661765"><ele>140.79999999999998</ele><time>2026-05-03T06:42:26.75Z</time></trkpt><trkpt lat="41.8296967" lon="12.6617083"><ele>139.6</ele><time>2026-05-03T06:42:28.749Z</time></trkpt><trkpt lat="41.829595" lon="12.6616583"><ele>138.39999999999998</ele><time>2026-05-03T06:42:30.748Z</time></trkpt><trkpt lat="41.82949" lon="12.6616367"><ele>137.2</ele><time>2026-05-03T06:42:32.747Z</time></trkpt><trkpt lat="41.8294017" lon="12.661645"><ele>136.0</ele><time>2026-05-03T06:42:34.747Z</time></trkpt><trkpt lat="41.82934" lon="12.6616667"><ele>135.66666666666669</ele><time>2026-05-03T06:42:36.748Z</time></trkpt><trkpt lat="41.8292783" lon="12.6617067"><ele>135.33333333333334</ele><time>2026-05-03T06:42:39.748Z</time></trkpt><trkpt lat="41.8292167" lon="12.6617683"><ele>135.0</ele><time>2026-05-03T06:42:42.75Z</time></trkpt><trkpt lat="41.82916" lon="12.6618317"><ele>134.66666666666666</ele><time>2026-05-03T06:42:45.748Z</time></trkpt><trkpt lat="41.8291067" lon="12.6619017"><ele>134.33333333333331</ele><time>2026-05-03T06:42:48.748Z</time></trkpt><trkpt lat="41.82906" lon="12.661995"><ele>134.0</ele><time>2026-05-03T06:42:51.75Z</time></trkpt><trkpt lat="41.8290083" lon="12.6620767"><ele>135.83333333333331</ele><time>2026-05-03T06:42:54.747Z</time></trkpt><trkpt lat="41.828955" lon="12.6621733"><ele>137.66666666666666</ele><time>2026-05-03T06:42:57.748Z</time></trkpt><trkpt lat="41.82891" lon="12.662275"><ele>139.5</ele><time>2026-05-03T06:43:00.751Z</time></trkpt><trkpt lat="41.828865" lon="12.6623617"><ele>141.33333333333334</ele><time>2026-05-03T06:43:03.749Z</time></trkpt><trkpt lat="41.828815" lon="12.6624583"><ele>143.16666666666669</ele><time>2026-05-03T06:43:06.748Z</time></trkpt><trkpt lat="41.8287617" lon="12.6625517"><ele>145.0</ele><time>2026-05-03T06:43:09.746Z</time></trkpt><trkpt lat="41.828715" lon="12.66265"><ele>145.0</ele><time>2026-05-03T06:43:12.751Z</time></trkpt><trkpt lat="41.8286767" lon="12.6627583"><ele>145.0</ele><time>2026-05-03T06:43:15.75Z</time></trkpt><trkpt lat="41.828645" lon="12.662855"><ele>145.0</ele><time>2026-05-03T06:43:18.746Z</time></trkpt><trkpt lat="41.8285983" lon="12.6629317"><ele>145.0</ele><time>2026-05-03T06:43:21.747Z</time></trkpt><trkpt lat="41.82856" lon="12.6630117"><ele>145.0</ele><time>2026-05-03T06:43:24.748Z</time></trkpt><trkpt lat="41.82851" lon="12.6630833"><ele>145.0</ele><time>2026-05-03T06:43:27.75Z</time></trkpt><trkpt lat="41.8284767" lon="12.663155"><ele>145.0</ele><time>2026-05-03T06:43:30.749Z</time></trkpt><trkpt lat="41.8284333" lon="12.6632267"><ele>145.57142857142858</ele><time>2026-05-03T06:43:33.749Z</time></trkpt><trkpt lat="41.8283867" lon="12.663305"><ele>146.14285714285717</ele><time>2026-05-03T06:43:36.749Z</time></trkpt><trkpt lat="41.82835" lon="12.66338"><ele>146.71428571428572</ele><time>2026-05-03T06:43:39.748Z</time></trkpt><trkpt lat="41.8283183" lon="12.6634533"><ele>147.28571428571428</ele><time>2026-05-03T06:43:42.749Z</time></trkpt><trkpt lat="41.8282733" lon="12.6635217"><ele>147.85714285714283</ele><time>2026-05-03T06:43:45.75Z</time></trkpt><trkpt lat="41.8282317" lon="12.663605"><ele>148.42857142857142</ele><time>2026-05-03T06:43:48.751Z</time></trkpt><trkpt lat="41.82818" lon="12.6636967"><ele>149.0</ele><time>2026-05-03T06:43:52.75Z</time></trkpt><trkpt lat="41.82814" lon="12.663775"><ele>149.28571428571428</ele><time>2026-05-03T06:43:55.75Z</time></trkpt><trkpt lat="41.828095" lon="12.66385"><ele>149.57142857142856</ele><time>2026-05-03T06:43:58.749Z</time></trkpt><trkpt lat="41.8280617" lon="12.6639267"><ele>149.85714285714286</ele><time>2026-05-03T06:44:01.747Z</time></trkpt><trkpt lat="41.82802" lon="12.66401"><ele>150.14285714285714</ele><time>2026-05-03T06:44:04.749Z</time></trkpt><trkpt lat="41.82798" lon="12.66409"><ele>150.42857142857144</ele><time>2026-05-03T06:44:07.748Z</time></trkpt><trkpt lat="41.8279483" lon="12.664165"><ele>150.71428571428572</ele><time>2026-05-03T06:44:10.748Z</time></trkpt><trkpt lat="41.82791" lon="12.664235"><ele>151.0</ele><time>2026-05-03T06:44:13.749Z</time></trkpt><trkpt lat="41.82787" lon="12.6643083"><ele>151.0</ele><time>2026-05-03T06:44:16.749Z</time></trkpt><trkpt lat="41.8278317" lon="12.6644033"><ele>151.0</ele><time>2026-05-03T06:44:20.748Z</time></trkpt><trkpt lat="41.827785" lon="12.664495"><ele>151.0</ele><time>2026-05-03T06:44:24.748Z</time></trkpt><trkpt lat="41.8277417" lon="12.6645867"><ele>151.0</ele><time>2026-05-03T06:44:28.748Z</time></trkpt><trkpt lat="41.8277033" lon="12.6646817"><ele>151.0</ele><time>2026-05-03T06:44:32.749Z</time></trkpt><trkpt lat="41.8276683" lon="12.6647533"><ele>151.0</ele><time>2026-05-03T06:44:35.749Z</time></trkpt><trkpt lat="41.8276283" lon="12.66483"><ele>152.66666666666669</ele><time>2026-05-03T06:44:39.749Z</time></trkpt><trkpt lat="41.8275767" lon="12.6649183"><ele>154.33333333333334</ele><time>2026-05-03T06:44:43.749Z</time></trkpt><trkpt lat="41.8275383" lon="12.66501"><ele>156.0</ele><time>2026-05-03T06:44:47.749Z</time></trkpt><trkpt lat="41.82749" lon="12.6650967"><ele>157.66666666666666</ele><time>2026-05-03T06:44:51.746Z</time></trkpt><trkpt lat="41.82745" lon="12.6651683"><ele>159.33333333333331</ele><time>2026-05-03T06:44:54.749Z</time></trkpt><trkpt lat="41.8274167" lon="12.66524"><ele>161.0</ele><time>2026-05-03T06:44:57.748Z</time></trkpt><trkpt lat="41.8273817" lon="12.6653367"><ele>161.57142857142858</ele><time>2026-05-03T06:45:01.749Z</time></trkpt><trkpt lat="41.8273417" lon="12.66542"><ele>162.14285714285714</ele><time>2026-05-03T06:45:05.749Z</time></trkpt><trkpt lat="41.8273017" lon="12.6655"><ele>162.71428571428572</ele><time>2026-05-03T06:45:09.751Z</time></trkpt><trkpt lat="41.827285" lon="12.6655917"><ele>163.28571428571428</ele><time>2026-05-03T06:45:12.748Z</time></trkpt><trkpt lat="41.8272667" lon="12.6656833"><ele>163.85714285714286</ele><time>2026-05-03T06:45:15.748Z</time></trkpt><trkpt lat="41.8272317" lon="12.6657817"><ele>164.42857142857144</ele><time>2026-05-03T06:45:19.749Z</time></trkpt><trkpt lat="41.827205" lon="12.6658617"><ele>165.0</ele><time>2026-05-03T06:45:22.752Z</time></trkpt><trkpt lat="41.827185" lon="12.6659517"><ele>165.00000000000003</ele><time>2026-05-03T06:45:25.746Z</time></trkpt><trkpt lat="41.8271633" lon="12.6660417"><ele>165.0</ele><time>2026-05-03T06:45:28.75Z</time></trkpt><trkpt lat="41.8271383" lon="12.66612"><ele>165.0</ele><time>2026-05-03T06:45:31.75Z</time></trkpt><trkpt lat="41.827125" lon="12.66621"><ele>165.0</ele><time>2026-05-03T06:45:34.747Z</time></trkpt><trkpt lat="41.8270833" lon="12.6663067"><ele>165.0</ele><time>2026-05-03T06:45:38.748Z</time></trkpt><trkpt lat="41.827055" lon="12.66639"><ele>165.00000000000003</ele><time>2026-05-03T06:45:41.75Z</time></trkpt><trkpt lat="41.8270317" lon="12.66648"><ele>165.0</ele><time>2026-05-03T06:45:44.748Z</time></trkpt><trkpt lat="41.8270017" lon="12.6665633"><ele>164.71428571428572</ele><time>2026-05-03T06:45:47.747Z</time></trkpt><trkpt lat="41.8269683" lon="12.6666433"><ele>164.42857142857144</ele><time>2026-05-03T06:45:50.746Z</time></trkpt><trkpt lat="41.8269467" lon="12.6667333"><ele>164.14285714285717</ele><time>2026-05-03T06:45:53.748Z</time></trkpt><trkpt lat="41.826905" lon="12.666805"><ele>163.85714285714286</ele><time>2026-05-03T06:45:56.748Z</time></trkpt><trkpt lat="41.8268733" lon="12.66688"><ele>163.57142857142856</ele><time>2026-05-03T06:45:59.749Z</time></trkpt><trkpt lat="41.826845" lon="12.66698"><ele>163.2857142857143</ele><time>2026-05-03T06:46:03.749Z</time></trkpt><trkpt lat="41.8267867" lon="12.6670633"><ele>163.0</ele><time>2026-05-03T06:46:07.749Z</time></trkpt><trkpt lat="41.8267467" lon="12.6671333"><ele>164.2857142857143</ele><time>2026-05-03T06:46:10.749Z</time></trkpt><trkpt lat="41.8267117" lon="12.667205"><ele>165.57142857142856</ele><time>2026-05-03T06:46:13.75Z</time></trkpt><trkpt lat="41.8266667" lon="12.6672717"><ele>166.85714285714286</ele><time>2026-05-03T06:46:16.752Z</time></trkpt><trkpt lat="41.826615" lon="12.667355"><ele>168.14285714285717</ele><time>2026-05-03T06:46:20.749Z</time></trkpt><trkpt lat="41.826565" lon="12.66741"><ele>169.42857142857144</ele><time>2026-05-03T06:46:23.749Z</time></trkpt><trkpt lat="41.8265167" lon="12.667465"><ele>170.71428571428572</ele><time>2026-05-03T06:46:26.749Z</time></trkpt><trkpt lat="41.8264767" lon="12.6675333"><ele>172.0</ele><time>2026-05-03T06:46:29.75Z</time></trkpt><trkpt lat="41.82643" lon="12.667595"><ele>172.0</ele><time>2026-05-03T06:46:32.749Z</time></trkpt><trkpt lat="41.826385" lon="12.667675"><ele>172.0</ele><time>2026-05-03T06:46:36.751Z</time></trkpt><trkpt lat="41.8263283" lon="12.6677567"><ele>172.0</ele><time>2026-05-03T06:46:40.75Z</time></trkpt><trkpt lat="41.8262733" lon="12.6678383"><ele>172.0</ele><time>2026-05-03T06:46:44.748Z</time></trkpt><trkpt lat="41.826235" lon="12.6679083"><ele>172.0</ele><time>2026-05-03T06:46:47.747Z</time></trkpt><trkpt lat="41.8261767" lon="12.6679767"><ele>172.0</ele><time>2026-05-03T06:46:51.749Z</time></trkpt><trkpt lat="41.82612" lon="12.6680567"><ele>172.00000000000003</ele><time>2026-05-03T06:46:55.75Z</time></trkpt><trkpt lat="41.8260633" lon="12.6681383"><ele>172.0</ele><time>2026-05-03T06:46:59.754Z</time></trkpt><trkpt lat="41.8260083" lon="12.6682017"><ele>172.0</ele><time>2026-05-03T06:47:02.75Z</time></trkpt><trkpt lat="41.8259667" lon="12.6682667"><ele>172.0</ele><time>2026-05-03T06:47:05.75Z</time></trkpt><trkpt lat="41.825915" lon="12.6683533"><ele>172.0</ele><time>2026-05-03T06:47:09.749Z</time></trkpt><trkpt lat="41.8258683" lon="12.6684117"><ele>172.00000000000003</ele><time>2026-05-03T06:47:12.75Z</time></trkpt><trkpt lat="41.8258083" lon="12.6684867"><ele>172.0</ele><time>2026-05-03T06:47:16.75Z</time></trkpt><trkpt lat="41.825765" lon="12.6685667"><ele>173.2857142857143</ele><time>2026-05-03T06:47:20.747Z</time></trkpt><trkpt lat="41.8257033" lon="12.66864"><ele>174.57142857142858</ele><time>2026-05-03T06:47:24.75Z</time></trkpt><trkpt lat="41.82566" lon="12.6687017"><ele>175.85714285714286</ele><time>2026-05-03T06:47:27.749Z</time></trkpt><trkpt lat="41.82561" lon="12.6687833"><ele>177.14285714285717</ele><time>2026-05-03T06:47:31.748Z</time></trkpt><trkpt lat="41.82557" lon="12.6688517"><ele>178.42857142857142</ele><time>2026-05-03T06:47:35.749Z</time></trkpt><trkpt lat="41.825525" lon="12.6689117"><ele>179.71428571428572</ele><time>2026-05-03T06:47:38.748Z</time></trkpt><trkpt lat="41.8254817" lon="12.6689917"><ele>181.0</ele><time>2026-05-03T06:47:42.749Z</time></trkpt><trkpt lat="41.8254217" lon="12.6690683"><ele>181.0</ele><time>2026-05-03T06:47:46.75Z</time></trkpt><trkpt lat="41.825375" lon="12.6691483"><ele>181.0</ele><time>2026-05-03T06:47:50.75Z</time></trkpt><trkpt lat="41.8253317" lon="12.6692317"><ele>181.0</ele><time>2026-05-03T06:47:54.748Z</time></trkpt><trkpt lat="41.825275" lon="12.669315"><ele>181.0</ele><time>2026-05-03T06:47:58.75Z</time></trkpt><trkpt lat="41.825225" lon="12.66938"><ele>181.0</ele><time>2026-05-03T06:48:01.749Z</time></trkpt><trkpt lat="41.8251833" lon="12.669445"><ele>181.0</ele><time>2026-05-03T06:48:04.749Z</time></trkpt><trkpt lat="41.8251417" lon="12.6695267"><ele>181.0</ele><time>2026-05-03T06:48:08.749Z</time></trkpt><trkpt lat="41.8250883" lon="12.6695983"><ele>182.28571428571428</ele><time>2026-05-03T06:48:12.748Z</time></trkpt><trkpt lat="41.8250283" lon="12.669675"><ele>183.57142857142856</ele><time>2026-05-03T06:48:16.751Z</time></trkpt><trkpt lat="41.8249683" lon="12.66972"><ele>184.85714285714286</ele><time>2026-05-03T06:48:19.747Z</time></trkpt><trkpt lat="41.8249283" lon="12.66979"><ele>186.14285714285714</ele><time>2026-05-03T06:48:22.751Z</time></trkpt><trkpt lat="41.82487" lon="12.66986"><ele>187.42857142857144</ele><time>2026-05-03T06:48:26.748Z</time></trkpt><trkpt lat="41.824805" lon="12.669935"><ele>188.71428571428572</ele><time>2026-05-03T06:48:30.748Z</time></trkpt><trkpt lat="41.82475" lon="12.669985"><ele>190.0</ele><time>2026-05-03T06:48:33.749Z</time></trkpt><trkpt lat="41.8246967" lon="12.6700567"><ele>190.0</ele><time>2026-05-03T06:48:37.749Z</time></trkpt><trkpt lat="41.8246317" lon="12.670125"><ele>190.0</ele><time>2026-05-03T06:48:41.749Z</time></trkpt><trkpt lat="41.8245667" lon="12.670185"><ele>190.0</ele><time>2026-05-03T06:48:45.749Z</time></trkpt><trkpt lat="41.8245067" lon="12.67024"><ele>190.0</ele><time>2026-05-03T06:48:49.75Z</time></trkpt><trkpt lat="41.82445" lon="12.6702933"><ele>190.0</ele><time>2026-05-03T06:48:52.751Z</time></trkpt><trkpt lat="41.8243883" lon="12.67034"><ele>190.0</ele><time>2026-05-03T06:48:56.748Z</time></trkpt><trkpt lat="41.8243183" lon="12.670405"><ele>190.42857142857144</ele><time>2026-05-03T06:49:00.747Z</time></trkpt><trkpt lat="41.8242533" lon="12.670475"><ele>190.85714285714286</ele><time>2026-05-03T06:49:04.749Z</time></trkpt><trkpt lat="41.8241933" lon="12.6705033"><ele>191.28571428571428</ele><time>2026-05-03T06:49:07.75Z</time></trkpt><trkpt lat="41.8241167" lon="12.6705417"><ele>191.71428571428572</ele><time>2026-05-03T06:49:11.749Z</time></trkpt><trkpt lat="41.8240483" lon="12.6705683"><ele>192.14285714285714</ele><time>2026-05-03T06:49:14.749Z</time></trkpt><trkpt lat="41.8239833" lon="12.670595"><ele>192.57142857142858</ele><time>2026-05-03T06:49:17.748Z</time></trkpt><trkpt lat="41.8239133" lon="12.6706183"><ele>193.0</ele><time>2026-05-03T06:49:20.747Z</time></trkpt><trkpt lat="41.8238417" lon="12.6706483"><ele>193.00000000000003</ele><time>2026-05-03T06:49:23.748Z</time></trkpt><trkpt lat="41.8237683" lon="12.6706783"><ele>193.0</ele><time>2026-05-03T06:49:26.751Z</time></trkpt><trkpt lat="41.823695" lon="12.6707067"><ele>193.0</ele><time>2026-05-03T06:49:29.75Z</time></trkpt><trkpt lat="41.8236267" lon="12.6707283"><ele>193.0</ele><time>2026-05-03T06:49:32.749Z</time></trkpt><trkpt lat="41.8235633" lon="12.6707567"><ele>193.0</ele><time>2026-05-03T06:49:35.748Z</time></trkpt><trkpt lat="41.823495" lon="12.6707917"><ele>193.00000000000003</ele><time>2026-05-03T06:49:38.749Z</time></trkpt><trkpt lat="41.8234283" lon="12.6708217"><ele>193.0</ele><time>2026-05-03T06:49:41.747Z</time></trkpt><trkpt lat="41.8233633" lon="12.6708483"><ele>193.85714285714286</ele><time>2026-05-03T06:49:44.749Z</time></trkpt><trkpt lat="41.8232983" lon="12.6708867"><ele>194.71428571428572</ele><time>2026-05-03T06:49:47.75Z</time></trkpt><trkpt lat="41.8232283" lon="12.6708967"><ele>195.57142857142856</ele><time>2026-05-03T06:49:50.75Z</time></trkpt><trkpt lat="41.8231633" lon="12.6709233"><ele>196.42857142857144</ele><time>2026-05-03T06:49:53.75Z</time></trkpt><trkpt lat="41.8230867" lon="12.6709567"><ele>197.28571428571428</ele><time>2026-05-03T06:49:56.75Z</time></trkpt><trkpt lat="41.823025" lon="12.6710033"><ele>198.14285714285714</ele><time>2026-05-03T06:49:59.749Z</time></trkpt><trkpt lat="41.8229533" lon="12.67105"><ele>199.0</ele><time>2026-05-03T06:50:02.75Z</time></trkpt><trkpt lat="41.8228883" lon="12.6711067"><ele>199.28571428571428</ele><time>2026-05-03T06:50:05.75Z</time></trkpt><trkpt lat="41.8228367" lon="12.6711583"><ele>199.57142857142856</ele><time>2026-05-03T06:50:08.749Z</time></trkpt><trkpt lat="41.8227783" lon="12.6712117"><ele>199.85714285714283</ele><time>2026-05-03T06:50:11.75Z</time></trkpt><trkpt lat="41.8227167" lon="12.6712567"><ele>200.14285714285714</ele><time>2026-05-03T06:50:14.75Z</time></trkpt><trkpt lat="41.8226467" lon="12.6713067"><ele>200.42857142857144</ele><time>2026-05-03T06:50:17.747Z</time></trkpt><trkpt lat="41.8225783" lon="12.67136"><ele>200.7142857142857</ele><time>2026-05-03T06:50:20.749Z</time></trkpt><trkpt lat="41.822515" lon="12.6714017"><ele>201.0</ele><time>2026-05-03T06:50:23.75Z</time></trkpt><trkpt lat="41.8224483" lon="12.6714367"><ele>201.0</ele><time>2026-05-03T06:50:26.75Z</time></trkpt><trkpt lat="41.8223817" lon="12.67149"><ele>201.0</ele><time>2026-05-03T06:50:29.75Z</time></trkpt><trkpt lat="41.8223183" lon="12.6715283"><ele>201.0</ele><time>2026-05-03T06:50:32.75Z</time></trkpt><trkpt lat="41.822255" lon="12.6715783"><ele>201.0</ele><time>2026-05-03T06:50:35.752Z</time></trkpt><trkpt lat="41.822195" lon="12.671625"><ele>201.0</ele><time>2026-05-03T06:50:38.749Z</time></trkpt><trkpt lat="41.8221383" lon="12.6716833"><ele>201.0</ele><time>2026-05-03T06:50:41.75Z</time></trkpt><trkpt lat="41.82208" lon="12.67173"><ele>201.0</ele><time>2026-05-03T06:50:44.747Z</time></trkpt><trkpt lat="41.822015" lon="12.6717833"><ele>201.0</ele><time>2026-05-03T06:50:47.748Z</time></trkpt><trkpt lat="41.8219483" lon="12.671835"><ele>201.0</ele><time>2026-05-03T06:50:50.75Z</time></trkpt><trkpt lat="41.8218717" lon="12.6718833"><ele>201.0</ele><time>2026-05-03T06:50:53.748Z</time></trkpt><trkpt lat="41.8218" lon="12.67192"><ele>201.0</ele><time>2026-05-03T06:50:56.748Z</time></trkpt><trkpt lat="41.8217317" lon="12.6719717"><ele>201.0</ele><time>2026-05-03T06:50:59.748Z</time></trkpt><trkpt lat="41.8216667" lon="12.672015"><ele>201.0</ele><time>2026-05-03T06:51:02.748Z</time></trkpt><trkpt lat="41.8216017" lon="12.67205"><ele>202.14285714285714</ele><time>2026-05-03T06:51:05.748Z</time></trkpt><trkpt lat="41.821545" lon="12.67209"><ele>203.2857142857143</ele><time>2026-05-03T06:51:08.747Z</time></trkpt><trkpt lat="41.8214783" lon="12.6721333"><ele>204.42857142857144</ele><time>2026-05-03T06:51:11.747Z</time></trkpt><trkpt lat="41.8214167" lon="12.67216"><ele>205.57142857142856</ele><time>2026-05-03T06:51:14.747Z</time></trkpt><trkpt lat="41.821345" lon="12.6721933"><ele>206.71428571428572</ele><time>2026-05-03T06:51:17.747Z</time></trkpt><trkpt lat="41.8212633" lon="12.6722367"><ele>207.85714285714286</ele><time>2026-05-03T06:51:20.751Z</time></trkpt><trkpt lat="41.821185" lon="12.6722683"><ele>209.0</ele><time>2026-05-03T06:51:23.747Z</time></trkpt><trkpt lat="41.8211133" lon="12.672305"><ele>209.0</ele><time>2026-05-03T06:51:26.751Z</time></trkpt><trkpt lat="41.82105" lon="12.67232"><ele>209.0</ele><time>2026-05-03T06:51:28.749Z</time></trkpt><trkpt lat="41.820975" lon="12.6723483"><ele>209.0</ele><time>2026-05-03T06:51:31.749Z</time></trkpt><trkpt lat="41.820905" lon="12.6723867"><ele>209.0</ele><time>2026-05-03T06:51:34.749Z</time></trkpt><trkpt lat="41.82084" lon="12.6724283"><ele>209.0</ele><time>2026-05-03T06:51:37.751Z</time></trkpt><trkpt lat="41.8207617" lon="12.6724567"><ele>209.0</ele><time>2026-05-03T06:51:41.75Z</time></trkpt><trkpt lat="41.8206933" lon="12.6724467"><ele>209.0</ele><time>2026-05-03T06:51:44.749Z</time></trkpt><trkpt lat="41.8206133" lon="12.6724433"><ele>209.50000000000003</ele><time>2026-05-03T06:51:48.75Z</time></trkpt><trkpt lat="41.8205533" lon="12.672485"><ele>210.0</ele><time>2026-05-03T06:51:52.75Z</time></trkpt><trkpt lat="41.8204833" lon="12.6725483"><ele>210.5</ele><time>2026-05-03T06:51:56.749Z</time></trkpt><trkpt lat="41.8204033" lon="12.67258"><ele>211.0</ele><time>2026-05-03T06:51:59.749Z</time></trkpt><trkpt lat="41.8203383" lon="12.672615"><ele>211.50000000000003</ele><time>2026-05-03T06:52:02.748Z</time></trkpt><trkpt lat="41.82028" lon="12.6726717"><ele>212.0</ele><time>2026-05-03T06:52:05.748Z</time></trkpt><trkpt lat="41.820205" lon="12.672735"><ele>212.16666666666669</ele><time>2026-05-03T06:52:09.747Z</time></trkpt><trkpt lat="41.82015" lon="12.6727833"><ele>212.33333333333334</ele><time>2026-05-03T06:52:12.748Z</time></trkpt><trkpt lat="41.8200933" lon="12.672825"><ele>212.5</ele><time>2026-05-03T06:52:15.747Z</time></trkpt><trkpt lat="41.8200183" lon="12.6728717"><ele>212.66666666666669</ele><time>2026-05-03T06:52:19.75Z</time></trkpt><trkpt lat="41.8199533" lon="12.6729117"><ele>212.83333333333334</ele><time>2026-05-03T06:52:22.75Z</time></trkpt><trkpt lat="41.819885" lon="12.6729767"><ele>213.0</ele><time>2026-05-03T06:52:26.75Z</time></trkpt><trkpt lat="41.81981" lon="12.6730417"><ele>213.57142857142856</ele><time>2026-05-03T06:52:30.749Z</time></trkpt><trkpt lat="41.81975" lon="12.6731017"><ele>214.14285714285714</ele><time>2026-05-03T06:52:33.749Z</time></trkpt><trkpt lat="41.8196783" lon="12.6731333"><ele>214.71428571428572</ele><time>2026-05-03T06:52:36.75Z</time></trkpt><trkpt lat="41.81962" lon="12.6731833"><ele>215.28571428571428</ele><time>2026-05-03T06:52:39.748Z</time></trkpt><trkpt lat="41.819565" lon="12.6732383"><ele>215.85714285714286</ele><time>2026-05-03T06:52:42.747Z</time></trkpt><trkpt lat="41.8195083" lon="12.6733"><ele>216.42857142857142</ele><time>2026-05-03T06:52:45.75Z</time></trkpt><trkpt lat="41.8194583" lon="12.6733533"><ele>217.0</ele><time>2026-05-03T06:52:48.747Z</time></trkpt><trkpt lat="41.8193817" lon="12.673415"><ele>217.0</ele><time>2026-05-03T06:52:52.748Z</time></trkpt><trkpt lat="41.8193283" lon="12.6734633"><ele>217.0</ele><time>2026-05-03T06:52:55.747Z</time></trkpt><trkpt lat="41.8192833" lon="12.673535"><ele>217.0</ele><time>2026-05-03T06:52:58.749Z</time></trkpt><trkpt lat="41.8192367" lon="12.6736267"><ele>217.0</ele><time>2026-05-03T06:53:02.747Z</time></trkpt><trkpt lat="41.819175" lon="12.6736817"><ele>217.0</ele><time>2026-05-03T06:53:05.751Z</time></trkpt><trkpt lat="41.819125" lon="12.6737367"><ele>217.0</ele><time>2026-05-03T06:53:08.75Z</time></trkpt><trkpt lat="41.81909" lon="12.6738133"><ele>217.0</ele><time>2026-05-03T06:53:11.748Z</time></trkpt><trkpt lat="41.8190617" lon="12.6739117"><ele>218.0</ele><time>2026-05-03T06:53:15.75Z</time></trkpt><trkpt lat="41.8190167" lon="12.6739883"><ele>219.0</ele><time>2026-05-03T06:53:18.748Z</time></trkpt><trkpt lat="41.8189517" lon="12.674045"><ele>220.0</ele><time>2026-05-03T06:53:21.747Z</time></trkpt><trkpt lat="41.8188883" lon="12.67408"><ele>221.0</ele><time>2026-05-03T06:53:24.752Z</time></trkpt><trkpt lat="41.8188217" lon="12.6741183"><ele>222.0</ele><time>2026-05-03T06:53:27.749Z</time></trkpt><trkpt lat="41.8187517" lon="12.67415"><ele>223.0</ele><time>2026-05-03T06:53:30.746Z</time></trkpt><trkpt lat="41.8186733" lon="12.674165"><ele>224.0</ele><time>2026-05-03T06:53:33.748Z</time></trkpt><trkpt lat="41.8186" lon="12.67419"><ele>224.0</ele><time>2026-05-03T06:53:36.746Z</time></trkpt><trkpt lat="41.818535" lon="12.6742133"><ele>224.0</ele><time>2026-05-03T06:53:39.748Z</time></trkpt><trkpt lat="41.8184583" lon="12.674235"><ele>224.0</ele><time>2026-05-03T06:53:42.746Z</time></trkpt><trkpt lat="41.81838" lon="12.6742483"><ele>224.0</ele><time>2026-05-03T06:53:45.748Z</time></trkpt><trkpt lat="41.81831" lon="12.6742683"><ele>224.0</ele><time>2026-05-03T06:53:48.747Z</time></trkpt><trkpt lat="41.8182467" lon="12.6742667"><ele>224.0</ele><time>2026-05-03T06:53:51.747Z</time></trkpt><trkpt lat="41.818175" lon="12.6742733"><ele>224.0</ele><time>2026-05-03T06:53:54.747Z</time></trkpt><trkpt lat="41.8181" lon="12.674285"><ele>224.57142857142856</ele><time>2026-05-03T06:53:57.749Z</time></trkpt><trkpt lat="41.81803" lon="12.6742817"><ele>225.14285714285714</ele><time>2026-05-03T06:54:00.75Z</time></trkpt><trkpt lat="41.8179567" lon="12.6742783"><ele>225.71428571428572</ele><time>2026-05-03T06:54:03.749Z</time></trkpt><trkpt lat="41.8178883" lon="12.6742883"><ele>226.28571428571428</ele><time>2026-05-03T06:54:06.748Z</time></trkpt><trkpt lat="41.8178217" lon="12.6742833"><ele>226.85714285714283</ele><time>2026-05-03T06:54:09.749Z</time></trkpt><trkpt lat="41.8177517" lon="12.6742833"><ele>227.42857142857142</ele><time>2026-05-03T06:54:12.748Z</time></trkpt><trkpt lat="41.8176817" lon="12.6742867"><ele>228.0</ele><time>2026-05-03T06:54:15.748Z</time></trkpt><trkpt lat="41.8176117" lon="12.67429"><ele>229.0</ele><time>2026-05-03T06:54:18.748Z</time></trkpt><trkpt lat="41.8175433" lon="12.6742867"><ele>229.99999999999997</ele><time>2026-05-03T06:54:21.749Z</time></trkpt><trkpt lat="41.8174633" lon="12.6742867"><ele>231.0</ele><time>2026-05-03T06:54:25.747Z</time></trkpt><trkpt lat="41.8173883" lon="12.674285"><ele>232.0</ele><time>2026-05-03T06:54:29.747Z</time></trkpt><trkpt lat="41.81732" lon="12.674285"><ele>232.99999999999997</ele><time>2026-05-03T06:54:34.748Z</time></trkpt><trkpt lat="41.8172367" lon="12.6742933"><ele>234.0</ele><time>2026-05-03T06:54:38.747Z</time></trkpt><trkpt lat="41.8171667" lon="12.67429"><ele>235.0</ele><time>2026-05-03T06:54:41.749Z</time></trkpt><trkpt lat="41.8170883" lon="12.6742767"><ele>235.0</ele><time>2026-05-03T06:54:45.749Z</time></trkpt><trkpt lat="41.817005" lon="12.6742667"><ele>234.99999999999997</ele><time>2026-05-03T06:54:49.748Z</time></trkpt><trkpt lat="41.8169417" lon="12.6742617"><ele>235.0</ele><time>2026-05-03T06:54:52.748Z</time></trkpt><trkpt lat="41.8168717" lon="12.6742683"><ele>235.0</ele><time>2026-05-03T06:54:55.747Z</time></trkpt><trkpt lat="41.816805" lon="12.6742617"><ele>234.99999999999997</ele><time>2026-05-03T06:54:58.749Z</time></trkpt><trkpt lat="41.8167317" lon="12.6742533"><ele>235.0</ele><time>2026-05-03T06:55:01.748Z</time></trkpt><trkpt lat="41.81665" lon="12.674245"><ele>235.0</ele><time>2026-05-03T06:55:05.749Z</time></trkpt><trkpt lat="41.816585" lon="12.6742317"><ele>236.16666666666666</ele><time>2026-05-03T06:55:08.749Z</time></trkpt><trkpt lat="41.8165033" lon="12.6742533"><ele>237.33333333333331</ele><time>2026-05-03T06:55:12.749Z</time></trkpt><trkpt lat="41.8164233" lon="12.674235"><ele>238.5</ele><time>2026-05-03T06:55:16.75Z</time></trkpt><trkpt lat="41.8163433" lon="12.67423"><ele>239.66666666666669</ele><time>2026-05-03T06:55:20.75Z</time></trkpt><trkpt lat="41.8162683" lon="12.6742483"><ele>240.83333333333334</ele><time>2026-05-03T06:55:24.748Z</time></trkpt><trkpt lat="41.8161933" lon="12.674275"><ele>242.0</ele><time>2026-05-03T06:55:28.748Z</time></trkpt><trkpt lat="41.8161267" lon="12.6742783"><ele>242.0</ele><time>2026-05-03T06:55:31.748Z</time></trkpt><trkpt lat="41.816055" lon="12.67429"><ele>241.99999999999997</ele><time>2026-05-03T06:55:34.747Z</time></trkpt><trkpt lat="41.8159867" lon="12.6742933"><ele>242.0</ele><time>2026-05-03T06:55:37.747Z</time></trkpt><trkpt lat="41.8159217" lon="12.674305"><ele>242.0</ele><time>2026-05-03T06:55:40.75Z</time></trkpt><trkpt lat="41.8158583" lon="12.6743183"><ele>241.99999999999997</ele><time>2026-05-03T06:55:43.747Z</time></trkpt><trkpt lat="41.8157917" lon="12.6743333"><ele>242.0</ele><time>2026-05-03T06:55:46.746Z</time></trkpt><trkpt lat="41.8157133" lon="12.67436"><ele>242.0</ele><time>2026-05-03T06:55:50.749Z</time></trkpt><trkpt lat="41.815655" lon="12.6744017"><ele>243.33333333333334</ele><time>2026-05-03T06:55:53.749Z</time></trkpt><trkpt lat="41.815595" lon="12.6744383"><ele>244.66666666666669</ele><time>2026-05-03T06:55:56.749Z</time></trkpt><trkpt lat="41.8155283" lon="12.6744733"><ele>246.0</ele><time>2026-05-03T06:55:59.749Z</time></trkpt><trkpt lat="41.8154567" lon="12.6745017"><ele>247.33333333333331</ele><time>2026-05-03T06:56:02.749Z</time></trkpt><trkpt lat="41.8153783" lon="12.67453"><ele>248.66666666666666</ele><time>2026-05-03T06:56:06.746Z</time></trkpt><trkpt lat="41.8153" lon="12.6745567"><ele>250.0</ele><time>2026-05-03T06:56:10.747Z</time></trkpt><trkpt lat="41.81523" lon="12.6746067"><ele>250.0</ele><time>2026-05-03T06:56:13.749Z</time></trkpt><trkpt lat="41.8151483" lon="12.6746283"><ele>250.0</ele><time>2026-05-03T06:56:17.748Z</time></trkpt><trkpt lat="41.81509" lon="12.6746667"><ele>250.0</ele><time>2026-05-03T06:56:20.746Z</time></trkpt><trkpt lat="41.8150167" lon="12.6747067"><ele>250.0</ele><time>2026-05-03T06:56:23.746Z</time></trkpt><trkpt lat="41.8149467" lon="12.67472"><ele>250.0</ele><time>2026-05-03T06:56:26.746Z</time></trkpt><trkpt lat="41.8148783" lon="12.6747417"><ele>250.0</ele><time>2026-05-03T06:56:29.749Z</time></trkpt><trkpt lat="41.8148133" lon="12.674765"><ele>250.0</ele><time>2026-05-03T06:56:32.746Z</time></trkpt><trkpt lat="41.8147467" lon="12.67476"><ele>250.0</ele><time>2026-05-03T06:56:35.746Z</time></trkpt><trkpt lat="41.8146833" lon="12.6747633"><ele>250.0</ele><time>2026-05-03T06:56:38.749Z</time></trkpt><trkpt lat="41.8146167" lon="12.6747683"><ele>250.0</ele><time>2026-05-03T06:56:41.749Z</time></trkpt><trkpt lat="41.8145433" lon="12.6747733"><ele>250.0</ele><time>2026-05-03T06:56:44.748Z</time></trkpt><trkpt lat="41.8144583" lon="12.6747633"><ele>250.0</ele><time>2026-05-03T06:56:48.747Z</time></trkpt><trkpt lat="41.8143917" lon="12.67476"><ele>250.0</ele><time>2026-05-03T06:56:51.748Z</time></trkpt><trkpt lat="41.8143083" lon="12.6747633"><ele>250.0</ele><time>2026-05-03T06:56:55.746Z</time></trkpt><trkpt lat="41.81423" lon="12.6747683"><ele>249.99999999999997</ele><time>2026-05-03T06:56:58.75Z</time></trkpt><trkpt lat="41.8141483" lon="12.67477"><ele>250.0</ele><time>2026-05-03T06:57:01.747Z</time></trkpt><trkpt lat="41.8140683" lon="12.6747617"><ele>250.0</ele><time>2026-05-03T06:57:04.749Z</time></trkpt><trkpt lat="41.814" lon="12.6747717"><ele>250.0</ele><time>2026-05-03T06:57:07.748Z</time></trkpt><trkpt lat="41.8139217" lon="12.6747583"><ele>249.99999999999997</ele><time>2026-05-03T06:57:11.748Z</time></trkpt><trkpt lat="41.8138433" lon="12.6747567"><ele>250.0</ele><time>2026-05-03T06:57:14.745Z</time></trkpt><trkpt lat="41.81377" lon="12.67476"><ele>250.0</ele><time>2026-05-03T06:57:17.748Z</time></trkpt><trkpt lat="41.813705" lon="12.674765"><ele>250.0</ele><time>2026-05-03T06:57:20.749Z</time></trkpt><trkpt lat="41.8136417" lon="12.674755"><ele>250.0</ele><time>2026-05-03T06:57:23.749Z</time></trkpt><trkpt lat="41.81357" lon="12.6747517"><ele>250.0</ele><time>2026-05-03T06:57:27.749Z</time></trkpt><trkpt lat="41.813495" lon="12.6747467"><ele>250.0</ele><time>2026-05-03T06:57:31.749Z</time></trkpt><trkpt lat="41.8134167" lon="12.6747517"><ele>250.0</ele><time>2026-05-03T06:57:35.749Z</time></trkpt><trkpt lat="41.813345" lon="12.6747583"><ele>250.0</ele><time>2026-05-03T06:57:39.748Z</time></trkpt><trkpt lat="41.8132717" lon="12.67477"><ele>251.0</ele><time>2026-05-03T06:57:43.748Z</time></trkpt><trkpt lat="41.813205" lon="12.6747733"><ele>252.0</ele><time>2026-05-03T06:57:47.749Z</time></trkpt><trkpt lat="41.8131317" lon="12.6747667"><ele>253.0</ele><time>2026-05-03T06:57:51.749Z</time></trkpt><trkpt lat="41.8130683" lon="12.67477"><ele>254.0</ele><time>2026-05-03T06:57:54.749Z</time></trkpt><trkpt lat="41.8129983" lon="12.6747717"><ele>255.0</ele><time>2026-05-03T06:57:58.749Z</time></trkpt><trkpt lat="41.8129233" lon="12.67476"><ele>256.0</ele><time>2026-05-03T06:58:02.748Z</time></trkpt><trkpt lat="41.8128517" lon="12.674765"><ele>257.0</ele><time>2026-05-03T06:58:06.747Z</time></trkpt><trkpt lat="41.812775" lon="12.6747417"><ele>257.0</ele><time>2026-05-03T06:58:11.749Z</time></trkpt><trkpt lat="41.8126967" lon="12.674755"><ele>257.0</ele><time>2026-05-03T06:58:15.749Z</time></trkpt><trkpt lat="41.812625" lon="12.6747417"><ele>257.0</ele><time>2026-05-03T06:58:19.749Z</time></trkpt><trkpt lat="41.812555" lon="12.6747267"><ele>257.0</ele><time>2026-05-03T06:58:23.749Z</time></trkpt><trkpt lat="41.81248" lon="12.6747083"><ele>257.0</ele><time>2026-05-03T06:58:27.75Z</time></trkpt><trkpt lat="41.8124133" lon="12.6746833"><ele>257.0</ele><time>2026-05-03T06:58:31.75Z</time></trkpt><trkpt lat="41.812355" lon="12.67465"><ele>257.0</ele><time>2026-05-03T06:58:35.75Z</time></trkpt><trkpt lat="41.8122733" lon="12.6746483"><ele>257.57142857142856</ele><time>2026-05-03T06:58:39.75Z</time></trkpt><trkpt lat="41.8122067" lon="12.6746433"><ele>258.14285714285717</ele><time>2026-05-03T06:58:43.748Z</time></trkpt><trkpt lat="41.8121417" lon="12.6746317"><ele>258.7142857142857</ele><time>2026-05-03T06:58:47.747Z</time></trkpt><trkpt lat="41.8120683" lon="12.6745967"><ele>259.2857142857143</ele><time>2026-05-03T06:58:52.747Z</time></trkpt><trkpt lat="41.811995" lon="12.6745833"><ele>259.85714285714283</ele><time>2026-05-03T06:58:56.746Z</time></trkpt><trkpt lat="41.8119167" lon="12.67454"><ele>260.42857142857144</ele><time>2026-05-03T06:59:00.751Z</time></trkpt><trkpt lat="41.81184" lon="12.6745117"><ele>261.0</ele><time>2026-05-03T06:59:04.749Z</time></trkpt><trkpt lat="41.8117583" lon="12.6745017"><ele>260.0</ele><time>2026-05-03T06:59:07.75Z</time></trkpt><trkpt lat="41.8116717" lon="12.6744917"><ele>259.0</ele><time>2026-05-03T06:59:10.746Z</time></trkpt><trkpt lat="41.8115967" lon="12.6744783"><ele>258.0</ele><time>2026-05-03T06:59:13.75Z</time></trkpt><trkpt lat="41.8115133" lon="12.6744533"><ele>257.0</ele><time>2026-05-03T06:59:16.747Z</time></trkpt><trkpt lat="41.8114267" lon="12.674415"><ele>256.0</ele><time>2026-05-03T06:59:19.748Z</time></trkpt><trkpt lat="41.8113633" lon="12.674405"><ele>255.0</ele><time>2026-05-03T06:59:21.747Z</time></trkpt><trkpt lat="41.8112917" lon="12.674395"><ele>255.0</ele><time>2026-05-03T06:59:23.747Z</time></trkpt><trkpt lat="41.8112067" lon="12.6744033"><ele>255.0</ele><time>2026-05-03T06:59:25.749Z</time></trkpt><trkpt lat="41.8111217" lon="12.674405"><ele>255.0</ele><time>2026-05-03T06:59:27.747Z</time></trkpt><trkpt lat="41.811035" lon="12.6743867"><ele>255.0</ele><time>2026-05-03T06:59:29.747Z</time></trkpt><trkpt lat="41.810945" lon="12.67438"><ele>255.0</ele><time>2026-05-03T06:59:31.755Z</time></trkpt><trkpt lat="41.8108517" lon="12.67439"><ele>255.0</ele><time>2026-05-03T06:59:33.75Z</time></trkpt><trkpt lat="41.81076" lon="12.6744067"><ele>255.8</ele><time>2026-05-03T06:59:35.749Z</time></trkpt><trkpt lat="41.8106683" lon="12.674415"><ele>256.6</ele><time>2026-05-03T06:59:37.747Z</time></trkpt><trkpt lat="41.810565" lon="12.674415"><ele>257.4</ele><time>2026-05-03T06:59:39.748Z</time></trkpt><trkpt lat="41.8104517" lon="12.6744183"><ele>258.2</ele><time>2026-05-03T06:59:41.75Z</time></trkpt><trkpt lat="41.8103533" lon="12.67437"><ele>259.0</ele><time>2026-05-03T06:59:43.749Z</time></trkpt><trkpt lat="41.810265" lon="12.6742833"><ele>259.0</ele><time>2026-05-03T06:59:45.749Z</time></trkpt><trkpt lat="41.8101967" lon="12.6741517"><ele>259.0</ele><time>2026-05-03T06:59:47.748Z</time></trkpt><trkpt lat="41.81016" lon="12.6739983"><ele>259.0</ele><time>2026-05-03T06:59:49.749Z</time></trkpt><trkpt lat="41.8101383" lon="12.6738517"><ele>259.0</ele><time>2026-05-03T06:59:51.748Z</time></trkpt><trkpt lat="41.8101183" lon="12.673715"><ele>259.85714285714283</ele><time>2026-05-03T06:59:53.747Z</time></trkpt><trkpt lat="41.8101217" lon="12.6736133"><ele>260.7142857142857</ele><time>2026-05-03T06:59:55.75Z</time></trkpt><trkpt lat="41.8101267" lon="12.6735267"><ele>261.57142857142856</ele><time>2026-05-03T06:59:57.749Z</time></trkpt><trkpt lat="41.810125" lon="12.673425"><ele>262.42857142857144</ele><time>2026-05-03T07:00:00.747Z</time></trkpt><trkpt lat="41.8101183" lon="12.6733317"><ele>263.2857142857143</ele><time>2026-05-03T07:00:03.748Z</time></trkpt><trkpt lat="41.8100983" lon="12.673235"><ele>264.1428571428571</ele><time>2026-05-03T07:00:06.748Z</time></trkpt><trkpt lat="41.8100983" lon="12.6731383"><ele>265.0</ele><time>2026-05-03T07:00:09.748Z</time></trkpt><trkpt lat="41.8100883" lon="12.6730417"><ele>265.0</ele><time>2026-05-03T07:00:12.75Z</time></trkpt><trkpt lat="41.8100633" lon="12.6729383"><ele>265.0</ele><time>2026-05-03T07:00:15.748Z</time></trkpt><trkpt lat="41.810035" lon="12.6728483"><ele>265.0</ele><time>2026-05-03T07:00:18.749Z</time></trkpt><trkpt lat="41.8100033" lon="12.672775"><ele>265.0</ele><time>2026-05-03T07:00:21.75Z</time></trkpt><trkpt lat="41.809945" lon="12.6727033"><ele>265.0</ele><time>2026-05-03T07:00:24.75Z</time></trkpt><trkpt lat="41.80988" lon="12.6726483"><ele>265.0</ele><time>2026-05-03T07:00:27.747Z</time></trkpt><trkpt lat="41.8098083" lon="12.67261"><ele>265.0</ele><time>2026-05-03T07:00:30.748Z</time></trkpt><trkpt lat="41.8097433" lon="12.67258"><ele>265.0</ele><time>2026-05-03T07:00:34.748Z</time></trkpt><trkpt lat="41.8096783" lon="12.6725817"><ele>265.0</ele><time>2026-05-03T07:00:38.747Z</time></trkpt><trkpt lat="41.8095517" lon="12.672605"><ele>265.0</ele><time>2026-05-03T07:00:50.75Z</time></trkpt><trkpt lat="41.8094867" lon="12.6726767"><ele>265.0</ele><time>2026-05-03T07:00:54.751Z</time></trkpt><trkpt lat="41.8094417" lon="12.6727383"><ele>265.0</ele><time>2026-05-03T07:00:57.749Z</time></trkpt><trkpt lat="41.8093867" lon="12.67281"><ele>264.99999999999994</ele><time>2026-05-03T07:01:00.747Z</time></trkpt><trkpt lat="41.8093383" lon="12.6729017"><ele>265.0</ele><time>2026-05-03T07:01:03.75Z</time></trkpt><trkpt lat="41.8092933" lon="12.6729717"><ele>265.0</ele><time>2026-05-03T07:01:06.751Z</time></trkpt><trkpt lat="41.8092467" lon="12.6730617"><ele>265.0</ele><time>2026-05-03T07:01:09.747Z</time></trkpt><trkpt lat="41.8092083" lon="12.6731467"><ele>265.0</ele><time>2026-05-03T07:01:12.746Z</time></trkpt><trkpt lat="41.809175" lon="12.673225"><ele>264.99999999999994</ele><time>2026-05-03T07:01:15.747Z</time></trkpt><trkpt lat="41.80914" lon="12.6733017"><ele>265.0</ele><time>2026-05-03T07:01:18.748Z</time></trkpt><trkpt lat="41.8090983" lon="12.6733917"><ele>266.5</ele><time>2026-05-03T07:01:22.747Z</time></trkpt><trkpt lat="41.8090667" lon="12.6734667"><ele>268.0</ele><time>2026-05-03T07:01:25.746Z</time></trkpt><trkpt lat="41.8090367" lon="12.67357"><ele>269.5</ele><time>2026-05-03T07:01:29.747Z</time></trkpt><trkpt lat="41.809" lon="12.67367"><ele>271.0</ele><time>2026-05-03T07:01:33.747Z</time></trkpt><trkpt lat="41.8089767" lon="12.6737733"><ele>272.5</ele><time>2026-05-03T07:01:37.747Z</time></trkpt><trkpt lat="41.8089533" lon="12.6738617"><ele>274.0</ele><time>2026-05-03T07:01:41.749Z</time></trkpt><trkpt lat="41.8089233" lon="12.6739533"><ele>275.28571428571433</ele><time>2026-05-03T07:01:45.75Z</time></trkpt><trkpt lat="41.8088883" lon="12.674035"><ele>276.57142857142856</ele><time>2026-05-03T07:01:49.748Z</time></trkpt><trkpt lat="41.8088667" lon="12.67412"><ele>277.8571428571429</ele><time>2026-05-03T07:01:53.75Z</time></trkpt><trkpt lat="41.8088567" lon="12.674225"><ele>279.14285714285717</ele><time>2026-05-03T07:01:57.749Z</time></trkpt><trkpt lat="41.80885" lon="12.674335"><ele>280.42857142857144</ele><time>2026-05-03T07:02:01.747Z</time></trkpt><trkpt lat="41.8088317" lon="12.6744267"><ele>281.7142857142857</ele><time>2026-05-03T07:02:05.748Z</time></trkpt><trkpt lat="41.8088" lon="12.67451"><ele>283.0</ele><time>2026-05-03T07:02:09.748Z</time></trkpt><trkpt lat="41.8087733" lon="12.6745917"><ele>284.0</ele><time>2026-05-03T07:02:13.75Z</time></trkpt><trkpt lat="41.80877" lon="12.6746933"><ele>285.0</ele><time>2026-05-03T07:02:17.748Z</time></trkpt><trkpt lat="41.8087583" lon="12.6747933"><ele>286.0</ele><time>2026-05-03T07:02:21.749Z</time></trkpt><trkpt lat="41.80874" lon="12.674885"><ele>287.0</ele><time>2026-05-03T07:02:25.747Z</time></trkpt><trkpt lat="41.8087417" lon="12.6749717"><ele>288.0</ele><time>2026-05-03T07:02:28.748Z</time></trkpt><trkpt lat="41.80871" lon="12.6750667"><ele>289.0</ele><time>2026-05-03T07:02:32.75Z</time></trkpt><trkpt lat="41.8086717" lon="12.6751483"><ele>290.0</ele><time>2026-05-03T07:02:36.748Z</time></trkpt><trkpt lat="41.808645" lon="12.6752417"><ele>290.2857142857143</ele><time>2026-05-03T07:02:40.748Z</time></trkpt><trkpt lat="41.8086133" lon="12.6753317"><ele>290.5714285714286</ele><time>2026-05-03T07:02:44.747Z</time></trkpt><trkpt lat="41.808585" lon="12.6754183"><ele>290.8571428571429</ele><time>2026-05-03T07:02:48.748Z</time></trkpt><trkpt lat="41.80856" lon="12.67552"><ele>291.14285714285717</ele><time>2026-05-03T07:02:52.749Z</time></trkpt><trkpt lat="41.8085267" lon="12.6756133"><ele>291.42857142857144</ele><time>2026-05-03T07:02:56.75Z</time></trkpt><trkpt lat="41.8085" lon="12.6756917"><ele>291.7142857142857</ele><time>2026-05-03T07:03:00.747Z</time></trkpt><trkpt lat="41.80845" lon="12.6757667"><ele>292.0</ele><time>2026-05-03T07:03:05.749Z</time></trkpt><trkpt lat="41.8084283" lon="12.6758517"><ele>292.0</ele><time>2026-05-03T07:03:09.746Z</time></trkpt><trkpt lat="41.80839" lon="12.6759233"><ele>292.0</ele><time>2026-05-03T07:03:13.747Z</time></trkpt><trkpt lat="41.8083317" lon="12.6759717"><ele>292.0</ele><time>2026-05-03T07:03:17.748Z</time></trkpt><trkpt lat="41.808255" lon="12.6759567"><ele>292.0</ele><time>2026-05-03T07:03:21.746Z</time></trkpt><trkpt lat="41.8081933" lon="12.6759383"><ele>292.0</ele><time>2026-05-03T07:03:24.747Z</time></trkpt><trkpt lat="41.808125" lon="12.67592"><ele>292.0</ele><time>2026-05-03T07:03:28.746Z</time></trkpt><trkpt lat="41.8080483" lon="12.675945"><ele>292.0</ele><time>2026-05-03T07:03:33.747Z</time></trkpt><trkpt lat="41.8079867" lon="12.675915"><ele>292.0</ele><time>2026-05-03T07:03:37.748Z</time></trkpt><trkpt lat="41.8079117" lon="12.6758917"><ele>292.0</ele><time>2026-05-03T07:03:41.747Z</time></trkpt><trkpt lat="41.80783" lon="12.675885"><ele>292.0</ele><time>2026-05-03T07:03:45.747Z</time></trkpt><trkpt lat="41.807745" lon="12.6758417"><ele>292.0</ele><time>2026-05-03T07:03:49.748Z</time></trkpt><trkpt lat="41.8076783" lon="12.67584"><ele>292.0</ele><time>2026-05-03T07:03:54.746Z</time></trkpt><trkpt lat="41.8076033" lon="12.6758317"><ele>292.0</ele><time>2026-05-03T07:03:58.747Z</time></trkpt><trkpt lat="41.80752" lon="12.6758083"><ele>291.57142857142856</ele><time>2026-05-03T07:04:02.748Z</time></trkpt><trkpt lat="41.80745" lon="12.67579"><ele>291.14285714285717</ele><time>2026-05-03T07:04:06.747Z</time></trkpt><trkpt lat="41.80738" lon="12.6757767"><ele>290.7142857142857</ele><time>2026-05-03T07:04:10.748Z</time></trkpt><trkpt lat="41.807315" lon="12.6757767"><ele>290.2857142857143</ele><time>2026-05-03T07:04:13.746Z</time></trkpt><trkpt lat="41.8072367" lon="12.675775"><ele>289.85714285714283</ele><time>2026-05-03T07:04:17.748Z</time></trkpt><trkpt lat="41.80716" lon="12.675785"><ele>289.42857142857144</ele><time>2026-05-03T07:04:22.747Z</time></trkpt><trkpt lat="41.8070917" lon="12.6757683"><ele>289.0</ele><time>2026-05-03T07:04:26.747Z</time></trkpt><trkpt lat="41.8070267" lon="12.675735"><ele>289.0</ele><time>2026-05-03T07:04:30.746Z</time></trkpt><trkpt lat="41.8069633" lon="12.6757267"><ele>289.0</ele><time>2026-05-03T07:04:33.747Z</time></trkpt><trkpt lat="41.8068967" lon="12.6757167"><ele>289.0</ele><time>2026-05-03T07:04:36.746Z</time></trkpt><trkpt lat="41.80683" lon="12.6757317"><ele>289.0</ele><time>2026-05-03T07:04:40.748Z</time></trkpt><trkpt lat="41.8067667" lon="12.6757333"><ele>289.0</ele><time>2026-05-03T07:04:43.747Z</time></trkpt><trkpt lat="41.8066883" lon="12.6757233"><ele>289.0</ele><time>2026-05-03T07:04:47.747Z</time></trkpt><trkpt lat="41.806625" lon="12.6757"><ele>289.0</ele><time>2026-05-03T07:04:51.746Z</time></trkpt><trkpt lat="41.8065567" lon="12.6756733"><ele>291.0</ele><time>2026-05-03T07:04:55.747Z</time></trkpt><trkpt lat="41.806475" lon="12.6756817"><ele>293.0</ele><time>2026-05-03T07:04:59.747Z</time></trkpt><trkpt lat="41.8064067" lon="12.6756767"><ele>295.0</ele><time>2026-05-03T07:05:02.746Z</time></trkpt><trkpt lat="41.8063383" lon="12.675645"><ele>297.0</ele><time>2026-05-03T07:05:06.75Z</time></trkpt><trkpt lat="41.8062667" lon="12.67562"><ele>299.0</ele><time>2026-05-03T07:05:10.75Z</time></trkpt><trkpt lat="41.806195" lon="12.6756"><ele>301.0</ele><time>2026-05-03T07:05:14.747Z</time></trkpt><trkpt lat="41.806115" lon="12.67558"><ele>301.0</ele><time>2026-05-03T07:05:19.748Z</time></trkpt><trkpt lat="41.8060417" lon="12.67557"><ele>301.0</ele><time>2026-05-03T07:05:23.747Z</time></trkpt><trkpt lat="41.8059767" lon="12.6755783"><ele>301.0</ele><time>2026-05-03T07:05:27.748Z</time></trkpt><trkpt lat="41.8059017" lon="12.6755967"><ele>301.0</ele><time>2026-05-03T07:05:31.747Z</time></trkpt><trkpt lat="41.8058317" lon="12.6756267"><ele>301.0</ele><time>2026-05-03T07:05:35.748Z</time></trkpt><trkpt lat="41.8057617" lon="12.6756417"><ele>301.0</ele><time>2026-05-03T07:05:39.747Z</time></trkpt><trkpt lat="41.8056933" lon="12.675675"><ele>301.0</ele><time>2026-05-03T07:05:43.75Z</time></trkpt><trkpt lat="41.805635" lon="12.67574"><ele>302.2857142857143</ele><time>2026-05-03T07:05:47.747Z</time></trkpt><trkpt lat="41.8055883" lon="12.6758067"><ele>303.57142857142856</ele><time>2026-05-03T07:05:52.747Z</time></trkpt><trkpt lat="41.8055367" lon="12.6758667"><ele>304.8571428571429</ele><time>2026-05-03T07:05:56.747Z</time></trkpt><trkpt lat="41.8054883" lon="12.6759383"><ele>306.1428571428571</ele><time>2026-05-03T07:06:00.746Z</time></trkpt><trkpt lat="41.8054333" lon="12.6759917"><ele>307.42857142857144</ele><time>2026-05-03T07:06:04.747Z</time></trkpt><trkpt lat="41.8053817" lon="12.6760483"><ele>308.7142857142857</ele><time>2026-05-03T07:06:08.746Z</time></trkpt><trkpt lat="41.8053217" lon="12.6760933"><ele>310.0</ele><time>2026-05-03T07:06:12.747Z</time></trkpt><trkpt lat="41.80527" lon="12.67615"><ele>311.0</ele><time>2026-05-03T07:06:16.747Z</time></trkpt><trkpt lat="41.8052233" lon="12.6762233"><ele>312.0</ele><time>2026-05-03T07:06:20.748Z</time></trkpt><trkpt lat="41.805175" lon="12.6762883"><ele>313.0</ele><time>2026-05-03T07:06:25.747Z</time></trkpt><trkpt lat="41.8051117" lon="12.6763333"><ele>314.0</ele><time>2026-05-03T07:06:29.746Z</time></trkpt><trkpt lat="41.8050417" lon="12.6763767"><ele>315.0</ele><time>2026-05-03T07:06:33.75Z</time></trkpt><trkpt lat="41.8049683" lon="12.6764183"><ele>316.0</ele><time>2026-05-03T07:06:37.747Z</time></trkpt><trkpt lat="41.8049067" lon="12.6764583"><ele>317.0</ele><time>2026-05-03T07:06:42.751Z</time></trkpt><trkpt lat="41.8048483" lon="12.6765133"><ele>317.57142857142856</ele><time>2026-05-03T07:06:47.748Z</time></trkpt><trkpt lat="41.80482" lon="12.676605"><ele>318.1428571428571</ele><time>2026-05-03T07:06:50.749Z</time></trkpt><trkpt lat="41.8048267" lon="12.6766967"><ele>318.71428571428567</ele><time>2026-05-03T07:06:53.748Z</time></trkpt><trkpt lat="41.8048467" lon="12.676795"><ele>319.2857142857143</ele><time>2026-05-03T07:06:57.747Z</time></trkpt><trkpt lat="41.8048733" lon="12.676875"><ele>319.85714285714283</ele><time>2026-05-03T07:07:00.748Z</time></trkpt><trkpt lat="41.804885" lon="12.6769733"><ele>320.4285714285714</ele><time>2026-05-03T07:07:04.749Z</time></trkpt><trkpt lat="41.8048933" lon="12.6770683"><ele>321.0</ele><time>2026-05-03T07:07:08.747Z</time></trkpt><trkpt lat="41.80489" lon="12.6771733"><ele>321.5</ele><time>2026-05-03T07:07:12.75Z</time></trkpt><trkpt lat="41.8049117" lon="12.67728"><ele>322.0</ele><time>2026-05-03T07:07:16.748Z</time></trkpt><trkpt lat="41.804925" lon="12.6773833"><ele>322.5</ele><time>2026-05-03T07:07:20.748Z</time></trkpt><trkpt lat="41.8049367" lon="12.6774817"><ele>323.0</ele><time>2026-05-03T07:07:24.749Z</time></trkpt><trkpt lat="41.804945" lon="12.6775783"><ele>323.5</ele><time>2026-05-03T07:07:28.749Z</time></trkpt><trkpt lat="41.80496" lon="12.6776733"><ele>324.0</ele><time>2026-05-03T07:07:32.748Z</time></trkpt><trkpt lat="41.8049967" lon="12.677765"><ele>324.57142857142856</ele><time>2026-05-03T07:07:36.747Z</time></trkpt><trkpt lat="41.8050133" lon="12.67785"><ele>325.1428571428571</ele><time>2026-05-03T07:07:40.749Z</time></trkpt><trkpt lat="41.80504" lon="12.6779417"><ele>325.71428571428567</ele><time>2026-05-03T07:07:44.747Z</time></trkpt><trkpt lat="41.805075" lon="12.6780367"><ele>326.2857142857143</ele><time>2026-05-03T07:07:48.747Z</time></trkpt><trkpt lat="41.8051133" lon="12.6781167"><ele>326.85714285714283</ele><time>2026-05-03T07:07:52.747Z</time></trkpt><trkpt lat="41.80515" lon="12.6781917"><ele>327.4285714285714</ele><time>2026-05-03T07:07:55.747Z</time></trkpt><trkpt lat="41.8051917" lon="12.678275"><ele>328.0</ele><time>2026-05-03T07:07:59.752Z</time></trkpt><trkpt lat="41.8052333" lon="12.678345"><ele>318.0</ele><time>2026-05-03T07:08:03.747Z</time></trkpt><trkpt lat="41.805295" lon="12.6783933"><ele>318.0</ele><time>2026-05-03T07:08:06.749Z</time></trkpt></trkseg><trkseg><trkpt lat="41.8086067" lon="12.675395"><ele>298.0</ele><time>2026-05-03T07:19:24.749Z</time></trkpt><trkpt lat="41.808645" lon="12.675285"><ele>298.0</ele><time>2026-05-03T07:19:27.749Z</time></trkpt><trkpt lat="41.8086917" lon="12.675205"><ele>298.0</ele><time>2026-05-03T07:19:29.748Z</time></trkpt><trkpt lat="41.80873" lon="12.6750717"><ele>298.0</ele><time>2026-05-03T07:19:31.747Z</time></trkpt><trkpt lat="41.8087733" lon="12.6749267"><ele>298.0</ele><time>2026-05-03T07:19:33.748Z</time></trkpt><trkpt lat="41.808805" lon="12.6747833"><ele>296.85714285714283</ele><time>2026-05-03T07:19:35.749Z</time></trkpt><trkpt lat="41.80882" lon="12.6747"><ele>295.71428571428567</ele><time>2026-05-03T07:19:36.749Z</time></trkpt><trkpt lat="41.8088367" lon="12.674615"><ele>294.57142857142856</ele><time>2026-05-03T07:19:37.749Z</time></trkpt><trkpt lat="41.80885" lon="12.6745233"><ele>293.42857142857144</ele><time>2026-05-03T07:19:38.748Z</time></trkpt><trkpt lat="41.80887" lon="12.6744267"><ele>292.28571428571433</ele><time>2026-05-03T07:19:39.747Z</time></trkpt><trkpt lat="41.8088867" lon="12.6743317"><ele>291.14285714285717</ele><time>2026-05-03T07:19:40.749Z</time></trkpt><trkpt lat="41.8089017" lon="12.6742317"><ele>290.0</ele><time>2026-05-03T07:19:41.747Z</time></trkpt><trkpt lat="41.8089183" lon="12.674125"><ele>288.83333333333337</ele><time>2026-05-03T07:19:42.748Z</time></trkpt><trkpt lat="41.8089367" lon="12.6740217"><ele>287.6666666666667</ele><time>2026-05-03T07:19:43.749Z</time></trkpt><trkpt lat="41.8089617" lon="12.6739117"><ele>286.5</ele><time>2026-05-03T07:19:44.748Z</time></trkpt><trkpt lat="41.8089883" lon="12.6737983"><ele>285.3333333333333</ele><time>2026-05-03T07:19:45.748Z</time></trkpt><trkpt lat="41.8090233" lon="12.6736867"><ele>284.16666666666663</ele><time>2026-05-03T07:19:46.748Z</time></trkpt><trkpt lat="41.8090583" lon="12.67357"><ele>283.0</ele><time>2026-05-03T07:19:47.749Z</time></trkpt><trkpt lat="41.809105" lon="12.6734533"><ele>281.2</ele><time>2026-05-03T07:19:48.75Z</time></trkpt><trkpt lat="41.8091583" lon="12.673335"><ele>279.4</ele><time>2026-05-03T07:19:49.748Z</time></trkpt><trkpt lat="41.8092133" lon="12.67322"><ele>277.59999999999997</ele><time>2026-05-03T07:19:50.747Z</time></trkpt><trkpt lat="41.80927" lon="12.6731083"><ele>275.8</ele><time>2026-05-03T07:19:51.748Z</time></trkpt><trkpt lat="41.8093267" lon="12.6729983"><ele>274.0</ele><time>2026-05-03T07:19:52.748Z</time></trkpt><trkpt lat="41.809385" lon="12.6729"><ele>272.5</ele><time>2026-05-03T07:19:53.748Z</time></trkpt><trkpt lat="41.8094367" lon="12.67281"><ele>271.0</ele><time>2026-05-03T07:19:54.748Z</time></trkpt><trkpt lat="41.80949" lon="12.67273"><ele>269.5</ele><time>2026-05-03T07:19:55.748Z</time></trkpt><trkpt lat="41.8095483" lon="12.672665"><ele>268.0</ele><time>2026-05-03T07:19:56.75Z</time></trkpt><trkpt lat="41.8096217" lon="12.67263"><ele>266.5</ele><time>2026-05-03T07:19:57.748Z</time></trkpt><trkpt lat="41.8096967" lon="12.672605"><ele>265.0</ele><time>2026-05-03T07:19:58.749Z</time></trkpt><trkpt lat="41.8097683" lon="12.6726017"><ele>265.0</ele><time>2026-05-03T07:19:59.749Z</time></trkpt><trkpt lat="41.8098883" lon="12.6726417"><ele>265.0</ele><time>2026-05-03T07:20:01.749Z</time></trkpt><trkpt lat="41.80995" lon="12.6726867"><ele>265.0</ele><time>2026-05-03T07:20:02.747Z</time></trkpt><trkpt lat="41.81" lon="12.6727583"><ele>265.0</ele><time>2026-05-03T07:20:03.748Z</time></trkpt><trkpt lat="41.810035" lon="12.672855"><ele>265.0</ele><time>2026-05-03T07:20:04.749Z</time></trkpt><trkpt lat="41.810055" lon="12.6729667"><ele>265.0</ele><time>2026-05-03T07:20:05.747Z</time></trkpt><trkpt lat="41.81006" lon="12.673085"><ele>265.0</ele><time>2026-05-03T07:20:06.749Z</time></trkpt><trkpt lat="41.8100633" lon="12.6732033"><ele>265.0</ele><time>2026-05-03T07:20:07.747Z</time></trkpt><trkpt lat="41.81007" lon="12.6733183"><ele>265.0</ele><time>2026-05-03T07:20:08.746Z</time></trkpt><trkpt lat="41.8100817" lon="12.6734383"><ele>265.0</ele><time>2026-05-03T07:20:09.748Z</time></trkpt><trkpt lat="41.8100917" lon="12.67356"><ele>265.0</ele><time>2026-05-03T07:20:10.747Z</time></trkpt><trkpt lat="41.8101" lon="12.6736833"><ele>265.0</ele><time>2026-05-03T07:20:11.749Z</time></trkpt><trkpt lat="41.8101133" lon="12.6738033"><ele>265.8333333333333</ele><time>2026-05-03T07:20:12.75Z</time></trkpt><trkpt lat="41.8101267" lon="12.6739183"><ele>266.66666666666663</ele><time>2026-05-03T07:20:13.749Z</time></trkpt><trkpt lat="41.8101467" lon="12.6740283"><ele>267.5</ele><time>2026-05-03T07:20:14.75Z</time></trkpt><trkpt lat="41.8101833" lon="12.674125"><ele>268.3333333333333</ele><time>2026-05-03T07:20:15.749Z</time></trkpt><trkpt lat="41.81023" lon="12.6742083"><ele>269.1666666666667</ele><time>2026-05-03T07:20:16.747Z</time></trkpt><trkpt lat="41.810285" lon="12.6742733"><ele>270.0</ele><time>2026-05-03T07:20:17.75Z</time></trkpt><trkpt lat="41.810345" lon="12.6743283"><ele>270.42857142857144</ele><time>2026-05-03T07:20:18.75Z</time></trkpt><trkpt lat="41.8104067" lon="12.6743683"><ele>270.85714285714283</ele><time>2026-05-03T07:20:19.747Z</time></trkpt><trkpt lat="41.8104767" lon="12.674405"><ele>271.2857142857143</ele><time>2026-05-03T07:20:20.749Z</time></trkpt><trkpt lat="41.81054" lon="12.6744283"><ele>271.7142857142857</ele><time>2026-05-03T07:20:21.748Z</time></trkpt><trkpt lat="41.8106067" lon="12.674445"><ele>272.1428571428571</ele><time>2026-05-03T07:20:22.75Z</time></trkpt><trkpt lat="41.8106733" lon="12.67445"><ele>272.57142857142856</ele><time>2026-05-03T07:20:23.749Z</time></trkpt><trkpt lat="41.8107417" lon="12.6744517"><ele>273.0</ele><time>2026-05-03T07:20:24.746Z</time></trkpt><trkpt lat="41.8108167" lon="12.6744633"><ele>273.0</ele><time>2026-05-03T07:20:25.753Z</time></trkpt><trkpt lat="41.8108883" lon="12.6744717"><ele>273.0</ele><time>2026-05-03T07:20:26.747Z</time></trkpt><trkpt lat="41.8109617" lon="12.67448"><ele>273.0</ele><time>2026-05-03T07:20:27.747Z</time></trkpt><trkpt lat="41.8110367" lon="12.6744817"><ele>273.0</ele><time>2026-05-03T07:20:28.746Z</time></trkpt><trkpt lat="41.811105" lon="12.6744933"><ele>273.0</ele><time>2026-05-03T07:20:29.748Z</time></trkpt><trkpt lat="41.8111783" lon="12.6745167"><ele>273.0</ele><time>2026-05-03T07:20:30.746Z</time></trkpt><trkpt lat="41.8112483" lon="12.6745283"><ele>273.0</ele><time>2026-05-03T07:20:31.747Z</time></trkpt><trkpt lat="41.8113133" lon="12.67454"><ele>272.0</ele><time>2026-05-03T07:20:32.748Z</time></trkpt><trkpt lat="41.81143" lon="12.674565"><ele>271.0</ele><time>2026-05-03T07:20:34.747Z</time></trkpt><trkpt lat="41.8115467" lon="12.674585"><ele>270.0</ele><time>2026-05-03T07:20:36.748Z</time></trkpt><trkpt lat="41.8116583" lon="12.67461"><ele>269.0</ele><time>2026-05-03T07:20:38.746Z</time></trkpt><trkpt lat="41.811765" lon="12.674635"><ele>267.4</ele><time>2026-05-03T07:20:40.747Z</time></trkpt><trkpt lat="41.81187" lon="12.67466"><ele>265.79999999999995</ele><time>2026-05-03T07:20:42.751Z</time></trkpt><trkpt lat="41.81197" lon="12.6746717"><ele>264.20000000000005</ele><time>2026-05-03T07:20:44.75Z</time></trkpt><trkpt lat="41.8120733" lon="12.6746933"><ele>262.6</ele><time>2026-05-03T07:20:46.748Z</time></trkpt><trkpt lat="41.8121917" lon="12.6747133"><ele>261.0</ele><time>2026-05-03T07:20:48.747Z</time></trkpt><trkpt lat="41.81226" lon="12.6747267"><ele>261.0</ele><time>2026-05-03T07:20:49.749Z</time></trkpt><trkpt lat="41.812335" lon="12.6747383"><ele>261.0</ele><time>2026-05-03T07:20:50.747Z</time></trkpt><trkpt lat="41.81241" lon="12.674755"><ele>261.0</ele><time>2026-05-03T07:20:51.749Z</time></trkpt><trkpt lat="41.8124867" lon="12.6747717"><ele>261.0</ele><time>2026-05-03T07:20:52.747Z</time></trkpt><trkpt lat="41.81256" lon="12.67479"><ele>261.0</ele><time>2026-05-03T07:20:53.747Z</time></trkpt><trkpt lat="41.81264" lon="12.6748017"><ele>261.0</ele><time>2026-05-03T07:20:54.749Z</time></trkpt><trkpt lat="41.812725" lon="12.674805"><ele>260.2</ele><time>2026-05-03T07:20:55.748Z</time></trkpt><trkpt lat="41.81281" lon="12.67481"><ele>259.40000000000003</ele><time>2026-05-03T07:20:56.747Z</time></trkpt><trkpt lat="41.8129" lon="12.6748117"><ele>258.6</ele><time>2026-05-03T07:20:57.749Z</time></trkpt><trkpt lat="41.8129933" lon="12.6748067"><ele>257.8</ele><time>2026-05-03T07:20:58.748Z</time></trkpt><trkpt lat="41.8130867" lon="12.6748067"><ele>257.0</ele><time>2026-05-03T07:20:59.747Z</time></trkpt><trkpt lat="41.8131817" lon="12.6748067"><ele>257.0</ele><time>2026-05-03T07:21:00.748Z</time></trkpt><trkpt lat="41.8132817" lon="12.674805"><ele>257.0</ele><time>2026-05-03T07:21:01.748Z</time></trkpt><trkpt lat="41.8133817" lon="12.6748017"><ele>257.0</ele><time>2026-05-03T07:21:02.747Z</time></trkpt><trkpt lat="41.813485" lon="12.6747983"><ele>257.0</ele><time>2026-05-03T07:21:03.748Z</time></trkpt><trkpt lat="41.81359" lon="12.6747983"><ele>257.0</ele><time>2026-05-03T07:21:04.749Z</time></trkpt><trkpt lat="41.8137" lon="12.6748"><ele>255.6</ele><time>2026-05-03T07:21:05.748Z</time></trkpt><trkpt lat="41.813815" lon="12.6747983"><ele>254.2</ele><time>2026-05-03T07:21:06.751Z</time></trkpt><trkpt lat="41.8139283" lon="12.6748017"><ele>252.8</ele><time>2026-05-03T07:21:07.75Z</time></trkpt><trkpt lat="41.8140383" lon="12.6748067"><ele>251.4</ele><time>2026-05-03T07:21:08.748Z</time></trkpt><trkpt lat="41.814145" lon="12.6748067"><ele>250.0</ele><time>2026-05-03T07:21:09.748Z</time></trkpt><trkpt lat="41.8142533" lon="12.6748083"><ele>250.0</ele><time>2026-05-03T07:21:10.75Z</time></trkpt><trkpt lat="41.8143583" lon="12.6748133"><ele>250.0</ele><time>2026-05-03T07:21:11.748Z</time></trkpt><trkpt lat="41.8144617" lon="12.674815"><ele>250.0</ele><time>2026-05-03T07:21:12.748Z</time></trkpt><trkpt lat="41.81457" lon="12.6748083"><ele>250.0</ele><time>2026-05-03T07:21:13.748Z</time></trkpt><trkpt lat="41.81467" lon="12.6748033"><ele>250.0</ele><time>2026-05-03T07:21:14.752Z</time></trkpt><trkpt lat="41.814765" lon="12.6747967"><ele>250.0</ele><time>2026-05-03T07:21:15.752Z</time></trkpt><trkpt lat="41.8148583" lon="12.6747783"><ele>250.0</ele><time>2026-05-03T07:21:16.75Z</time></trkpt><trkpt lat="41.81495" lon="12.674765"><ele>250.0</ele><time>2026-05-03T07:21:17.748Z</time></trkpt><trkpt lat="41.8150433" lon="12.67474"><ele>250.0</ele><time>2026-05-03T07:21:18.751Z</time></trkpt><trkpt lat="41.8151383" lon="12.6747117"><ele>250.0</ele><time>2026-05-03T07:21:19.749Z</time></trkpt><trkpt lat="41.8152267" lon="12.6746733"><ele>250.0</ele><time>2026-05-03T07:21:20.749Z</time></trkpt><trkpt lat="41.8153167" lon="12.6746283"><ele>250.0</ele><time>2026-05-03T07:21:21.749Z</time></trkpt><trkpt lat="41.8154033" lon="12.674585"><ele>250.0</ele><time>2026-05-03T07:21:22.749Z</time></trkpt><trkpt lat="41.8154867" lon="12.6745417"><ele>250.0</ele><time>2026-05-03T07:21:23.75Z</time></trkpt><trkpt lat="41.81557" lon="12.6744967"><ele>250.0</ele><time>2026-05-03T07:21:24.75Z</time></trkpt><trkpt lat="41.815655" lon="12.6744533"><ele>249.49999999999997</ele><time>2026-05-03T07:21:25.748Z</time></trkpt><trkpt lat="41.81574" lon="12.67441"><ele>249.0</ele><time>2026-05-03T07:21:26.75Z</time></trkpt><trkpt lat="41.815825" lon="12.6743767"><ele>248.5</ele><time>2026-05-03T07:21:27.749Z</time></trkpt><trkpt lat="41.81591" lon="12.674345"><ele>248.0</ele><time>2026-05-03T07:21:28.747Z</time></trkpt><trkpt lat="41.8159983" lon="12.6743217"><ele>247.49999999999997</ele><time>2026-05-03T07:21:29.749Z</time></trkpt><trkpt lat="41.8160867" lon="12.674305"><ele>247.0</ele><time>2026-05-03T07:21:30.748Z</time></trkpt><trkpt lat="41.816175" lon="12.6742933"><ele>246.0</ele><time>2026-05-03T07:21:31.749Z</time></trkpt><trkpt lat="41.8162617" lon="12.67429"><ele>245.0</ele><time>2026-05-03T07:21:32.748Z</time></trkpt><trkpt lat="41.8163533" lon="12.6742967"><ele>244.0</ele><time>2026-05-03T07:21:33.75Z</time></trkpt><trkpt lat="41.8164517" lon="12.6743083"><ele>243.0</ele><time>2026-05-03T07:21:34.748Z</time></trkpt><trkpt lat="41.8165533" lon="12.6743117"><ele>242.0</ele><time>2026-05-03T07:21:35.749Z</time></trkpt><trkpt lat="41.8166583" lon="12.6743133"><ele>242.0</ele><time>2026-05-03T07:21:36.75Z</time></trkpt><trkpt lat="41.8167717" lon="12.6743117"><ele>242.0</ele><time>2026-05-03T07:21:37.748Z</time></trkpt><trkpt lat="41.8168833" lon="12.6743117"><ele>242.0</ele><time>2026-05-03T07:21:38.75Z</time></trkpt><trkpt lat="41.8169967" lon="12.6743317"><ele>242.0</ele><time>2026-05-03T07:21:39.747Z</time></trkpt><trkpt lat="41.817115" lon="12.6743333"><ele>240.25</ele><time>2026-05-03T07:21:40.75Z</time></trkpt><trkpt lat="41.817235" lon="12.6743333"><ele>238.5</ele><time>2026-05-03T07:21:41.746Z</time></trkpt><trkpt lat="41.8173567" lon="12.67433"><ele>236.75</ele><time>2026-05-03T07:21:42.748Z</time></trkpt><trkpt lat="41.8174817" lon="12.67433"><ele>235.0</ele><time>2026-05-03T07:21:43.748Z</time></trkpt><trkpt lat="41.817605" lon="12.67433"><ele>233.25</ele><time>2026-05-03T07:21:44.748Z</time></trkpt><trkpt lat="41.817725" lon="12.674325"><ele>231.5</ele><time>2026-05-03T07:21:45.75Z</time></trkpt><trkpt lat="41.8178467" lon="12.6743183"><ele>229.75</ele><time>2026-05-03T07:21:46.748Z</time></trkpt><trkpt lat="41.8179733" lon="12.6743183"><ele>228.0</ele><time>2026-05-03T07:21:47.75Z</time></trkpt><trkpt lat="41.8181" lon="12.6743067"><ele>228.0</ele><time>2026-05-03T07:21:48.751Z</time></trkpt><trkpt lat="41.8182233" lon="12.6742983"><ele>228.0</ele><time>2026-05-03T07:21:49.75Z</time></trkpt><trkpt lat="41.818345" lon="12.6742833"><ele>228.0</ele><time>2026-05-03T07:21:50.747Z</time></trkpt><trkpt lat="41.8184633" lon="12.6742683"><ele>228.0</ele><time>2026-05-03T07:21:51.746Z</time></trkpt><trkpt lat="41.818575" lon="12.67425"><ele>227.33333333333334</ele><time>2026-05-03T07:21:52.747Z</time></trkpt><trkpt lat="41.818675" lon="12.6742383"><ele>226.66666666666669</ele><time>2026-05-03T07:21:53.749Z</time></trkpt><trkpt lat="41.818765" lon="12.6742167"><ele>226.0</ele><time>2026-05-03T07:21:54.748Z</time></trkpt><trkpt lat="41.8188483" lon="12.67419"><ele>225.33333333333334</ele><time>2026-05-03T07:21:55.748Z</time></trkpt><trkpt lat="41.8189233" lon="12.6741567"><ele>224.66666666666669</ele><time>2026-05-03T07:21:56.747Z</time></trkpt><trkpt lat="41.8189983" lon="12.6741283"><ele>224.0</ele><time>2026-05-03T07:21:57.749Z</time></trkpt><trkpt lat="41.8190683" lon="12.6741017"><ele>224.0</ele><time>2026-05-03T07:21:58.75Z</time></trkpt><trkpt lat="41.81914" lon="12.67409"><ele>223.99999999999997</ele><time>2026-05-03T07:21:59.748Z</time></trkpt><trkpt lat="41.8192117" lon="12.674105"><ele>223.99999999999997</ele><time>2026-05-03T07:22:00.746Z</time></trkpt><trkpt lat="41.8192817" lon="12.6741117"><ele>224.0</ele><time>2026-05-03T07:22:01.75Z</time></trkpt><trkpt lat="41.8193917" lon="12.6740517"><ele>224.0</ele><time>2026-05-03T07:22:03.75Z</time></trkpt><trkpt lat="41.8194333" lon="12.673895"><ele>223.16666666666669</ele><time>2026-05-03T07:22:05.75Z</time></trkpt><trkpt lat="41.8194317" lon="12.6738033"><ele>222.33333333333334</ele><time>2026-05-03T07:22:06.751Z</time></trkpt><trkpt lat="41.8194233" lon="12.673715"><ele>221.5</ele><time>2026-05-03T07:22:07.75Z</time></trkpt><trkpt lat="41.819415" lon="12.6736117"><ele>220.66666666666669</ele><time>2026-05-03T07:22:08.749Z</time></trkpt><trkpt lat="41.81942" lon="12.67351"><ele>219.83333333333334</ele><time>2026-05-03T07:22:09.749Z</time></trkpt><trkpt lat="41.8194433" lon="12.6734183"><ele>219.0</ele><time>2026-05-03T07:22:10.749Z</time></trkpt><trkpt lat="41.8195167" lon="12.6733483"><ele>218.6</ele><time>2026-05-03T07:22:11.753Z</time></trkpt><trkpt lat="41.819665" lon="12.6732233"><ele>218.2</ele><time>2026-05-03T07:22:13.748Z</time></trkpt><trkpt lat="41.8197383" lon="12.6731617"><ele>217.79999999999998</ele><time>2026-05-03T07:22:14.746Z</time></trkpt><trkpt lat="41.8198167" lon="12.6731"><ele>217.39999999999998</ele><time>2026-05-03T07:22:15.746Z</time></trkpt><trkpt lat="41.819895" lon="12.6730367"><ele>217.0</ele><time>2026-05-03T07:22:16.747Z</time></trkpt><trkpt lat="41.819975" lon="12.672975"><ele>217.0</ele><time>2026-05-03T07:22:17.75Z</time></trkpt><trkpt lat="41.82006" lon="12.67292"><ele>217.0</ele><time>2026-05-03T07:22:18.747Z</time></trkpt><trkpt lat="41.8201417" lon="12.6728583"><ele>217.0</ele><time>2026-05-03T07:22:19.749Z</time></trkpt><trkpt lat="41.820225" lon="12.672795"><ele>217.0</ele><time>2026-05-03T07:22:20.746Z</time></trkpt><trkpt lat="41.820315" lon="12.6727367"><ele>217.0</ele><time>2026-05-03T07:22:21.75Z</time></trkpt><trkpt lat="41.8204033" lon="12.6726783"><ele>216.0</ele><time>2026-05-03T07:22:22.75Z</time></trkpt><trkpt lat="41.8204983" lon="12.6726283"><ele>215.0</ele><time>2026-05-03T07:22:23.75Z</time></trkpt><trkpt lat="41.820585" lon="12.6725833"><ele>214.0</ele><time>2026-05-03T07:22:24.752Z</time></trkpt><trkpt lat="41.8206733" lon="12.672545"><ele>213.0</ele><time>2026-05-03T07:22:25.75Z</time></trkpt><trkpt lat="41.8207617" lon="12.67251"><ele>212.0</ele><time>2026-05-03T07:22:26.751Z</time></trkpt><trkpt lat="41.8208483" lon="12.672475"><ele>212.0</ele><time>2026-05-03T07:22:27.748Z</time></trkpt><trkpt lat="41.8209367" lon="12.67244"><ele>212.0</ele><time>2026-05-03T07:22:28.75Z</time></trkpt><trkpt lat="41.8210217" lon="12.672405"><ele>212.0</ele><time>2026-05-03T07:22:29.747Z</time></trkpt><trkpt lat="41.8211083" lon="12.6723717"><ele>212.0</ele><time>2026-05-03T07:22:30.751Z</time></trkpt><trkpt lat="41.8211933" lon="12.6723283"><ele>212.0</ele><time>2026-05-03T07:22:31.747Z</time></trkpt><trkpt lat="41.8212783" lon="12.6722817"><ele>211.50000000000003</ele><time>2026-05-03T07:22:32.749Z</time></trkpt><trkpt lat="41.8213633" lon="12.67224"><ele>211.0</ele><time>2026-05-03T07:22:33.749Z</time></trkpt><trkpt lat="41.8214433" lon="12.6721967"><ele>210.5</ele><time>2026-05-03T07:22:34.748Z</time></trkpt><trkpt lat="41.82152" lon="12.672145"><ele>210.0</ele><time>2026-05-03T07:22:35.748Z</time></trkpt><trkpt lat="41.821595" lon="12.6720917"><ele>209.50000000000003</ele><time>2026-05-03T07:22:36.748Z</time></trkpt><trkpt lat="41.8216733" lon="12.67204"><ele>209.0</ele><time>2026-05-03T07:22:37.751Z</time></trkpt><trkpt lat="41.8217483" lon="12.6719733"><ele>207.66666666666669</ele><time>2026-05-03T07:22:38.747Z</time></trkpt><trkpt lat="41.8218183" lon="12.6719117"><ele>206.33333333333334</ele><time>2026-05-03T07:22:39.75Z</time></trkpt><trkpt lat="41.8218883" lon="12.6718417"><ele>205.0</ele><time>2026-05-03T07:22:40.749Z</time></trkpt><trkpt lat="41.8219633" lon="12.6717833"><ele>203.66666666666669</ele><time>2026-05-03T07:22:41.749Z</time></trkpt><trkpt lat="41.8220383" lon="12.6717283"><ele>202.33333333333334</ele><time>2026-05-03T07:22:42.748Z</time></trkpt><trkpt lat="41.822115" lon="12.6716767"><ele>201.0</ele><time>2026-05-03T07:22:43.749Z</time></trkpt><trkpt lat="41.8221933" lon="12.67163"><ele>201.0</ele><time>2026-05-03T07:22:44.748Z</time></trkpt><trkpt lat="41.8222683" lon="12.6715833"><ele>201.0</ele><time>2026-05-03T07:22:45.749Z</time></trkpt><trkpt lat="41.8223417" lon="12.6715217"><ele>201.0</ele><time>2026-05-03T07:22:46.749Z</time></trkpt><trkpt lat="41.822415" lon="12.6714767"><ele>201.0</ele><time>2026-05-03T07:22:47.748Z</time></trkpt><trkpt lat="41.8224917" lon="12.6714283"><ele>201.0</ele><time>2026-05-03T07:22:48.747Z</time></trkpt><trkpt lat="41.82257" lon="12.6713833"><ele>201.0</ele><time>2026-05-03T07:22:49.748Z</time></trkpt><trkpt lat="41.8226517" lon="12.6713333"><ele>200.66666666666666</ele><time>2026-05-03T07:22:50.747Z</time></trkpt><trkpt lat="41.8227283" lon="12.6712783"><ele>200.33333333333331</ele><time>2026-05-03T07:22:51.748Z</time></trkpt><trkpt lat="41.8228017" lon="12.671215"><ele>200.0</ele><time>2026-05-03T07:22:52.748Z</time></trkpt><trkpt lat="41.8228767" lon="12.6711617"><ele>199.66666666666666</ele><time>2026-05-03T07:22:53.747Z</time></trkpt><trkpt lat="41.82295" lon="12.6711133"><ele>199.33333333333331</ele><time>2026-05-03T07:22:54.751Z</time></trkpt><trkpt lat="41.82302" lon="12.6710667"><ele>199.0</ele><time>2026-05-03T07:22:55.75Z</time></trkpt><trkpt lat="41.82309" lon="12.6710167"><ele>198.99999999999997</ele><time>2026-05-03T07:22:56.75Z</time></trkpt><trkpt lat="41.8231617" lon="12.6709683"><ele>199.0</ele><time>2026-05-03T07:22:57.749Z</time></trkpt><trkpt lat="41.8232383" lon="12.6709233"><ele>199.0</ele><time>2026-05-03T07:22:58.746Z</time></trkpt><trkpt lat="41.823315" lon="12.6708833"><ele>199.0</ele><time>2026-05-03T07:22:59.749Z</time></trkpt><trkpt lat="41.8233933" lon="12.67085"><ele>198.99999999999997</ele><time>2026-05-03T07:23:00.747Z</time></trkpt><trkpt lat="41.82347" lon="12.6708183"><ele>199.0</ele><time>2026-05-03T07:23:01.75Z</time></trkpt><trkpt lat="41.82355" lon="12.6707867"><ele>197.99999999999997</ele><time>2026-05-03T07:23:02.749Z</time></trkpt><trkpt lat="41.82363" lon="12.670755"><ele>197.0</ele><time>2026-05-03T07:23:03.75Z</time></trkpt><trkpt lat="41.8237117" lon="12.6707217"><ele>196.0</ele><time>2026-05-03T07:23:04.749Z</time></trkpt><trkpt lat="41.823795" lon="12.670685"><ele>195.0</ele><time>2026-05-03T07:23:05.753Z</time></trkpt><trkpt lat="41.8238767" lon="12.6706433"><ele>193.99999999999997</ele><time>2026-05-03T07:23:06.749Z</time></trkpt><trkpt lat="41.823965" lon="12.6706"><ele>193.0</ele><time>2026-05-03T07:23:07.749Z</time></trkpt><trkpt lat="41.8240533" lon="12.6705633"><ele>192.99999999999997</ele><time>2026-05-03T07:23:08.75Z</time></trkpt><trkpt lat="41.824135" lon="12.6705267"><ele>193.0</ele><time>2026-05-03T07:23:09.75Z</time></trkpt><trkpt lat="41.824215" lon="12.6704833"><ele>193.0</ele><time>2026-05-03T07:23:10.749Z</time></trkpt><trkpt lat="41.8242933" lon="12.670435"><ele>193.0</ele><time>2026-05-03T07:23:11.75Z</time></trkpt><trkpt lat="41.8243683" lon="12.6703833"><ele>192.99999999999997</ele><time>2026-05-03T07:23:12.749Z</time></trkpt><trkpt lat="41.8244433" lon="12.6703283"><ele>193.0</ele><time>2026-05-03T07:23:13.75Z</time></trkpt><trkpt lat="41.82452" lon="12.6702683"><ele>192.4</ele><time>2026-05-03T07:23:14.747Z</time></trkpt><trkpt lat="41.8245967" lon="12.6701983"><ele>191.8</ele><time>2026-05-03T07:23:15.749Z</time></trkpt><trkpt lat="41.824675" lon="12.6701283"><ele>191.2</ele><time>2026-05-03T07:23:16.75Z</time></trkpt><trkpt lat="41.8247517" lon="12.6700517"><ele>190.6</ele><time>2026-05-03T07:23:17.749Z</time></trkpt><trkpt lat="41.8248217" lon="12.6699683"><ele>190.0</ele><time>2026-05-03T07:23:18.747Z</time></trkpt><trkpt lat="41.8248883" lon="12.6698783"><ele>190.0</ele><time>2026-05-03T07:23:19.748Z</time></trkpt><trkpt lat="41.8249533" lon="12.6697917"><ele>190.0</ele><time>2026-05-03T07:23:20.748Z</time></trkpt><trkpt lat="41.8250167" lon="12.6697033"><ele>190.0</ele><time>2026-05-03T07:23:21.748Z</time></trkpt><trkpt lat="41.8250783" lon="12.6696133"><ele>190.0</ele><time>2026-05-03T07:23:22.747Z</time></trkpt><trkpt lat="41.82514" lon="12.669525"><ele>190.0</ele><time>2026-05-03T07:23:23.748Z</time></trkpt><trkpt lat="41.8252017" lon="12.66943"><ele>188.5</ele><time>2026-05-03T07:23:24.751Z</time></trkpt><trkpt lat="41.8252633" lon="12.6693383"><ele>187.0</ele><time>2026-05-03T07:23:25.75Z</time></trkpt><trkpt lat="41.8253217" lon="12.66925"><ele>185.5</ele><time>2026-05-03T07:23:26.75Z</time></trkpt><trkpt lat="41.82538" lon="12.6691617"><ele>184.0</ele><time>2026-05-03T07:23:27.749Z</time></trkpt><trkpt lat="41.8254383" lon="12.669085"><ele>182.5</ele><time>2026-05-03T07:23:28.748Z</time></trkpt><trkpt lat="41.825495" lon="12.669005"><ele>181.0</ele><time>2026-05-03T07:23:29.749Z</time></trkpt><trkpt lat="41.825545" lon="12.6689267"><ele>181.0</ele><time>2026-05-03T07:23:30.75Z</time></trkpt><trkpt lat="41.8255983" lon="12.6688517"><ele>181.0</ele><time>2026-05-03T07:23:31.747Z</time></trkpt><trkpt lat="41.8256567" lon="12.6687767"><ele>181.0</ele><time>2026-05-03T07:23:32.749Z</time></trkpt><trkpt lat="41.825715" lon="12.6687033"><ele>181.0</ele><time>2026-05-03T07:23:33.748Z</time></trkpt><trkpt lat="41.825775" lon="12.6686267"><ele>181.0</ele><time>2026-05-03T07:23:34.747Z</time></trkpt><trkpt lat="41.8258367" lon="12.6685483"><ele>181.0</ele><time>2026-05-03T07:23:35.748Z</time></trkpt><trkpt lat="41.8258967" lon="12.66847"><ele>180.66666666666669</ele><time>2026-05-03T07:23:36.748Z</time></trkpt><trkpt lat="41.8259583" lon="12.66839"><ele>180.33333333333334</ele><time>2026-05-03T07:23:37.747Z</time></trkpt><trkpt lat="41.8260183" lon="12.668305"><ele>180.0</ele><time>2026-05-03T07:23:38.746Z</time></trkpt><trkpt lat="41.8260817" lon="12.66822"><ele>179.66666666666666</ele><time>2026-05-03T07:23:39.747Z</time></trkpt><trkpt lat="41.8261467" lon="12.6681333"><ele>179.33333333333331</ele><time>2026-05-03T07:23:40.747Z</time></trkpt><trkpt lat="41.8262083" lon="12.6680417"><ele>179.0</ele><time>2026-05-03T07:23:41.75Z</time></trkpt><trkpt lat="41.8262717" lon="12.66795"><ele>177.6</ele><time>2026-05-03T07:23:42.749Z</time></trkpt><trkpt lat="41.826335" lon="12.667855"><ele>176.2</ele><time>2026-05-03T07:23:43.751Z</time></trkpt><trkpt lat="41.8264" lon="12.6677633"><ele>174.79999999999998</ele><time>2026-05-03T07:23:44.746Z</time></trkpt><trkpt lat="41.8264667" lon="12.6676667"><ele>173.39999999999998</ele><time>2026-05-03T07:23:45.75Z</time></trkpt><trkpt lat="41.8265367" lon="12.6675717"><ele>172.0</ele><time>2026-05-03T07:23:46.748Z</time></trkpt><trkpt lat="41.8266033" lon="12.6674817"><ele>172.00000000000003</ele><time>2026-05-03T07:23:47.749Z</time></trkpt><trkpt lat="41.8266633" lon="12.6674033"><ele>172.0</ele><time>2026-05-03T07:23:48.748Z</time></trkpt><trkpt lat="41.8267117" lon="12.6673367"><ele>172.0</ele><time>2026-05-03T07:23:49.75Z</time></trkpt><trkpt lat="41.8267567" lon="12.667275"><ele>172.0</ele><time>2026-05-03T07:23:50.749Z</time></trkpt><trkpt lat="41.8268017" lon="12.6672083"><ele>172.0</ele><time>2026-05-03T07:23:51.746Z</time></trkpt><trkpt lat="41.8268433" lon="12.66713"><ele>172.00000000000003</ele><time>2026-05-03T07:23:52.75Z</time></trkpt><trkpt lat="41.82688" lon="12.6670467"><ele>172.0</ele><time>2026-05-03T07:23:53.75Z</time></trkpt><trkpt lat="41.826915" lon="12.6669567"><ele>170.5</ele><time>2026-05-03T07:23:54.75Z</time></trkpt><trkpt lat="41.8269517" lon="12.6668633"><ele>169.0</ele><time>2026-05-03T07:23:55.75Z</time></trkpt><trkpt lat="41.8269867" lon="12.666765"><ele>167.5</ele><time>2026-05-03T07:23:56.752Z</time></trkpt><trkpt lat="41.82702" lon="12.6666633"><ele>166.0</ele><time>2026-05-03T07:23:57.749Z</time></trkpt><trkpt lat="41.82705" lon="12.6665583"><ele>164.5</ele><time>2026-05-03T07:23:58.749Z</time></trkpt><trkpt lat="41.8270783" lon="12.6664467"><ele>163.0</ele><time>2026-05-03T07:23:59.75Z</time></trkpt><trkpt lat="41.8271083" lon="12.6663333"><ele>163.0</ele><time>2026-05-03T07:24:00.748Z</time></trkpt><trkpt lat="41.8271417" lon="12.666215"><ele>163.0</ele><time>2026-05-03T07:24:01.748Z</time></trkpt><trkpt lat="41.8271783" lon="12.6660967"><ele>163.0</ele><time>2026-05-03T07:24:02.75Z</time></trkpt><trkpt lat="41.8272167" lon="12.66598"><ele>163.0</ele><time>2026-05-03T07:24:03.749Z</time></trkpt><trkpt lat="41.8272567" lon="12.6658633"><ele>163.0</ele><time>2026-05-03T07:24:04.75Z</time></trkpt><trkpt lat="41.8272967" lon="12.665745"><ele>163.4</ele><time>2026-05-03T07:24:05.746Z</time></trkpt><trkpt lat="41.8273367" lon="12.665625"><ele>163.8</ele><time>2026-05-03T07:24:06.751Z</time></trkpt><trkpt lat="41.8273733" lon="12.665505"><ele>164.2</ele><time>2026-05-03T07:24:07.748Z</time></trkpt><trkpt lat="41.8274233" lon="12.66539"><ele>164.6</ele><time>2026-05-03T07:24:08.751Z</time></trkpt><trkpt lat="41.8274733" lon="12.6652717"><ele>165.0</ele><time>2026-05-03T07:24:09.751Z</time></trkpt><trkpt lat="41.8275333" lon="12.6651717"><ele>164.2</ele><time>2026-05-03T07:24:10.746Z</time></trkpt><trkpt lat="41.8275883" lon="12.665055"><ele>163.4</ele><time>2026-05-03T07:24:11.75Z</time></trkpt><trkpt lat="41.827645" lon="12.6649467"><ele>162.60000000000002</ele><time>2026-05-03T07:24:12.749Z</time></trkpt><trkpt lat="41.8277033" lon="12.664835"><ele>161.8</ele><time>2026-05-03T07:24:13.748Z</time></trkpt><trkpt lat="41.8277633" lon="12.6647233"><ele>161.0</ele><time>2026-05-03T07:24:14.75Z</time></trkpt><trkpt lat="41.8278217" lon="12.6646083"><ele>159.20000000000002</ele><time>2026-05-03T07:24:15.749Z</time></trkpt><trkpt lat="41.82788" lon="12.66449"><ele>157.4</ele><time>2026-05-03T07:24:16.749Z</time></trkpt><trkpt lat="41.8279383" lon="12.6643683"><ele>155.6</ele><time>2026-05-03T07:24:17.749Z</time></trkpt><trkpt lat="41.8279933" lon="12.6642433"><ele>153.8</ele><time>2026-05-03T07:24:18.751Z</time></trkpt><trkpt lat="41.82805" lon="12.66412"><ele>152.0</ele><time>2026-05-03T07:24:19.749Z</time></trkpt><trkpt lat="41.8281117" lon="12.664"><ele>151.75</ele><time>2026-05-03T07:24:20.75Z</time></trkpt><trkpt lat="41.828175" lon="12.6638767"><ele>151.5</ele><time>2026-05-03T07:24:21.751Z</time></trkpt><trkpt lat="41.8282367" lon="12.66375"><ele>151.25</ele><time>2026-05-03T07:24:22.749Z</time></trkpt><trkpt lat="41.8282983" lon="12.6636233"><ele>151.0</ele><time>2026-05-03T07:24:23.75Z</time></trkpt><trkpt lat="41.8283583" lon="12.6634933"><ele>150.5</ele><time>2026-05-03T07:24:24.749Z</time></trkpt><trkpt lat="41.8284233" lon="12.66337"><ele>150.0</ele><time>2026-05-03T07:24:25.749Z</time></trkpt><trkpt lat="41.8284867" lon="12.663245"><ele>149.5</ele><time>2026-05-03T07:24:26.75Z</time></trkpt><trkpt lat="41.8285483" lon="12.663115"><ele>149.0</ele><time>2026-05-03T07:24:27.748Z</time></trkpt><trkpt lat="41.8286117" lon="12.662985"><ele>148.75</ele><time>2026-05-03T07:24:28.749Z</time></trkpt><trkpt lat="41.828675" lon="12.662855"><ele>148.5</ele><time>2026-05-03T07:24:29.747Z</time></trkpt><trkpt lat="41.8287417" lon="12.6627233"><ele>148.25</ele><time>2026-05-03T07:24:30.747Z</time></trkpt><trkpt lat="41.828805" lon="12.6625917"><ele>148.0</ele><time>2026-05-03T07:24:31.748Z</time></trkpt><trkpt lat="41.8288683" lon="12.6624533"><ele>147.25</ele><time>2026-05-03T07:24:32.75Z</time></trkpt><trkpt lat="41.8289317" lon="12.6623167"><ele>146.5</ele><time>2026-05-03T07:24:33.75Z</time></trkpt><trkpt lat="41.828995" lon="12.662185"><ele>145.75</ele><time>2026-05-03T07:24:34.748Z</time></trkpt><trkpt lat="41.8290567" lon="12.6620617"><ele>145.0</ele><time>2026-05-03T07:24:35.752Z</time></trkpt><trkpt lat="41.8291217" lon="12.66194"><ele>143.2</ele><time>2026-05-03T07:24:36.751Z</time></trkpt><trkpt lat="41.8291933" lon="12.6618367"><ele>141.4</ele><time>2026-05-03T07:24:37.75Z</time></trkpt><trkpt lat="41.8292733" lon="12.6617583"><ele>139.6</ele><time>2026-05-03T07:24:38.75Z</time></trkpt><trkpt lat="41.829365" lon="12.6616933"><ele>137.8</ele><time>2026-05-03T07:24:39.75Z</time></trkpt><trkpt lat="41.8294717" lon="12.6616617"><ele>136.0</ele><time>2026-05-03T07:24:40.75Z</time></trkpt><trkpt lat="41.8295733" lon="12.6616683"><ele>136.0</ele><time>2026-05-03T07:24:41.751Z</time></trkpt><trkpt lat="41.8296717" lon="12.6617033"><ele>136.0</ele><time>2026-05-03T07:24:42.749Z</time></trkpt><trkpt lat="41.8297633" lon="12.66175"><ele>136.0</ele><time>2026-05-03T07:24:43.75Z</time></trkpt><trkpt lat="41.8298517" lon="12.6617983"><ele>136.0</ele><time>2026-05-03T07:24:44.748Z</time></trkpt><trkpt lat="41.8299367" lon="12.661845"><ele>136.0</ele><time>2026-05-03T07:24:45.747Z</time></trkpt><trkpt lat="41.83" lon="12.6619117"><ele>136.85714285714283</ele><time>2026-05-03T07:24:46.748Z</time></trkpt><trkpt lat="41.8300617" lon="12.6619633"><ele>137.71428571428572</ele><time>2026-05-03T07:24:47.747Z</time></trkpt><trkpt lat="41.83011" lon="12.66202"><ele>138.57142857142856</ele><time>2026-05-03T07:24:48.751Z</time></trkpt><trkpt lat="41.8301617" lon="12.662075"><ele>139.42857142857142</ele><time>2026-05-03T07:24:49.749Z</time></trkpt><trkpt lat="41.830205" lon="12.6621383"><ele>140.28571428571428</ele><time>2026-05-03T07:24:50.749Z</time></trkpt><trkpt lat="41.8302483" lon="12.6622083"><ele>141.14285714285714</ele><time>2026-05-03T07:24:51.749Z</time></trkpt><trkpt lat="41.83029" lon="12.66228"><ele>142.0</ele><time>2026-05-03T07:24:52.75Z</time></trkpt><trkpt lat="41.8303267" lon="12.6623533"><ele>142.0</ele><time>2026-05-03T07:24:53.749Z</time></trkpt><trkpt lat="41.8303667" lon="12.662425"><ele>142.0</ele><time>2026-05-03T07:24:54.75Z</time></trkpt><trkpt lat="41.8304083" lon="12.6625"><ele>142.0</ele><time>2026-05-03T07:24:55.749Z</time></trkpt><trkpt lat="41.830445" lon="12.6625717"><ele>142.0</ele><time>2026-05-03T07:24:56.75Z</time></trkpt><trkpt lat="41.8304867" lon="12.662645"><ele>142.0</ele><time>2026-05-03T07:24:57.747Z</time></trkpt><trkpt lat="41.8305383" lon="12.6627117"><ele>142.0</ele><time>2026-05-03T07:24:58.747Z</time></trkpt><trkpt lat="41.8305883" lon="12.6627783"><ele>142.0</ele><time>2026-05-03T07:24:59.752Z</time></trkpt><trkpt lat="41.830645" lon="12.662835"><ele>141.33333333333334</ele><time>2026-05-03T07:25:00.75Z</time></trkpt><trkpt lat="41.830705" lon="12.6628817"><ele>140.66666666666669</ele><time>2026-05-03T07:25:01.748Z</time></trkpt><trkpt lat="41.8307717" lon="12.6629167"><ele>140.0</ele><time>2026-05-03T07:25:02.753Z</time></trkpt><trkpt lat="41.8308333" lon="12.6629383"><ele>139.33333333333334</ele><time>2026-05-03T07:25:03.749Z</time></trkpt><trkpt lat="41.8308983" lon="12.6629417"><ele>138.66666666666666</ele><time>2026-05-03T07:25:04.749Z</time></trkpt><trkpt lat="41.8310117" lon="12.6629117"><ele>138.0</ele><time>2026-05-03T07:25:06.749Z</time></trkpt><trkpt lat="41.831115" lon="12.6628617"><ele>138.0</ele><time>2026-05-03T07:25:08.747Z</time></trkpt><trkpt lat="41.8312167" lon="12.6627933"><ele>138.0</ele><time>2026-05-03T07:25:10.75Z</time></trkpt><trkpt lat="41.83131" lon="12.66272"><ele>138.0</ele><time>2026-05-03T07:25:12.749Z</time></trkpt><trkpt lat="41.8314" lon="12.66264"><ele>138.0</ele><time>2026-05-03T07:25:14.749Z</time></trkpt><trkpt lat="41.83149" lon="12.6625717"><ele>138.0</ele><time>2026-05-03T07:25:16.748Z</time></trkpt><trkpt lat="41.83158" lon="12.6625167"><ele>138.0</ele><time>2026-05-03T07:25:18.748Z</time></trkpt><trkpt lat="41.83167" lon="12.662445"><ele>138.0</ele><time>2026-05-03T07:25:20.748Z</time></trkpt><trkpt lat="41.8317583" lon="12.662375"><ele>138.0</ele><time>2026-05-03T07:25:22.747Z</time></trkpt><trkpt lat="41.831835" lon="12.6623033"><ele>138.0</ele><time>2026-05-03T07:25:24.75Z</time></trkpt><trkpt lat="41.831905" lon="12.6622383"><ele>138.0</ele><time>2026-05-03T07:25:26.751Z</time></trkpt><trkpt lat="41.83197" lon="12.6621733"><ele>138.8</ele><time>2026-05-03T07:25:28.75Z</time></trkpt><trkpt lat="41.8320433" lon="12.6621133"><ele>139.60000000000002</ele><time>2026-05-03T07:25:30.748Z</time></trkpt><trkpt lat="41.8321217" lon="12.6620367"><ele>140.39999999999998</ele><time>2026-05-03T07:25:32.75Z</time></trkpt><trkpt lat="41.8322117" lon="12.6619617"><ele>141.2</ele><time>2026-05-03T07:25:34.751Z</time></trkpt><trkpt lat="41.832295" lon="12.6618783"><ele>142.0</ele><time>2026-05-03T07:25:36.748Z</time></trkpt><trkpt lat="41.832395" lon="12.661815"><ele>142.0</ele><time>2026-05-03T07:25:38.749Z</time></trkpt><trkpt lat="41.83248" lon="12.6617667"><ele>142.0</ele><time>2026-05-03T07:25:40.75Z</time></trkpt><trkpt lat="41.8325733" lon="12.6616817"><ele>142.0</ele><time>2026-05-03T07:25:42.75Z</time></trkpt><trkpt lat="41.83266" lon="12.6615967"><ele>142.0</ele><time>2026-05-03T07:25:44.751Z</time></trkpt><trkpt lat="41.8327467" lon="12.6615067"><ele>142.0</ele><time>2026-05-03T07:25:46.75Z</time></trkpt><trkpt lat="41.8328467" lon="12.661425"><ele>140.85714285714286</ele><time>2026-05-03T07:25:48.749Z</time></trkpt><trkpt lat="41.8329" lon="12.6613783"><ele>139.7142857142857</ele><time>2026-05-03T07:25:49.749Z</time></trkpt><trkpt lat="41.8329583" lon="12.6613333"><ele>138.57142857142856</ele><time>2026-05-03T07:25:50.749Z</time></trkpt><trkpt lat="41.8330167" lon="12.6612817"><ele>137.42857142857142</ele><time>2026-05-03T07:25:51.75Z</time></trkpt><trkpt lat="41.8330767" lon="12.6612317"><ele>136.28571428571428</ele><time>2026-05-03T07:25:52.748Z</time></trkpt><trkpt lat="41.83314" lon="12.6611817"><ele>135.14285714285714</ele><time>2026-05-03T07:25:53.751Z</time></trkpt><trkpt lat="41.8332033" lon="12.6611333"><ele>134.0</ele><time>2026-05-03T07:25:54.747Z</time></trkpt><trkpt lat="41.83327" lon="12.661085"><ele>134.0</ele><time>2026-05-03T07:25:55.751Z</time></trkpt><trkpt lat="41.8333383" lon="12.6610317"><ele>134.0</ele><time>2026-05-03T07:25:56.751Z</time></trkpt><trkpt lat="41.8334067" lon="12.6609783"><ele>134.0</ele><time>2026-05-03T07:25:57.749Z</time></trkpt><trkpt lat="41.8334767" lon="12.660925"><ele>134.0</ele><time>2026-05-03T07:25:58.75Z</time></trkpt><trkpt lat="41.8335483" lon="12.6608717"><ele>134.0</ele><time>2026-05-03T07:25:59.748Z</time></trkpt><trkpt lat="41.8336167" lon="12.660815"><ele>134.0</ele><time>2026-05-03T07:26:00.75Z</time></trkpt><trkpt lat="41.833685" lon="12.66075"><ele>133.66666666666666</ele><time>2026-05-03T07:26:01.753Z</time></trkpt><trkpt lat="41.8337533" lon="12.6606833"><ele>133.33333333333331</ele><time>2026-05-03T07:26:02.749Z</time></trkpt><trkpt lat="41.8338267" lon="12.660625"><ele>133.0</ele><time>2026-05-03T07:26:03.75Z</time></trkpt><trkpt lat="41.8339017" lon="12.6605633"><ele>132.66666666666666</ele><time>2026-05-03T07:26:04.75Z</time></trkpt><trkpt lat="41.8339767" lon="12.6605"><ele>132.33333333333334</ele><time>2026-05-03T07:26:05.749Z</time></trkpt><trkpt lat="41.834055" lon="12.660435"><ele>132.0</ele><time>2026-05-03T07:26:06.749Z</time></trkpt><trkpt lat="41.834135" lon="12.6603683"><ele>132.0</ele><time>2026-05-03T07:26:07.749Z</time></trkpt><trkpt lat="41.8342117" lon="12.6603"><ele>132.0</ele><time>2026-05-03T07:26:08.75Z</time></trkpt><trkpt lat="41.834295" lon="12.6602317"><ele>132.0</ele><time>2026-05-03T07:26:09.749Z</time></trkpt><trkpt lat="41.83438" lon="12.6601633"><ele>132.0</ele><time>2026-05-03T07:26:10.751Z</time></trkpt><trkpt lat="41.834465" lon="12.6600933"><ele>132.0</ele><time>2026-05-03T07:26:11.749Z</time></trkpt><trkpt lat="41.834555" lon="12.66003"><ele>130.0</ele><time>2026-05-03T07:26:12.75Z</time></trkpt><trkpt lat="41.8346533" lon="12.65998"><ele>127.99999999999999</ele><time>2026-05-03T07:26:13.75Z</time></trkpt><trkpt lat="41.8347517" lon="12.659945"><ele>125.99999999999999</ele><time>2026-05-03T07:26:14.75Z</time></trkpt><trkpt lat="41.8348533" lon="12.6599233"><ele>124.0</ele><time>2026-05-03T07:26:15.748Z</time></trkpt><trkpt lat="41.834955" lon="12.65991"><ele>122.0</ele><time>2026-05-03T07:26:16.751Z</time></trkpt><trkpt lat="41.8350617" lon="12.6599017"><ele>121.6</ele><time>2026-05-03T07:26:17.75Z</time></trkpt><trkpt lat="41.83517" lon="12.6598983"><ele>121.19999999999999</ele><time>2026-05-03T07:26:18.75Z</time></trkpt><trkpt lat="41.83528" lon="12.6598933"><ele>120.8</ele><time>2026-05-03T07:26:19.75Z</time></trkpt><trkpt lat="41.8353883" lon="12.659875"><ele>120.4</ele><time>2026-05-03T07:26:20.75Z</time></trkpt><trkpt lat="41.835495" lon="12.6598417"><ele>120.0</ele><time>2026-05-03T07:26:21.75Z</time></trkpt><trkpt lat="41.8356017" lon="12.6597933"><ele>120.0</ele><time>2026-05-03T07:26:22.75Z</time></trkpt><trkpt lat="41.8357017" lon="12.65973"><ele>120.0</ele><time>2026-05-03T07:26:23.75Z</time></trkpt><trkpt lat="41.8358017" lon="12.6596667"><ele>120.0</ele><time>2026-05-03T07:26:24.747Z</time></trkpt><trkpt lat="41.8358983" lon="12.6595967"><ele>120.0</ele><time>2026-05-03T07:26:25.747Z</time></trkpt><trkpt lat="41.8359917" lon="12.65952"><ele>120.0</ele><time>2026-05-03T07:26:26.75Z</time></trkpt><trkpt lat="41.8360867" lon="12.6594467"><ele>119.0</ele><time>2026-05-03T07:26:27.75Z</time></trkpt><trkpt lat="41.8361817" lon="12.6593667"><ele>118.0</ele><time>2026-05-03T07:26:28.75Z</time></trkpt><trkpt lat="41.8362733" lon="12.659295"><ele>117.0</ele><time>2026-05-03T07:26:29.749Z</time></trkpt><trkpt lat="41.8363567" lon="12.6592283"><ele>116.0</ele><time>2026-05-03T07:26:30.75Z</time></trkpt><trkpt lat="41.8364333" lon="12.6591633"><ele>115.0</ele><time>2026-05-03T07:26:31.747Z</time></trkpt><trkpt lat="41.8365067" lon="12.6591033"><ele>115.00000000000001</ele><time>2026-05-03T07:26:32.747Z</time></trkpt><trkpt lat="41.8365783" lon="12.659055"><ele>115.0</ele><time>2026-05-03T07:26:33.748Z</time></trkpt><trkpt lat="41.836655" lon="12.6590133"><ele>115.0</ele><time>2026-05-03T07:26:34.75Z</time></trkpt><trkpt lat="41.8367367" lon="12.6589767"><ele>115.0</ele><time>2026-05-03T07:26:35.748Z</time></trkpt><trkpt lat="41.8368183" lon="12.658935"><ele>115.00000000000001</ele><time>2026-05-03T07:26:36.748Z</time></trkpt><trkpt lat="41.8368917" lon="12.6588767"><ele>115.0</ele><time>2026-05-03T07:26:37.749Z</time></trkpt><trkpt lat="41.8369467" lon="12.658805"><ele>114.28571428571426</ele><time>2026-05-03T07:26:38.746Z</time></trkpt><trkpt lat="41.8369767" lon="12.658715"><ele>113.57142857142857</ele><time>2026-05-03T07:26:39.75Z</time></trkpt><trkpt lat="41.8369633" lon="12.6586183"><ele>112.85714285714285</ele><time>2026-05-03T07:26:40.749Z</time></trkpt><trkpt lat="41.8369317" lon="12.6585333"><ele>112.14285714285714</ele><time>2026-05-03T07:26:41.749Z</time></trkpt><trkpt lat="41.836875" lon="12.6584733"><ele>111.42857142857142</ele><time>2026-05-03T07:26:42.75Z</time></trkpt><trkpt lat="41.8368033" lon="12.6584417"><ele>110.71428571428571</ele><time>2026-05-03T07:26:43.75Z</time></trkpt><trkpt lat="41.8367367" lon="12.6584183"><ele>110.0</ele><time>2026-05-03T07:26:44.751Z</time></trkpt><trkpt lat="41.8366617" lon="12.658415"><ele>109.99999999999999</ele><time>2026-05-03T07:26:45.75Z</time></trkpt><trkpt lat="41.8365933" lon="12.6584283"><ele>110.0</ele><time>2026-05-03T07:26:46.749Z</time></trkpt><trkpt lat="41.8365283" lon="12.6584467"><ele>110.0</ele><time>2026-05-03T07:26:47.75Z</time></trkpt><trkpt lat="41.836465" lon="12.6584567"><ele>110.0</ele><time>2026-05-03T07:26:48.75Z</time></trkpt><trkpt lat="41.8363433" lon="12.6584183"><ele>109.99999999999999</ele><time>2026-05-03T07:26:50.75Z</time></trkpt><trkpt lat="41.8362833" lon="12.658385"><ele>110.0</ele><time>2026-05-03T07:26:51.751Z</time></trkpt><trkpt lat="41.83622" lon="12.6583583"><ele>109.99999999999999</ele><time>2026-05-03T07:26:52.75Z</time></trkpt><trkpt lat="41.8361617" lon="12.65832"><ele>110.0</ele><time>2026-05-03T07:26:53.749Z</time></trkpt><trkpt lat="41.8360967" lon="12.6582883"><ele>110.0</ele><time>2026-05-03T07:26:54.749Z</time></trkpt><trkpt lat="41.836035" lon="12.658255"><ele>110.0</ele><time>2026-05-03T07:26:55.75Z</time></trkpt><trkpt lat="41.8359733" lon="12.6582167"><ele>110.0</ele><time>2026-05-03T07:26:56.75Z</time></trkpt><trkpt lat="41.8359117" lon="12.6581833"><ele>109.99999999999999</ele><time>2026-05-03T07:26:57.75Z</time></trkpt><trkpt lat="41.8358483" lon="12.6581533"><ele>110.0</ele><time>2026-05-03T07:26:58.75Z</time></trkpt><trkpt lat="41.8357867" lon="12.6581217"><ele>110.83333333333333</ele><time>2026-05-03T07:26:59.749Z</time></trkpt><trkpt lat="41.835725" lon="12.6580867"><ele>111.66666666666666</ele><time>2026-05-03T07:27:00.747Z</time></trkpt><trkpt lat="41.8356667" lon="12.6580517"><ele>112.5</ele><time>2026-05-03T07:27:01.756Z</time></trkpt><trkpt lat="41.83556" lon="12.6579617"><ele>113.33333333333334</ele><time>2026-05-03T07:27:03.749Z</time></trkpt><trkpt lat="41.8355067" lon="12.657915"><ele>114.16666666666667</ele><time>2026-05-03T07:27:04.75Z</time></trkpt><trkpt lat="41.83545" lon="12.65787"><ele>115.0</ele><time>2026-05-03T07:27:05.748Z</time></trkpt><trkpt lat="41.8353967" lon="12.6578217"><ele>114.6</ele><time>2026-05-03T07:27:06.75Z</time></trkpt><trkpt lat="41.8353417" lon="12.6577717"><ele>114.2</ele><time>2026-05-03T07:27:07.749Z</time></trkpt><trkpt lat="41.8352533" lon="12.6576517"><ele>113.80000000000001</ele><time>2026-05-03T07:27:09.749Z</time></trkpt><trkpt lat="41.8351683" lon="12.6575367"><ele>113.4</ele><time>2026-05-03T07:27:11.75Z</time></trkpt><trkpt lat="41.835075" lon="12.6574217"><ele>113.0</ele><time>2026-05-03T07:27:13.75Z</time></trkpt><trkpt lat="41.8349867" lon="12.6573017"><ele>113.0</ele><time>2026-05-03T07:27:15.75Z</time></trkpt><trkpt lat="41.834905" lon="12.65719"><ele>113.0</ele><time>2026-05-03T07:27:17.75Z</time></trkpt><trkpt lat="41.83482" lon="12.6570783"><ele>113.0</ele><time>2026-05-03T07:27:19.75Z</time></trkpt><trkpt lat="41.8347417" lon="12.65697"><ele>113.0</ele><time>2026-05-03T07:27:21.748Z</time></trkpt><trkpt lat="41.8346633" lon="12.65687"><ele>113.80000000000001</ele><time>2026-05-03T07:27:23.75Z</time></trkpt><trkpt lat="41.8345883" lon="12.6567717"><ele>114.60000000000001</ele><time>2026-05-03T07:27:25.75Z</time></trkpt><trkpt lat="41.8345183" lon="12.65668"><ele>115.39999999999999</ele><time>2026-05-03T07:27:27.75Z</time></trkpt><trkpt lat="41.83445" lon="12.6565833"><ele>116.19999999999999</ele><time>2026-05-03T07:27:29.749Z</time></trkpt><trkpt lat="41.8343883" lon="12.65649"><ele>117.0</ele><time>2026-05-03T07:27:31.748Z</time></trkpt><trkpt lat="41.83432" lon="12.65641"><ele>117.16666666666667</ele><time>2026-05-03T07:27:33.75Z</time></trkpt><trkpt lat="41.8342533" lon="12.656325"><ele>117.33333333333334</ele><time>2026-05-03T07:27:35.749Z</time></trkpt><trkpt lat="41.8341867" lon="12.656245"><ele>117.5</ele><time>2026-05-03T07:27:37.751Z</time></trkpt><trkpt lat="41.8341183" lon="12.656175"><ele>117.66666666666667</ele><time>2026-05-03T07:27:39.75Z</time></trkpt><trkpt lat="41.834055" lon="12.6560967"><ele>117.83333333333334</ele><time>2026-05-03T07:27:41.75Z</time></trkpt><trkpt lat="41.83398" lon="12.6560167"><ele>118.0</ele><time>2026-05-03T07:27:43.75Z</time></trkpt><trkpt lat="41.8339133" lon="12.6559333"><ele>118.2</ele><time>2026-05-03T07:27:45.749Z</time></trkpt><trkpt lat="41.8338517" lon="12.65585"><ele>118.4</ele><time>2026-05-03T07:27:47.749Z</time></trkpt><trkpt lat="41.833785" lon="12.6557717"><ele>118.60000000000001</ele><time>2026-05-03T07:27:49.75Z</time></trkpt><trkpt lat="41.8337233" lon="12.6556817"><ele>118.80000000000001</ele><time>2026-05-03T07:27:51.749Z</time></trkpt><trkpt lat="41.8336633" lon="12.6555917"><ele>119.0</ele><time>2026-05-03T07:27:53.749Z</time></trkpt><trkpt lat="41.8335983" lon="12.655495"><ele>119.0</ele><time>2026-05-03T07:27:55.749Z</time></trkpt><trkpt lat="41.83352" lon="12.6554067"><ele>119.0</ele><time>2026-05-03T07:27:57.752Z</time></trkpt><trkpt lat="41.83344" lon="12.6553217"><ele>119.0</ele><time>2026-05-03T07:27:59.75Z</time></trkpt><trkpt lat="41.8333683" lon="12.6552283"><ele>119.0</ele><time>2026-05-03T07:28:01.75Z</time></trkpt><trkpt lat="41.8332917" lon="12.655135"><ele>119.0</ele><time>2026-05-03T07:28:03.75Z</time></trkpt><trkpt lat="41.8332183" lon="12.65504"><ele>119.4</ele><time>2026-05-03T07:28:05.748Z</time></trkpt><trkpt lat="41.8331417" lon="12.654935"><ele>119.80000000000001</ele><time>2026-05-03T07:28:07.747Z</time></trkpt><trkpt lat="41.8330617" lon="12.65482"><ele>120.19999999999999</ele><time>2026-05-03T07:28:09.749Z</time></trkpt><trkpt lat="41.8329633" lon="12.6547083"><ele>120.6</ele><time>2026-05-03T07:28:11.749Z</time></trkpt><trkpt lat="41.8329117" lon="12.6546483"><ele>121.0</ele><time>2026-05-03T07:28:12.748Z</time></trkpt><trkpt lat="41.832855" lon="12.6545817"><ele>121.0</ele><time>2026-05-03T07:28:13.748Z</time></trkpt><trkpt lat="41.8328017" lon="12.654515"><ele>120.99999999999999</ele><time>2026-05-03T07:28:14.748Z</time></trkpt><trkpt lat="41.832745" lon="12.6544517"><ele>121.0</ele><time>2026-05-03T07:28:15.746Z</time></trkpt><trkpt lat="41.83269" lon="12.654385"><ele>121.0</ele><time>2026-05-03T07:28:16.746Z</time></trkpt><trkpt lat="41.8326367" lon="12.654325"><ele>120.99999999999999</ele><time>2026-05-03T07:28:17.748Z</time></trkpt><trkpt lat="41.83258" lon="12.65426"><ele>121.0</ele><time>2026-05-03T07:28:18.747Z</time></trkpt><trkpt lat="41.8325183" lon="12.6541867"><ele>121.0</ele><time>2026-05-03T07:28:19.747Z</time></trkpt><trkpt lat="41.832465" lon="12.6541317"><ele>120.19999999999999</ele><time>2026-05-03T07:28:20.747Z</time></trkpt><trkpt lat="41.8324017" lon="12.6540583"><ele>119.39999999999999</ele><time>2026-05-03T07:28:21.747Z</time></trkpt><trkpt lat="41.8323267" lon="12.6539867"><ele>118.6</ele><time>2026-05-03T07:28:22.748Z</time></trkpt><trkpt lat="41.8322517" lon="12.6539417"><ele>117.8</ele><time>2026-05-03T07:28:23.747Z</time></trkpt><trkpt lat="41.832195" lon="12.653885"><ele>117.0</ele><time>2026-05-03T07:28:24.748Z</time></trkpt><trkpt lat="41.8321017" lon="12.6537767"><ele>117.0</ele><time>2026-05-03T07:28:26.746Z</time></trkpt><trkpt lat="41.8320533" lon="12.6537183"><ele>116.99999999999999</ele><time>2026-05-03T07:28:27.749Z</time></trkpt><trkpt lat="41.8319567" lon="12.6536083"><ele>116.99999999999999</ele><time>2026-05-03T07:28:29.749Z</time></trkpt><trkpt lat="41.8318633" lon="12.6535067"><ele>117.0</ele><time>2026-05-03T07:28:31.749Z</time></trkpt><trkpt lat="41.8317617" lon="12.6534"><ele>117.0</ele><time>2026-05-03T07:28:33.749Z</time></trkpt><trkpt lat="41.8317067" lon="12.6533417"><ele>117.0</ele><time>2026-05-03T07:28:34.749Z</time></trkpt><trkpt lat="41.8316583" lon="12.653285"><ele>117.00000000000001</ele><time>2026-05-03T07:28:35.748Z</time></trkpt><trkpt lat="41.8316117" lon="12.6532267"><ele>117.0</ele><time>2026-05-03T07:28:36.747Z</time></trkpt><trkpt lat="41.8315633" lon="12.6531667"><ele>117.0</ele><time>2026-05-03T07:28:37.748Z</time></trkpt><trkpt lat="41.8315133" lon="12.6531083"><ele>117.00000000000001</ele><time>2026-05-03T07:28:38.749Z</time></trkpt><trkpt lat="41.831465" lon="12.6530517"><ele>117.0</ele><time>2026-05-03T07:28:39.75Z</time></trkpt><trkpt lat="41.8314117" lon="12.653"><ele>117.0</ele><time>2026-05-03T07:28:40.747Z</time></trkpt><trkpt lat="41.8313583" lon="12.6529433"><ele>117.0</ele><time>2026-05-03T07:28:41.748Z</time></trkpt><trkpt lat="41.8313067" lon="12.65289"><ele>116.99999999999999</ele><time>2026-05-03T07:28:42.749Z</time></trkpt><trkpt lat="41.8312567" lon="12.6528367"><ele>116.99999999999999</ele><time>2026-05-03T07:28:43.748Z</time></trkpt><trkpt lat="41.8311567" lon="12.6527433"><ele>117.0</ele><time>2026-05-03T07:28:45.749Z</time></trkpt><trkpt lat="41.8310583" lon="12.6526583"><ele>117.0</ele><time>2026-05-03T07:28:47.746Z</time></trkpt><trkpt lat="41.83095" lon="12.6526"><ele>117.19999999999999</ele><time>2026-05-03T07:28:49.747Z</time></trkpt><trkpt lat="41.8308483" lon="12.6525367"><ele>117.39999999999999</ele><time>2026-05-03T07:28:51.746Z</time></trkpt><trkpt lat="41.83075" lon="12.6524767"><ele>117.60000000000001</ele><time>2026-05-03T07:28:53.747Z</time></trkpt><trkpt lat="41.8306567" lon="12.6524183"><ele>117.80000000000001</ele><time>2026-05-03T07:28:55.749Z</time></trkpt><trkpt lat="41.8305717" lon="12.6523717"><ele>118.0</ele><time>2026-05-03T07:28:57.746Z</time></trkpt><trkpt lat="41.8304883" lon="12.652325"><ele>118.00000000000001</ele><time>2026-05-03T07:28:59.749Z</time></trkpt><trkpt lat="41.8304117" lon="12.6522817"><ele>118.0</ele><time>2026-05-03T07:29:01.75Z</time></trkpt><trkpt lat="41.83033" lon="12.6522433"><ele>118.0</ele><time>2026-05-03T07:29:03.749Z</time></trkpt><trkpt lat="41.8302567" lon="12.652205"><ele>118.0</ele><time>2026-05-03T07:29:05.748Z</time></trkpt><trkpt lat="41.8301817" lon="12.652175"><ele>118.00000000000001</ele><time>2026-05-03T07:29:07.749Z</time></trkpt><trkpt lat="41.8301117" lon="12.6521433"><ele>118.0</ele><time>2026-05-03T07:29:09.749Z</time></trkpt><trkpt lat="41.8300417" lon="12.652115"><ele>118.42857142857142</ele><time>2026-05-03T07:29:11.749Z</time></trkpt><trkpt lat="41.82998" lon="12.6520733"><ele>118.85714285714286</ele><time>2026-05-03T07:29:13.748Z</time></trkpt><trkpt lat="41.82992" lon="12.6520283"><ele>119.28571428571428</ele><time>2026-05-03T07:29:15.749Z</time></trkpt><trkpt lat="41.829855" lon="12.6519833"><ele>119.71428571428571</ele><time>2026-05-03T07:29:17.747Z</time></trkpt><trkpt lat="41.8298" lon="12.6519383"><ele>120.14285714285714</ele><time>2026-05-03T07:29:19.748Z</time></trkpt><trkpt lat="41.8297483" lon="12.651885"><ele>120.57142857142857</ele><time>2026-05-03T07:29:21.747Z</time></trkpt><trkpt lat="41.82969" lon="12.6518267"><ele>121.0</ele><time>2026-05-03T07:29:23.747Z</time></trkpt><trkpt lat="41.8296317" lon="12.65177"><ele>121.33333333333334</ele><time>2026-05-03T07:29:25.747Z</time></trkpt><trkpt lat="41.8295683" lon="12.6517233"><ele>121.66666666666667</ele><time>2026-05-03T07:29:27.749Z</time></trkpt><trkpt lat="41.829505" lon="12.6516767"><ele>122.0</ele><time>2026-05-03T07:29:29.746Z</time></trkpt><trkpt lat="41.8294483" lon="12.65163"><ele>122.33333333333334</ele><time>2026-05-03T07:29:31.747Z</time></trkpt><trkpt lat="41.8293933" lon="12.651585"><ele>122.66666666666667</ele><time>2026-05-03T07:29:33.747Z</time></trkpt><trkpt lat="41.8293167" lon="12.6515183"><ele>123.0</ele><time>2026-05-03T07:29:36.747Z</time></trkpt><trkpt lat="41.8292433" lon="12.6514417"><ele>123.5</ele><time>2026-05-03T07:29:39.748Z</time></trkpt><trkpt lat="41.829175" lon="12.6513617"><ele>124.0</ele><time>2026-05-03T07:29:42.747Z</time></trkpt><trkpt lat="41.82912" lon="12.6512833"><ele>124.5</ele><time>2026-05-03T07:29:45.751Z</time></trkpt><trkpt lat="41.829065" lon="12.6511983"><ele>125.0</ele><time>2026-05-03T07:29:48.747Z</time></trkpt><trkpt lat="41.8290133" lon="12.651115"><ele>125.5</ele><time>2026-05-03T07:29:51.747Z</time></trkpt><trkpt lat="41.82895" lon="12.6510283"><ele>126.0</ele><time>2026-05-03T07:29:54.751Z</time></trkpt><trkpt lat="41.828895" lon="12.6509383"><ele>126.66666666666667</ele><time>2026-05-03T07:29:57.749Z</time></trkpt><trkpt lat="41.828835" lon="12.6508517"><ele>127.33333333333334</ele><time>2026-05-03T07:30:00.748Z</time></trkpt><trkpt lat="41.8287833" lon="12.650765"><ele>128.0</ele><time>2026-05-03T07:30:03.747Z</time></trkpt><trkpt lat="41.828725" lon="12.650685"><ele>128.66666666666669</ele><time>2026-05-03T07:30:06.75Z</time></trkpt><trkpt lat="41.8286783" lon="12.6506267"><ele>129.33333333333334</ele><time>2026-05-03T07:30:08.747Z</time></trkpt><trkpt lat="41.82862" lon="12.6505383"><ele>130.0</ele><time>2026-05-03T07:30:11.748Z</time></trkpt><trkpt lat="41.82856" lon="12.6504467"><ele>130.0</ele><time>2026-05-03T07:30:14.749Z</time></trkpt><trkpt lat="41.8285133" lon="12.650385"><ele>130.0</ele><time>2026-05-03T07:30:16.749Z</time></trkpt><trkpt lat="41.8284567" lon="12.6502933"><ele>130.0</ele><time>2026-05-03T07:30:19.748Z</time></trkpt><trkpt lat="41.828405" lon="12.6501967"><ele>130.0</ele><time>2026-05-03T07:30:22.746Z</time></trkpt><trkpt lat="41.82836" lon="12.65009"><ele>130.0</ele><time>2026-05-03T07:30:25.746Z</time></trkpt><trkpt lat="41.828305" lon="12.6499917"><ele>130.0</ele><time>2026-05-03T07:30:28.748Z</time></trkpt><trkpt lat="41.82825" lon="12.6498917"><ele>130.0</ele><time>2026-05-03T07:30:31.747Z</time></trkpt><trkpt lat="41.8282" lon="12.6498183"><ele>130.0</ele><time>2026-05-03T07:30:33.747Z</time></trkpt><trkpt lat="41.828145" lon="12.6497367"><ele>130.0</ele><time>2026-05-03T07:30:35.746Z</time></trkpt><trkpt lat="41.8280867" lon="12.6496533"><ele>130.0</ele><time>2026-05-03T07:30:37.747Z</time></trkpt><trkpt lat="41.82803" lon="12.6495633"><ele>130.0</ele><time>2026-05-03T07:30:39.746Z</time></trkpt><trkpt lat="41.82796" lon="12.6494667"><ele>130.0</ele><time>2026-05-03T07:30:41.749Z</time></trkpt><trkpt lat="41.8278867" lon="12.6493633"><ele>130.0</ele><time>2026-05-03T07:30:43.749Z</time></trkpt><trkpt lat="41.82781" lon="12.6492483"><ele>130.0</ele><time>2026-05-03T07:30:45.749Z</time></trkpt><trkpt lat="41.8277367" lon="12.6491317"><ele>130.0</ele><time>2026-05-03T07:30:47.748Z</time></trkpt><trkpt lat="41.8276667" lon="12.64901"><ele>130.0</ele><time>2026-05-03T07:30:49.749Z</time></trkpt><trkpt lat="41.8275867" lon="12.648895"><ele>129.5</ele><time>2026-05-03T07:30:51.749Z</time></trkpt><trkpt lat="41.8275067" lon="12.6487683"><ele>129.0</ele><time>2026-05-03T07:30:53.749Z</time></trkpt><trkpt lat="41.8274267" lon="12.64865"><ele>128.5</ele><time>2026-05-03T07:30:55.749Z</time></trkpt><trkpt lat="41.827345" lon="12.648535"><ele>128.0</ele><time>2026-05-03T07:30:57.748Z</time></trkpt><trkpt lat="41.8272717" lon="12.6484183"><ele>127.80000000000001</ele><time>2026-05-03T07:30:59.746Z</time></trkpt><trkpt lat="41.8271933" lon="12.6483"><ele>127.60000000000001</ele><time>2026-05-03T07:31:01.747Z</time></trkpt><trkpt lat="41.82715" lon="12.6482367"><ele>127.39999999999999</ele><time>2026-05-03T07:31:02.747Z</time></trkpt><trkpt lat="41.827105" lon="12.6481733"><ele>127.19999999999999</ele><time>2026-05-03T07:31:03.746Z</time></trkpt><trkpt lat="41.8270283" lon="12.6480433"><ele>127.0</ele><time>2026-05-03T07:31:05.748Z</time></trkpt><trkpt lat="41.8269483" lon="12.6479167"><ele>127.0</ele><time>2026-05-03T07:31:07.747Z</time></trkpt><trkpt lat="41.8268617" lon="12.647795"><ele>126.99999999999999</ele><time>2026-05-03T07:31:09.747Z</time></trkpt><trkpt lat="41.8268183" lon="12.6477333"><ele>126.99999999999999</ele><time>2026-05-03T07:31:10.747Z</time></trkpt><trkpt lat="41.8267733" lon="12.6476717"><ele>127.0</ele><time>2026-05-03T07:31:11.751Z</time></trkpt><trkpt lat="41.8266867" lon="12.647555"><ele>127.0</ele><time>2026-05-03T07:31:13.75Z</time></trkpt><trkpt lat="41.826605" lon="12.6474417"><ele>127.19999999999999</ele><time>2026-05-03T07:31:15.749Z</time></trkpt><trkpt lat="41.8265233" lon="12.6473417"><ele>127.39999999999999</ele><time>2026-05-03T07:31:17.749Z</time></trkpt><trkpt lat="41.8264667" lon="12.6472383"><ele>127.60000000000001</ele><time>2026-05-03T07:31:19.749Z</time></trkpt><trkpt lat="41.8264817" lon="12.647115"><ele>127.80000000000001</ele><time>2026-05-03T07:31:21.749Z</time></trkpt><trkpt lat="41.8265467" lon="12.6469917"><ele>128.0</ele><time>2026-05-03T07:31:23.748Z</time></trkpt><trkpt lat="41.8266283" lon="12.64687"><ele>127.60000000000001</ele><time>2026-05-03T07:31:25.749Z</time></trkpt><trkpt lat="41.8267133" lon="12.6467483"><ele>127.20000000000002</ele><time>2026-05-03T07:31:27.748Z</time></trkpt><trkpt lat="41.826805" lon="12.64663"><ele>126.8</ele><time>2026-05-03T07:31:29.747Z</time></trkpt><trkpt lat="41.8268533" lon="12.6465717"><ele>126.4</ele><time>2026-05-03T07:31:30.747Z</time></trkpt><trkpt lat="41.82694" lon="12.6464567"><ele>126.0</ele><time>2026-05-03T07:31:32.747Z</time></trkpt><trkpt lat="41.8270317" lon="12.6463483"><ele>125.75</ele><time>2026-05-03T07:31:34.746Z</time></trkpt><trkpt lat="41.8271183" lon="12.6462417"><ele>125.5</ele><time>2026-05-03T07:31:36.75Z</time></trkpt><trkpt lat="41.8272017" lon="12.6461283"><ele>125.25</ele><time>2026-05-03T07:31:38.75Z</time></trkpt><trkpt lat="41.827285" lon="12.646005"><ele>125.0</ele><time>2026-05-03T07:31:40.749Z</time></trkpt><trkpt lat="41.8273733" lon="12.6458967"><ele>124.6</ele><time>2026-05-03T07:31:42.749Z</time></trkpt><trkpt lat="41.8274617" lon="12.64581"><ele>124.2</ele><time>2026-05-03T07:31:44.749Z</time></trkpt><trkpt lat="41.82754" lon="12.64572"><ele>123.80000000000001</ele><time>2026-05-03T07:31:46.749Z</time></trkpt><trkpt lat="41.8276133" lon="12.6456083"><ele>123.4</ele><time>2026-05-03T07:31:48.748Z</time></trkpt><trkpt lat="41.8277017" lon="12.6454883"><ele>123.0</ele><time>2026-05-03T07:31:50.748Z</time></trkpt><trkpt lat="41.8277467" lon="12.645425"><ele>122.66666666666667</ele><time>2026-05-03T07:31:51.75Z</time></trkpt><trkpt lat="41.82783" lon="12.6452867"><ele>122.33333333333334</ele><time>2026-05-03T07:31:53.749Z</time></trkpt><trkpt lat="41.8278783" lon="12.64522"><ele>122.0</ele><time>2026-05-03T07:31:54.748Z</time></trkpt><trkpt lat="41.8279367" lon="12.6451617"><ele>121.66666666666667</ele><time>2026-05-03T07:31:55.75Z</time></trkpt><trkpt lat="41.8279933" lon="12.6451033"><ele>121.33333333333334</ele><time>2026-05-03T07:31:56.748Z</time></trkpt><trkpt lat="41.8280433" lon="12.6450433"><ele>121.0</ele><time>2026-05-03T07:31:57.749Z</time></trkpt><trkpt lat="41.8280917" lon="12.64498"><ele>121.00000000000001</ele><time>2026-05-03T07:31:58.748Z</time></trkpt><trkpt lat="41.82814" lon="12.6449117"><ele>121.0</ele><time>2026-05-03T07:31:59.747Z</time></trkpt><trkpt lat="41.8281917" lon="12.6448517"><ele>121.0</ele><time>2026-05-03T07:32:00.751Z</time></trkpt><trkpt lat="41.8282367" lon="12.64479"><ele>121.0</ele><time>2026-05-03T07:32:01.747Z</time></trkpt><trkpt lat="41.8282817" lon="12.64473"><ele>121.00000000000001</ele><time>2026-05-03T07:32:02.746Z</time></trkpt><trkpt lat="41.8283717" lon="12.644615"><ele>121.0</ele><time>2026-05-03T07:32:04.747Z</time></trkpt><trkpt lat="41.8284517" lon="12.6444933"><ele>120.8</ele><time>2026-05-03T07:32:06.747Z</time></trkpt><trkpt lat="41.8285417" lon="12.6443817"><ele>120.6</ele><time>2026-05-03T07:32:08.746Z</time></trkpt><trkpt lat="41.8286317" lon="12.6442683"><ele>120.4</ele><time>2026-05-03T07:32:10.746Z</time></trkpt><trkpt lat="41.8287117" lon="12.644165"><ele>120.2</ele><time>2026-05-03T07:32:12.748Z</time></trkpt><trkpt lat="41.8287817" lon="12.6440883"><ele>120.0</ele><time>2026-05-03T07:32:14.748Z</time></trkpt><trkpt lat="41.8288367" lon="12.6440233"><ele>120.0</ele><time>2026-05-03T07:32:16.748Z</time></trkpt><trkpt lat="41.8288983" lon="12.6439283"><ele>120.0</ele><time>2026-05-03T07:32:18.751Z</time></trkpt><trkpt lat="41.8289667" lon="12.643835"><ele>120.0</ele><time>2026-05-03T07:32:20.747Z</time></trkpt><trkpt lat="41.8290567" lon="12.6437583"><ele>120.0</ele><time>2026-05-03T07:32:22.748Z</time></trkpt><trkpt lat="41.8291417" lon="12.6436567"><ele>120.0</ele><time>2026-05-03T07:32:24.747Z</time></trkpt><trkpt lat="41.8292283" lon="12.6435383"><ele>119.8</ele><time>2026-05-03T07:32:26.748Z</time></trkpt><trkpt lat="41.8293067" lon="12.64344"><ele>119.6</ele><time>2026-05-03T07:32:28.747Z</time></trkpt><trkpt lat="41.82937" lon="12.6433383"><ele>119.4</ele><time>2026-05-03T07:32:30.747Z</time></trkpt><trkpt lat="41.8294467" lon="12.643245"><ele>119.2</ele><time>2026-05-03T07:32:32.746Z</time></trkpt><trkpt lat="41.8295067" lon="12.6431817"><ele>119.0</ele><time>2026-05-03T07:32:34.746Z</time></trkpt><trkpt lat="41.8295917" lon="12.6432417"><ele>119.0</ele><time>2026-05-03T07:32:36.747Z</time></trkpt><trkpt lat="41.82967" lon="12.6433533"><ele>119.0</ele><time>2026-05-03T07:32:38.746Z</time></trkpt><trkpt lat="41.829745" lon="12.643465"><ele>119.0</ele><time>2026-05-03T07:32:40.746Z</time></trkpt><trkpt lat="41.829825" lon="12.6435833"><ele>119.0</ele><time>2026-05-03T07:32:42.748Z</time></trkpt><trkpt lat="41.8298717" lon="12.6436417"><ele>119.0</ele><time>2026-05-03T07:32:43.746Z</time></trkpt><trkpt lat="41.829915" lon="12.643705"><ele>118.80000000000001</ele><time>2026-05-03T07:32:44.748Z</time></trkpt><trkpt lat="41.8299583" lon="12.6437683"><ele>118.60000000000001</ele><time>2026-05-03T07:32:45.748Z</time></trkpt><trkpt lat="41.8300367" lon="12.6438883"><ele>118.4</ele><time>2026-05-03T07:32:47.748Z</time></trkpt><trkpt lat="41.8301167" lon="12.64399"><ele>118.2</ele><time>2026-05-03T07:32:49.748Z</time></trkpt><trkpt lat="41.8301817" lon="12.64408"><ele>118.0</ele><time>2026-05-03T07:32:51.748Z</time></trkpt><trkpt lat="41.830225" lon="12.64415"><ele>118.00000000000001</ele><time>2026-05-03T07:32:53.749Z</time></trkpt><trkpt lat="41.830285" lon="12.6441917"><ele>118.0</ele><time>2026-05-03T07:32:56.749Z</time></trkpt><trkpt lat="41.8302083" lon="12.6441517"><ele>118.0</ele><time>2026-05-03T07:35:29.748Z</time></trkpt><trkpt lat="41.8301567" lon="12.64408"><ele>118.0</ele><time>2026-05-03T07:35:31.749Z</time></trkpt><trkpt lat="41.8301017" lon="12.6439983"><ele>118.00000000000001</ele><time>2026-05-03T07:35:33.748Z</time></trkpt><trkpt lat="41.8300317" lon="12.6439217"><ele>118.0</ele><time>2026-05-03T07:35:35.747Z</time></trkpt><trkpt lat="41.8299683" lon="12.6438333"><ele>118.0</ele><time>2026-05-03T07:35:37.747Z</time></trkpt><trkpt lat="41.82991" lon="12.6437367"><ele>118.00000000000001</ele><time>2026-05-03T07:35:39.749Z</time></trkpt><trkpt lat="41.829845" lon="12.6436483"><ele>118.00000000000001</ele><time>2026-05-03T07:35:41.748Z</time></trkpt><trkpt lat="41.8297883" lon="12.6435517"><ele>118.0</ele><time>2026-05-03T07:35:43.75Z</time></trkpt><trkpt lat="41.8297367" lon="12.6434483"><ele>118.0</ele><time>2026-05-03T07:35:45.748Z</time></trkpt><trkpt lat="41.8296833" lon="12.6433667"><ele>118.16666666666667</ele><time>2026-05-03T07:35:47.747Z</time></trkpt><trkpt lat="41.82963" lon="12.6433"><ele>118.33333333333334</ele><time>2026-05-03T07:35:49.747Z</time></trkpt><trkpt lat="41.82957" lon="12.64324"><ele>118.5</ele><time>2026-05-03T07:35:51.749Z</time></trkpt><trkpt lat="41.8295417" lon="12.6431283"><ele>118.66666666666666</ele><time>2026-05-03T07:35:54.749Z</time></trkpt><trkpt lat="41.8296133" lon="12.6430417"><ele>118.83333333333333</ele><time>2026-05-03T07:35:57.748Z</time></trkpt><trkpt lat="41.8296667" lon="12.6429683"><ele>119.0</ele><time>2026-05-03T07:35:59.748Z</time></trkpt><trkpt lat="41.8297283" lon="12.6429167"><ele>119.0</ele><time>2026-05-03T07:36:01.749Z</time></trkpt><trkpt lat="41.82979" lon="12.6428367"><ele>119.0</ele><time>2026-05-03T07:36:03.75Z</time></trkpt><trkpt lat="41.829845" lon="12.642745"><ele>119.0</ele><time>2026-05-03T07:36:05.748Z</time></trkpt><trkpt lat="41.8299183" lon="12.642665"><ele>119.0</ele><time>2026-05-03T07:36:07.749Z</time></trkpt><trkpt lat="41.8299867" lon="12.6425633"><ele>119.0</ele><time>2026-05-03T07:36:09.748Z</time></trkpt><trkpt lat="41.830055" lon="12.6424683"><ele>118.6</ele><time>2026-05-03T07:36:11.748Z</time></trkpt><trkpt lat="41.83013" lon="12.642375"><ele>118.2</ele><time>2026-05-03T07:36:13.749Z</time></trkpt><trkpt lat="41.8302017" lon="12.64228"><ele>117.79999999999998</ele><time>2026-05-03T07:36:15.749Z</time></trkpt><trkpt lat="41.83028" lon="12.6421733"><ele>117.39999999999999</ele><time>2026-05-03T07:36:17.748Z</time></trkpt><trkpt lat="41.8303717" lon="12.6420683"><ele>117.0</ele><time>2026-05-03T07:36:19.75Z</time></trkpt><trkpt lat="41.8304567" lon="12.6419567"><ele>116.6</ele><time>2026-05-03T07:36:21.749Z</time></trkpt><trkpt lat="41.8305467" lon="12.641835"><ele>116.19999999999999</ele><time>2026-05-03T07:36:23.749Z</time></trkpt><trkpt lat="41.8305933" lon="12.6417767"><ele>115.8</ele><time>2026-05-03T07:36:24.749Z</time></trkpt><trkpt lat="41.83068" lon="12.6416583"><ele>115.4</ele><time>2026-05-03T07:36:26.75Z</time></trkpt><trkpt lat="41.830775" lon="12.64155"><ele>115.0</ele><time>2026-05-03T07:36:28.749Z</time></trkpt><trkpt lat="41.8308733" lon="12.64144"><ele>114.99999999999999</ele><time>2026-05-03T07:36:30.749Z</time></trkpt><trkpt lat="41.830925" lon="12.6413783"><ele>115.0</ele><time>2026-05-03T07:36:31.749Z</time></trkpt><trkpt lat="41.8309733" lon="12.6413133"><ele>114.99999999999999</ele><time>2026-05-03T07:36:32.748Z</time></trkpt><trkpt lat="41.831025" lon="12.641245"><ele>114.99999999999999</ele><time>2026-05-03T07:36:33.752Z</time></trkpt><trkpt lat="41.831075" lon="12.6411767"><ele>115.0</ele><time>2026-05-03T07:36:34.748Z</time></trkpt><trkpt lat="41.831125" lon="12.641115"><ele>114.99999999999999</ele><time>2026-05-03T07:36:35.751Z</time></trkpt><trkpt lat="41.831175" lon="12.6410533"><ele>114.99999999999999</ele><time>2026-05-03T07:36:36.747Z</time></trkpt><trkpt lat="41.83123" lon="12.64099"><ele>114.57142857142856</ele><time>2026-05-03T07:36:37.749Z</time></trkpt><trkpt lat="41.8312817" lon="12.640925"><ele>114.14285714285714</ele><time>2026-05-03T07:36:38.749Z</time></trkpt><trkpt lat="41.8313333" lon="12.64086"><ele>113.71428571428571</ele><time>2026-05-03T07:36:39.747Z</time></trkpt><trkpt lat="41.831385" lon="12.6407883"><ele>113.28571428571428</ele><time>2026-05-03T07:36:40.75Z</time></trkpt><trkpt lat="41.831435" lon="12.6407167"><ele>112.85714285714286</ele><time>2026-05-03T07:36:41.748Z</time></trkpt><trkpt lat="41.8314867" lon="12.640645"><ele>112.42857142857143</ele><time>2026-05-03T07:36:42.749Z</time></trkpt><trkpt lat="41.8315367" lon="12.64058"><ele>112.0</ele><time>2026-05-03T07:36:43.749Z</time></trkpt><trkpt lat="41.8315867" lon="12.640515"><ele>112.0</ele><time>2026-05-03T07:36:44.75Z</time></trkpt><trkpt lat="41.831635" lon="12.6404517"><ele>112.0</ele><time>2026-05-03T07:36:45.749Z</time></trkpt><trkpt lat="41.831685" lon="12.64039"><ele>112.0</ele><time>2026-05-03T07:36:46.746Z</time></trkpt><trkpt lat="41.8317317" lon="12.6403233"><ele>112.0</ele><time>2026-05-03T07:36:47.749Z</time></trkpt><trkpt lat="41.83178" lon="12.6402633"><ele>112.0</ele><time>2026-05-03T07:36:48.748Z</time></trkpt><trkpt lat="41.83183" lon="12.640205"><ele>112.0</ele><time>2026-05-03T07:36:49.749Z</time></trkpt><trkpt lat="41.8318783" lon="12.64014"><ele>112.0</ele><time>2026-05-03T07:36:50.749Z</time></trkpt><trkpt lat="41.8319283" lon="12.6400683"><ele>111.33333333333334</ele><time>2026-05-03T07:36:51.748Z</time></trkpt><trkpt lat="41.83199" lon="12.6400067"><ele>110.66666666666667</ele><time>2026-05-03T07:36:52.749Z</time></trkpt><trkpt lat="41.8320533" lon="12.63993"><ele>110.0</ele><time>2026-05-03T07:36:53.748Z</time></trkpt><trkpt lat="41.8321217" lon="12.639855"><ele>109.33333333333334</ele><time>2026-05-03T07:36:54.749Z</time></trkpt><trkpt lat="41.83219" lon="12.6397617"><ele>108.66666666666667</ele><time>2026-05-03T07:36:55.747Z</time></trkpt><trkpt lat="41.832255" lon="12.6396767"><ele>108.0</ele><time>2026-05-03T07:36:56.751Z</time></trkpt><trkpt lat="41.83232" lon="12.639585"><ele>108.0</ele><time>2026-05-03T07:36:57.748Z</time></trkpt><trkpt lat="41.832385" lon="12.6394967"><ele>108.00000000000001</ele><time>2026-05-03T07:36:58.75Z</time></trkpt><trkpt lat="41.83245" lon="12.6394033"><ele>108.00000000000001</ele><time>2026-05-03T07:36:59.748Z</time></trkpt><trkpt lat="41.8325117" lon="12.6393183"><ele>108.0</ele><time>2026-05-03T07:37:00.75Z</time></trkpt><trkpt lat="41.8325717" lon="12.6392283"><ele>108.0</ele><time>2026-05-03T07:37:01.748Z</time></trkpt><trkpt lat="41.83264" lon="12.6391467"><ele>107.28571428571428</ele><time>2026-05-03T07:37:02.748Z</time></trkpt><trkpt lat="41.832705" lon="12.6390783"><ele>106.57142857142857</ele><time>2026-05-03T07:37:03.748Z</time></trkpt><trkpt lat="41.832765" lon="12.63901"><ele>105.85714285714286</ele><time>2026-05-03T07:37:04.749Z</time></trkpt><trkpt lat="41.8328133" lon="12.63895"><ele>105.14285714285714</ele><time>2026-05-03T07:37:05.75Z</time></trkpt><trkpt lat="41.8328617" lon="12.6388883"><ele>104.42857142857143</ele><time>2026-05-03T07:37:06.748Z</time></trkpt><trkpt lat="41.8329117" lon="12.6388183"><ele>103.71428571428571</ele><time>2026-05-03T07:37:07.748Z</time></trkpt><trkpt lat="41.8329617" lon="12.6387567"><ele>103.0</ele><time>2026-05-03T07:37:08.749Z</time></trkpt><trkpt lat="41.8330117" lon="12.6387"><ele>103.00000000000001</ele><time>2026-05-03T07:37:09.748Z</time></trkpt><trkpt lat="41.8330633" lon="12.6386383"><ele>103.0</ele><time>2026-05-03T07:37:10.748Z</time></trkpt><trkpt lat="41.833115" lon="12.63857"><ele>103.0</ele><time>2026-05-03T07:37:11.75Z</time></trkpt><trkpt lat="41.8331717" lon="12.6384967"><ele>103.0</ele><time>2026-05-03T07:37:12.75Z</time></trkpt><trkpt lat="41.8332317" lon="12.6384217"><ele>103.00000000000001</ele><time>2026-05-03T07:37:13.747Z</time></trkpt><trkpt lat="41.83329" lon="12.6383467"><ele>103.0</ele><time>2026-05-03T07:37:14.749Z</time></trkpt><trkpt lat="41.8333517" lon="12.6382733"><ele>102.50000000000001</ele><time>2026-05-03T07:37:15.747Z</time></trkpt><trkpt lat="41.8334117" lon="12.6381917"><ele>102.0</ele><time>2026-05-03T07:37:16.749Z</time></trkpt><trkpt lat="41.833475" lon="12.63811"><ele>101.5</ele><time>2026-05-03T07:37:17.747Z</time></trkpt><trkpt lat="41.833535" lon="12.6380217"><ele>101.0</ele><time>2026-05-03T07:37:18.748Z</time></trkpt><trkpt lat="41.8335967" lon="12.6379333"><ele>100.50000000000001</ele><time>2026-05-03T07:37:19.747Z</time></trkpt><trkpt lat="41.8336617" lon="12.6378467"><ele>100.0</ele><time>2026-05-03T07:37:20.749Z</time></trkpt><trkpt lat="41.8337267" lon="12.6377633"><ele>99.4</ele><time>2026-05-03T07:37:21.748Z</time></trkpt><trkpt lat="41.8337933" lon="12.637685"><ele>98.8</ele><time>2026-05-03T07:37:22.748Z</time></trkpt><trkpt lat="41.8338583" lon="12.637605"><ele>98.19999999999999</ele><time>2026-05-03T07:37:23.746Z</time></trkpt><trkpt lat="41.8339217" lon="12.6375183"><ele>97.6</ele><time>2026-05-03T07:37:24.751Z</time></trkpt><trkpt lat="41.8339867" lon="12.6374367"><ele>97.0</ele><time>2026-05-03T07:37:25.749Z</time></trkpt><trkpt lat="41.8340567" lon="12.63735"><ele>97.0</ele><time>2026-05-03T07:37:26.747Z</time></trkpt><trkpt lat="41.8341317" lon="12.6372683"><ele>97.0</ele><time>2026-05-03T07:37:27.748Z</time></trkpt><trkpt lat="41.8341983" lon="12.637195"><ele>97.0</ele><time>2026-05-03T07:37:28.748Z</time></trkpt><trkpt lat="41.8342667" lon="12.6371133"><ele>97.0</ele><time>2026-05-03T07:37:29.748Z</time></trkpt><trkpt lat="41.8343333" lon="12.6370333"><ele>97.0</ele><time>2026-05-03T07:37:30.748Z</time></trkpt><trkpt lat="41.8343917" lon="12.6369483"><ele>96.50000000000001</ele><time>2026-05-03T07:37:31.75Z</time></trkpt><trkpt lat="41.8344533" lon="12.63686"><ele>96.0</ele><time>2026-05-03T07:37:32.749Z</time></trkpt><trkpt lat="41.8345117" lon="12.6367733"><ele>95.5</ele><time>2026-05-03T07:37:33.748Z</time></trkpt><trkpt lat="41.8345717" lon="12.636695"><ele>95.0</ele><time>2026-05-03T07:37:34.748Z</time></trkpt><trkpt lat="41.83463" lon="12.6366117"><ele>94.5</ele><time>2026-05-03T07:37:35.75Z</time></trkpt><trkpt lat="41.8346833" lon="12.63653"><ele>94.0</ele><time>2026-05-03T07:37:36.75Z</time></trkpt><trkpt lat="41.8347383" lon="12.6364517"><ele>94.0</ele><time>2026-05-03T07:37:37.75Z</time></trkpt><trkpt lat="41.834795" lon="12.6363833"><ele>94.0</ele><time>2026-05-03T07:37:38.75Z</time></trkpt><trkpt lat="41.8348517" lon="12.6363167"><ele>94.0</ele><time>2026-05-03T07:37:39.749Z</time></trkpt><trkpt lat="41.8349067" lon="12.6362567"><ele>94.0</ele><time>2026-05-03T07:37:40.75Z</time></trkpt><trkpt lat="41.8349567" lon="12.6361917"><ele>94.0</ele><time>2026-05-03T07:37:41.75Z</time></trkpt><trkpt lat="41.83505" lon="12.6360783"><ele>94.0</ele><time>2026-05-03T07:37:43.75Z</time></trkpt><trkpt lat="41.8350983" lon="12.636015"><ele>94.33333333333333</ele><time>2026-05-03T07:37:44.749Z</time></trkpt><trkpt lat="41.835145" lon="12.635955"><ele>94.66666666666666</ele><time>2026-05-03T07:37:45.75Z</time></trkpt><trkpt lat="41.8351933" lon="12.6359"><ele>95.0</ele><time>2026-05-03T07:37:46.749Z</time></trkpt><trkpt lat="41.83524" lon="12.6358433"><ele>95.33333333333333</ele><time>2026-05-03T07:37:47.749Z</time></trkpt><trkpt lat="41.8353317" lon="12.6357333"><ele>95.66666666666667</ele><time>2026-05-03T07:37:49.75Z</time></trkpt><trkpt lat="41.83542" lon="12.6356167"><ele>96.0</ele><time>2026-05-03T07:37:51.75Z</time></trkpt><trkpt lat="41.835465" lon="12.635555"><ele>95.99999999999999</ele><time>2026-05-03T07:37:52.75Z</time></trkpt><trkpt lat="41.83551" lon="12.63549"><ele>96.0</ele><time>2026-05-03T07:37:53.751Z</time></trkpt><trkpt lat="41.83556" lon="12.6354333"><ele>96.0</ele><time>2026-05-03T07:37:54.749Z</time></trkpt><trkpt lat="41.8356083" lon="12.63537"><ele>96.0</ele><time>2026-05-03T07:37:55.749Z</time></trkpt><trkpt lat="41.8356583" lon="12.6353133"><ele>96.0</ele><time>2026-05-03T07:37:56.749Z</time></trkpt><trkpt lat="41.8357083" lon="12.6352583"><ele>95.99999999999999</ele><time>2026-05-03T07:37:57.75Z</time></trkpt><trkpt lat="41.835755" lon="12.6352"><ele>96.0</ele><time>2026-05-03T07:37:58.75Z</time></trkpt><trkpt lat="41.8358033" lon="12.6351383"><ele>95.57142857142857</ele><time>2026-05-03T07:37:59.75Z</time></trkpt><trkpt lat="41.8358517" lon="12.6350733"><ele>95.14285714285714</ele><time>2026-05-03T07:38:00.75Z</time></trkpt><trkpt lat="41.8359017" lon="12.6350067"><ele>94.71428571428572</ele><time>2026-05-03T07:38:01.749Z</time></trkpt><trkpt lat="41.83595" lon="12.6349433"><ele>94.28571428571428</ele><time>2026-05-03T07:38:02.748Z</time></trkpt><trkpt lat="41.8360017" lon="12.634875"><ele>93.85714285714286</ele><time>2026-05-03T07:38:03.748Z</time></trkpt><trkpt lat="41.8360533" lon="12.6348067"><ele>93.42857142857143</ele><time>2026-05-03T07:38:04.75Z</time></trkpt><trkpt lat="41.8361083" lon="12.63474"><ele>93.0</ele><time>2026-05-03T07:38:05.747Z</time></trkpt><trkpt lat="41.8361617" lon="12.634665"><ele>93.0</ele><time>2026-05-03T07:38:06.748Z</time></trkpt><trkpt lat="41.83621" lon="12.63459"><ele>93.0</ele><time>2026-05-03T07:38:07.749Z</time></trkpt><trkpt lat="41.8362617" lon="12.6345183"><ele>93.0</ele><time>2026-05-03T07:38:08.75Z</time></trkpt><trkpt lat="41.8363167" lon="12.6344517"><ele>93.0</ele><time>2026-05-03T07:38:09.749Z</time></trkpt><trkpt lat="41.836375" lon="12.6343833"><ele>93.0</ele><time>2026-05-03T07:38:10.75Z</time></trkpt><trkpt lat="41.8364317" lon="12.634315"><ele>93.0</ele><time>2026-05-03T07:38:11.749Z</time></trkpt><trkpt lat="41.8364883" lon="12.6342467"><ele>92.66666666666667</ele><time>2026-05-03T07:38:12.75Z</time></trkpt><trkpt lat="41.8365433" lon="12.6341783"><ele>92.33333333333333</ele><time>2026-05-03T07:38:13.748Z</time></trkpt><trkpt lat="41.8366017" lon="12.6341067"><ele>92.0</ele><time>2026-05-03T07:38:14.75Z</time></trkpt><trkpt lat="41.8366567" lon="12.6340433"><ele>91.66666666666666</ele><time>2026-05-03T07:38:15.749Z</time></trkpt><trkpt lat="41.8367083" lon="12.633975"><ele>91.33333333333333</ele><time>2026-05-03T07:38:16.748Z</time></trkpt><trkpt lat="41.836765" lon="12.63391"><ele>91.0</ele><time>2026-05-03T07:38:17.749Z</time></trkpt><trkpt lat="41.83682" lon="12.6338383"><ele>91.0</ele><time>2026-05-03T07:38:18.748Z</time></trkpt><trkpt lat="41.8368717" lon="12.6337633"><ele>91.0</ele><time>2026-05-03T07:38:19.748Z</time></trkpt><trkpt lat="41.8369233" lon="12.6336967"><ele>91.0</ele><time>2026-05-03T07:38:20.75Z</time></trkpt><trkpt lat="41.83697" lon="12.63363"><ele>91.0</ele><time>2026-05-03T07:38:21.747Z</time></trkpt><trkpt lat="41.83705" lon="12.633515"><ele>91.0</ele><time>2026-05-03T07:38:23.75Z</time></trkpt><trkpt lat="41.8371" lon="12.6334167"><ele>91.0</ele><time>2026-05-03T07:38:25.749Z</time></trkpt><trkpt lat="41.8370617" lon="12.6332967"><ele>90.83333333333333</ele><time>2026-05-03T07:38:27.749Z</time></trkpt><trkpt lat="41.8369917" lon="12.63321"><ele>90.66666666666666</ele><time>2026-05-03T07:38:29.748Z</time></trkpt><trkpt lat="41.8369033" lon="12.6331467"><ele>90.5</ele><time>2026-05-03T07:38:31.748Z</time></trkpt><trkpt lat="41.836855" lon="12.6330667"><ele>90.33333333333333</ele><time>2026-05-03T07:38:33.746Z</time></trkpt><trkpt lat="41.8368833" lon="12.6329733"><ele>90.16666666666667</ele><time>2026-05-03T07:38:36.75Z</time></trkpt><trkpt lat="41.836955" lon="12.6329367"><ele>90.0</ele><time>2026-05-03T07:38:38.748Z</time></trkpt><trkpt lat="41.837035" lon="12.6329067"><ele>90.0</ele><time>2026-05-03T07:38:40.748Z</time></trkpt><trkpt lat="41.837115" lon="12.6328733"><ele>90.0</ele><time>2026-05-03T07:38:42.747Z</time></trkpt><trkpt lat="41.8371933" lon="12.6328483"><ele>90.0</ele><time>2026-05-03T07:38:44.749Z</time></trkpt><trkpt lat="41.8372783" lon="12.6328017"><ele>90.0</ele><time>2026-05-03T07:38:46.749Z</time></trkpt><trkpt lat="41.8373683" lon="12.6327717"><ele>90.0</ele><time>2026-05-03T07:38:48.748Z</time></trkpt><trkpt lat="41.837465" lon="12.6327417"><ele>90.0</ele><time>2026-05-03T07:38:50.749Z</time></trkpt><trkpt lat="41.8375583" lon="12.6327117"><ele>89.8</ele><time>2026-05-03T07:38:52.747Z</time></trkpt><trkpt lat="41.83765" lon="12.6326767"><ele>89.6</ele><time>2026-05-03T07:38:54.749Z</time></trkpt><trkpt lat="41.8377417" lon="12.6326367"><ele>89.4</ele><time>2026-05-03T07:38:56.748Z</time></trkpt><trkpt lat="41.8378383" lon="12.6326017"><ele>89.2</ele><time>2026-05-03T07:38:58.749Z</time></trkpt><trkpt lat="41.8379417" lon="12.63259"><ele>89.0</ele><time>2026-05-03T07:39:00.749Z</time></trkpt><trkpt lat="41.8380517" lon="12.6326033"><ele>89.0</ele><time>2026-05-03T07:39:02.749Z</time></trkpt><trkpt lat="41.8381633" lon="12.6326117"><ele>89.0</ele><time>2026-05-03T07:39:04.748Z</time></trkpt><trkpt lat="41.838275" lon="12.6326217"><ele>89.0</ele><time>2026-05-03T07:39:06.748Z</time></trkpt><trkpt lat="41.838375" lon="12.63266"><ele>89.0</ele><time>2026-05-03T07:39:08.749Z</time></trkpt><trkpt lat="41.838475" lon="12.6326817"><ele>89.0</ele><time>2026-05-03T07:39:10.749Z</time></trkpt><trkpt lat="41.8385667" lon="12.632645"><ele>89.16666666666667</ele><time>2026-05-03T07:39:12.748Z</time></trkpt><trkpt lat="41.8386183" lon="12.6325683"><ele>89.33333333333334</ele><time>2026-05-03T07:39:14.748Z</time></trkpt><trkpt lat="41.83864" lon="12.632485"><ele>89.5</ele><time>2026-05-03T07:39:16.749Z</time></trkpt><trkpt lat="41.8386417" lon="12.6323983"><ele>89.66666666666667</ele><time>2026-05-03T07:39:20.749Z</time></trkpt><trkpt lat="41.838605" lon="12.63229"><ele>89.83333333333333</ele><time>2026-05-03T07:39:23.749Z</time></trkpt><trkpt lat="41.8385433" lon="12.6322217"><ele>90.0</ele><time>2026-05-03T07:39:25.749Z</time></trkpt><trkpt lat="41.8384683" lon="12.632175"><ele>89.8</ele><time>2026-05-03T07:39:27.749Z</time></trkpt><trkpt lat="41.8383967" lon="12.632105"><ele>89.6</ele><time>2026-05-03T07:39:29.749Z</time></trkpt><trkpt lat="41.83833" lon="12.6320133"><ele>89.4</ele><time>2026-05-03T07:39:31.749Z</time></trkpt><trkpt lat="41.83827" lon="12.6319117"><ele>89.2</ele><time>2026-05-03T07:39:33.746Z</time></trkpt><trkpt lat="41.8382983" lon="12.6317733"><ele>89.0</ele><time>2026-05-03T07:39:35.747Z</time></trkpt><trkpt lat="41.8383733" lon="12.6316833"><ele>88.80000000000001</ele><time>2026-05-03T07:39:37.748Z</time></trkpt><trkpt lat="41.8384617" lon="12.6316133"><ele>88.60000000000001</ele><time>2026-05-03T07:39:39.749Z</time></trkpt><trkpt lat="41.8385433" lon="12.63154"><ele>88.4</ele><time>2026-05-03T07:39:41.746Z</time></trkpt><trkpt lat="41.8386233" lon="12.6314617"><ele>88.2</ele><time>2026-05-03T07:39:43.746Z</time></trkpt><trkpt lat="41.83871" lon="12.631375"><ele>88.0</ele><time>2026-05-03T07:39:45.747Z</time></trkpt><trkpt lat="41.838795" lon="12.6312717"><ele>88.0</ele><time>2026-05-03T07:39:47.749Z</time></trkpt><trkpt lat="41.8388783" lon="12.6311683"><ele>88.0</ele><time>2026-05-03T07:39:49.749Z</time></trkpt><trkpt lat="41.8389717" lon="12.631075"><ele>88.0</ele><time>2026-05-03T07:39:51.746Z</time></trkpt><trkpt lat="41.839065" lon="12.6310517"><ele>88.0</ele><time>2026-05-03T07:39:53.747Z</time></trkpt><trkpt lat="41.83914" lon="12.631165"><ele>88.0</ele><time>2026-05-03T07:39:55.746Z</time></trkpt><trkpt lat="41.8392" lon="12.6312917"><ele>88.0</ele><time>2026-05-03T07:39:57.748Z</time></trkpt><trkpt lat="41.839265" lon="12.6314033"><ele>88.0</ele><time>2026-05-03T07:39:59.749Z</time></trkpt><trkpt lat="41.8393567" lon="12.6314333"><ele>88.0</ele><time>2026-05-03T07:40:01.747Z</time></trkpt><trkpt lat="41.8394483" lon="12.6313483"><ele>88.0</ele><time>2026-05-03T07:40:03.749Z</time></trkpt><trkpt lat="41.83954" lon="12.6312467"><ele>88.0</ele><time>2026-05-03T07:40:05.748Z</time></trkpt><trkpt lat="41.839635" lon="12.631145"><ele>87.5</ele><time>2026-05-03T07:40:07.747Z</time></trkpt><trkpt lat="41.8397283" lon="12.63105"><ele>87.0</ele><time>2026-05-03T07:40:09.747Z</time></trkpt><trkpt lat="41.8398267" lon="12.63096"><ele>86.5</ele><time>2026-05-03T07:40:11.746Z</time></trkpt><trkpt lat="41.8399183" lon="12.6308683"><ele>86.0</ele><time>2026-05-03T07:40:13.747Z</time></trkpt><trkpt lat="41.8400083" lon="12.6307817"><ele>86.0</ele><time>2026-05-03T07:40:15.749Z</time></trkpt><trkpt lat="41.840095" lon="12.63069"><ele>86.0</ele><time>2026-05-03T07:40:17.746Z</time></trkpt><trkpt lat="41.8401783" lon="12.6305883"><ele>86.0</ele><time>2026-05-03T07:40:19.748Z</time></trkpt><trkpt lat="41.8402633" lon="12.6304833"><ele>86.0</ele><time>2026-05-03T07:40:21.749Z</time></trkpt><trkpt lat="41.84035" lon="12.63038"><ele>85.0</ele><time>2026-05-03T07:40:23.748Z</time></trkpt><trkpt lat="41.84042" lon="12.630265"><ele>84.0</ele><time>2026-05-03T07:40:25.749Z</time></trkpt><trkpt lat="41.8404817" lon="12.6301367"><ele>83.0</ele><time>2026-05-03T07:40:27.749Z</time></trkpt><trkpt lat="41.8405383" lon="12.6300067"><ele>82.0</ele><time>2026-05-03T07:40:29.75Z</time></trkpt><trkpt lat="41.84059" lon="12.6298667"><ele>82.0</ele><time>2026-05-03T07:40:31.746Z</time></trkpt><trkpt lat="41.84064" lon="12.6297233"><ele>82.0</ele><time>2026-05-03T07:40:33.748Z</time></trkpt><trkpt lat="41.8406917" lon="12.6295917"><ele>82.0</ele><time>2026-05-03T07:40:35.746Z</time></trkpt><trkpt lat="41.8407333" lon="12.629445"><ele>82.0</ele><time>2026-05-03T07:40:37.749Z</time></trkpt><trkpt lat="41.8407717" lon="12.6292917"><ele>81.83333333333333</ele><time>2026-05-03T07:40:39.748Z</time></trkpt><trkpt lat="41.8407867" lon="12.6291333"><ele>81.66666666666666</ele><time>2026-05-03T07:40:41.749Z</time></trkpt><trkpt lat="41.8407883" lon="12.6290483"><ele>81.5</ele><time>2026-05-03T07:40:42.749Z</time></trkpt><trkpt lat="41.8407833" lon="12.62888"><ele>81.33333333333333</ele><time>2026-05-03T07:40:44.749Z</time></trkpt><trkpt lat="41.84078" lon="12.62879"><ele>81.16666666666667</ele><time>2026-05-03T07:40:45.749Z</time></trkpt><trkpt lat="41.840785" lon="12.6287"><ele>81.0</ele><time>2026-05-03T07:40:46.749Z</time></trkpt><trkpt lat="41.8407933" lon="12.6286133"><ele>81.0</ele><time>2026-05-03T07:40:47.747Z</time></trkpt><trkpt lat="41.84081" lon="12.6285267"><ele>81.0</ele><time>2026-05-03T07:40:48.748Z</time></trkpt><trkpt lat="41.8408317" lon="12.6284417"><ele>81.0</ele><time>2026-05-03T07:40:49.746Z</time></trkpt><trkpt lat="41.840855" lon="12.628355"><ele>81.0</ele><time>2026-05-03T07:40:50.747Z</time></trkpt><trkpt lat="41.8408817" lon="12.62827"><ele>81.0</ele><time>2026-05-03T07:40:51.746Z</time></trkpt><trkpt lat="41.8409117" lon="12.6281867"><ele>81.0</ele><time>2026-05-03T07:40:52.747Z</time></trkpt><trkpt lat="41.8409417" lon="12.6281"><ele>81.0</ele><time>2026-05-03T07:40:53.749Z</time></trkpt><trkpt lat="41.84097" lon="12.6280133"><ele>81.0</ele><time>2026-05-03T07:40:54.751Z</time></trkpt><trkpt lat="41.8409983" lon="12.6279233"><ele>81.0</ele><time>2026-05-03T07:40:55.748Z</time></trkpt><trkpt lat="41.8410267" lon="12.6278367"><ele>81.0</ele><time>2026-05-03T07:40:56.746Z</time></trkpt><trkpt lat="41.84106" lon="12.6277483"><ele>81.0</ele><time>2026-05-03T07:40:57.749Z</time></trkpt><trkpt lat="41.841085" lon="12.6276567"><ele>81.0</ele><time>2026-05-03T07:40:58.748Z</time></trkpt><trkpt lat="41.8411133" lon="12.6275683"><ele>81.0</ele><time>2026-05-03T07:40:59.749Z</time></trkpt><trkpt lat="41.841145" lon="12.62748"><ele>81.0</ele><time>2026-05-03T07:41:00.748Z</time></trkpt><trkpt lat="41.84118" lon="12.6273933"><ele>81.42857142857143</ele><time>2026-05-03T07:41:01.748Z</time></trkpt><trkpt lat="41.841215" lon="12.6273083"><ele>81.85714285714286</ele><time>2026-05-03T07:41:02.749Z</time></trkpt><trkpt lat="41.841245" lon="12.6272233"><ele>82.28571428571428</ele><time>2026-05-03T07:41:03.748Z</time></trkpt><trkpt lat="41.8412733" lon="12.627135"><ele>82.71428571428572</ele><time>2026-05-03T07:41:04.747Z</time></trkpt><trkpt lat="41.8413017" lon="12.6270467"><ele>83.14285714285714</ele><time>2026-05-03T07:41:05.748Z</time></trkpt><trkpt lat="41.8413283" lon="12.626955"><ele>83.57142857142857</ele><time>2026-05-03T07:41:06.747Z</time></trkpt><trkpt lat="41.84136" lon="12.626865"><ele>84.0</ele><time>2026-05-03T07:41:07.749Z</time></trkpt><trkpt lat="41.84139" lon="12.626775"><ele>84.71428571428571</ele><time>2026-05-03T07:41:08.75Z</time></trkpt><trkpt lat="41.8414233" lon="12.6266867"><ele>85.42857142857143</ele><time>2026-05-03T07:41:09.748Z</time></trkpt><trkpt lat="41.8414533" lon="12.6266033"><ele>86.14285714285714</ele><time>2026-05-03T07:41:10.748Z</time></trkpt><trkpt lat="41.8414883" lon="12.62652"><ele>86.85714285714286</ele><time>2026-05-03T07:41:11.749Z</time></trkpt><trkpt lat="41.8415233" lon="12.6264333"><ele>87.57142857142857</ele><time>2026-05-03T07:41:12.751Z</time></trkpt><trkpt lat="41.8415567" lon="12.626345"><ele>88.28571428571428</ele><time>2026-05-03T07:41:13.748Z</time></trkpt><trkpt lat="41.8415867" lon="12.6262567"><ele>89.0</ele><time>2026-05-03T07:41:14.749Z</time></trkpt><trkpt lat="41.8416183" lon="12.6261667"><ele>88.57142857142857</ele><time>2026-05-03T07:41:15.751Z</time></trkpt><trkpt lat="41.8416467" lon="12.6260833"><ele>88.14285714285714</ele><time>2026-05-03T07:41:16.748Z</time></trkpt><trkpt lat="41.84168" lon="12.626"><ele>87.71428571428572</ele><time>2026-05-03T07:41:17.747Z</time></trkpt><trkpt lat="41.84171" lon="12.6259133"><ele>87.28571428571428</ele><time>2026-05-03T07:41:18.747Z</time></trkpt><trkpt lat="41.84174" lon="12.62583"><ele>86.85714285714286</ele><time>2026-05-03T07:41:19.747Z</time></trkpt><trkpt lat="41.8417717" lon="12.6257467"><ele>86.42857142857143</ele><time>2026-05-03T07:41:20.747Z</time></trkpt><trkpt lat="41.8418033" lon="12.6256633"><ele>86.0</ele><time>2026-05-03T07:41:21.747Z</time></trkpt><trkpt lat="41.84183" lon="12.6255767"><ele>85.28571428571429</ele><time>2026-05-03T07:41:22.747Z</time></trkpt><trkpt lat="41.8418567" lon="12.6254933"><ele>84.57142857142857</ele><time>2026-05-03T07:41:23.747Z</time></trkpt><trkpt lat="41.841885" lon="12.62541"><ele>83.85714285714286</ele><time>2026-05-03T07:41:24.75Z</time></trkpt><trkpt lat="41.8419067" lon="12.6253217"><ele>83.14285714285714</ele><time>2026-05-03T07:41:25.746Z</time></trkpt><trkpt lat="41.8419267" lon="12.6252333"><ele>82.42857142857143</ele><time>2026-05-03T07:41:26.75Z</time></trkpt><trkpt lat="41.8419467" lon="12.6251467"><ele>81.71428571428572</ele><time>2026-05-03T07:41:27.749Z</time></trkpt><trkpt lat="41.8419667" lon="12.625055"><ele>81.0</ele><time>2026-05-03T07:41:28.75Z</time></trkpt><trkpt lat="41.8419783" lon="12.624965"><ele>81.14285714285714</ele><time>2026-05-03T07:41:29.748Z</time></trkpt><trkpt lat="41.8419867" lon="12.6248733"><ele>81.28571428571428</ele><time>2026-05-03T07:41:30.748Z</time></trkpt><trkpt lat="41.8419883" lon="12.6247783"><ele>81.42857142857142</ele><time>2026-05-03T07:41:31.75Z</time></trkpt><trkpt lat="41.841985" lon="12.6246867"><ele>81.57142857142857</ele><time>2026-05-03T07:41:32.75Z</time></trkpt><trkpt lat="41.8419783" lon="12.624595"><ele>81.71428571428571</ele><time>2026-05-03T07:41:33.749Z</time></trkpt><trkpt lat="41.84197" lon="12.6245067"><ele>81.85714285714285</ele><time>2026-05-03T07:41:34.746Z</time></trkpt><trkpt lat="41.8419617" lon="12.6244183"><ele>82.0</ele><time>2026-05-03T07:41:35.748Z</time></trkpt><trkpt lat="41.84195" lon="12.6243267"><ele>81.99999999999999</ele><time>2026-05-03T07:41:36.748Z</time></trkpt><trkpt lat="41.8419367" lon="12.624235"><ele>82.0</ele><time>2026-05-03T07:41:37.749Z</time></trkpt><trkpt lat="41.841925" lon="12.624145"><ele>82.0</ele><time>2026-05-03T07:41:38.748Z</time></trkpt><trkpt lat="41.8419117" lon="12.624055"><ele>82.0</ele><time>2026-05-03T07:41:39.749Z</time></trkpt><trkpt lat="41.8419" lon="12.6239667"><ele>82.0</ele><time>2026-05-03T07:41:40.749Z</time></trkpt><trkpt lat="41.8418917" lon="12.62388"><ele>81.99999999999999</ele><time>2026-05-03T07:41:41.749Z</time></trkpt><trkpt lat="41.8418817" lon="12.62379"><ele>82.0</ele><time>2026-05-03T07:41:42.748Z</time></trkpt><trkpt lat="41.8418717" lon="12.6237033"><ele>82.19999999999999</ele><time>2026-05-03T07:41:43.749Z</time></trkpt><trkpt lat="41.8418483" lon="12.6235367"><ele>82.4</ele><time>2026-05-03T07:41:45.75Z</time></trkpt><trkpt lat="41.8418317" lon="12.62345"><ele>82.6</ele><time>2026-05-03T07:41:46.75Z</time></trkpt><trkpt lat="41.8418033" lon="12.6232917"><ele>82.80000000000001</ele><time>2026-05-03T07:41:48.747Z</time></trkpt><trkpt lat="41.8417783" lon="12.6231367"><ele>83.0</ele><time>2026-05-03T07:41:50.747Z</time></trkpt><trkpt lat="41.8417583" lon="12.6229817"><ele>83.0</ele><time>2026-05-03T07:41:52.747Z</time></trkpt><trkpt lat="41.8417417" lon="12.6228367"><ele>83.0</ele><time>2026-05-03T07:41:54.746Z</time></trkpt><trkpt lat="41.8417717" lon="12.62272"><ele>83.0</ele><time>2026-05-03T07:41:56.749Z</time></trkpt><trkpt lat="41.841865" lon="12.6226667"><ele>83.0</ele><time>2026-05-03T07:41:58.746Z</time></trkpt><trkpt lat="41.8419667" lon="12.6226083"><ele>83.0</ele><time>2026-05-03T07:42:00.747Z</time></trkpt><trkpt lat="41.8420483" lon="12.6225033"><ele>83.0</ele><time>2026-05-03T07:42:02.749Z</time></trkpt><trkpt lat="41.8420617" lon="12.62242"><ele>83.0</ele><time>2026-05-03T07:42:03.746Z</time></trkpt><trkpt lat="41.842055" lon="12.622325"><ele>83.0</ele><time>2026-05-03T07:42:04.746Z</time></trkpt><trkpt lat="41.84204" lon="12.6221667"><ele>83.0</ele><time>2026-05-03T07:42:06.748Z</time></trkpt><trkpt lat="41.8419567" lon="12.6220483"><ele>83.0</ele><time>2026-05-03T07:42:08.747Z</time></trkpt><trkpt lat="41.8418967" lon="12.6220133"><ele>83.0</ele><time>2026-05-03T07:42:09.747Z</time></trkpt><trkpt lat="41.8418317" lon="12.6219967"><ele>82.14285714285714</ele><time>2026-05-03T07:42:10.747Z</time></trkpt><trkpt lat="41.841765" lon="12.6219883"><ele>81.28571428571429</ele><time>2026-05-03T07:42:11.747Z</time></trkpt><trkpt lat="41.8416967" lon="12.6219867"><ele>80.42857142857143</ele><time>2026-05-03T07:42:12.746Z</time></trkpt><trkpt lat="41.84163" lon="12.6219817"><ele>79.57142857142857</ele><time>2026-05-03T07:42:13.747Z</time></trkpt><trkpt lat="41.8415633" lon="12.621975"><ele>78.71428571428572</ele><time>2026-05-03T07:42:14.746Z</time></trkpt><trkpt lat="41.8415" lon="12.62197"><ele>77.85714285714286</ele><time>2026-05-03T07:42:15.749Z</time></trkpt><trkpt lat="41.841435" lon="12.6219483"><ele>77.0</ele><time>2026-05-03T07:42:16.748Z</time></trkpt><trkpt lat="41.8413783" lon="12.6219033"><ele>76.66666666666667</ele><time>2026-05-03T07:42:17.75Z</time></trkpt><trkpt lat="41.84134" lon="12.6218333"><ele>76.33333333333334</ele><time>2026-05-03T07:42:18.748Z</time></trkpt><trkpt lat="41.8413267" lon="12.621745"><ele>76.0</ele><time>2026-05-03T07:42:19.749Z</time></trkpt><trkpt lat="41.8413417" lon="12.62158"><ele>75.66666666666667</ele><time>2026-05-03T07:42:21.749Z</time></trkpt><trkpt lat="41.84138" lon="12.6215"><ele>75.33333333333333</ele><time>2026-05-03T07:42:22.75Z</time></trkpt><trkpt lat="41.84142" lon="12.6214217"><ele>75.0</ele><time>2026-05-03T07:42:23.749Z</time></trkpt><trkpt lat="41.84145" lon="12.621345"><ele>74.99999999999999</ele><time>2026-05-03T07:42:24.746Z</time></trkpt><trkpt lat="41.8414717" lon="12.62126"><ele>75.0</ele><time>2026-05-03T07:42:25.749Z</time></trkpt><trkpt lat="41.841475" lon="12.621175"><ele>75.0</ele><time>2026-05-03T07:42:26.748Z</time></trkpt><trkpt lat="41.8414633" lon="12.6210833"><ele>75.0</ele><time>2026-05-03T07:42:27.749Z</time></trkpt><trkpt lat="41.84145" lon="12.621"><ele>75.0</ele><time>2026-05-03T07:42:28.75Z</time></trkpt><trkpt lat="41.8414483" lon="12.6209133"><ele>74.99999999999999</ele><time>2026-05-03T07:42:29.747Z</time></trkpt><trkpt lat="41.8414667" lon="12.6208233"><ele>75.0</ele><time>2026-05-03T07:42:30.751Z</time></trkpt><trkpt lat="41.8414967" lon="12.6207383"><ele>75.14285714285714</ele><time>2026-05-03T07:42:31.75Z</time></trkpt><trkpt lat="41.8415417" lon="12.620665"><ele>75.28571428571428</ele><time>2026-05-03T07:42:32.749Z</time></trkpt><trkpt lat="41.841595" lon="12.620605"><ele>75.42857142857142</ele><time>2026-05-03T07:42:33.749Z</time></trkpt><trkpt lat="41.8416533" lon="12.6205567"><ele>75.57142857142857</ele><time>2026-05-03T07:42:34.75Z</time></trkpt><trkpt lat="41.8417183" lon="12.6205217"><ele>75.71428571428572</ele><time>2026-05-03T07:42:35.749Z</time></trkpt><trkpt lat="41.8417833" lon="12.6204933"><ele>75.85714285714285</ele><time>2026-05-03T07:42:36.751Z</time></trkpt><trkpt lat="41.8418483" lon="12.6204633"><ele>76.0</ele><time>2026-05-03T07:42:37.749Z</time></trkpt><trkpt lat="41.8419133" lon="12.6204283"><ele>75.57142857142857</ele><time>2026-05-03T07:42:38.747Z</time></trkpt><trkpt lat="41.8419767" lon="12.6203917"><ele>75.14285714285715</ele><time>2026-05-03T07:42:39.75Z</time></trkpt><trkpt lat="41.84204" lon="12.6203667"><ele>74.71428571428572</ele><time>2026-05-03T07:42:40.748Z</time></trkpt><trkpt lat="41.8421133" lon="12.6203633"><ele>74.28571428571428</ele><time>2026-05-03T07:42:41.749Z</time></trkpt><trkpt lat="41.8421783" lon="12.6203317"><ele>73.85714285714286</ele><time>2026-05-03T07:42:42.749Z</time></trkpt><trkpt lat="41.8422417" lon="12.6202967"><ele>73.42857142857143</ele><time>2026-05-03T07:42:43.746Z</time></trkpt><trkpt lat="41.8423033" lon="12.6202533"><ele>73.0</ele><time>2026-05-03T07:42:44.751Z</time></trkpt><trkpt lat="41.8423633" lon="12.6202083"><ele>72.71428571428571</ele><time>2026-05-03T07:42:45.751Z</time></trkpt><trkpt lat="41.8424267" lon="12.620175"><ele>72.42857142857143</ele><time>2026-05-03T07:42:46.749Z</time></trkpt><trkpt lat="41.8424933" lon="12.6201467"><ele>72.14285714285714</ele><time>2026-05-03T07:42:47.748Z</time></trkpt><trkpt lat="41.8425517" lon="12.62011"><ele>71.85714285714286</ele><time>2026-05-03T07:42:48.749Z</time></trkpt><trkpt lat="41.842615" lon="12.6200783"><ele>71.57142857142857</ele><time>2026-05-03T07:42:49.749Z</time></trkpt><trkpt lat="41.8426783" lon="12.6200483"><ele>71.28571428571428</ele><time>2026-05-03T07:42:50.749Z</time></trkpt><trkpt lat="41.8427433" lon="12.620015"><ele>71.0</ele><time>2026-05-03T07:42:51.748Z</time></trkpt><trkpt lat="41.8428133" lon="12.61998"><ele>70.85714285714286</ele><time>2026-05-03T07:42:52.749Z</time></trkpt><trkpt lat="41.84288" lon="12.61994"><ele>70.71428571428571</ele><time>2026-05-03T07:42:53.749Z</time></trkpt><trkpt lat="41.8429467" lon="12.619905"><ele>70.57142857142857</ele><time>2026-05-03T07:42:54.748Z</time></trkpt><trkpt lat="41.8430167" lon="12.6198717"><ele>70.42857142857143</ele><time>2026-05-03T07:42:55.748Z</time></trkpt><trkpt lat="41.8430833" lon="12.6198367"><ele>70.28571428571428</ele><time>2026-05-03T07:42:56.749Z</time></trkpt><trkpt lat="41.8431483" lon="12.6198033"><ele>70.14285714285714</ele><time>2026-05-03T07:42:57.749Z</time></trkpt><trkpt lat="41.843215" lon="12.6197683"><ele>70.0</ele><time>2026-05-03T07:42:58.749Z</time></trkpt><trkpt lat="41.8432833" lon="12.6197367"><ele>70.0</ele><time>2026-05-03T07:42:59.749Z</time></trkpt><trkpt lat="41.84335" lon="12.6197033"><ele>70.0</ele><time>2026-05-03T07:43:00.748Z</time></trkpt><trkpt lat="41.8434183" lon="12.6196733"><ele>70.0</ele><time>2026-05-03T07:43:01.749Z</time></trkpt><trkpt lat="41.843485" lon="12.6196367"><ele>70.0</ele><time>2026-05-03T07:43:02.748Z</time></trkpt><trkpt lat="41.84355" lon="12.6195983"><ele>70.0</ele><time>2026-05-03T07:43:03.75Z</time></trkpt><trkpt lat="41.8436133" lon="12.6195617"><ele>70.0</ele><time>2026-05-03T07:43:04.749Z</time></trkpt><trkpt lat="41.8436783" lon="12.619535"><ele>70.0</ele><time>2026-05-03T07:43:05.749Z</time></trkpt><trkpt lat="41.8437433" lon="12.6195067"><ele>70.42857142857143</ele><time>2026-05-03T07:43:06.748Z</time></trkpt><trkpt lat="41.84381" lon="12.6194717"><ele>70.85714285714286</ele><time>2026-05-03T07:43:07.748Z</time></trkpt><trkpt lat="41.8438717" lon="12.6194283"><ele>71.28571428571428</ele><time>2026-05-03T07:43:08.749Z</time></trkpt><trkpt lat="41.843935" lon="12.6193833"><ele>71.71428571428572</ele><time>2026-05-03T07:43:09.749Z</time></trkpt><trkpt lat="41.844" lon="12.6193433"><ele>72.14285714285714</ele><time>2026-05-03T07:43:10.75Z</time></trkpt><trkpt lat="41.8440667" lon="12.619305"><ele>72.57142857142857</ele><time>2026-05-03T07:43:11.749Z</time></trkpt><trkpt lat="41.8441267" lon="12.61927"><ele>73.0</ele><time>2026-05-03T07:43:12.747Z</time></trkpt><trkpt lat="41.84419" lon="12.6192367"><ele>73.0</ele><time>2026-05-03T07:43:13.749Z</time></trkpt><trkpt lat="41.8442567" lon="12.6191967"><ele>73.0</ele><time>2026-05-03T07:43:14.749Z</time></trkpt><trkpt lat="41.8443183" lon="12.61916"><ele>73.0</ele><time>2026-05-03T07:43:15.75Z</time></trkpt><trkpt lat="41.84438" lon="12.6191233"><ele>73.0</ele><time>2026-05-03T07:43:16.749Z</time></trkpt><trkpt lat="41.8444433" lon="12.6190917"><ele>73.0</ele><time>2026-05-03T07:43:17.749Z</time></trkpt><trkpt lat="41.844505" lon="12.6190567"><ele>73.0</ele><time>2026-05-03T07:43:18.749Z</time></trkpt><trkpt lat="41.8445683" lon="12.6190267"><ele>73.0</ele><time>2026-05-03T07:43:19.748Z</time></trkpt><trkpt lat="41.8446317" lon="12.6189883"><ele>72.85714285714286</ele><time>2026-05-03T07:43:20.749Z</time></trkpt><trkpt lat="41.8446917" lon="12.6189467"><ele>72.71428571428572</ele><time>2026-05-03T07:43:21.749Z</time></trkpt><trkpt lat="41.844755" lon="12.618905"><ele>72.57142857142858</ele><time>2026-05-03T07:43:22.749Z</time></trkpt><trkpt lat="41.84481" lon="12.6188533"><ele>72.42857142857143</ele><time>2026-05-03T07:43:23.747Z</time></trkpt><trkpt lat="41.8448567" lon="12.6187917"><ele>72.28571428571429</ele><time>2026-05-03T07:43:24.748Z</time></trkpt><trkpt lat="41.8448967" lon="12.618725"><ele>72.14285714285715</ele><time>2026-05-03T07:43:25.75Z</time></trkpt><trkpt lat="41.8449317" lon="12.6186517"><ele>72.0</ele><time>2026-05-03T07:43:26.749Z</time></trkpt><trkpt lat="41.8449667" lon="12.6185783"><ele>72.28571428571429</ele><time>2026-05-03T07:43:27.749Z</time></trkpt><trkpt lat="41.8449933" lon="12.6185"><ele>72.57142857142857</ele><time>2026-05-03T07:43:28.75Z</time></trkpt><trkpt lat="41.84502" lon="12.618415"><ele>72.85714285714286</ele><time>2026-05-03T07:43:29.75Z</time></trkpt><trkpt lat="41.8450483" lon="12.6183367"><ele>73.14285714285714</ele><time>2026-05-03T07:43:30.749Z</time></trkpt><trkpt lat="41.8451083" lon="12.6181917"><ele>73.42857142857143</ele><time>2026-05-03T07:43:32.749Z</time></trkpt><trkpt lat="41.8451367" lon="12.618115"><ele>73.71428571428572</ele><time>2026-05-03T07:43:33.749Z</time></trkpt><trkpt lat="41.8451633" lon="12.6180383"><ele>74.0</ele><time>2026-05-03T07:43:34.749Z</time></trkpt><trkpt lat="41.8451867" lon="12.6179583"><ele>74.0</ele><time>2026-05-03T07:43:35.746Z</time></trkpt><trkpt lat="41.845245" lon="12.6178067"><ele>74.0</ele><time>2026-05-03T07:43:37.748Z</time></trkpt><trkpt lat="41.845275" lon="12.6177317"><ele>74.0</ele><time>2026-05-03T07:43:38.749Z</time></trkpt><trkpt lat="41.845335" lon="12.61759"><ele>74.0</ele><time>2026-05-03T07:43:40.749Z</time></trkpt><trkpt lat="41.84538" lon="12.61744"><ele>74.0</ele><time>2026-05-03T07:43:42.748Z</time></trkpt><trkpt lat="41.845435" lon="12.6173"><ele>74.0</ele><time>2026-05-03T07:43:44.747Z</time></trkpt><trkpt lat="41.8454867" lon="12.6171617"><ele>74.0</ele><time>2026-05-03T07:43:46.749Z</time></trkpt><trkpt lat="41.845535" lon="12.6170183"><ele>74.0</ele><time>2026-05-03T07:43:48.748Z</time></trkpt><trkpt lat="41.84559" lon="12.61688"><ele>74.0</ele><time>2026-05-03T07:43:50.749Z</time></trkpt><trkpt lat="41.8456417" lon="12.6167417"><ele>74.0</ele><time>2026-05-03T07:43:52.748Z</time></trkpt><trkpt lat="41.84569" lon="12.61661"><ele>74.0</ele><time>2026-05-03T07:43:54.75Z</time></trkpt><trkpt lat="41.84573" lon="12.61648"><ele>74.0</ele><time>2026-05-03T07:43:56.75Z</time></trkpt><trkpt lat="41.8457733" lon="12.6163533"><ele>74.0</ele><time>2026-05-03T07:43:58.749Z</time></trkpt><trkpt lat="41.845815" lon="12.6162317"><ele>74.0</ele><time>2026-05-03T07:44:00.749Z</time></trkpt><trkpt lat="41.8458617" lon="12.6161133"><ele>74.2</ele><time>2026-05-03T07:44:02.749Z</time></trkpt><trkpt lat="41.8458983" lon="12.6159833"><ele>74.4</ele><time>2026-05-03T07:44:04.75Z</time></trkpt><trkpt lat="41.8459383" lon="12.6158617"><ele>74.6</ele><time>2026-05-03T07:44:06.748Z</time></trkpt><trkpt lat="41.8459767" lon="12.615735"><ele>74.8</ele><time>2026-05-03T07:44:08.75Z</time></trkpt><trkpt lat="41.8460233" lon="12.6156033"><ele>75.0</ele><time>2026-05-03T07:44:10.75Z</time></trkpt><trkpt lat="41.8460683" lon="12.6154717"><ele>75.0</ele><time>2026-05-03T07:44:12.75Z</time></trkpt><trkpt lat="41.846115" lon="12.6153417"><ele>75.0</ele><time>2026-05-03T07:44:14.749Z</time></trkpt><trkpt lat="41.8461633" lon="12.6152083"><ele>75.0</ele><time>2026-05-03T07:44:16.749Z</time></trkpt><trkpt lat="41.8462183" lon="12.6150817"><ele>75.0</ele><time>2026-05-03T07:44:18.749Z</time></trkpt><trkpt lat="41.8462583" lon="12.6149533"><ele>75.0</ele><time>2026-05-03T07:44:20.75Z</time></trkpt><trkpt lat="41.8463033" lon="12.6148217"><ele>74.6</ele><time>2026-05-03T07:44:22.749Z</time></trkpt><trkpt lat="41.8463417" lon="12.6146967"><ele>74.2</ele><time>2026-05-03T07:44:24.75Z</time></trkpt><trkpt lat="41.84639" lon="12.6145733"><ele>73.8</ele><time>2026-05-03T07:44:26.752Z</time></trkpt><trkpt lat="41.8464433" lon="12.6144433"><ele>73.4</ele><time>2026-05-03T07:44:28.75Z</time></trkpt><trkpt lat="41.8464833" lon="12.61431"><ele>73.0</ele><time>2026-05-03T07:44:30.751Z</time></trkpt><trkpt lat="41.8465333" lon="12.614175"><ele>73.0</ele><time>2026-05-03T07:44:32.749Z</time></trkpt><trkpt lat="41.8465783" lon="12.6140483"><ele>73.0</ele><time>2026-05-03T07:44:34.749Z</time></trkpt><trkpt lat="41.84663" lon="12.6139283"><ele>73.0</ele><time>2026-05-03T07:44:36.751Z</time></trkpt><trkpt lat="41.8466817" lon="12.6138083"><ele>73.0</ele><time>2026-05-03T07:44:38.75Z</time></trkpt><trkpt lat="41.8467317" lon="12.6136883"><ele>73.0</ele><time>2026-05-03T07:44:40.75Z</time></trkpt><trkpt lat="41.84678" lon="12.6135667"><ele>72.6</ele><time>2026-05-03T07:44:42.75Z</time></trkpt><trkpt lat="41.8468233" lon="12.6134433"><ele>72.19999999999999</ele><time>2026-05-03T07:44:44.75Z</time></trkpt><trkpt lat="41.846845" lon="12.613315"><ele>71.8</ele><time>2026-05-03T07:44:46.749Z</time></trkpt><trkpt lat="41.8468467" lon="12.6131833"><ele>71.39999999999999</ele><time>2026-05-03T07:44:48.749Z</time></trkpt><trkpt lat="41.8468333" lon="12.6130517"><ele>71.0</ele><time>2026-05-03T07:44:50.749Z</time></trkpt><trkpt lat="41.8468117" lon="12.6129267"><ele>72.0</ele><time>2026-05-03T07:44:52.75Z</time></trkpt><trkpt lat="41.8467767" lon="12.6128017"><ele>73.0</ele><time>2026-05-03T07:44:54.749Z</time></trkpt><trkpt lat="41.8467183" lon="12.6126933"><ele>74.0</ele><time>2026-05-03T07:44:56.749Z</time></trkpt><trkpt lat="41.8466433" lon="12.6126"><ele>75.0</ele><time>2026-05-03T07:44:58.749Z</time></trkpt><trkpt lat="41.8465667" lon="12.6125167"><ele>76.0</ele><time>2026-05-03T07:45:00.75Z</time></trkpt><trkpt lat="41.84649" lon="12.6124433"><ele>76.0</ele><time>2026-05-03T07:45:02.749Z</time></trkpt><trkpt lat="41.8464133" lon="12.61236"><ele>76.0</ele><time>2026-05-03T07:45:04.75Z</time></trkpt><trkpt lat="41.8463383" lon="12.6122833"><ele>76.0</ele><time>2026-05-03T07:45:06.751Z</time></trkpt><trkpt lat="41.846265" lon="12.61221"><ele>76.0</ele><time>2026-05-03T07:45:08.749Z</time></trkpt><trkpt lat="41.8461933" lon="12.6121317"><ele>76.0</ele><time>2026-05-03T07:45:10.749Z</time></trkpt><trkpt lat="41.84612" lon="12.612045"><ele>76.39999999999999</ele><time>2026-05-03T07:45:12.749Z</time></trkpt><trkpt lat="41.8460483" lon="12.61196"><ele>76.8</ele><time>2026-05-03T07:45:14.749Z</time></trkpt><trkpt lat="41.8459767" lon="12.6118833"><ele>77.19999999999999</ele><time>2026-05-03T07:45:16.748Z</time></trkpt><trkpt lat="41.8459033" lon="12.6118017"><ele>77.6</ele><time>2026-05-03T07:45:18.748Z</time></trkpt><trkpt lat="41.8458533" lon="12.61171"><ele>78.0</ele><time>2026-05-03T07:45:20.749Z</time></trkpt><trkpt lat="41.8458017" lon="12.61162"><ele>78.33333333333333</ele><time>2026-05-03T07:45:22.746Z</time></trkpt><trkpt lat="41.84574" lon="12.61156"><ele>78.66666666666667</ele><time>2026-05-03T07:45:24.748Z</time></trkpt><trkpt lat="41.8456717" lon="12.6114967"><ele>79.0</ele><time>2026-05-03T07:45:26.749Z</time></trkpt><trkpt lat="41.8456067" lon="12.61144"><ele>79.33333333333334</ele><time>2026-05-03T07:45:28.749Z</time></trkpt><trkpt lat="41.8455383" lon="12.61138"><ele>79.66666666666667</ele><time>2026-05-03T07:45:30.748Z</time></trkpt><trkpt lat="41.845475" lon="12.6113183"><ele>80.0</ele><time>2026-05-03T07:45:32.748Z</time></trkpt><trkpt lat="41.8454183" lon="12.6112617"><ele>80.0</ele><time>2026-05-03T07:45:34.749Z</time></trkpt><trkpt lat="41.8453783" lon="12.61119"><ele>80.0</ele><time>2026-05-03T07:45:36.749Z</time></trkpt><trkpt lat="41.8453117" lon="12.61111"><ele>80.0</ele><time>2026-05-03T07:45:39.75Z</time></trkpt><trkpt lat="41.845265" lon="12.6110517"><ele>80.0</ele><time>2026-05-03T07:45:41.75Z</time></trkpt><trkpt lat="41.84523" lon="12.6109633"><ele>80.0</ele><time>2026-05-03T07:45:43.747Z</time></trkpt><trkpt lat="41.84522" lon="12.6108683"><ele>80.0</ele><time>2026-05-03T07:45:45.749Z</time></trkpt><trkpt lat="41.8452333" lon="12.6107683"><ele>80.0</ele><time>2026-05-03T07:45:47.75Z</time></trkpt><trkpt lat="41.84527" lon="12.6106667"><ele>79.8</ele><time>2026-05-03T07:45:49.749Z</time></trkpt><trkpt lat="41.8453017" lon="12.610565"><ele>79.6</ele><time>2026-05-03T07:45:51.75Z</time></trkpt><trkpt lat="41.8453367" lon="12.6104567"><ele>79.4</ele><time>2026-05-03T07:45:53.749Z</time></trkpt><trkpt lat="41.845375" lon="12.6103417"><ele>79.2</ele><time>2026-05-03T07:45:55.747Z</time></trkpt><trkpt lat="41.8454167" lon="12.6102317"><ele>79.0</ele><time>2026-05-03T07:45:57.749Z</time></trkpt><trkpt lat="41.84546" lon="12.6101067"><ele>79.0</ele><time>2026-05-03T07:45:59.748Z</time></trkpt><trkpt lat="41.845505" lon="12.609985"><ele>79.0</ele><time>2026-05-03T07:46:01.749Z</time></trkpt><trkpt lat="41.8455483" lon="12.6098683"><ele>79.0</ele><time>2026-05-03T07:46:03.749Z</time></trkpt><trkpt lat="41.8455917" lon="12.60975"><ele>79.0</ele><time>2026-05-03T07:46:05.75Z</time></trkpt><trkpt lat="41.8456317" lon="12.60962"><ele>79.0</ele><time>2026-05-03T07:46:07.749Z</time></trkpt><trkpt lat="41.8456767" lon="12.6094883"><ele>78.75</ele><time>2026-05-03T07:46:09.749Z</time></trkpt><trkpt lat="41.8457167" lon="12.6093433"><ele>78.5</ele><time>2026-05-03T07:46:11.747Z</time></trkpt><trkpt lat="41.845765" lon="12.6092033"><ele>78.25</ele><time>2026-05-03T07:46:13.75Z</time></trkpt><trkpt lat="41.8458117" lon="12.609065"><ele>78.0</ele><time>2026-05-03T07:46:15.75Z</time></trkpt><trkpt lat="41.84586" lon="12.6089317"><ele>78.0</ele><time>2026-05-03T07:46:17.75Z</time></trkpt><trkpt lat="41.84591" lon="12.6088"><ele>78.0</ele><time>2026-05-03T07:46:19.749Z</time></trkpt><trkpt lat="41.84597" lon="12.6086633"><ele>78.0</ele><time>2026-05-03T07:46:21.75Z</time></trkpt><trkpt lat="41.8460217" lon="12.6085217"><ele>78.0</ele><time>2026-05-03T07:46:23.75Z</time></trkpt><trkpt lat="41.84607" lon="12.6083733"><ele>78.0</ele><time>2026-05-03T07:46:25.748Z</time></trkpt><trkpt lat="41.84612" lon="12.6082267"><ele>78.0</ele><time>2026-05-03T07:46:27.747Z</time></trkpt><trkpt lat="41.8461783" lon="12.6080883"><ele>78.0</ele><time>2026-05-03T07:46:29.749Z</time></trkpt><trkpt lat="41.846225" lon="12.6079383"><ele>78.0</ele><time>2026-05-03T07:46:31.746Z</time></trkpt><trkpt lat="41.8462767" lon="12.60779"><ele>78.0</ele><time>2026-05-03T07:46:33.749Z</time></trkpt><trkpt lat="41.8463083" lon="12.6077167"><ele>78.0</ele><time>2026-05-03T07:46:34.748Z</time></trkpt><trkpt lat="41.846365" lon="12.607565"><ele>78.0</ele><time>2026-05-03T07:46:36.75Z</time></trkpt><trkpt lat="41.846395" lon="12.6074867"><ele>78.0</ele><time>2026-05-03T07:46:37.749Z</time></trkpt><trkpt lat="41.846425" lon="12.6074067"><ele>78.0</ele><time>2026-05-03T07:46:38.75Z</time></trkpt><trkpt lat="41.8464533" lon="12.607325"><ele>78.0</ele><time>2026-05-03T07:46:39.75Z</time></trkpt><trkpt lat="41.846485" lon="12.6072483"><ele>78.0</ele><time>2026-05-03T07:46:40.75Z</time></trkpt><trkpt lat="41.8465183" lon="12.60717"><ele>78.0</ele><time>2026-05-03T07:46:41.749Z</time></trkpt><trkpt lat="41.8465517" lon="12.60709"><ele>78.0</ele><time>2026-05-03T07:46:42.75Z</time></trkpt><trkpt lat="41.8465817" lon="12.6070083"><ele>78.0</ele><time>2026-05-03T07:46:43.749Z</time></trkpt><trkpt lat="41.8466133" lon="12.6069267"><ele>78.0</ele><time>2026-05-03T07:46:44.748Z</time></trkpt><trkpt lat="41.8466433" lon="12.6068383"><ele>78.0</ele><time>2026-05-03T07:46:45.75Z</time></trkpt><trkpt lat="41.846675" lon="12.6067533"><ele>78.0</ele><time>2026-05-03T07:46:46.75Z</time></trkpt><trkpt lat="41.8467083" lon="12.606665"><ele>78.0</ele><time>2026-05-03T07:46:47.747Z</time></trkpt><trkpt lat="41.84674" lon="12.6065767"><ele>78.0</ele><time>2026-05-03T07:46:48.748Z</time></trkpt><trkpt lat="41.846775" lon="12.6064933"><ele>78.0</ele><time>2026-05-03T07:46:49.747Z</time></trkpt><trkpt lat="41.846805" lon="12.6064117"><ele>78.0</ele><time>2026-05-03T07:46:50.748Z</time></trkpt><trkpt lat="41.8468467" lon="12.60626"><ele>78.0</ele><time>2026-05-03T07:46:52.748Z</time></trkpt><trkpt lat="41.8468883" lon="12.60614"><ele>78.0</ele><time>2026-05-03T07:46:54.747Z</time></trkpt><trkpt lat="41.8469583" lon="12.6060883"><ele>77.16666666666667</ele><time>2026-05-03T07:46:56.747Z</time></trkpt><trkpt lat="41.8470383" lon="12.606115"><ele>76.33333333333333</ele><time>2026-05-03T07:46:58.747Z</time></trkpt><trkpt lat="41.8471067" lon="12.60612"><ele>75.5</ele><time>2026-05-03T07:47:00.748Z</time></trkpt><trkpt lat="41.8471667" lon="12.6060817"><ele>74.66666666666666</ele><time>2026-05-03T07:47:02.75Z</time></trkpt><trkpt lat="41.847205" lon="12.6059967"><ele>73.83333333333333</ele><time>2026-05-03T07:47:04.75Z</time></trkpt><trkpt lat="41.84721" lon="12.6058583"><ele>73.0</ele><time>2026-05-03T07:47:07.746Z</time></trkpt><trkpt lat="41.8471717" lon="12.60574"><ele>73.0</ele><time>2026-05-03T07:47:09.748Z</time></trkpt><trkpt lat="41.8471167" lon="12.605645"><ele>73.0</ele><time>2026-05-03T07:47:11.75Z</time></trkpt><trkpt lat="41.84709" lon="12.6055283"><ele>73.0</ele><time>2026-05-03T07:47:13.75Z</time></trkpt><trkpt lat="41.8471183" lon="12.6053967"><ele>73.0</ele><time>2026-05-03T07:47:15.748Z</time></trkpt><trkpt lat="41.8471333" lon="12.60526"><ele>73.0</ele><time>2026-05-03T07:47:17.747Z</time></trkpt><trkpt lat="41.8471517" lon="12.6051083"><ele>72.0</ele><time>2026-05-03T07:47:19.749Z</time></trkpt><trkpt lat="41.847185" lon="12.60497"><ele>71.0</ele><time>2026-05-03T07:47:21.748Z</time></trkpt><trkpt lat="41.847225" lon="12.60483"><ele>70.0</ele><time>2026-05-03T07:47:23.749Z</time></trkpt><trkpt lat="41.8472617" lon="12.6046717"><ele>69.0</ele><time>2026-05-03T07:47:25.749Z</time></trkpt><trkpt lat="41.8472767" lon="12.6045883"><ele>68.0</ele><time>2026-05-03T07:47:26.75Z</time></trkpt><trkpt lat="41.8473167" lon="12.6044317"><ele>67.75</ele><time>2026-05-03T07:47:28.749Z</time></trkpt><trkpt lat="41.84738" lon="12.6042983"><ele>67.5</ele><time>2026-05-03T07:47:30.75Z</time></trkpt><trkpt lat="41.847435" lon="12.6041467"><ele>67.25</ele><time>2026-05-03T07:47:32.75Z</time></trkpt><trkpt lat="41.8474533" lon="12.6039883"><ele>67.0</ele><time>2026-05-03T07:47:34.75Z</time></trkpt><trkpt lat="41.8474717" lon="12.60384"><ele>67.0</ele><time>2026-05-03T07:47:36.751Z</time></trkpt><trkpt lat="41.8475083" lon="12.6037"><ele>67.0</ele><time>2026-05-03T07:47:38.748Z</time></trkpt><trkpt lat="41.8475433" lon="12.6035667"><ele>67.0</ele><time>2026-05-03T07:47:40.747Z</time></trkpt><trkpt lat="41.8475767" lon="12.6034317"><ele>67.0</ele><time>2026-05-03T07:47:42.75Z</time></trkpt><trkpt lat="41.8476083" lon="12.6032967"><ele>67.0</ele><time>2026-05-03T07:47:44.747Z</time></trkpt><trkpt lat="41.847645" lon="12.6031667"><ele>67.0</ele><time>2026-05-03T07:47:46.749Z</time></trkpt><trkpt lat="41.8476883" lon="12.6030433"><ele>67.0</ele><time>2026-05-03T07:47:48.747Z</time></trkpt><trkpt lat="41.8477367" lon="12.60292"><ele>67.0</ele><time>2026-05-03T07:47:50.748Z</time></trkpt><trkpt lat="41.847775" lon="12.6027917"><ele>67.0</ele><time>2026-05-03T07:47:52.749Z</time></trkpt><trkpt lat="41.8478067" lon="12.602675"><ele>67.0</ele><time>2026-05-03T07:47:54.751Z</time></trkpt><trkpt lat="41.8478317" lon="12.602545"><ele>67.6</ele><time>2026-05-03T07:47:56.749Z</time></trkpt><trkpt lat="41.84786" lon="12.60242"><ele>68.2</ele><time>2026-05-03T07:47:58.746Z</time></trkpt><trkpt lat="41.8479017" lon="12.6022933"><ele>68.8</ele><time>2026-05-03T07:48:00.75Z</time></trkpt><trkpt lat="41.847935" lon="12.6021567"><ele>69.4</ele><time>2026-05-03T07:48:02.749Z</time></trkpt><trkpt lat="41.847965" lon="12.6020267"><ele>70.0</ele><time>2026-05-03T07:48:04.747Z</time></trkpt><trkpt lat="41.848" lon="12.6018967"><ele>70.4</ele><time>2026-05-03T07:48:06.749Z</time></trkpt><trkpt lat="41.8480267" lon="12.601775"><ele>70.8</ele><time>2026-05-03T07:48:08.749Z</time></trkpt><trkpt lat="41.8480467" lon="12.6016533"><ele>71.2</ele><time>2026-05-03T07:48:10.748Z</time></trkpt><trkpt lat="41.8480667" lon="12.6015317"><ele>71.6</ele><time>2026-05-03T07:48:12.746Z</time></trkpt><trkpt lat="41.8480867" lon="12.6014133"><ele>72.0</ele><time>2026-05-03T07:48:14.749Z</time></trkpt><trkpt lat="41.848105" lon="12.6013033"><ele>72.0</ele><time>2026-05-03T07:48:16.747Z</time></trkpt><trkpt lat="41.8481133" lon="12.6011917"><ele>72.0</ele><time>2026-05-03T07:48:18.749Z</time></trkpt><trkpt lat="41.848135" lon="12.6010817"><ele>72.0</ele><time>2026-05-03T07:48:20.751Z</time></trkpt><trkpt lat="41.848165" lon="12.60096"><ele>72.0</ele><time>2026-05-03T07:48:22.749Z</time></trkpt><trkpt lat="41.84819" lon="12.600835"><ele>72.0</ele><time>2026-05-03T07:48:24.749Z</time></trkpt><trkpt lat="41.8482017" lon="12.6007083"><ele>72.6</ele><time>2026-05-03T07:48:26.749Z</time></trkpt><trkpt lat="41.8482183" lon="12.6005733"><ele>73.2</ele><time>2026-05-03T07:48:28.749Z</time></trkpt><trkpt lat="41.8482433" lon="12.6004483"><ele>73.8</ele><time>2026-05-03T07:48:30.746Z</time></trkpt><trkpt lat="41.8482633" lon="12.60033"><ele>74.4</ele><time>2026-05-03T07:48:32.748Z</time></trkpt><trkpt lat="41.8482683" lon="12.6001917"><ele>75.0</ele><time>2026-05-03T07:48:34.747Z</time></trkpt><trkpt lat="41.8482783" lon="12.6000567"><ele>75.2</ele><time>2026-05-03T07:48:36.749Z</time></trkpt><trkpt lat="41.8482833" lon="12.5999133"><ele>75.4</ele><time>2026-05-03T07:48:38.749Z</time></trkpt><trkpt lat="41.8482917" lon="12.5997717"><ele>75.6</ele><time>2026-05-03T07:48:40.749Z</time></trkpt><trkpt lat="41.8483033" lon="12.59964"><ele>75.8</ele><time>2026-05-03T07:48:42.746Z</time></trkpt><trkpt lat="41.8483183" lon="12.5994883"><ele>76.0</ele><time>2026-05-03T07:48:44.749Z</time></trkpt><trkpt lat="41.8483333" lon="12.599345"><ele>75.25</ele><time>2026-05-03T07:48:46.746Z</time></trkpt><trkpt lat="41.84835" lon="12.5992033"><ele>74.5</ele><time>2026-05-03T07:48:48.749Z</time></trkpt><trkpt lat="41.8483733" lon="12.5990517"><ele>73.75</ele><time>2026-05-03T07:48:50.748Z</time></trkpt><trkpt lat="41.8484033" lon="12.5989033"><ele>73.0</ele><time>2026-05-03T07:48:52.749Z</time></trkpt><trkpt lat="41.8484367" lon="12.5987517"><ele>73.25</ele><time>2026-05-03T07:48:54.75Z</time></trkpt><trkpt lat="41.8484667" lon="12.598595"><ele>73.5</ele><time>2026-05-03T07:48:56.749Z</time></trkpt><trkpt lat="41.8484867" lon="12.5984317"><ele>73.75</ele><time>2026-05-03T07:48:58.747Z</time></trkpt><trkpt lat="41.8485033" lon="12.598275"><ele>74.0</ele><time>2026-05-03T07:49:00.747Z</time></trkpt><trkpt lat="41.8485183" lon="12.5981233"><ele>74.0</ele><time>2026-05-03T07:49:02.748Z</time></trkpt><trkpt lat="41.84853" lon="12.597975"><ele>74.0</ele><time>2026-05-03T07:49:04.747Z</time></trkpt><trkpt lat="41.8485517" lon="12.597825"><ele>74.0</ele><time>2026-05-03T07:49:06.75Z</time></trkpt><trkpt lat="41.848585" lon="12.5976767"><ele>74.0</ele><time>2026-05-03T07:49:08.751Z</time></trkpt><trkpt lat="41.8486083" lon="12.5975383"><ele>74.0</ele><time>2026-05-03T07:49:10.747Z</time></trkpt><trkpt lat="41.8486333" lon="12.597405"><ele>74.0</ele><time>2026-05-03T07:49:12.748Z</time></trkpt><trkpt lat="41.84865" lon="12.5972783"><ele>74.0</ele><time>2026-05-03T07:49:14.749Z</time></trkpt><trkpt lat="41.84866" lon="12.5971583"><ele>74.0</ele><time>2026-05-03T07:49:16.748Z</time></trkpt><trkpt lat="41.8486583" lon="12.5970417"><ele>74.0</ele><time>2026-05-03T07:49:18.747Z</time></trkpt><trkpt lat="41.8486583" lon="12.5969333"><ele>74.0</ele><time>2026-05-03T07:49:20.747Z</time></trkpt><trkpt lat="41.8486417" lon="12.5968417"><ele>74.0</ele><time>2026-05-03T07:49:22.747Z</time></trkpt><trkpt lat="41.848625" lon="12.5967533"><ele>74.0</ele><time>2026-05-03T07:49:24.751Z</time></trkpt><trkpt lat="41.8486067" lon="12.5966317"><ele>74.0</ele><time>2026-05-03T07:49:27.749Z</time></trkpt><trkpt lat="41.84859" lon="12.59655"><ele>74.0</ele><time>2026-05-03T07:49:29.748Z</time></trkpt><trkpt lat="41.84857" lon="12.596465"><ele>74.0</ele><time>2026-05-03T07:49:31.748Z</time></trkpt><trkpt lat="41.8485417" lon="12.5963833"><ele>74.0</ele><time>2026-05-03T07:49:33.748Z</time></trkpt><trkpt lat="41.848505" lon="12.596305"><ele>74.0</ele><time>2026-05-03T07:49:35.75Z</time></trkpt><trkpt lat="41.8484683" lon="12.5962317"><ele>74.0</ele><time>2026-05-03T07:49:37.749Z</time></trkpt><trkpt lat="41.848425" lon="12.59616"><ele>73.0</ele><time>2026-05-03T07:49:39.749Z</time></trkpt><trkpt lat="41.84838" lon="12.596075"><ele>72.0</ele><time>2026-05-03T07:49:41.75Z</time></trkpt><trkpt lat="41.848335" lon="12.59598"><ele>71.0</ele><time>2026-05-03T07:49:43.749Z</time></trkpt><trkpt lat="41.8482817" lon="12.5958717"><ele>70.0</ele><time>2026-05-03T07:49:45.75Z</time></trkpt><trkpt lat="41.8482217" lon="12.59576"><ele>69.0</ele><time>2026-05-03T07:49:47.749Z</time></trkpt><trkpt lat="41.8481567" lon="12.59565"><ele>69.0</ele><time>2026-05-03T07:49:49.748Z</time></trkpt><trkpt lat="41.84809" lon="12.5955317"><ele>69.0</ele><time>2026-05-03T07:49:51.749Z</time></trkpt><trkpt lat="41.84802" lon="12.5954117"><ele>69.0</ele><time>2026-05-03T07:49:53.749Z</time></trkpt><trkpt lat="41.8479517" lon="12.595275"><ele>69.0</ele><time>2026-05-03T07:49:55.748Z</time></trkpt><trkpt lat="41.8479067" lon="12.5952033"><ele>69.0</ele><time>2026-05-03T07:49:56.748Z</time></trkpt><trkpt lat="41.847865" lon="12.5951217"><ele>70.16666666666667</ele><time>2026-05-03T07:49:57.748Z</time></trkpt><trkpt lat="41.8478217" lon="12.59504"><ele>71.33333333333333</ele><time>2026-05-03T07:49:58.748Z</time></trkpt><trkpt lat="41.8477767" lon="12.5949533"><ele>72.5</ele><time>2026-05-03T07:49:59.749Z</time></trkpt><trkpt lat="41.8477333" lon="12.5948567"><ele>73.66666666666666</ele><time>2026-05-03T07:50:00.749Z</time></trkpt><trkpt lat="41.84768" lon="12.5947567"><ele>74.83333333333333</ele><time>2026-05-03T07:50:01.748Z</time></trkpt><trkpt lat="41.847625" lon="12.5946583"><ele>76.0</ele><time>2026-05-03T07:50:02.749Z</time></trkpt><trkpt lat="41.8475767" lon="12.5945517"><ele>75.0</ele><time>2026-05-03T07:50:03.749Z</time></trkpt><trkpt lat="41.8475333" lon="12.594435"><ele>74.0</ele><time>2026-05-03T07:50:04.749Z</time></trkpt><trkpt lat="41.8475017" lon="12.5943183"><ele>73.0</ele><time>2026-05-03T07:50:05.748Z</time></trkpt><trkpt lat="41.8474717" lon="12.594195"><ele>72.0</ele><time>2026-05-03T07:50:06.749Z</time></trkpt><trkpt lat="41.8474517" lon="12.5940767"><ele>71.0</ele><time>2026-05-03T07:50:07.749Z</time></trkpt><trkpt lat="41.8474317" lon="12.593945"><ele>71.0</ele><time>2026-05-03T07:50:08.749Z</time></trkpt><trkpt lat="41.8474183" lon="12.5938183"><ele>71.0</ele><time>2026-05-03T07:50:09.749Z</time></trkpt><trkpt lat="41.8474033" lon="12.5936983"><ele>71.0</ele><time>2026-05-03T07:50:10.749Z</time></trkpt><trkpt lat="41.84739" lon="12.5935767"><ele>71.0</ele><time>2026-05-03T07:50:11.749Z</time></trkpt><trkpt lat="41.8473767" lon="12.5934517"><ele>71.0</ele><time>2026-05-03T07:50:12.748Z</time></trkpt><trkpt lat="41.8473583" lon="12.5933283"><ele>70.39999999999999</ele><time>2026-05-03T07:50:13.749Z</time></trkpt><trkpt lat="41.8473383" lon="12.5932067"><ele>69.8</ele><time>2026-05-03T07:50:14.748Z</time></trkpt><trkpt lat="41.8473233" lon="12.5930917"><ele>69.19999999999999</ele><time>2026-05-03T07:50:15.747Z</time></trkpt><trkpt lat="41.847305" lon="12.59297"><ele>68.6</ele><time>2026-05-03T07:50:16.747Z</time></trkpt><trkpt lat="41.847285" lon="12.5928517"><ele>68.0</ele><time>2026-05-03T07:50:17.746Z</time></trkpt><trkpt lat="41.8472583" lon="12.592735"><ele>68.0</ele><time>2026-05-03T07:50:18.75Z</time></trkpt><trkpt lat="41.84722" lon="12.5926217"><ele>68.0</ele><time>2026-05-03T07:50:19.748Z</time></trkpt><trkpt lat="41.847175" lon="12.592515"><ele>68.0</ele><time>2026-05-03T07:50:20.75Z</time></trkpt><trkpt lat="41.847125" lon="12.5924083"><ele>68.0</ele><time>2026-05-03T07:50:21.749Z</time></trkpt><trkpt lat="41.84708" lon="12.5923017"><ele>68.0</ele><time>2026-05-03T07:50:22.749Z</time></trkpt><trkpt lat="41.84703" lon="12.592205"><ele>68.0</ele><time>2026-05-03T07:50:23.748Z</time></trkpt><trkpt lat="41.846985" lon="12.5921083"><ele>68.0</ele><time>2026-05-03T07:50:24.749Z</time></trkpt><trkpt lat="41.84694" lon="12.5920117"><ele>68.0</ele><time>2026-05-03T07:50:25.749Z</time></trkpt><trkpt lat="41.8469" lon="12.5919133"><ele>68.0</ele><time>2026-05-03T07:50:26.749Z</time></trkpt><trkpt lat="41.84687" lon="12.5918083"><ele>68.0</ele><time>2026-05-03T07:50:27.749Z</time></trkpt><trkpt lat="41.8468567" lon="12.5917033"><ele>68.0</ele><time>2026-05-03T07:50:28.748Z</time></trkpt><trkpt lat="41.8468533" lon="12.5916"><ele>67.83333333333334</ele><time>2026-05-03T07:50:29.749Z</time></trkpt><trkpt lat="41.8468567" lon="12.5915033"><ele>67.66666666666667</ele><time>2026-05-03T07:50:30.749Z</time></trkpt><trkpt lat="41.84687" lon="12.5914183"><ele>67.5</ele><time>2026-05-03T07:50:31.75Z</time></trkpt><trkpt lat="41.8469333" lon="12.591275"><ele>67.33333333333333</ele><time>2026-05-03T07:50:33.749Z</time></trkpt><trkpt lat="41.8469767" lon="12.59121"><ele>67.16666666666666</ele><time>2026-05-03T07:50:34.749Z</time></trkpt><trkpt lat="41.8470183" lon="12.59114"><ele>67.0</ele><time>2026-05-03T07:50:35.752Z</time></trkpt><trkpt lat="41.8470583" lon="12.5910633"><ele>67.0</ele><time>2026-05-03T07:50:36.747Z</time></trkpt><trkpt lat="41.8470883" lon="12.59098"><ele>67.0</ele><time>2026-05-03T07:50:37.749Z</time></trkpt><trkpt lat="41.8471117" lon="12.5909"><ele>67.0</ele><time>2026-05-03T07:50:38.749Z</time></trkpt><trkpt lat="41.8471267" lon="12.5908167"><ele>67.0</ele><time>2026-05-03T07:50:39.749Z</time></trkpt><trkpt lat="41.84714" lon="12.5907333"><ele>67.0</ele><time>2026-05-03T07:50:40.75Z</time></trkpt><trkpt lat="41.8471783" lon="12.5905767"><ele>67.0</ele><time>2026-05-03T07:50:42.749Z</time></trkpt><trkpt lat="41.8472133" lon="12.590505"><ele>67.0</ele><time>2026-05-03T07:50:43.748Z</time></trkpt><trkpt lat="41.8472517" lon="12.5904367"><ele>67.0</ele><time>2026-05-03T07:50:44.75Z</time></trkpt><trkpt lat="41.8472883" lon="12.5903667"><ele>67.0</ele><time>2026-05-03T07:50:45.748Z</time></trkpt><trkpt lat="41.84736" lon="12.59023"><ele>67.0</ele><time>2026-05-03T07:50:47.748Z</time></trkpt><trkpt lat="41.8474317" lon="12.5900933"><ele>67.0</ele><time>2026-05-03T07:50:49.75Z</time></trkpt><trkpt lat="41.847505" lon="12.58997"><ele>67.0</ele><time>2026-05-03T07:50:51.75Z</time></trkpt><trkpt lat="41.8475717" lon="12.5898333"><ele>66.6</ele><time>2026-05-03T07:50:53.748Z</time></trkpt><trkpt lat="41.8476417" lon="12.5897017"><ele>66.2</ele><time>2026-05-03T07:50:55.75Z</time></trkpt><trkpt lat="41.84771" lon="12.589565"><ele>65.8</ele><time>2026-05-03T07:50:57.75Z</time></trkpt><trkpt lat="41.8477783" lon="12.58942"><ele>65.4</ele><time>2026-05-03T07:50:59.749Z</time></trkpt><trkpt lat="41.84781" lon="12.5893433"><ele>65.0</ele><time>2026-05-03T07:51:00.748Z</time></trkpt><trkpt lat="41.8478467" lon="12.5892733"><ele>64.42857142857143</ele><time>2026-05-03T07:51:01.749Z</time></trkpt><trkpt lat="41.8478833" lon="12.5892017"><ele>63.85714285714286</ele><time>2026-05-03T07:51:02.748Z</time></trkpt><trkpt lat="41.84792" lon="12.5891317"><ele>63.285714285714285</ele><time>2026-05-03T07:51:03.749Z</time></trkpt><trkpt lat="41.847955" lon="12.58906"><ele>62.714285714285715</ele><time>2026-05-03T07:51:04.75Z</time></trkpt><trkpt lat="41.84799" lon="12.5889883"><ele>62.14285714285714</ele><time>2026-05-03T07:51:05.748Z</time></trkpt><trkpt lat="41.8480267" lon="12.5889183"><ele>61.57142857142856</ele><time>2026-05-03T07:51:06.749Z</time></trkpt><trkpt lat="41.848095" lon="12.5887783"><ele>60.99999999999999</ele><time>2026-05-03T07:51:08.75Z</time></trkpt><trkpt lat="41.8481333" lon="12.58871"><ele>61.28571428571428</ele><time>2026-05-03T07:51:09.75Z</time></trkpt><trkpt lat="41.84817" lon="12.5886383"><ele>61.57142857142857</ele><time>2026-05-03T07:51:10.748Z</time></trkpt><trkpt lat="41.8482083" lon="12.5885667"><ele>61.857142857142854</ele><time>2026-05-03T07:51:11.749Z</time></trkpt><trkpt lat="41.8482433" lon="12.5884933"><ele>62.14285714285714</ele><time>2026-05-03T07:51:12.749Z</time></trkpt><trkpt lat="41.848275" lon="12.588415"><ele>62.42857142857143</ele><time>2026-05-03T07:51:13.75Z</time></trkpt><trkpt lat="41.8483067" lon="12.5883367"><ele>62.714285714285715</ele><time>2026-05-03T07:51:14.75Z</time></trkpt><trkpt lat="41.84834" lon="12.5882633"><ele>63.0</ele><time>2026-05-03T07:51:15.75Z</time></trkpt><trkpt lat="41.848405" lon="12.5881183"><ele>63.0</ele><time>2026-05-03T07:51:17.749Z</time></trkpt><trkpt lat="41.84844" lon="12.5880433"><ele>63.0</ele><time>2026-05-03T07:51:18.75Z</time></trkpt><trkpt lat="41.84851" lon="12.5879117"><ele>63.0</ele><time>2026-05-03T07:51:20.749Z</time></trkpt><trkpt lat="41.8485833" lon="12.5877883"><ele>63.0</ele><time>2026-05-03T07:51:22.749Z</time></trkpt><trkpt lat="41.8486517" lon="12.5876567"><ele>63.0</ele><time>2026-05-03T07:51:24.75Z</time></trkpt><trkpt lat="41.84872" lon="12.587525"><ele>64.0</ele><time>2026-05-03T07:51:26.75Z</time></trkpt><trkpt lat="41.848785" lon="12.58742"><ele>65.0</ele><time>2026-05-03T07:51:28.749Z</time></trkpt><trkpt lat="41.8488283" lon="12.587345"><ele>66.0</ele><time>2026-05-03T07:51:30.748Z</time></trkpt><trkpt lat="41.8488683" lon="12.5874217"><ele>67.0</ele><time>2026-05-03T07:51:41.75Z</time></trkpt><trkpt lat="41.84889" lon="12.5873167"><ele>68.0</ele><time>2026-05-03T07:53:33.75Z</time></trkpt><trkpt lat="41.8489517" lon="12.5872167"><ele>69.0</ele><time>2026-05-03T07:53:37.75Z</time></trkpt><trkpt lat="41.849005" lon="12.587165"><ele>69.0</ele><time>2026-05-03T07:53:39.75Z</time></trkpt><trkpt lat="41.8490817" lon="12.5870817"><ele>69.0</ele><time>2026-05-03T07:53:42.749Z</time></trkpt><trkpt lat="41.8491517" lon="12.58703"><ele>69.0</ele><time>2026-05-03T07:53:44.748Z</time></trkpt><trkpt lat="41.84924" lon="12.5869733"><ele>69.0</ele><time>2026-05-03T07:53:46.75Z</time></trkpt><trkpt lat="41.84934" lon="12.5869083"><ele>69.0</ele><time>2026-05-03T07:53:48.748Z</time></trkpt><trkpt lat="41.849445" lon="12.5868583"><ele>67.75</ele><time>2026-05-03T07:53:50.747Z</time></trkpt><trkpt lat="41.8495517" lon="12.5868117"><ele>66.5</ele><time>2026-05-03T07:53:52.747Z</time></trkpt><trkpt lat="41.849655" lon="12.5867567"><ele>65.25</ele><time>2026-05-03T07:53:54.751Z</time></trkpt><trkpt lat="41.84977" lon="12.5867233"><ele>64.0</ele><time>2026-05-03T07:53:56.748Z</time></trkpt><trkpt lat="41.8498833" lon="12.5866883"><ele>64.0</ele><time>2026-05-03T07:53:58.749Z</time></trkpt><trkpt lat="41.85" lon="12.5866667"><ele>64.0</ele><time>2026-05-03T07:54:00.749Z</time></trkpt><trkpt lat="41.8501217" lon="12.5866417"><ele>64.0</ele><time>2026-05-03T07:54:02.748Z</time></trkpt><trkpt lat="41.850245" lon="12.5866133"><ele>64.0</ele><time>2026-05-03T07:54:04.75Z</time></trkpt><trkpt lat="41.8503067" lon="12.586585"><ele>64.0</ele><time>2026-05-03T07:54:05.751Z</time></trkpt><trkpt lat="41.8503717" lon="12.5865667"><ele>62.857142857142854</ele><time>2026-05-03T07:54:06.751Z</time></trkpt><trkpt lat="41.85044" lon="12.5865533"><ele>61.71428571428571</ele><time>2026-05-03T07:54:07.748Z</time></trkpt><trkpt lat="41.85051" lon="12.5865383"><ele>60.57142857142857</ele><time>2026-05-03T07:54:08.749Z</time></trkpt><trkpt lat="41.8505817" lon="12.586525"><ele>59.42857142857143</ele><time>2026-05-03T07:54:09.75Z</time></trkpt><trkpt lat="41.8506517" lon="12.5865067"><ele>58.285714285714285</ele><time>2026-05-03T07:54:10.75Z</time></trkpt><trkpt lat="41.8507233" lon="12.5865"><ele>57.14285714285714</ele><time>2026-05-03T07:54:11.75Z</time></trkpt><trkpt lat="41.8507967" lon="12.586495"><ele>56.0</ele><time>2026-05-03T07:54:12.748Z</time></trkpt><trkpt lat="41.85087" lon="12.5864883"><ele>56.00000000000001</ele><time>2026-05-03T07:54:13.749Z</time></trkpt><trkpt lat="41.8509467" lon="12.586475"><ele>56.0</ele><time>2026-05-03T07:54:14.747Z</time></trkpt><trkpt lat="41.8510217" lon="12.5864617"><ele>56.0</ele><time>2026-05-03T07:54:15.751Z</time></trkpt><trkpt lat="41.8510917" lon="12.5864383"><ele>56.0</ele><time>2026-05-03T07:54:16.75Z</time></trkpt><trkpt lat="41.8511667" lon="12.5864233"><ele>56.00000000000001</ele><time>2026-05-03T07:54:17.747Z</time></trkpt><trkpt lat="41.8512433" lon="12.5864067"><ele>56.0</ele><time>2026-05-03T07:54:18.747Z</time></trkpt><trkpt lat="41.851315" lon="12.586395"><ele>56.0</ele><time>2026-05-03T07:54:19.75Z</time></trkpt><trkpt lat="41.8513867" lon="12.58638"><ele>56.0</ele><time>2026-05-03T07:54:20.749Z</time></trkpt><trkpt lat="41.85146" lon="12.5863617"><ele>56.0</ele><time>2026-05-03T07:54:21.75Z</time></trkpt><trkpt lat="41.8515317" lon="12.5863467"><ele>56.0</ele><time>2026-05-03T07:54:22.75Z</time></trkpt><trkpt lat="41.8516033" lon="12.5863333"><ele>56.0</ele><time>2026-05-03T07:54:23.748Z</time></trkpt><trkpt lat="41.85167" lon="12.5863183"><ele>56.0</ele><time>2026-05-03T07:54:24.749Z</time></trkpt><trkpt lat="41.851735" lon="12.5863017"><ele>56.0</ele><time>2026-05-03T07:54:25.749Z</time></trkpt><trkpt lat="41.8517983" lon="12.586285"><ele>57.599999999999994</ele><time>2026-05-03T07:54:26.749Z</time></trkpt><trkpt lat="41.851915" lon="12.5862433"><ele>59.199999999999996</ele><time>2026-05-03T07:54:28.747Z</time></trkpt><trkpt lat="41.8520217" lon="12.5862267"><ele>60.800000000000004</ele><time>2026-05-03T07:54:30.747Z</time></trkpt><trkpt lat="41.85212" lon="12.5862117"><ele>62.400000000000006</ele><time>2026-05-03T07:54:32.748Z</time></trkpt><trkpt lat="41.852195" lon="12.5862383"><ele>64.0</ele><time>2026-05-03T07:54:34.748Z</time></trkpt><trkpt lat="41.852275" lon="12.5863183"><ele>63.99999999999999</ele><time>2026-05-03T07:54:36.747Z</time></trkpt><trkpt lat="41.8523417" lon="12.58639"><ele>64.0</ele><time>2026-05-03T07:54:38.747Z</time></trkpt><trkpt lat="41.8524183" lon="12.58639"><ele>64.0</ele><time>2026-05-03T07:54:41.747Z</time></trkpt><trkpt lat="41.8524617" lon="12.5864583"><ele>64.0</ele><time>2026-05-03T07:54:46.747Z</time></trkpt><trkpt lat="41.85249" lon="12.5865533"><ele>63.99999999999999</ele><time>2026-05-03T07:54:49.748Z</time></trkpt><trkpt lat="41.85249" lon="12.586645"><ele>64.0</ele><time>2026-05-03T07:54:51.747Z</time></trkpt><trkpt lat="41.85251" lon="12.586755"><ele>64.0</ele><time>2026-05-03T07:54:54.747Z</time></trkpt></trkseg></trk></gpx>